GFSCGP_sfc_wetblb_000.txt.gz
Wetbulb
39.74 35.89 34.32 39.25 37.87 39.72 33.22 32.67 32.90 36.13 40.12 37.56 37.26 38.74 41.67 44.62 41.93 39.25 41.51 43.64 44.99 45.21 47.57 44.79 43.17 43.42 42.40 41.73 40.80 39.53 39.06 38.59 39.22 37.63 36.48 35.37 36.04 34.49 32.58 33.04 33.76 32.87 32.99 32.86
36.05 33.85 39.94 40.71 38.26 37.66 36.62 35.41 35.25 38.45 39.86 36.16 37.66 37.60 41.07 41.34 43.40 44.23 43.95 44.10 43.97 45.02 46.54 41.44 41.21 40.15 40.91 41.35 40.14 38.81 39.14 38.13 39.53 39.68 39.11 36.41 35.03 31.65 33.67 33.14 33.26 33.09 32.55 31.86
37.80 38.89 41.42 39.38 36.96 35.71 36.00 34.68 35.71 35.40 36.28 35.06 33.65 34.81 34.94 39.08 41.22 43.31 42.29 43.99 45.49 46.17 46.54 43.04 39.91 38.91 38.95 38.93 38.59 38.27 38.89 38.50 39.54 39.05 36.33 32.25 31.60 30.22 29.44 30.50 30.90 31.09 31.29 31.23
36.08 40.83 39.64 36.86 36.15 38.25 35.47 37.97 37.46 34.52 31.42 30.42 33.13 29.83 33.11 36.73 38.30 40.03 41.32 42.22 43.15 44.20 44.04 43.11 39.32 36.91 37.44 38.65 38.35 38.53 38.56 38.31 38.70 37.99 36.19 33.88 35.72 33.39 32.72 33.18 30.77 29.48 30.54 30.49
35.52 35.77 35.72 35.16 38.35 38.23 37.68 36.54 34.97 32.35 29.87 28.67 28.88 27.56 31.79 35.85 34.75 38.14 41.88 42.16 43.21 44.36 41.39 40.15 38.83 39.96 38.58 36.63 36.92 37.75 37.60 37.80 37.49 36.67 37.02 35.17 34.86 35.11 30.09 29.30 29.00 29.76 28.80 29.78
35.73 35.97 36.64 37.02 36.39 36.80 36.25 34.91 32.55 29.67 28.85 26.19 30.88 30.49 31.46 31.57 35.58 37.01 40.58 42.29 42.85 44.28 40.69 39.69 39.07 37.99 35.31 34.16 35.87 36.45 36.07 36.36 35.68 36.05 35.65 35.00 34.73 31.09 29.98 29.65 29.95 29.15 29.16 28.68
32.00 33.65 34.31 37.55 33.87 33.89 34.75 32.21 24.07 21.27 19.63 24.00 31.11 26.42 35.98 35.83 40.06 39.05 40.84 42.19 43.08 43.19 37.70 37.53 37.20 36.47 34.97 34.16 34.34 35.35 35.19 35.15 34.73 34.88 35.13 34.80 34.55 32.31 32.03 30.32 30.78 29.21 28.38 27.87
28.27 30.17 33.99 36.10 36.27 33.22 32.77 33.88 28.49 19.19 22.08 29.68 25.21 25.36 33.90 38.55 40.44 40.46 40.60 40.94 39.82 39.10 38.79 38.70 37.25 37.44 36.18 35.38 34.19 35.32 34.85 35.19 35.01 34.90 35.51 34.99 34.64 32.93 33.17 31.21 31.29 30.48 30.05 29.51
29.37 31.13 34.53 35.06 35.16 37.12 29.85 28.78 35.73 27.55 15.34 19.08 30.66 32.95 37.55 36.58 38.66 38.21 38.79 38.88 38.70 38.02 38.42 37.81 36.06 35.92 35.26 34.19 34.89 35.13 34.74 35.43 35.04 34.82 35.11 34.13 34.16 33.02 32.94 30.91 30.88 30.62 29.66 28.08
33.72 30.71 35.31 32.05 33.84 33.24 34.28 35.39 27.52 26.33 21.27 18.30 26.04 28.18 33.30 36.18 37.25 36.86 38.05 38.65 38.61 37.66 36.32 36.05 35.77 35.64 34.34 34.98 35.20 35.03 35.33 35.54 34.63 34.21 34.37 33.54 33.33 32.43 32.79 28.59 28.99 28.92 27.49 26.29
36.57 34.02 32.54 31.15 30.81 32.08 30.83 30.91 31.29 31.40 29.29 27.10 25.69 30.16 34.69 35.20 33.55 35.71 38.19 40.00 37.33 37.39 37.89 37.71 37.22 35.94 34.61 33.81 33.68 34.27 34.58 33.82 32.91 33.25 33.90 32.71 31.71 31.59 30.85 28.47 28.17 27.18 26.72 25.99
38.59 35.44 31.11 33.65 35.83 33.88 33.18 34.09 35.18 29.66 26.95 26.79 27.32 29.65 41.68 41.76 41.32 41.66 41.03 40.12 38.37 37.76 38.38 38.22 38.78 36.77 34.70 34.28 33.23 34.35 35.20 34.41 35.04 34.30 33.64 32.15 31.74 30.75 29.44 28.55 27.98 26.72 26.28 25.62
40.45 34.79 29.86 30.79 34.57 35.55 30.28 32.77 34.09 33.82 30.04 29.63 26.22 28.74 42.14 42.33 41.28 42.54 41.02 42.06 39.37 38.67 38.03 38.50 38.42 38.38 38.66 36.99 35.75 35.07 34.92 34.75 34.49 33.05 32.06 30.83 30.17 29.85 30.22 28.94 26.78 26.11 25.47 24.53
42.47 36.81 32.98 28.09 32.06 34.31 31.69 31.68 31.97 32.51 28.72 29.52 29.69 32.18 37.19 39.55 40.55 42.39 42.69 42.94 38.53 40.54 39.20 39.81 40.12 40.64 38.57 38.44 37.72 35.45 35.16 35.26 33.42 32.25 31.30 30.90 30.09 29.90 29.85 28.77 26.35 26.04 25.28 23.78
39.73 33.50 35.15 35.42 36.62 36.46 35.87 35.19 35.66 33.43 34.72 30.39 33.14 33.39 36.94 39.76 41.10 42.54 44.07 44.35 42.28 38.88 38.90 41.10 40.13 40.74 40.75 37.40 36.83 36.61 36.55 35.17 33.94 32.39 30.97 31.04 30.68 29.91 29.06 26.09 25.10 24.87 24.05 23.67
36.52 32.30 34.89 32.66 35.10 33.67 32.34 34.83 35.50 34.86 35.06 34.82 34.94 34.13 41.41 42.76 43.31 42.37 43.05 43.54 43.20 42.25 41.44 41.02 39.22 37.83 37.83 39.65 39.61 36.39 35.60 34.18 32.27 31.56 30.80 30.97 29.10 27.70 26.46 24.72 24.11 22.98 22.35 21.32
32.22 31.23 30.29 27.35 31.31 30.12 26.68 32.92 33.78 34.62 36.17 35.71 31.21 35.92 35.49 34.24 36.40 40.12 40.40 35.32 35.57 36.62 36.89 36.70 36.81 38.37 37.77 40.15 39.08 36.14 35.53 32.89 30.06 31.07 30.51 28.74 27.51 25.55 23.78 23.50 22.27 21.20 20.56 19.78
30.77 29.73 29.92 25.56 28.07 19.55 30.96 36.55 37.18 35.08 36.61 37.34 32.74 29.53 29.51 28.18 30.31 34.73 35.52 34.20 32.96 33.81 34.34 36.09 36.79 37.50 38.22 39.79 37.21 35.60 30.16 29.71 30.09 30.45 29.30 26.89 25.27 23.85 22.01 21.45 20.87 20.66 20.18 18.88
31.74 30.25 26.12 23.17 22.37 28.01 31.56 30.07 28.50 28.20 28.05 28.62 26.35 26.36 26.76 27.26 27.67 32.94 31.97 31.73 32.30 33.69 35.03 35.51 37.05 37.09 36.19 34.76 34.08 31.16 26.05 26.44 26.97 27.66 27.63 26.27 25.01 23.48 20.72 20.48 20.50 20.26 19.22 18.35
27.67 27.06 23.24 20.03 15.22 15.98 21.41 24.63 27.27 29.45 25.54 28.20 26.84 26.13 25.68 25.91 18.71 22.63 29.93 32.24 33.81 35.57 36.08 36.16 36.10 35.88 35.64 34.15 29.41 26.36 24.40 23.05 24.90 25.92 25.61 24.54 24.13 22.70 20.66 20.61 19.65 19.55 19.06 18.10
8.08 10.38 12.45 15.61 14.58 19.73 23.51 25.85 28.51 18.32 16.30 26.73 26.24 25.20 24.34 22.46 25.09 27.87 30.28 32.58 33.50 34.03 34.40 34.95 34.77 34.16 35.10 32.27 27.76 27.57 22.78 22.91 22.72 22.22 20.31 18.93 19.96 19.89 19.09 18.89 18.34 17.37 17.06 15.86
13.59 12.39 9.85 12.69 5.80 9.94 24.52 22.32 14.71 20.91 27.17 27.90 26.18 25.73 25.77 25.65 26.14 28.19 29.75 28.11 28.12 28.75 30.68 32.18 31.95 32.86 34.56 33.94 27.46 28.68 26.43 23.04 18.34 18.79 17.51 17.76 17.83 18.43 18.14 15.55 15.52 15.32 15.44 14.12
8.92 15.78 8.40 16.87 15.92 24.08 25.81 24.53 27.08 28.33 22.80 23.32 24.26 24.97 22.86 23.46 24.59 24.01 22.46 23.36 24.34 25.53 26.78 28.92 30.33 31.19 32.80 33.81 28.78 27.08 29.54 19.69 16.58 18.87 18.89 17.86 15.05 16.13 16.48 15.20 13.69 12.89 13.50 13.56
17.26 21.50 14.65 13.41 19.95 20.97 23.66 25.50 26.90 26.23 24.69 23.89 22.80 20.97 22.02 20.09 19.74 19.30 19.72 20.29 21.02 23.02 23.76 24.30 24.44 25.69 27.29 30.71 32.43 31.09 30.41 22.23 19.11 19.05 17.50 16.26 14.83 14.21 14.37 14.06 13.73 13.27 12.98 13.19
17.50 19.32 15.78 16.27 21.02 22.45 23.56 23.85 22.80 23.25 23.45 21.55 21.09 19.83 19.01 17.74 16.95 17.12 16.73 16.99 18.95 18.59 18.46 19.46 18.45 18.33 19.25 23.18 28.09 32.03 31.79 22.24 20.00 18.45 16.83 15.53 15.07 13.12 13.41 14.25 13.51 14.17 14.68 16.00
21.67 19.18 16.16 14.29 22.75 22.33 23.21 25.18 22.94 21.42 19.46 18.51 17.53 16.61 17.43 17.15 15.88 15.86 14.83 16.36 15.76 14.72 15.15 14.00 13.81 14.69 16.20 18.52 20.13 22.44 28.79 22.38 21.52 17.75 15.57 14.24 13.99 12.61 12.92 12.50 12.09 19.99 19.46 20.61

GFSCGP_sfc_wetblb_003.txt.gz
Wetbulb
38.22 34.92 33.32 38.02 37.00 38.91 32.48 31.75 31.34 35.10 38.70 34.60 35.86 37.80 39.99 43.04 42.48 43.43 43.61 42.35 44.16 44.81 47.24 47.67 42.67 41.95 41.24 39.71 40.22 39.92 38.73 39.01 39.59 37.53 36.41 36.46 36.80 36.19 35.16 34.59 34.85 34.35 33.72 33.28
34.48 32.83 39.35 38.75 37.19 35.65 34.40 33.74 33.88 38.07 39.69 34.35 36.54 36.67 39.05 39.58 41.71 43.26 44.29 44.38 44.85 44.98 45.56 46.00 40.86 39.77 39.73 41.05 40.30 39.55 38.95 38.26 39.38 39.44 39.77 36.55 38.24 33.56 35.25 33.93 33.04 33.23 32.54 32.00
37.02 37.79 39.92 37.85 35.64 34.19 34.15 32.91 35.04 34.56 35.29 34.30 32.91 34.76 36.44 37.41 38.64 41.79 43.25 44.22 44.43 44.12 44.52 45.72 40.42 38.99 38.42 38.66 39.16 38.92 39.03 37.96 39.46 39.33 36.85 31.62 30.94 29.85 29.50 30.03 31.68 31.76 31.92 31.66
35.18 39.32 38.27 34.89 34.08 36.34 34.41 36.48 36.42 34.16 29.98 29.28 32.26 28.96 31.95 37.49 39.39 40.08 41.00 42.26 41.78 43.14 44.15 43.70 40.29 38.12 38.04 40.11 38.84 38.46 38.51 37.51 39.00 38.51 36.79 35.81 35.21 34.32 33.85 35.25 33.69 30.77 31.04 30.63
34.30 33.55 33.28 33.72 36.96 36.47 35.49 36.10 33.76 30.65 28.62 27.80 28.16 25.38 31.03 34.36 35.52 36.96 39.40 40.45 42.05 43.19 42.58 42.73 38.91 39.79 38.94 37.09 36.04 36.72 37.04 37.33 38.25 37.92 37.92 36.38 36.23 36.14 30.43 29.57 29.04 30.19 28.95 29.71
35.22 35.15 36.44 36.24 35.38 36.41 35.44 33.08 30.89 28.39 28.33 24.02 29.73 28.89 33.73 31.85 35.36 35.70 38.27 40.48 41.32 41.57 42.10 39.51 39.07 38.33 36.25 33.95 34.46 35.46 35.75 36.36 36.97 37.28 36.91 36.06 36.35 32.10 30.89 30.02 30.31 29.78 29.56 28.74
31.03 32.31 33.39 36.84 33.27 32.51 33.15 30.02 23.16 20.63 19.19 23.29 29.06 26.32 35.98 36.19 37.52 38.28 41.23 39.02 39.94 39.84 39.08 42.12 38.63 37.68 34.96 32.99 33.60 34.70 35.24 35.21 35.25 35.80 35.99 35.52 35.68 33.50 32.68 30.67 31.62 29.50 28.76 28.24
27.87 30.32 32.92 35.25 35.29 32.49 31.09 31.68 24.84 17.49 20.55 28.10 25.21 24.24 35.56 38.43 39.19 37.94 38.18 38.74 38.35 39.19 40.08 37.54 38.96 36.66 34.59 33.98 33.24 34.41 34.62 34.66 34.50 35.29 35.50 35.44 35.18 34.60 33.45 31.76 31.87 30.64 30.68 30.23
27.07 28.52 31.98 33.83 34.53 36.83 30.19 28.18 34.03 27.54 23.28 23.52 30.11 32.24 37.50 36.77 37.14 35.78 36.95 36.40 37.91 38.13 38.58 37.22 37.56 35.19 34.55 32.78 32.73 33.80 33.83 34.79 34.43 34.69 34.95 34.47 34.31 34.04 33.08 30.78 30.97 31.03 30.29 29.44
33.77 28.53 33.47 31.47 32.53 33.34 33.82 34.53 26.42 25.21 19.00 19.36 25.88 29.49 32.48 36.53 39.64 36.62 36.69 36.45 38.40 39.16 38.50 37.71 36.98 35.67 34.24 33.66 33.57 33.44 33.51 34.13 33.58 33.74 34.61 34.44 33.93 34.13 33.05 29.82 30.01 30.03 29.44 27.77
35.76 34.00 33.05 32.31 30.80 34.17 28.84 28.69 29.70 30.33 27.99 25.35 24.39 29.13 40.18 39.64 35.45 35.17 38.30 39.82 39.87 37.89 39.17 38.79 38.90 37.52 36.05 34.31 34.15 34.47 34.11 33.24 33.18 33.17 34.07 33.84 33.28 33.65 32.47 30.15 30.08 29.76 28.41 27.06
38.43 35.87 31.65 33.45 34.52 34.87 33.53 32.27 31.88 26.36 26.65 28.19 29.44 30.60 41.40 42.22 38.56 39.40 41.23 43.25 41.98 38.71 41.48 39.76 39.42 37.98 37.82 36.20 35.07 34.62 35.48 33.92 34.60 34.93 34.63 33.65 33.14 31.87 31.20 30.35 29.16 29.51 27.66 26.90
38.71 33.96 29.87 30.41 32.19 32.48 32.40 35.12 35.09 34.93 32.07 26.94 24.66 28.84 41.12 41.97 41.83 42.41 40.70 39.20 39.96 40.00 40.11 39.89 39.06 39.19 39.81 39.58 37.26 34.69 34.37 34.86 34.60 33.47 32.38 31.63 31.30 30.32 30.76 31.05 28.47 28.26 27.57 26.52
41.41 36.37 33.53 28.75 30.18 34.30 32.07 33.05 34.57 33.17 28.28 28.54 29.39 31.78 36.55 39.16 40.05 41.84 41.77 40.55 38.35 35.47 35.85 35.89 35.73 36.23 37.53 39.34 39.20 38.12 36.52 35.81 33.54 31.84 31.57 32.22 31.60 31.38 32.19 31.70 28.44 27.52 27.46 26.15
37.90 31.75 33.06 33.81 34.97 34.97 34.14 33.42 34.29 32.90 33.14 28.78 31.99 32.73 36.72 39.44 34.40 31.42 34.36 32.77 31.56 31.43 32.52 33.14 34.78 35.24 36.51 37.53 38.89 38.92 39.55 37.17 32.98 32.23 32.98 32.96 33.14 33.06 32.31 31.03 28.08 27.19 26.50 26.72
34.86 27.74 30.67 28.72 30.58 31.07 30.38 32.61 32.21 31.88 30.49 30.30 30.80 30.86 26.21 26.39 26.93 26.94 27.99 27.74 27.71 29.12 31.25 32.73 33.95 34.34 35.29 36.57 36.73 36.41 36.30 36.99 32.72 33.55 32.89 33.89 32.66 30.23 30.52 30.33 27.79 26.19 25.12 24.89
28.86 27.83 25.54 21.31 26.42 25.85 21.15 26.33 28.78 30.78 30.70 29.10 24.86 21.60 25.06 23.40 23.55 24.49 26.47 27.37 27.94 29.60 31.30 32.57 33.43 34.65 35.64 35.81 34.67 34.59 33.24 33.72 34.24 32.89 33.96 32.13 28.72 28.56 28.57 27.70 26.08 25.36 24.28 23.61
26.91 25.07 24.36 19.30 20.54 10.39 23.08 28.77 30.08 27.98 25.06 24.99 23.94 24.29 23.96 23.86 25.43 27.07 30.51 27.33 28.40 30.45 33.16 33.95 35.54 34.89 34.97 35.23 34.62 33.57 32.30 32.11 30.62 31.82 32.23 27.85 28.64 29.09 26.44 24.98 23.79 24.01 23.83 22.64
29.85 26.55 18.94 8.42 7.27 19.08 23.91 23.54 21.20 20.79 20.23 24.27 22.90 23.83 23.92 25.15 25.25 25.96 28.19 29.16 29.30 31.39 32.37 32.47 32.98 33.61 34.29 33.19 34.00 32.12 31.06 30.82 28.62 27.89 28.13 27.16 26.49 27.06 23.65 24.00 23.25 23.35 23.00 22.01
25.14 26.40 19.01 5.41 9.01 8.79 19.50 22.92 26.41 25.36 17.90 24.62 24.99 23.85 22.87 23.06 15.31 18.99 26.99 28.37 30.37 29.44 28.68 28.01 29.61 31.07 31.57 31.99 33.60 31.59 30.45 30.69 29.13 26.29 25.90 23.54 22.13 21.65 23.30 23.27 22.16 22.60 22.47 21.47
3.54 2.20 1.99 -2.21 -0.33 8.33 17.47 20.77 23.16 5.72 10.58 21.61 25.49 23.25 21.42 19.94 23.16 25.46 27.11 27.96 27.68 26.10 25.74 26.78 26.74 26.76 28.92 31.20 30.94 30.48 30.95 30.20 29.46 24.17 20.58 17.74 18.85 19.75 22.52 22.53 21.33 19.85 19.57 19.68
10.88 -0.11 -2.73 -4.52 -5.50 1.47 21.57 20.54 15.41 17.49 21.13 23.26 23.21 23.25 23.41 24.21 23.95 24.40 25.55 24.24 22.79 22.44 23.03 24.16 24.17 25.17 25.26 25.86 27.53 27.32 28.07 30.87 29.91 26.21 20.58 19.70 16.76 17.68 20.55 20.76 19.55 18.67 18.38 16.91
7.02 14.12 5.49 9.62 9.10 22.73 24.63 23.08 25.21 24.60 23.48 22.83 23.24 24.32 24.54 22.25 20.67 22.04 20.01 19.79 20.42 20.94 21.17 21.91 20.87 19.14 20.77 22.39 22.42 20.87 22.18 25.26 29.78 29.41 26.53 22.88 20.81 18.96 19.67 18.36 17.11 16.57 16.91 15.63
16.73 21.23 15.55 12.82 20.87 21.74 23.26 24.83 24.94 25.27 24.49 24.99 24.82 22.61 21.35 19.23 19.96 18.65 18.30 18.55 18.60 18.70 18.06 19.55 17.11 15.68 15.54 17.52 18.54 18.77 20.35 23.02 22.51 24.47 26.09 23.13 19.64 18.36 18.03 18.09 16.54 16.54 15.01 15.25
17.99 18.74 15.30 16.05 21.03 22.30 23.60 24.61 25.23 24.44 23.61 22.76 21.42 20.25 18.85 18.30 16.94 16.82 16.19 16.10 16.46 16.50 16.97 16.53 14.58 13.80 13.16 14.17 14.51 15.62 16.72 17.26 17.13 19.70 23.36 22.16 18.97 18.29 16.94 17.09 16.62 16.82 17.78 18.52
21.43 19.11 16.04 14.42 22.79 22.00 22.77 25.53 23.66 21.34 21.11 18.45 16.70 16.40 17.75 17.06 15.44 15.47 13.65 14.62 14.70 13.93 13.99 12.34 11.28 10.30 10.06 10.26 10.42 11.42 11.87 12.24 12.77 13.86 17.42 21.28 18.68 16.82 16.30 15.34 14.76 21.53 21.80 22.23

GFSCGP_sfc_wetblb_006.txt.gz
Wetbulb
37.01 34.10 32.82 37.07 35.83 36.99 30.76 30.29 30.21 33.49 37.65 33.22 36.94 37.54 39.17 40.91 39.43 41.81 43.00 42.94 43.31 44.48 46.26 46.52 43.72 41.97 40.53 38.86 39.29 39.82 38.69 40.17 40.80 39.36 37.36 36.37 37.97 36.51 36.29 36.64 36.66 36.12 35.60 34.55
33.86 31.59 38.31 36.82 35.27 34.59 32.55 32.16 33.29 36.48 38.18 33.54 34.71 35.50 39.06 40.53 41.34 41.98 42.73 43.56 43.70 43.86 44.35 45.00 41.37 39.39 38.86 39.70 39.15 38.69 38.52 38.62 40.29 40.30 40.18 37.37 39.82 36.07 37.87 36.01 34.45 35.20 33.71 33.56
34.97 37.43 38.43 36.46 33.49 33.70 31.21 30.45 33.63 32.66 33.87 32.93 31.33 32.93 33.36 37.55 37.84 40.92 41.60 43.11 41.17 41.48 43.40 44.62 40.41 39.21 38.30 37.47 37.28 38.81 38.63 38.10 39.72 39.24 37.52 31.46 31.53 30.59 30.94 31.24 32.51 32.20 33.48 33.08
33.83 37.11 36.88 32.76 33.36 34.56 32.78 35.66 34.95 33.37 29.51 27.70 31.20 27.35 31.36 35.86 37.25 38.03 40.26 38.61 39.33 40.54 40.55 40.61 39.94 38.53 38.77 39.33 37.64 37.78 37.36 37.11 38.66 38.45 36.93 36.18 36.08 35.13 35.86 37.17 36.41 34.07 33.05 32.56
33.58 32.30 31.90 32.26 34.80 35.03 33.99 34.78 32.84 30.22 28.32 26.23 26.23 24.57 30.20 32.20 33.95 37.04 38.46 39.33 38.84 39.43 39.06 39.62 39.75 39.40 39.05 37.81 36.32 35.92 36.29 36.26 37.84 38.04 37.64 37.30 37.29 37.66 32.33 32.44 33.06 32.71 31.40 31.82
34.22 33.94 35.46 35.78 35.30 35.76 34.33 31.61 29.86 28.03 27.47 22.89 28.75 27.55 33.75 30.64 33.01 35.45 38.69 42.84 39.72 39.85 39.81 39.28 38.92 37.75 37.52 35.04 33.52 33.43 34.61 34.99 35.99 36.88 36.69 37.12 36.85 30.84 31.80 30.28 31.62 30.80 30.21 29.47
30.74 32.05 33.42 35.30 31.80 31.85 31.83 28.87 22.30 19.97 18.94 22.53 26.98 25.10 34.33 36.93 39.23 37.77 38.40 38.57 38.87 38.69 37.68 37.97 37.98 37.14 36.31 33.87 32.13 32.18 32.75 32.78 33.78 35.01 35.36 35.69 35.47 32.31 33.52 31.69 32.66 30.62 30.05 30.04
28.51 32.01 32.16 33.75 34.77 32.61 30.07 31.45 23.92 19.67 17.71 26.83 24.00 24.39 35.47 37.77 38.76 38.85 37.06 37.54 36.45 37.84 37.86 37.52 37.89 35.42 34.94 33.91 31.84 32.70 32.55 32.40 32.34 33.22 33.82 33.35 33.46 33.31 33.76 32.13 32.75 31.52 31.99 32.07
27.58 29.75 31.69 33.29 33.36 34.33 28.93 28.10 33.22 27.64 28.31 22.61 29.83 31.47 36.93 39.01 35.77 35.91 34.15 35.37 36.22 37.99 38.08 38.67 38.29 36.01 34.29 33.12 32.38 32.30 32.17 32.70 32.18 32.11 32.31 32.31 32.56 32.62 32.48 30.32 30.61 31.50 31.83 31.01
34.59 29.75 33.06 32.04 32.68 33.11 32.73 33.35 26.20 25.46 20.84 18.91 24.95 28.18 30.90 36.62 39.47 37.52 36.40 36.06 37.36 37.59 38.00 38.05 38.87 37.88 35.02 33.60 32.42 32.32 32.44 32.58 32.15 32.31 33.52 33.70 33.46 33.72 32.45 30.46 30.53 30.11 30.37 28.64
34.79 33.05 31.64 32.22 30.39 32.21 30.80 28.64 28.69 29.42 28.35 24.45 23.27 28.58 36.95 38.97 40.12 36.01 35.75 38.69 38.79 35.97 35.66 36.24 36.89 37.26 37.40 35.74 33.80 32.64 31.84 31.45 31.41 31.14 32.27 31.54 30.66 31.39 30.98 30.09 30.43 30.51 28.96 28.03
35.64 36.95 31.78 32.90 35.45 34.69 33.25 34.15 33.20 28.17 26.09 27.52 27.91 28.09 39.67 39.34 41.03 36.79 33.43 33.34 34.43 34.06 33.53 34.60 35.17 35.41 36.00 36.94 38.20 37.56 34.28 32.82 32.58 32.06 31.95 30.50 31.08 30.10 29.49 29.94 29.60 29.58 28.55 27.85
39.75 34.42 28.24 29.28 31.29 32.85 31.66 34.45 35.21 35.04 32.32 28.73 25.74 27.36 39.80 39.72 34.28 32.20 29.60 29.06 30.11 31.23 31.96 32.71 33.79 34.34 35.18 35.74 36.19 36.14 36.26 36.25 34.83 34.49 31.17 30.56 30.46 29.30 30.41 31.06 29.98 29.41 29.16 27.94
40.20 34.31 31.56 26.62 28.90 33.33 31.95 33.34 34.55 33.57 29.10 28.44 28.63 30.23 35.42 28.53 26.91 26.34 28.41 27.54 28.33 29.38 30.77 31.72 32.56 33.59 34.75 35.60 35.51 35.08 34.80 34.81 34.11 32.95 31.45 30.87 29.80 30.49 31.97 32.08 30.35 28.72 29.18 27.94
36.79 30.72 32.40 32.83 34.40 33.26 31.65 30.12 30.04 28.90 30.49 26.92 28.87 29.75 30.62 23.58 24.14 25.63 27.95 27.77 27.68 28.49 30.26 31.82 32.39 33.23 34.53 34.08 34.54 34.25 34.43 33.52 32.98 32.23 32.71 32.86 31.50 30.19 30.72 30.44 30.60 27.83 28.12 28.43
34.04 26.81 28.09 24.06 27.23 27.10 25.86 28.20 27.98 28.54 28.11 28.24 28.83 26.43 23.74 24.51 26.12 25.77 26.66 26.82 26.20 27.53 30.23 32.92 31.92 34.18 32.37 32.80 32.85 32.52 33.32 32.98 32.23 31.39 31.16 32.25 31.97 30.03 28.91 30.26 29.52 26.85 26.99 26.93
28.38 26.85 23.95 19.14 23.83 23.26 17.97 23.20 25.67 27.00 28.83 24.63 21.19 20.35 21.62 21.79 23.62 24.60 25.87 27.71 25.88 26.81 29.01 31.77 30.08 30.26 30.41 31.89 32.82 30.94 31.91 32.39 31.07 30.87 31.13 30.46 30.06 29.69 30.18 27.73 26.51 26.08 25.83 26.35
26.29 24.47 22.62 19.12 17.07 10.31 21.08 25.54 25.60 23.32 23.19 23.28 22.22 20.21 21.75 22.76 23.88 25.73 28.39 25.46 25.20 27.28 29.80 29.57 28.49 28.01 28.85 29.44 30.11 30.55 31.48 30.40 30.57 30.15 29.60 29.33 28.35 27.90 27.39 24.51 25.47 24.16 24.33 24.73
27.97 24.31 15.45 11.72 4.69 15.41 21.31 20.89 19.99 20.56 19.50 22.34 21.79 23.94 24.36 24.21 23.10 22.08 26.18 26.98 26.46 26.72 29.77 27.27 26.69 27.10 27.27 26.84 28.28 28.83 26.17 27.65 29.59 29.81 29.81 28.67 27.32 26.28 25.64 23.00 23.48 24.21 24.39 24.60
23.43 25.52 20.86 5.34 7.31 -1.26 16.77 21.59 24.24 23.78 11.77 19.06 20.47 21.25 21.78 21.28 13.46 18.34 24.70 26.01 26.54 28.57 26.40 24.50 24.07 23.94 24.40 25.18 27.25 24.24 23.53 25.05 24.72 26.81 28.18 27.89 25.57 23.98 23.51 22.18 20.15 21.40 24.21 24.43
1.48 -0.44 6.19 3.44 -2.28 5.60 16.02 19.31 22.18 4.92 9.05 15.88 20.12 21.75 21.29 18.83 19.38 23.26 25.62 23.85 24.85 25.34 23.08 22.88 22.04 21.31 22.69 25.62 23.29 21.20 22.24 21.69 23.08 23.08 23.00 26.97 27.86 24.57 23.23 23.84 18.89 19.63 21.35 20.15
10.83 1.18 -3.96 -7.31 -6.90 -2.46 20.44 19.02 12.86 16.33 19.96 19.63 21.08 23.79 23.11 23.28 24.12 24.61 23.16 22.93 23.23 21.40 21.45 21.86 20.43 20.41 21.68 21.72 20.00 19.45 18.96 20.76 20.71 20.81 21.42 23.14 24.16 25.90 23.38 21.45 19.80 18.96 19.76 19.70
7.50 13.29 4.38 7.95 6.93 20.86 23.38 21.30 25.37 23.68 20.17 21.72 23.14 25.25 23.83 23.48 23.02 22.82 20.85 21.21 21.36 20.81 20.47 20.80 17.93 17.75 19.58 19.01 17.34 15.74 17.05 17.09 16.73 17.39 17.92 18.51 20.37 23.86 23.27 21.65 20.78 18.51 18.80 17.99
16.66 20.04 16.14 16.30 20.01 21.04 23.25 25.46 24.15 25.09 24.40 25.05 24.46 23.86 23.64 22.04 21.25 19.64 19.53 19.40 19.12 18.99 17.91 18.03 16.50 15.48 15.40 16.94 16.67 15.20 15.18 14.57 12.78 12.30 12.28 13.59 15.22 18.18 23.31 20.94 21.16 19.44 18.57 18.10
18.72 17.92 14.26 15.97 20.78 22.23 23.56 24.57 25.47 25.63 25.21 22.57 22.06 20.88 19.86 18.57 17.71 17.76 16.97 16.56 16.83 16.65 16.32 15.66 14.58 13.86 13.49 14.58 13.69 13.00 12.26 10.64 8.90 9.36 9.45 9.90 12.14 14.13 19.31 20.86 20.16 19.14 20.64 20.92
21.48 19.02 15.61 14.16 22.50 22.06 22.84 25.70 23.70 22.30 21.48 18.18 16.98 16.30 17.47 17.15 15.84 15.77 14.18 14.88 14.35 13.40 13.72 12.55 11.54 10.58 10.13 9.83 9.07 8.93 8.57 7.01 5.64 5.03 6.09 7.65 9.70 11.65 14.96 18.88 18.69 23.23 24.43 24.28

GFSCGP_sfc_wetblb_009.txt.gz
Wetbulb
37.48 34.53 32.87 36.32 35.89 34.50 32.11 30.87 30.01 34.89 37.98 34.46 37.33 37.42 38.68 41.13 40.40 41.46 43.01 43.90 44.29 44.44 46.63 46.26 45.06 45.16 44.40 42.83 42.21 42.60 41.54 44.17 46.52 46.45 43.76 42.46 42.61 44.06 42.08 43.43 42.69 41.72 41.54 40.14
33.99 32.29 38.26 37.06 35.64 34.73 33.08 31.82 32.36 35.25 37.54 33.73 34.81 36.30 39.89 41.16 41.89 42.77 42.84 43.39 42.90 42.74 44.68 45.53 43.59 43.53 43.15 43.27 41.55 41.22 40.93 41.99 44.41 45.37 45.42 44.58 44.86 43.54 43.13 42.21 41.08 41.60 40.62 39.66
33.86 36.44 37.67 36.35 33.76 33.34 31.51 31.03 33.23 32.07 33.43 34.02 31.86 32.44 34.03 38.98 38.50 40.13 41.83 42.23 41.70 41.25 41.87 42.84 43.08 42.80 42.75 42.29 41.25 40.48 40.69 40.77 42.80 43.79 42.89 36.28 37.43 36.44 37.55 37.38 38.08 38.65 39.04 38.64
33.79 36.41 36.47 33.13 33.85 33.88 30.87 35.12 34.13 32.14 30.13 27.28 33.16 27.28 31.78 37.61 37.90 38.87 39.27 39.70 39.74 40.64 41.74 41.13 39.77 41.46 40.88 41.70 41.31 40.20 40.30 39.63 41.35 41.82 40.67 40.66 40.31 38.91 39.15 40.61 40.05 38.30 38.27 37.91
34.03 33.50 32.36 32.33 34.78 34.89 33.70 34.27 32.44 31.17 29.29 27.82 28.02 25.13 31.08 33.56 35.02 37.12 39.25 40.79 41.12 40.45 39.94 41.33 40.77 40.60 40.55 38.62 38.55 38.86 38.71 38.58 40.38 40.21 40.75 40.31 40.56 40.80 38.56 39.53 38.46 37.30 36.51 37.04
33.70 34.40 34.93 35.48 34.56 35.13 34.44 32.52 30.35 29.06 28.75 23.62 29.37 28.54 30.62 31.88 35.51 35.62 38.39 41.40 40.48 40.36 40.28 42.51 40.24 39.45 38.62 37.47 36.01 36.22 36.65 36.46 37.88 38.95 39.30 39.49 39.66 37.30 36.88 36.65 36.63 35.76 34.94 34.65
30.52 31.69 32.84 34.62 31.65 31.95 33.34 30.36 23.96 21.77 20.15 22.89 27.48 25.73 32.92 36.09 39.28 38.23 40.29 39.68 38.43 39.20 39.41 39.58 38.81 37.82 37.18 36.41 34.99 35.16 34.87 35.06 35.80 36.83 37.38 38.25 38.25 35.84 37.46 36.54 37.06 34.73 33.47 33.40
29.18 31.99 32.61 34.01 34.91 33.31 30.28 31.31 26.55 20.37 20.75 27.57 23.37 26.35 36.07 36.74 39.29 38.73 37.88 37.07 38.55 38.62 37.67 36.77 36.92 37.06 36.89 36.29 34.92 34.55 34.12 34.28 34.64 34.87 35.37 36.06 36.35 36.28 36.55 35.75 36.16 35.21 35.11 35.07
28.02 28.54 31.69 32.70 33.72 35.42 29.02 27.96 33.50 27.64 25.78 24.55 29.35 31.78 38.88 39.65 36.74 36.81 35.44 34.32 33.37 34.18 34.89 35.21 36.04 36.45 37.29 37.24 36.04 34.70 33.96 34.20 34.56 34.11 34.35 34.50 34.52 34.51 35.06 33.84 34.70 35.43 35.88 35.08
34.23 31.46 33.74 32.65 31.36 32.70 32.84 34.38 27.30 26.00 20.34 20.71 26.44 29.36 31.58 35.82 32.63 32.29 32.20 31.86 31.70 32.36 32.63 34.06 35.04 35.40 36.40 37.44 37.59 37.44 36.61 34.95 34.66 34.30 34.07 34.36 34.29 34.41 33.98 32.87 32.81 33.11 33.75 32.69
34.27 33.01 32.29 33.03 30.08 30.29 29.12 28.61 29.16 29.67 28.43 24.64 23.29 28.04 35.59 30.09 30.88 29.93 29.29 29.40 29.63 30.43 31.64 32.86 34.12 35.35 35.99 36.54 36.46 36.03 36.40 35.57 35.40 35.88 35.22 33.61 33.51 33.63 33.38 31.86 32.07 32.52 32.19 31.34
35.21 34.71 29.57 30.79 35.32 33.26 32.25 32.92 33.28 28.65 27.13 27.74 29.01 29.10 38.39 29.65 29.44 28.19 26.48 27.97 29.22 30.36 31.59 32.70 33.51 34.81 35.51 35.09 35.43 34.96 35.19 34.73 34.52 35.02 35.02 34.76 33.20 32.35 31.97 32.22 31.86 31.63 31.14 30.76
38.99 34.02 28.38 29.84 31.43 33.23 33.48 34.84 34.65 33.97 32.05 28.47 25.50 28.26 35.83 31.24 29.36 28.85 26.71 27.13 28.23 29.39 30.53 32.43 32.92 33.28 34.92 33.71 34.01 33.94 33.82 34.29 33.94 33.74 33.32 33.93 33.94 33.00 32.13 32.05 32.08 30.76 31.51 30.41
39.93 34.29 31.41 26.73 28.25 32.91 31.05 32.44 33.24 32.83 28.60 27.45 28.74 30.71 33.67 26.82 24.86 26.21 27.64 27.84 27.36 28.11 29.13 31.41 31.97 31.65 33.43 32.00 32.42 33.36 33.04 34.04 33.32 32.66 32.29 32.16 32.36 32.77 33.01 33.02 32.60 30.56 30.93 30.72
36.74 30.10 31.91 31.72 31.69 30.72 28.16 27.44 27.37 25.82 27.37 24.22 26.76 26.32 30.61 22.84 22.83 24.83 26.58 28.51 27.16 26.47 27.74 29.16 31.52 29.89 30.45 30.24 30.68 31.59 31.72 32.47 32.98 31.61 31.38 31.39 31.78 31.92 31.82 31.78 31.91 31.74 30.04 30.41
33.38 28.13 26.92 22.58 27.30 26.19 24.72 25.66 25.96 25.91 26.04 26.04 26.92 26.99 23.52 24.36 25.27 24.06 24.61 27.21 25.77 24.92 26.96 28.56 31.54 28.65 28.46 28.47 28.77 29.49 29.70 30.16 29.73 30.21 30.61 31.16 30.91 30.07 29.90 30.79 30.36 30.41 29.71 29.10
29.00 26.66 22.71 20.14 24.27 22.08 17.86 21.68 23.96 25.00 26.61 24.94 21.03 18.96 19.54 20.33 22.66 22.66 23.06 27.52 25.01 24.88 26.08 26.88 29.48 26.96 26.71 27.22 27.13 26.92 27.97 28.46 26.51 28.13 29.07 29.35 29.76 28.37 27.96 28.85 28.87 28.27 28.74 28.83
27.12 23.71 22.48 18.81 11.45 10.14 21.15 23.64 25.44 23.61 21.55 20.53 18.84 17.02 20.18 22.99 25.39 25.65 26.74 26.88 24.48 25.64 26.24 26.68 28.22 25.79 25.93 26.57 25.88 25.85 27.28 24.52 24.52 25.65 25.93 26.87 25.51 25.27 26.83 26.94 27.34 27.37 27.48 27.26
27.37 23.68 15.07 14.39 11.40 16.59 20.74 22.66 21.07 20.64 17.34 20.13 18.18 20.85 22.79 25.11 23.64 21.97 25.37 26.08 25.33 25.75 26.84 27.39 26.84 25.38 25.03 24.48 24.89 24.32 25.08 22.90 22.84 23.40 23.32 23.36 22.78 21.86 25.95 25.55 25.50 26.09 25.39 25.81
23.49 24.77 20.27 8.20 5.43 -3.35 15.11 21.50 23.73 22.31 9.35 17.36 15.85 15.40 16.93 21.16 14.10 18.67 23.44 24.85 25.34 25.91 26.45 26.26 24.99 23.46 22.91 23.02 23.37 23.13 22.70 20.26 20.48 22.00 22.09 21.66 21.05 21.27 23.54 23.27 24.59 25.50 24.84 25.22
0.47 2.66 14.67 13.86 12.17 8.02 15.89 18.63 22.06 4.64 9.00 16.72 17.00 19.70 19.70 18.89 21.76 24.31 24.58 24.07 24.76 24.54 24.92 24.63 22.41 21.63 22.06 22.10 20.88 20.54 20.05 18.67 20.33 20.00 19.44 18.20 18.72 19.37 20.28 20.80 23.46 23.82 23.60 23.96
10.97 0.45 -6.85 -7.05 -3.61 1.96 18.87 18.16 12.53 16.37 20.09 19.91 20.50 22.18 21.62 23.31 25.06 25.51 24.87 24.64 24.10 22.43 23.22 23.32 21.48 21.45 22.27 22.06 19.99 18.54 18.03 20.00 18.71 16.55 15.98 15.54 15.31 16.08 17.19 16.76 18.84 22.39 22.12 21.27
8.66 13.38 6.69 8.11 7.30 20.15 21.92 21.38 25.13 25.12 21.79 23.00 21.57 23.52 23.15 23.46 23.99 24.40 22.55 21.47 21.39 21.86 21.85 21.78 19.30 18.66 19.70 19.40 18.31 16.01 17.36 17.49 15.82 13.21 12.19 12.35 12.67 12.85 13.36 13.43 15.22 18.41 21.82 19.77
15.61 18.63 14.70 16.05 20.07 20.87 23.85 25.71 25.27 24.58 23.84 24.39 23.72 22.89 23.07 22.43 22.44 20.70 19.33 19.82 19.69 19.52 18.24 18.08 16.46 15.40 14.99 16.53 16.79 15.65 15.17 14.66 11.37 9.11 9.29 9.89 9.28 9.63 10.48 12.03 14.09 16.11 19.89 20.34
18.87 17.40 14.20 15.91 20.63 22.16 23.10 24.36 25.25 25.74 25.10 22.71 21.16 20.65 19.63 18.47 17.69 17.32 16.86 16.72 16.57 15.90 15.49 14.65 13.10 12.32 11.89 12.69 11.72 11.39 10.85 9.32 7.08 6.75 6.87 6.41 6.57 6.55 7.44 9.56 11.64 14.57 19.76 21.62
21.72 19.00 15.90 14.34 22.31 21.78 22.73 25.61 23.43 22.77 21.85 17.73 16.84 16.01 17.32 16.90 15.20 14.67 12.94 13.38 12.80 11.70 11.22 9.16 8.23 7.28 6.70 6.39 5.71 5.76 5.69 4.78 3.15 2.29 2.67 2.90 3.47 4.16 5.15 5.87 7.55 15.23 18.89 22.57

GFSCGP_sfc_wetblb_012.txt.gz
Wetbulb
44.92 42.61 40.94 44.11 44.32 44.20 41.57 40.17 39.39 42.32 44.72 42.30 41.67 42.19 44.02 46.21 46.37 46.21 46.90 48.06 48.90 49.55 50.99 51.30 51.12 51.15 51.11 51.60 50.95 50.66 50.71 50.73 52.84 53.31 53.53 54.57 54.07 53.92 54.38 54.89 53.70 52.91 51.45 49.21
41.39 39.83 44.86 43.80 42.53 41.03 40.96 39.01 39.23 42.71 43.83 39.93 41.56 40.95 43.77 45.32 45.77 47.07 47.25 47.69 48.43 48.77 48.70 49.32 49.13 49.52 48.91 49.07 49.89 49.52 49.06 49.22 50.62 52.33 53.13 53.45 52.85 52.94 53.10 53.00 52.03 51.85 50.40 48.65
41.41 43.86 43.95 41.13 41.56 39.31 40.20 38.51 39.77 39.57 41.54 42.25 39.92 40.98 41.98 45.84 45.25 46.66 46.42 47.40 47.29 46.73 46.58 46.86 46.88 46.25 46.05 45.43 45.73 46.40 47.65 47.90 48.55 50.45 51.34 51.05 48.78 49.81 49.75 49.85 49.55 48.99 49.48 48.04
40.90 42.13 40.30 39.47 39.43 41.26 37.34 42.77 40.28 38.45 37.13 36.38 39.84 34.25 42.31 44.69 44.42 44.65 46.15 46.92 46.86 46.73 46.42 44.62 43.82 43.33 43.24 42.96 44.28 44.86 45.42 46.12 46.31 48.26 48.18 47.82 46.48 45.58 46.67 47.29 47.56 47.56 47.69 47.22
40.65 38.69 37.68 37.71 40.18 40.89 39.98 39.79 38.00 37.03 36.89 35.37 38.20 34.32 41.66 41.27 41.43 43.55 45.59 45.14 45.42 44.43 43.28 42.25 42.22 42.54 42.78 42.35 42.21 43.01 43.85 43.69 44.64 45.65 46.44 45.95 45.91 47.32 47.63 46.31 46.55 46.25 45.70 45.69
41.44 40.54 40.61 41.70 40.24 40.16 39.38 38.91 37.51 36.87 36.79 32.13 38.53 36.11 38.69 40.72 41.07 42.88 42.94 42.10 41.34 41.46 41.91 41.73 42.49 42.71 41.96 42.46 42.01 41.58 41.80 41.47 42.69 43.60 44.34 44.29 44.51 45.05 44.52 43.84 44.10 44.66 44.10 43.57
40.71 38.61 40.25 40.19 38.70 38.67 38.42 37.05 33.84 32.66 32.38 31.36 36.69 33.66 38.67 43.34 42.67 40.32 40.32 39.38 39.57 40.28 40.29 40.08 39.81 40.35 40.83 40.61 40.79 40.56 40.63 39.64 40.55 40.95 41.85 42.49 42.95 43.58 43.20 43.54 43.35 43.35 42.45 41.54
36.97 35.59 38.83 40.26 41.18 41.92 37.85 38.27 33.78 26.51 28.56 32.23 31.88 31.97 38.71 43.08 40.43 39.73 39.40 38.95 38.86 38.66 39.37 39.25 39.49 39.61 39.71 39.53 39.76 40.21 39.73 39.20 39.83 39.87 39.67 40.47 40.66 41.39 42.21 42.63 42.98 42.93 42.57 42.45
37.60 37.09 38.71 37.56 39.26 41.10 37.01 34.22 39.47 33.05 34.02 29.88 34.79 38.97 43.37 43.11 37.63 38.17 37.21 36.89 35.49 36.04 37.04 37.70 38.83 39.29 38.56 38.79 38.60 39.00 38.35 38.32 39.05 39.59 39.84 39.42 39.78 39.58 40.01 40.69 40.90 41.61 41.92 41.56
39.06 33.84 40.68 40.56 38.24 39.21 37.90 40.35 32.65 32.35 24.66 23.91 30.74 33.63 35.62 36.85 35.90 35.42 34.22 33.53 34.24 34.68 35.21 35.97 37.26 38.08 38.00 38.32 38.51 38.04 38.72 37.13 37.31 38.35 38.98 39.22 39.08 38.53 38.85 39.42 38.44 38.64 39.75 39.81
39.66 37.24 37.05 38.02 37.08 36.39 36.21 32.89 33.67 33.54 31.73 26.39 25.09 30.92 39.43 37.80 34.33 32.99 32.04 32.06 32.23 33.21 33.79 35.12 36.25 37.91 37.49 36.96 37.33 36.99 36.66 36.29 35.62 36.23 37.19 37.72 38.11 38.17 37.86 37.36 38.26 38.07 38.21 38.04
41.66 36.54 32.00 34.87 40.88 39.12 37.61 36.31 36.21 29.73 28.05 31.01 29.70 30.22 36.07 33.26 32.39 30.86 29.44 30.04 31.65 32.47 33.37 35.02 35.48 35.58 36.43 35.03 35.36 35.51 35.47 35.17 34.94 34.86 35.26 35.16 35.69 35.87 36.06 37.02 37.03 37.31 36.73 37.45
40.22 34.60 29.44 31.23 35.64 36.70 35.53 37.22 37.12 35.42 32.83 30.30 27.60 29.30 35.45 32.41 30.56 31.79 29.90 30.15 30.35 30.58 30.94 33.03 35.03 33.63 33.53 33.42 33.62 33.84 34.18 33.66 33.88 33.83 34.06 33.64 33.47 33.20 32.82 33.33 35.54 36.17 35.61 35.10
39.89 34.72 32.04 26.85 31.32 34.53 32.95 34.28 33.45 32.56 28.03 28.66 29.84 32.13 35.78 36.79 32.62 30.81 29.98 30.97 31.16 29.87 30.16 31.22 33.08 33.24 33.33 33.30 32.70 32.08 32.51 32.96 32.32 31.78 32.64 32.48 32.51 32.09 31.85 31.73 32.63 33.94 34.52 34.41
37.34 31.01 32.32 32.71 33.99 33.71 32.44 31.30 31.71 29.56 30.20 25.10 28.55 28.54 32.41 34.92 32.09 28.10 28.64 29.43 29.73 28.51 29.18 29.95 30.54 32.77 32.16 32.02 31.95 32.23 32.13 32.16 31.73 30.15 31.01 31.40 32.11 31.74 31.03 30.64 31.21 31.65 31.91 32.54
35.50 27.83 29.99 26.38 31.06 31.10 28.11 30.27 29.98 29.30 29.27 28.58 28.51 28.12 34.75 28.16 28.22 27.47 27.48 28.24 28.67 28.20 28.94 29.74 30.36 31.16 31.72 31.22 30.53 30.64 30.69 30.59 31.01 28.63 28.79 30.10 30.62 29.41 28.51 28.75 29.43 30.00 30.14 30.72
29.99 28.19 25.70 21.41 27.78 26.81 21.56 25.57 27.17 28.40 30.67 29.80 24.61 27.52 25.72 24.26 26.13 27.47 27.57 27.97 28.75 28.18 28.85 29.43 30.04 30.54 31.54 31.59 30.11 29.75 29.78 29.79 29.29 27.55 27.77 28.30 28.21 27.07 26.28 26.51 28.56 28.41 27.91 29.22
26.47 26.27 26.05 20.61 22.61 12.70 25.78 31.45 29.56 27.18 27.50 25.28 23.41 23.25 25.68 25.98 27.84 29.35 29.89 28.69 29.24 28.91 29.30 30.10 30.68 31.01 31.69 31.98 30.21 29.79 29.23 28.06 27.96 27.15 26.45 27.28 26.51 24.93 24.53 24.40 26.44 28.04 27.31 27.31
29.42 25.68 21.24 17.18 16.90 21.60 24.51 27.28 26.39 24.07 24.53 26.36 24.07 24.21 25.48 26.90 27.92 27.63 30.70 30.96 30.62 30.46 30.65 30.92 31.35 30.76 30.55 29.42 28.90 27.58 26.68 26.73 26.51 25.90 25.53 25.95 25.44 22.88 22.11 20.63 22.95 25.04 25.20 26.34
25.39 26.91 20.65 17.22 12.18 9.40 21.91 24.21 27.30 25.72 17.21 25.21 23.72 23.78 24.20 24.96 19.31 24.65 30.24 30.47 30.52 31.21 31.31 30.22 29.98 29.55 28.55 28.74 28.10 25.25 24.37 24.09 23.77 24.59 24.52 24.83 24.09 21.37 19.74 20.84 20.82 22.73 23.74 24.13
16.13 17.29 16.13 17.31 15.08 18.86 24.21 24.12 26.76 14.00 17.56 25.79 25.05 25.24 25.03 22.82 25.95 28.84 30.26 30.23 30.90 30.47 29.72 29.37 28.64 27.18 26.97 27.18 25.55 23.12 22.89 21.80 23.30 23.52 23.18 22.35 21.89 20.27 19.70 19.33 19.91 19.72 19.44 20.48
17.16 15.04 12.75 10.53 10.27 8.98 24.86 22.92 18.50 24.61 27.57 27.19 26.61 26.85 25.87 27.17 27.94 28.30 29.28 29.46 29.90 28.23 27.29 27.18 25.41 25.02 25.27 24.40 22.51 20.49 19.63 21.65 21.35 20.44 19.18 18.48 18.07 18.16 17.95 16.04 16.25 16.28 16.45 16.66
14.45 19.80 17.29 15.94 17.82 25.25 26.44 26.30 28.97 29.08 27.20 27.81 27.40 28.36 27.80 26.69 26.88 28.08 27.81 27.31 25.96 25.12 24.37 23.72 21.50 20.00 20.55 20.05 19.20 16.70 17.56 17.65 16.16 14.40 12.82 13.09 13.89 13.94 13.95 13.16 12.99 13.63 14.40 14.77
22.01 25.21 19.00 19.43 23.26 24.87 26.83 28.86 29.51 29.78 28.80 29.46 28.99 28.09 27.48 25.48 26.10 24.87 23.96 22.84 21.74 20.94 19.41 18.97 16.63 14.66 13.75 15.18 14.59 13.36 12.96 12.30 9.51 7.85 8.07 9.10 8.77 9.41 10.11 11.24 11.60 11.05 11.78 12.80
22.84 22.26 19.74 19.96 23.50 25.26 26.74 28.20 29.04 29.39 29.79 28.62 26.49 24.93 23.50 21.92 21.60 20.39 19.06 17.63 17.13 16.12 15.32 14.26 11.89 10.38 9.83 10.78 9.49 8.97 8.32 6.87 4.86 4.46 4.82 5.20 5.85 5.67 6.19 7.46 8.08 9.02 11.02 12.44
24.84 21.73 18.92 17.69 25.33 24.66 25.47 28.87 29.91 27.48 27.09 23.47 20.90 19.61 18.74 17.15 16.33 15.91 14.36 14.47 12.95 11.55 10.70 8.81 7.80 7.00 6.20 5.60 4.78 4.88 4.81 3.93 2.37 2.33 3.02 3.71 3.79 3.95 4.44 4.39 4.75 10.12 12.31 14.50

GFSCGP_sfc_wetblb_015.txt.gz
Wetbulb
47.40 43.68 41.55 45.13 46.74 45.78 44.39 42.84 41.98 44.43 47.26 45.58 44.01 43.81 45.73 48.50 48.93 48.88 49.79 50.33 50.24 49.97 50.48 50.17 49.38 49.21 49.01 49.30 49.34 50.51 51.48 52.95 53.36 54.96 55.95 57.05 57.16 58.37 58.62 59.19 58.96 58.14 56.95 54.89
43.18 40.82 46.07 47.46 44.79 43.68 43.24 41.43 41.35 44.52 46.61 42.88 43.16 43.11 45.69 47.86 47.97 49.57 48.68 48.81 48.58 48.81 47.83 47.19 46.75 46.65 46.10 45.67 46.44 47.48 48.69 50.58 51.34 53.02 54.70 55.50 55.99 57.05 57.25 57.36 57.15 56.79 56.02 54.05
42.43 45.96 46.78 44.67 43.76 42.05 42.43 40.72 40.97 40.92 43.58 44.57 43.36 41.94 45.96 48.22 49.73 50.02 48.45 48.24 47.71 45.71 45.01 45.18 45.02 44.85 44.94 44.26 44.64 45.38 46.35 48.00 49.46 50.96 52.40 53.08 53.70 51.16 52.36 53.72 54.52 54.33 54.33 53.61
44.29 46.46 43.04 42.60 40.99 42.89 39.11 44.83 42.52 40.99 39.33 37.21 42.94 34.19 42.38 46.44 47.07 45.95 46.06 46.28 44.88 44.60 44.70 44.38 43.71 43.21 43.31 43.70 44.82 45.16 45.25 45.57 46.51 48.46 49.43 49.49 49.04 47.28 49.53 49.73 51.70 51.97 52.22 52.15
42.21 41.36 40.32 40.52 42.03 43.92 41.52 42.13 41.13 40.83 39.18 39.06 39.92 37.96 41.57 45.45 43.81 45.11 44.54 44.00 43.97 43.89 43.21 42.78 42.96 43.10 43.38 43.70 44.09 44.71 43.99 43.61 44.45 45.72 46.28 46.58 46.28 47.77 49.13 48.52 47.52 49.16 49.67 49.77
42.90 43.13 42.51 43.32 43.39 42.96 41.99 40.68 41.08 41.03 39.38 33.48 39.96 38.73 39.15 41.26 42.37 41.80 42.43 42.34 42.70 42.77 42.91 42.82 43.23 43.00 42.15 43.31 42.92 43.66 42.98 42.57 43.45 43.21 43.46 43.60 43.79 44.46 45.27 46.55 45.52 46.69 47.46 47.90
43.80 43.25 43.31 42.16 40.42 41.85 39.80 38.14 33.70 33.09 33.84 32.58 41.52 36.53 39.44 44.21 45.07 43.88 41.66 40.92 41.54 42.22 42.01 41.67 41.26 40.87 40.75 40.63 41.23 40.81 40.91 40.48 42.10 42.44 41.99 41.74 41.52 42.15 42.74 43.75 44.37 44.96 45.31 45.44
37.82 36.11 42.61 42.32 41.53 40.45 41.07 40.47 34.35 26.98 29.28 33.80 38.64 33.20 39.16 43.03 42.42 42.32 41.87 40.73 40.34 40.02 40.46 40.27 40.59 40.16 40.15 39.89 39.57 40.14 39.24 38.27 39.79 40.59 40.96 41.41 41.11 40.82 41.09 41.64 42.15 42.92 43.94 44.73
37.49 37.37 45.40 42.03 42.66 41.51 39.31 35.73 40.03 32.78 33.70 30.81 35.01 39.09 43.38 43.93 40.34 39.85 38.56 38.17 37.31 37.73 38.53 38.89 39.78 39.67 38.96 38.96 38.59 38.41 37.79 37.45 37.49 38.33 39.53 39.64 39.85 39.87 39.24 39.98 40.66 40.39 40.86 41.63
40.41 33.56 41.86 41.86 41.41 42.92 39.94 43.15 33.46 33.66 25.18 24.32 31.36 33.60 35.36 40.85 40.48 37.50 36.25 35.66 36.08 36.83 37.03 37.65 37.78 39.02 38.19 38.04 38.38 37.84 37.35 36.11 36.12 36.50 37.32 37.35 37.41 37.97 38.57 39.46 38.73 38.93 39.15 39.09
40.68 37.50 37.13 40.78 38.35 37.03 37.81 35.12 36.00 35.42 32.46 26.05 24.78 30.94 39.87 38.92 38.72 36.07 34.56 34.61 34.86 35.07 35.34 36.74 36.56 36.90 36.76 36.29 36.32 36.16 35.75 34.88 34.08 35.15 35.60 35.72 35.43 35.12 35.54 35.29 36.18 37.15 37.60 37.78
41.70 37.19 31.94 34.54 41.03 42.66 40.49 37.08 37.07 30.11 28.85 31.41 29.92 29.85 42.67 37.50 35.94 34.70 32.64 32.92 33.78 34.05 32.63 34.41 35.74 34.81 34.73 34.64 34.71 34.19 34.64 34.01 33.94 33.71 34.29 34.35 34.48 33.86 33.10 32.89 33.35 34.75 34.87 36.27
40.37 34.80 28.23 29.84 35.05 39.21 36.21 38.06 38.26 37.09 34.31 29.61 26.69 29.42 37.82 34.36 33.85 33.88 33.32 33.89 33.03 31.75 31.97 32.98 34.57 34.13 33.73 33.93 33.74 33.57 33.39 33.22 33.47 32.61 32.85 33.36 33.07 32.73 32.09 31.71 31.76 32.45 32.70 33.22
40.97 34.29 30.99 26.14 29.71 34.58 31.44 34.00 35.78 33.90 28.49 29.20 29.36 30.63 35.98 37.04 35.12 35.26 34.98 33.22 33.11 32.14 30.82 31.93 32.51 33.60 34.15 33.66 33.43 33.28 33.23 33.50 33.50 32.83 31.60 31.47 31.72 31.83 31.20 30.77 30.85 31.19 31.73 31.75
37.23 29.76 31.38 32.05 33.23 33.12 31.79 30.78 31.54 30.11 31.49 26.88 29.77 30.00 33.88 35.86 36.62 34.61 33.66 31.92 31.77 30.83 30.41 30.75 31.08 31.77 33.16 33.46 33.14 33.02 33.01 33.34 32.89 31.72 30.98 30.48 30.80 30.79 30.33 29.36 28.95 29.87 30.79 31.02
35.72 27.66 29.26 25.13 29.41 29.59 27.32 29.88 30.39 30.97 31.31 30.78 30.64 29.46 36.31 32.65 31.50 30.66 30.24 29.78 30.02 31.39 30.25 30.73 31.34 31.67 31.76 32.39 32.96 32.63 32.05 32.39 32.11 29.97 29.20 29.34 28.92 28.90 28.44 27.99 27.21 27.44 29.01 29.89
29.20 27.23 24.46 19.82 26.19 25.73 20.55 25.61 27.93 29.79 31.80 30.63 25.53 28.54 27.90 28.98 28.60 29.49 29.98 29.63 29.11 30.49 30.70 30.48 31.10 31.54 31.91 32.21 32.53 32.05 31.66 31.56 29.82 28.44 28.42 28.10 27.63 27.25 27.20 26.69 25.70 25.15 25.48 27.74
26.83 25.42 25.08 19.46 21.25 11.68 25.12 32.04 31.12 28.14 28.61 29.80 28.48 25.42 26.46 26.71 28.71 29.77 31.19 30.44 30.09 30.58 31.28 31.48 31.79 32.07 32.44 32.53 31.91 31.38 30.16 28.98 27.96 27.30 26.99 27.48 27.08 25.89 26.06 25.15 23.87 23.63 24.36 24.71
29.86 25.96 21.05 16.80 16.64 21.50 24.38 27.62 26.90 24.80 23.69 29.81 27.34 25.61 26.53 27.79 28.27 28.52 32.29 32.07 31.26 31.49 32.02 32.86 32.89 32.33 31.63 30.97 31.02 28.63 27.00 26.66 25.98 25.30 25.46 25.73 25.69 24.23 24.12 22.50 21.84 22.42 22.50 22.43
27.14 28.10 22.88 19.91 13.60 9.96 22.77 27.73 28.59 27.44 17.40 27.99 26.04 24.77 25.14 26.30 19.77 25.11 31.27 31.75 31.41 32.07 32.62 32.56 32.15 31.15 30.28 29.80 28.93 25.08 24.12 23.61 23.09 23.78 23.97 24.14 23.61 22.40 21.70 22.05 21.20 21.72 21.24 20.66
19.15 20.15 17.89 18.21 15.84 19.13 28.46 26.46 28.38 15.30 19.57 28.00 27.27 27.04 26.69 23.91 26.76 29.81 31.55 30.95 32.04 32.10 31.95 31.34 29.99 28.05 27.86 27.16 24.14 21.64 21.48 20.21 21.55 21.33 20.72 19.93 19.98 19.29 19.29 18.97 19.42 18.90 18.03 17.92
19.11 17.11 16.04 16.51 12.30 9.49 26.95 24.89 19.86 26.17 28.74 29.00 28.31 28.69 27.82 28.79 29.31 29.80 30.12 30.18 30.54 29.64 28.70 27.97 25.20 24.31 24.21 23.06 20.40 17.99 17.09 18.83 17.43 15.51 13.97 13.17 12.69 13.30 14.11 12.98 13.67 14.06 13.84 13.03
15.59 21.27 18.49 20.02 19.30 27.61 28.04 27.45 30.55 31.03 28.67 28.79 29.14 30.07 29.56 28.37 28.13 29.02 28.88 29.01 28.08 26.43 24.34 22.77 20.01 18.32 19.14 18.03 16.76 13.63 14.35 13.86 11.91 9.25 7.10 6.97 7.70 8.10 8.65 8.22 8.39 8.96 10.03 10.23
24.14 27.00 21.29 21.12 23.83 25.80 28.18 30.19 30.91 31.21 30.07 30.80 31.00 30.29 29.73 27.54 28.08 27.49 26.56 24.74 23.09 21.71 19.37 18.36 15.92 13.97 12.66 13.69 13.44 11.78 10.88 9.94 6.56 4.32 4.37 5.16 4.61 5.00 5.69 6.80 7.13 6.30 6.33 6.21
25.30 25.51 22.08 21.58 24.87 26.75 27.95 29.32 29.86 30.18 30.85 30.42 30.66 29.56 27.58 26.31 24.98 24.20 21.81 19.44 18.82 17.44 16.08 14.90 12.11 10.67 10.25 10.95 9.48 8.69 8.07 6.42 4.07 3.48 3.64 3.78 4.47 4.36 4.73 5.76 5.55 5.60 6.75 7.24
26.59 23.80 20.92 19.54 26.62 26.36 27.05 30.19 31.10 29.30 29.08 29.27 27.65 24.36 21.89 20.41 19.59 18.56 16.79 16.65 15.00 13.29 12.08 10.16 9.25 8.18 7.51 6.89 6.07 5.99 5.56 4.64 2.29 1.49 2.01 2.55 2.48 2.99 3.82 3.85 4.19 10.01 11.82 13.39

GFSCGP_sfc_wetblb_018.txt.gz
Wetbulb
44.67 39.38 37.01 40.68 42.30 42.55 40.82 39.35 38.27 40.73 44.21 41.46 40.46 40.12 42.26 45.28 45.60 45.22 44.47 44.19 43.89 43.23 44.44 44.36 43.99 43.29 42.95 43.01 43.74 44.30 45.06 46.14 47.76 49.16 50.16 51.50 52.05 53.52 54.03 54.51 54.99 55.34 54.07 52.70
40.29 37.08 43.37 45.05 44.28 41.40 39.92 37.60 36.98 40.58 43.53 40.09 39.65 39.42 42.84 45.20 45.42 46.16 43.32 42.94 42.34 42.24 42.43 42.80 41.78 41.40 41.25 41.40 41.61 42.46 43.50 43.95 45.77 46.96 49.07 49.70 50.21 50.45 52.11 53.67 53.25 53.78 53.91 52.00
39.30 43.02 46.05 43.66 41.29 40.26 39.22 37.33 37.66 37.72 40.68 39.21 37.90 36.55 40.38 45.01 44.75 44.77 43.94 42.82 42.13 41.00 40.47 40.37 40.41 39.81 39.84 40.07 40.33 40.99 41.62 42.59 44.07 44.98 47.01 47.49 47.82 45.68 45.97 46.47 49.04 50.98 52.84 51.64
41.24 44.47 42.41 40.26 39.87 40.31 36.46 41.37 40.06 38.16 34.67 30.56 38.63 29.23 36.85 42.02 40.47 41.68 40.86 40.04 39.45 39.85 40.60 40.46 39.54 38.92 39.08 39.18 39.93 40.62 41.00 41.05 42.39 42.79 43.00 42.56 43.17 42.41 43.66 44.86 45.23 46.30 49.06 49.08
40.05 38.44 37.66 38.20 39.99 41.28 38.54 39.36 37.28 36.36 33.95 32.67 33.65 30.33 35.68 40.67 37.70 38.42 39.11 39.68 38.96 38.90 39.12 38.74 38.41 39.01 39.12 38.40 38.21 39.18 39.91 40.51 40.66 40.25 40.17 39.86 39.61 40.57 41.57 41.83 41.40 41.92 44.75 46.47
40.34 40.00 39.71 40.41 41.06 40.49 39.88 37.35 37.16 35.56 33.61 26.56 34.07 33.65 32.97 35.20 37.77 37.16 38.23 38.66 38.99 38.49 38.41 38.54 39.04 38.72 37.40 37.46 36.66 36.96 37.60 38.42 39.37 39.43 38.88 37.52 36.74 37.12 37.65 38.29 38.46 39.76 41.04 42.46
39.04 39.01 40.06 40.38 36.80 38.35 36.58 33.78 27.41 25.70 24.90 25.80 35.38 31.56 34.31 38.52 39.62 39.81 37.67 36.85 37.16 37.39 36.86 36.66 36.00 36.00 36.12 35.05 35.79 36.33 35.03 34.96 36.59 37.11 37.12 36.92 36.54 36.14 35.83 36.07 36.33 36.38 37.38 38.86
34.21 32.25 39.06 39.74 38.33 36.44 36.94 36.73 29.33 21.94 21.15 25.48 31.86 27.41 34.45 38.57 39.25 39.05 38.11 36.65 36.29 35.43 35.93 35.99 36.06 35.11 35.05 35.15 34.49 33.95 33.48 32.91 33.74 34.41 35.11 35.51 35.86 36.51 36.48 35.96 35.75 35.55 35.83 36.32
34.04 33.90 39.95 40.02 40.11 39.43 35.27 32.51 37.89 29.90 27.18 24.96 30.05 34.53 40.34 38.32 36.27 35.72 34.96 34.58 33.46 34.19 34.64 34.58 35.76 34.30 33.62 33.73 33.35 32.86 32.20 31.87 32.17 32.71 32.84 32.86 33.25 33.24 33.39 34.84 35.78 35.89 35.54 36.62
38.50 31.59 39.14 37.91 38.47 38.23 37.88 38.58 30.79 31.05 23.78 21.03 26.74 27.67 30.12 35.18 34.30 34.04 33.18 32.50 32.96 33.29 33.38 33.45 33.12 33.78 32.83 32.79 32.83 32.15 31.88 30.80 30.80 31.56 32.03 32.27 31.68 31.71 31.47 31.33 31.04 32.56 34.07 34.54
38.88 35.90 33.93 37.79 35.00 34.00 33.87 32.24 33.45 33.43 29.65 22.59 20.75 24.79 34.89 34.29 34.80 32.09 31.75 32.81 32.04 31.80 30.65 32.61 32.14 31.90 32.69 33.14 32.28 31.33 30.80 30.58 30.22 31.02 31.65 31.41 31.13 31.44 30.90 29.76 29.97 30.40 30.49 31.89
39.11 36.16 27.77 31.89 38.22 38.97 35.84 34.72 35.30 28.91 26.36 28.93 28.61 28.06 34.93 32.70 31.90 32.58 31.64 33.14 33.56 32.81 31.05 32.56 33.79 32.24 31.92 31.95 31.72 30.64 30.96 31.24 30.91 30.03 30.18 30.45 30.76 29.79 28.81 28.60 28.96 29.00 29.63 30.30
38.60 31.99 22.85 23.31 30.21 35.71 33.32 34.38 34.65 33.97 31.99 26.55 24.74 24.48 35.21 33.26 32.31 33.25 33.26 34.07 33.81 32.38 30.74 31.55 30.90 31.50 30.88 29.98 30.41 30.44 31.04 30.28 31.37 30.80 29.35 28.75 27.77 27.63 27.26 26.74 26.85 27.07 28.01 28.55
39.86 32.30 25.41 20.32 24.78 30.76 25.24 28.98 31.59 31.70 25.99 24.66 25.46 28.05 33.28 34.96 34.30 34.75 33.36 33.35 31.02 31.15 30.14 28.39 28.55 28.80 29.35 29.99 29.05 28.90 29.19 31.14 30.28 29.76 28.27 26.56 26.45 26.76 26.87 26.62 25.92 25.40 25.86 26.66
35.83 23.72 29.15 30.36 31.41 30.25 27.93 27.08 28.23 26.63 28.18 23.93 26.06 26.01 30.32 32.79 29.19 28.21 29.12 29.59 29.77 30.11 28.85 28.37 27.97 27.70 27.78 28.10 29.44 29.69 28.83 28.91 28.86 27.52 26.33 26.80 27.03 26.64 25.67 25.29 24.88 25.18 24.57 25.65
33.92 20.10 25.55 19.32 26.34 26.57 24.03 25.86 26.11 26.34 26.49 26.12 26.81 25.83 32.25 26.80 28.49 28.02 28.53 28.32 26.96 27.22 29.02 28.56 28.49 28.40 28.75 28.74 28.67 29.79 29.35 28.31 27.14 25.30 24.70 26.05 26.14 26.26 25.69 25.45 25.48 24.55 23.88 22.99
25.88 20.23 12.71 10.71 22.46 21.31 11.91 21.32 23.73 25.12 27.44 26.70 21.81 24.19 22.91 24.51 26.56 25.44 25.18 27.09 26.74 27.00 28.03 28.36 28.27 28.44 28.73 28.05 28.74 27.47 27.44 26.39 23.27 22.67 22.99 23.34 24.42 24.71 25.01 24.76 24.32 24.09 23.26 23.00
24.04 17.87 15.40 8.48 9.93 -0.07 20.57 27.12 25.89 23.79 24.74 24.01 22.86 19.10 22.16 23.03 24.80 25.66 27.19 26.93 27.47 28.22 28.21 28.65 28.39 27.88 28.08 27.73 27.22 26.47 25.46 23.19 23.26 22.41 21.49 22.03 23.48 22.95 23.33 23.03 22.67 22.85 22.94 22.05
27.69 23.79 12.45 6.19 3.76 15.86 21.34 23.78 22.73 20.72 19.46 24.02 22.67 23.17 23.34 24.07 23.73 23.36 28.04 28.54 26.22 27.19 27.95 27.81 27.76 27.91 27.03 26.12 24.47 23.18 22.23 22.42 22.04 21.83 21.89 22.00 21.49 20.22 20.19 19.15 19.46 20.28 20.56 20.54
24.80 25.49 17.10 6.31 2.87 -0.66 17.21 24.00 26.35 24.61 12.09 19.00 19.92 17.34 19.79 21.74 13.87 18.17 26.52 27.00 27.41 28.23 28.02 26.99 26.10 25.89 24.49 22.68 21.63 20.94 19.95 18.52 18.59 19.26 19.29 18.66 17.42 15.20 14.48 15.04 15.05 16.27 16.50 17.23
8.02 8.03 12.02 13.63 9.55 11.57 20.40 21.67 25.18 7.61 13.89 19.82 20.43 21.69 21.80 18.99 22.05 24.87 26.68 26.80 27.47 26.18 25.84 24.91 23.26 22.27 21.58 20.67 19.59 17.51 16.87 15.42 16.69 15.60 14.50 12.98 12.40 10.55 10.03 9.85 10.34 10.04 10.03 11.46
13.72 7.36 4.34 4.55 1.62 6.47 22.31 20.65 15.72 19.71 25.27 24.10 24.75 24.36 23.92 24.76 25.35 25.76 25.83 25.70 24.88 24.33 23.24 21.91 20.25 19.83 18.87 18.88 16.04 13.93 12.92 14.72 12.85 10.90 9.16 7.57 6.20 6.34 7.38 5.06 5.37 5.58 5.80 5.56
10.60 17.31 10.11 14.06 11.95 23.71 24.33 23.55 26.26 26.86 23.06 25.27 25.05 25.80 25.42 24.64 24.31 24.94 24.33 23.67 23.44 21.38 20.09 19.38 15.29 15.25 16.30 13.11 12.24 10.56 11.21 10.77 9.12 6.16 4.03 3.69 4.25 4.60 4.71 3.22 3.24 3.28 3.86 3.34
19.28 22.35 16.19 15.41 20.87 22.99 25.63 26.78 26.82 27.05 25.68 26.12 25.78 25.26 25.47 24.38 24.46 24.15 23.72 21.99 20.51 18.41 16.16 14.85 11.64 9.20 8.90 9.51 11.22 7.18 8.53 8.03 4.44 2.17 2.58 3.40 2.80 2.49 3.16 4.49 4.90 3.65 2.83 2.54
21.56 20.76 17.55 18.48 22.97 24.59 25.88 26.56 27.53 27.77 27.64 25.80 25.76 25.69 25.21 24.32 23.42 22.33 19.80 17.61 17.44 15.85 14.36 11.77 8.78 8.40 8.09 8.65 7.17 4.68 6.47 4.31 2.51 2.45 2.42 1.40 1.56 1.01 1.27 2.38 2.41 3.51 5.44 6.71
24.73 21.93 18.77 16.86 24.56 24.14 24.78 26.63 27.02 25.96 25.72 25.50 24.75 22.95 21.42 21.46 20.49 18.64 16.01 15.95 14.33 12.48 10.66 8.17 6.61 5.97 5.12 3.49 3.62 3.38 0.44 1.28 1.60 1.00 1.12 0.82 0.47 0.48 1.05 1.04 1.50 8.61 11.28 13.41

GFSCGP_sfc_wetblb_021.txt.gz
Wetbulb
40.81 35.91 33.33 36.57 38.02 37.69 35.70 34.93 33.83 36.95 41.82 37.77 38.68 37.58 40.53 42.97 42.35 41.78 38.58 39.07 39.26 39.20 40.40 40.54 40.52 40.31 40.36 40.26 40.31 40.81 41.76 42.88 44.51 46.17 48.43 49.57 50.31 51.67 52.66 55.38 56.26 56.40 55.98 54.82
37.07 34.16 39.96 41.08 40.66 39.39 37.23 34.81 34.13 37.72 41.17 38.36 38.35 37.58 40.61 42.06 42.19 41.14 39.57 38.36 38.70 38.56 38.72 39.40 39.01 38.83 38.77 38.85 39.23 39.68 40.16 41.01 42.30 44.30 45.40 47.03 46.07 45.65 47.56 51.61 53.38 54.30 54.28 53.73
35.34 39.68 42.76 41.49 39.45 37.60 35.65 34.42 34.58 35.27 37.78 37.41 34.75 34.10 38.29 41.33 39.90 40.45 39.87 39.73 39.16 37.87 37.19 37.26 37.47 36.83 37.12 37.22 37.21 38.94 39.54 39.82 39.97 41.31 42.97 43.75 44.34 43.62 43.90 45.13 47.98 50.21 51.78 51.96
37.18 41.58 40.60 38.91 38.05 38.52 33.84 38.48 38.03 36.58 32.25 28.95 35.23 26.30 34.73 37.77 36.25 37.40 36.95 36.17 36.38 36.82 37.27 36.98 36.39 36.25 36.09 35.71 36.64 37.82 38.87 39.18 39.70 39.34 38.60 37.87 38.33 38.18 39.82 41.19 41.54 42.21 44.86 48.19
37.77 37.45 35.98 36.13 37.99 39.23 36.37 37.71 35.60 34.65 31.50 29.81 31.09 27.56 32.78 35.66 33.59 34.84 34.92 35.69 35.59 35.86 35.97 35.59 35.53 36.43 36.23 35.29 34.18 34.85 37.04 37.84 38.32 38.13 37.59 36.82 35.90 36.58 37.24 38.18 38.05 39.11 41.06 43.73
37.62 38.20 37.90 38.62 39.06 39.02 38.50 35.56 34.56 32.61 31.04 24.47 31.13 30.33 30.39 32.57 35.15 34.28 35.03 35.29 35.71 35.33 34.99 35.37 36.12 35.89 34.45 34.24 33.32 33.63 34.11 34.74 36.32 36.30 35.99 35.57 35.01 35.09 35.09 35.26 35.54 36.45 37.39 38.64
35.59 36.84 37.50 38.86 35.27 36.73 35.29 32.03 26.19 23.47 21.89 23.45 32.08 28.91 33.01 35.17 37.15 36.77 34.26 33.75 33.91 34.23 33.59 33.32 33.28 33.18 32.96 32.18 32.23 33.56 32.25 32.17 33.14 33.66 33.34 33.23 33.59 34.15 34.24 34.14 34.26 33.91 34.55 35.27
31.80 30.53 36.67 37.97 37.13 34.89 34.14 35.10 27.24 20.24 20.35 22.19 30.71 26.12 32.44 34.24 35.20 35.16 34.56 33.35 33.49 33.22 33.95 33.62 32.79 32.27 32.40 32.04 31.35 30.73 30.56 30.65 31.54 31.74 31.59 31.47 31.37 31.46 31.88 32.10 32.90 32.95 33.15 33.94
32.04 32.02 37.02 38.02 37.72 38.82 34.43 31.77 35.53 29.10 22.40 22.18 27.59 31.75 33.94 34.47 32.86 32.94 32.50 32.56 31.82 32.52 32.31 33.34 32.98 31.50 31.72 31.30 30.77 30.17 29.51 29.40 30.11 30.89 30.77 30.28 30.14 29.48 28.94 28.89 29.61 30.49 30.92 32.53
35.31 30.37 36.64 35.55 37.25 37.28 36.49 38.63 29.42 29.21 17.14 17.69 25.04 26.52 28.28 30.93 30.15 31.03 30.36 30.09 30.85 31.84 32.32 31.72 31.70 31.23 31.13 30.79 30.52 30.51 30.41 29.21 29.01 29.72 30.34 30.73 30.23 29.84 29.09 28.47 27.57 27.91 29.33 29.58
37.03 34.59 32.34 35.37 33.50 33.27 33.08 30.63 32.19 32.83 28.84 21.53 17.35 23.70 32.79 32.58 31.28 29.81 30.04 30.99 30.39 30.29 29.83 31.14 29.85 30.02 30.27 30.64 30.99 30.30 30.09 30.49 30.18 30.33 30.39 30.80 30.57 29.29 28.47 26.84 27.10 27.10 27.35 28.10
37.46 34.79 25.73 31.04 35.32 36.42 35.31 33.24 33.52 26.02 23.49 25.08 26.49 26.43 33.72 32.24 32.10 31.90 30.96 31.81 31.06 30.73 29.54 33.03 31.89 30.66 30.65 31.24 30.94 30.08 30.44 29.69 30.28 30.48 29.41 29.25 29.85 29.23 27.61 27.31 26.89 26.21 25.77 26.68
38.51 30.59 19.90 22.77 29.32 34.71 32.15 32.85 33.06 33.17 31.41 26.33 23.98 22.84 32.68 30.34 30.20 31.30 30.08 30.46 31.17 29.79 28.58 29.01 29.14 27.87 27.60 27.30 28.38 27.71 28.39 28.85 30.25 29.86 28.56 28.27 26.98 26.86 27.44 27.17 27.49 27.06 27.17 26.55
40.08 33.15 24.74 21.05 22.85 29.56 25.22 27.79 28.46 29.59 19.96 20.42 22.77 25.39 30.24 31.47 30.83 31.77 32.65 33.09 32.67 30.07 28.90 26.64 26.48 26.44 26.91 27.44 27.39 27.36 27.55 27.69 27.45 27.01 25.68 24.89 24.72 25.88 26.40 25.73 25.22 25.16 26.35 25.60
35.05 23.79 28.03 29.13 29.97 28.70 27.54 26.58 27.01 25.14 26.33 21.88 24.90 24.43 28.92 30.80 26.91 26.12 26.47 31.13 30.65 29.43 27.46 27.05 26.54 26.51 26.48 26.71 27.43 28.03 27.71 27.64 27.21 26.16 25.18 24.89 25.06 25.66 25.50 24.84 24.72 24.15 24.29 24.83
33.89 21.02 25.42 19.23 27.01 26.53 23.83 25.84 25.85 25.59 25.13 24.29 24.72 23.75 31.16 24.48 26.19 26.57 26.56 27.07 26.22 26.04 27.52 26.74 26.92 26.96 27.18 27.14 27.08 27.85 27.21 26.82 26.12 24.49 23.98 24.71 24.82 25.13 24.82 24.94 25.08 25.05 24.76 24.22
26.12 21.05 13.58 11.40 22.71 20.20 11.87 20.50 23.21 24.25 25.55 23.69 19.32 23.44 21.10 23.48 25.60 23.51 23.47 24.91 25.53 25.94 26.29 26.52 26.53 27.06 26.81 26.56 27.31 25.98 25.49 24.65 21.89 20.94 21.37 21.75 22.69 22.78 23.28 23.45 23.10 22.53 21.91 22.06
24.96 18.45 12.84 6.40 7.81 -0.20 19.66 23.66 24.57 23.05 23.18 21.08 20.83 17.62 19.60 22.42 23.44 25.25 25.55 24.39 25.20 26.42 26.77 27.20 26.28 25.79 26.06 26.05 24.89 24.25 23.84 21.91 22.08 20.43 18.72 19.25 20.79 19.15 19.53 18.98 18.20 18.19 18.41 17.99
28.22 23.21 9.61 7.77 -0.27 12.27 19.91 22.74 21.98 20.89 18.34 21.03 19.84 21.17 22.32 23.46 21.50 20.88 25.55 25.65 25.54 26.06 26.68 26.02 26.07 26.04 24.89 22.51 21.54 21.75 20.98 21.11 20.45 19.12 18.99 18.23 16.37 14.33 14.08 12.18 12.58 13.45 13.22 12.99
24.58 25.11 18.06 -0.42 4.33 0.74 15.50 22.91 25.44 23.37 12.41 17.78 16.67 18.83 18.50 21.28 13.24 16.36 25.14 26.68 26.92 27.30 26.56 25.84 24.93 23.61 21.81 19.42 20.02 19.15 18.13 15.90 15.44 16.84 16.04 15.08 13.53 10.32 9.52 9.66 8.55 9.21 8.94 9.92
6.50 4.48 14.53 14.34 6.00 8.57 18.27 20.56 24.26 7.30 13.08 15.88 19.23 19.74 20.97 18.35 20.26 23.96 25.39 25.24 26.62 25.70 25.35 23.21 21.60 20.45 19.23 18.89 17.55 15.49 14.64 13.03 14.33 13.44 12.02 10.52 9.87 7.53 6.79 6.54 6.83 5.86 5.15 6.31
12.63 7.64 4.01 0.75 -4.09 4.06 22.58 20.00 15.96 19.50 23.83 22.86 22.85 23.43 23.57 24.01 24.37 24.59 25.01 24.94 24.97 24.35 22.14 21.46 19.76 18.88 17.52 16.97 14.44 12.58 11.56 13.28 10.71 8.63 7.30 5.98 4.41 4.52 5.99 3.20 3.42 3.31 2.96 2.46
11.59 16.80 9.28 13.42 11.55 22.50 23.12 22.84 25.09 25.45 22.48 24.13 23.70 24.96 24.71 24.10 23.65 24.52 23.94 23.69 24.07 22.78 20.67 18.85 15.04 14.71 15.16 12.00 11.21 9.25 9.89 9.29 7.68 1.43 0.03 0.97 2.83 3.66 3.72 1.58 1.36 1.59 2.52 2.26
18.52 20.23 16.19 14.72 19.75 21.37 23.11 24.36 25.30 25.68 25.13 25.40 25.47 25.34 24.73 23.65 23.89 23.56 23.54 22.92 20.83 18.23 15.91 13.86 10.90 8.30 7.10 8.26 10.41 6.24 6.46 6.18 -3.90 -5.38 0.40 2.93 2.46 1.45 1.49 2.60 2.51 0.89 0.41 0.67
20.29 19.50 15.77 16.45 21.96 22.12 23.13 24.34 26.33 25.07 25.36 24.69 24.27 24.01 24.01 23.69 23.41 23.04 21.77 19.76 18.19 16.26 13.87 11.05 8.60 7.88 7.08 7.18 4.68 1.97 4.35 -0.86 -1.66 0.20 2.43 1.96 1.97 0.69 0.73 1.74 1.35 2.35 4.47 5.99
24.21 21.88 18.62 17.07 24.54 23.22 24.78 26.00 26.23 25.12 25.35 25.19 24.19 23.09 23.41 23.08 22.84 20.59 17.65 16.75 15.49 13.24 11.39 8.79 6.76 5.27 2.97 -0.05 -0.09 -0.77 -4.72 -6.33 -4.71 0.09 1.58 1.37 1.18 0.86 1.01 0.52 0.82 8.16 10.96 13.26

GFSCGP_sfc_wetblb_024.txt.gz
Wetbulb
39.38 35.28 32.47 35.53 37.33 35.93 34.39 33.34 32.89 35.44 40.15 36.46 37.05 36.05 39.51 41.53 39.74 36.75 36.31 36.64 36.53 36.53 38.05 38.23 38.19 37.88 38.09 38.29 38.71 38.95 39.17 39.71 41.91 42.60 45.67 47.49 47.97 48.02 48.33 53.97 54.73 56.10 56.53 54.26
36.14 33.00 38.86 38.88 38.20 37.08 34.82 32.94 32.86 36.33 38.97 36.63 36.69 36.62 39.72 39.32 37.92 37.58 36.82 36.25 35.95 35.88 35.92 36.43 35.88 35.84 36.03 36.25 37.39 38.05 38.38 38.44 39.14 40.81 41.24 43.93 43.32 43.62 44.27 47.15 48.38 48.58 52.56 54.00
34.68 38.79 41.00 39.33 37.19 35.79 34.64 33.14 33.35 34.70 36.15 35.20 33.87 33.24 36.79 36.32 37.30 37.93 37.43 36.90 36.11 34.60 33.75 34.02 34.42 33.58 33.91 33.98 35.10 36.93 37.57 37.98 37.86 38.57 39.47 40.20 40.11 39.90 39.95 40.23 41.44 42.64 44.58 48.54
35.70 40.10 39.23 36.60 36.36 37.41 33.35 37.88 36.89 35.07 31.64 28.62 33.40 25.21 32.60 35.20 34.18 34.91 34.48 33.68 33.44 33.41 33.99 34.20 33.67 33.02 32.75 32.12 33.57 35.27 36.29 36.44 37.20 37.53 36.78 35.65 35.17 34.50 35.39 36.23 37.07 38.38 39.22 39.71
36.59 36.09 35.39 35.85 37.34 38.56 36.17 36.57 34.77 33.13 30.01 27.90 29.03 26.01 30.34 33.59 31.41 32.32 32.36 33.24 32.89 32.86 33.02 32.59 32.46 33.33 32.69 32.11 31.33 31.93 33.68 34.14 34.44 34.62 35.79 35.42 34.44 34.83 35.31 35.47 35.10 35.76 36.56 36.96
36.75 37.37 37.15 37.36 37.35 37.30 37.44 34.65 33.52 31.07 29.48 23.56 29.45 28.54 28.74 30.56 33.19 31.99 32.47 32.81 33.23 32.63 32.71 32.91 33.37 32.92 31.43 30.58 30.16 30.79 31.84 31.96 32.35 32.22 31.91 31.66 31.24 31.32 31.21 31.69 31.33 32.66 34.30 35.01
34.42 35.32 36.58 37.39 34.37 35.22 34.35 31.80 25.57 22.84 21.44 23.32 30.33 26.93 30.57 32.03 34.04 34.08 32.04 31.88 32.10 31.93 31.54 31.90 31.22 30.73 30.25 29.26 28.91 31.04 30.38 30.12 30.82 30.55 30.31 30.00 29.52 29.20 28.86 29.26 29.73 29.62 30.04 31.26
31.08 30.00 35.73 37.31 36.30 34.84 32.44 33.05 25.92 18.83 19.63 23.00 28.17 25.22 29.63 31.53 32.92 33.73 33.20 32.17 32.57 32.30 32.67 31.88 31.47 30.49 29.74 29.58 28.47 28.23 28.64 29.04 29.51 30.03 29.23 29.17 28.86 28.31 28.54 28.38 28.58 28.62 28.82 29.55
30.49 31.40 35.36 36.31 36.86 37.94 32.80 30.40 33.55 27.60 16.72 20.32 26.41 27.27 31.00 31.84 30.19 30.59 30.63 31.22 30.58 31.21 32.20 31.34 30.61 30.14 29.58 28.90 28.70 28.33 28.08 27.84 28.55 29.12 29.17 28.79 28.45 27.42 26.75 26.66 26.86 27.16 27.84 29.40
35.62 29.85 35.57 35.26 36.76 35.79 34.40 37.02 28.73 27.39 16.03 16.52 22.96 25.47 26.85 28.35 28.51 29.83 29.80 29.70 29.90 30.45 30.26 30.76 29.59 29.60 30.04 29.88 29.28 28.64 28.04 27.31 27.40 27.94 28.27 28.46 28.22 27.93 27.23 26.58 25.58 25.46 25.87 26.54
36.31 34.08 30.91 33.76 32.57 32.77 31.97 30.11 30.98 31.30 26.37 18.60 15.16 22.55 30.42 31.04 30.92 29.81 30.19 30.73 29.83 30.07 30.12 29.42 29.12 29.25 29.14 28.18 28.33 28.10 28.21 27.92 27.58 27.85 28.07 27.90 27.89 28.24 27.61 26.61 26.59 26.47 25.67 25.67
37.28 34.29 25.43 30.65 33.86 35.08 32.52 32.09 31.93 24.20 21.98 24.46 24.10 25.18 33.29 33.42 31.94 31.31 30.32 31.28 30.16 29.92 28.85 29.45 27.95 28.11 27.82 28.07 27.58 27.40 27.99 27.95 27.99 27.94 27.28 26.85 27.11 26.18 25.44 26.01 26.17 25.50 26.53 27.50
37.59 30.87 17.50 23.30 29.71 33.23 30.94 32.60 32.34 31.25 27.24 20.02 21.19 23.13 32.07 30.45 30.58 31.45 30.21 29.91 30.40 29.56 27.86 29.37 27.56 26.61 26.39 26.13 26.65 26.24 26.57 27.32 27.91 27.55 26.34 25.65 25.25 24.46 24.18 24.83 25.27 25.18 25.17 25.78
40.11 31.10 26.63 25.58 24.60 29.67 25.40 28.17 28.52 28.86 19.74 20.78 24.32 24.90 29.47 29.78 30.32 30.86 31.69 30.87 29.60 29.30 28.06 26.51 25.92 25.24 25.47 25.58 25.76 25.64 25.65 26.01 26.28 25.68 25.22 24.19 23.86 23.80 23.51 23.90 23.76 23.66 23.92 23.65
36.20 30.81 28.20 28.68 30.76 30.12 28.52 27.87 26.94 26.04 25.83 21.86 24.49 22.82 28.22 27.99 27.90 28.59 28.86 27.97 30.93 30.39 26.52 25.63 25.37 24.93 24.73 25.27 26.13 26.47 26.55 26.80 26.49 25.24 24.86 24.24 24.28 24.01 23.48 23.11 23.35 23.57 23.83 23.70
32.96 22.97 26.54 20.51 26.76 27.68 24.81 26.84 26.07 26.67 26.84 25.36 26.41 25.14 31.60 29.10 26.05 25.02 25.38 26.55 29.87 27.98 27.20 26.32 26.01 25.88 25.82 25.54 25.73 25.97 26.10 26.01 25.22 23.26 21.93 22.87 22.61 22.48 22.42 22.41 22.18 21.56 20.90 20.35
28.90 23.10 18.41 15.76 20.83 20.08 11.32 19.18 23.98 25.55 25.81 24.43 19.84 24.19 21.97 24.54 25.72 24.68 24.37 25.18 24.90 24.69 25.68 25.77 25.47 25.85 25.85 25.11 26.20 24.76 24.09 23.49 20.76 19.64 18.65 18.77 19.63 19.36 19.62 18.57 17.79 16.98 16.20 16.53
24.86 22.45 20.39 10.51 8.06 0.38 20.24 22.36 23.88 23.01 23.76 22.18 21.71 18.28 21.07 24.30 24.17 24.80 23.98 24.07 24.74 25.51 25.95 25.53 25.29 24.93 24.62 24.86 23.65 23.25 22.60 20.83 20.47 18.27 15.71 16.18 17.42 14.99 15.23 14.42 13.46 13.26 13.39 12.78
28.23 23.70 11.38 9.86 2.97 13.60 21.05 23.04 21.87 20.76 18.73 19.81 20.00 18.96 23.05 22.95 20.89 19.87 24.64 25.07 25.01 24.72 25.81 25.78 25.35 24.47 23.43 21.94 21.52 21.05 20.10 20.03 18.62 17.32 17.30 15.68 13.64 10.82 11.54 9.01 9.55 10.15 9.49 9.00
26.07 25.16 19.22 2.31 1.39 2.24 16.46 22.96 24.49 23.06 11.47 15.01 17.16 18.38 19.49 20.06 12.38 17.44 23.75 26.09 26.19 26.40 25.87 25.43 25.03 23.29 20.58 19.31 19.82 18.51 17.29 15.17 14.55 15.78 14.46 13.36 11.83 6.45 7.35 7.88 6.87 7.54 6.84 7.85
10.12 12.66 16.96 13.65 2.06 7.43 18.07 20.03 23.18 8.30 14.84 14.90 17.16 20.56 19.64 17.86 21.73 23.44 24.98 24.47 25.63 25.85 25.24 24.81 22.71 20.73 19.27 18.23 17.02 15.00 14.11 12.42 13.36 12.28 10.99 9.42 9.01 6.44 5.65 5.28 5.86 4.79 3.96 5.17
13.14 10.61 8.11 5.49 6.22 4.43 21.41 20.53 16.20 20.96 22.71 22.44 22.65 23.20 22.62 24.24 24.40 24.40 24.56 24.40 24.85 24.22 24.05 22.64 20.00 18.35 16.92 16.10 14.06 12.17 11.28 12.28 9.43 7.58 5.91 4.59 2.37 3.25 5.48 1.57 2.37 2.23 1.50 0.62
12.71 16.93 9.67 13.57 12.10 22.81 23.28 23.77 26.52 24.73 22.54 24.14 23.59 24.15 24.72 24.21 23.69 24.29 24.14 23.78 24.06 23.90 22.27 20.69 17.60 15.96 15.11 12.17 11.23 9.42 9.54 8.25 6.52 -0.37 -3.62 -2.80 -0.01 2.61 3.07 0.30 0.59 0.12 0.24 -0.39
17.52 19.99 15.65 14.51 19.34 21.20 23.95 26.50 24.84 25.53 25.02 25.78 25.36 25.18 24.60 24.02 24.23 24.07 23.11 23.11 22.42 20.50 18.21 14.40 12.11 9.97 9.75 9.85 11.35 6.70 5.60 5.21 -6.09 -10.19 -3.73 0.24 -0.18 0.59 0.30 2.37 2.53 0.48 -0.81 -0.52
18.19 18.88 14.21 15.21 20.88 21.09 22.41 23.51 25.08 25.39 24.98 24.77 24.54 24.90 24.97 24.09 23.70 22.65 22.34 21.64 20.83 17.88 14.87 12.60 10.81 10.10 9.10 8.75 7.46 4.21 3.37 -2.08 -4.84 -5.17 -0.31 0.15 -0.22 -2.52 0.66 1.86 1.43 2.03 4.47 5.92
21.60 21.22 17.61 16.32 24.79 23.28 24.45 26.04 26.25 25.05 25.40 24.58 24.20 23.43 22.69 23.02 23.24 22.47 21.21 19.78 17.73 14.79 11.51 9.22 7.59 6.83 5.43 3.99 3.63 2.44 -2.72 -7.14 -8.79 -3.08 -0.10 0.11 0.35 0.33 0.87 0.19 0.25 7.81 11.00 13.00

GFSCGP_sfc_wetblb_027.txt.gz
Wetbulb
38.11 34.58 32.36 35.30 36.40 34.36 32.75 31.68 31.94 33.42 38.45 35.14 35.73 35.03 38.67 39.61 36.61 33.73 33.71 33.64 33.94 34.22 35.52 35.48 35.37 35.35 35.98 36.61 37.05 37.29 37.58 38.14 39.77 40.83 43.10 44.65 42.40 42.74 42.60 44.54 44.31 46.75 49.99 53.03
35.09 32.06 37.86 37.63 36.79 35.88 32.88 30.82 31.26 35.08 37.63 35.97 35.66 35.92 37.35 36.15 35.27 34.98 34.15 33.38 33.18 33.03 33.17 34.00 33.50 33.18 33.07 33.79 35.30 36.07 36.58 36.90 37.73 38.54 38.78 40.84 39.97 40.10 39.42 40.66 41.15 41.18 41.80 43.42
33.95 37.87 39.58 37.92 35.42 34.20 33.07 31.83 31.79 33.73 34.99 33.98 32.68 32.15 33.73 34.37 35.19 35.32 34.63 34.16 33.28 32.04 31.63 31.81 31.67 30.78 30.93 31.17 31.93 34.21 34.90 35.76 36.48 37.47 38.02 37.86 37.65 36.75 36.53 36.60 37.58 37.37 38.35 38.53
34.82 38.47 38.32 35.08 35.17 35.92 32.01 36.69 36.29 34.41 31.43 28.12 31.88 25.10 31.37 32.46 31.88 32.67 32.18 31.05 31.05 31.32 31.83 31.70 30.85 29.88 29.68 29.66 30.47 32.11 32.81 33.16 34.44 35.81 35.58 34.53 33.50 32.11 33.21 33.67 34.31 35.48 35.73 35.05
35.72 35.77 33.88 34.39 35.95 37.74 35.46 36.04 34.43 32.44 29.70 27.78 28.54 25.77 29.08 31.77 29.54 30.40 30.76 30.93 30.70 30.85 30.69 30.30 30.06 30.63 29.91 29.46 28.74 29.46 30.99 30.95 31.14 31.41 31.85 31.39 30.03 30.97 30.83 30.83 30.57 31.38 32.56 32.73
36.36 36.55 36.59 37.23 35.74 37.27 36.98 33.92 32.61 30.29 28.85 22.90 28.95 28.56 26.98 29.68 31.40 30.34 31.21 31.11 31.49 30.83 30.67 30.57 30.80 30.51 28.65 28.32 28.32 28.78 29.81 29.53 30.00 29.99 29.66 28.72 27.70 27.69 27.80 27.95 28.09 28.87 29.94 30.52
33.22 34.67 35.27 36.26 33.66 34.02 33.37 31.52 25.32 22.93 21.38 23.32 28.37 25.36 29.36 30.66 31.65 33.02 31.18 30.61 30.75 31.02 29.94 29.80 29.14 28.15 27.46 27.03 27.58 29.25 28.75 28.18 28.42 28.66 28.41 27.86 26.96 26.61 26.51 26.14 26.26 26.36 27.11 27.86
30.07 29.37 35.07 36.83 35.82 33.22 31.43 32.30 26.02 19.26 18.97 22.51 27.22 25.10 30.05 30.11 31.36 33.45 32.85 31.83 30.82 30.05 30.51 30.08 29.57 28.31 27.60 27.32 26.85 27.19 27.63 27.51 27.61 27.64 27.26 26.99 26.72 26.09 26.20 25.78 25.71 26.01 26.39 26.69
29.68 30.92 34.40 34.48 35.85 37.18 31.75 29.54 32.78 26.70 14.97 19.41 26.35 27.49 29.91 30.23 29.03 29.75 30.17 30.21 29.87 30.55 30.49 29.96 29.80 28.65 27.80 26.90 26.59 26.30 26.19 26.59 27.16 27.07 26.79 26.42 26.33 25.82 25.26 25.08 24.96 24.58 25.06 27.44
34.52 29.33 33.82 34.01 34.78 35.05 33.51 36.12 28.51 26.81 17.18 17.07 22.90 24.45 26.98 26.97 27.73 29.05 28.68 29.12 29.97 30.47 30.86 29.55 28.85 28.79 28.32 27.75 27.06 26.40 26.32 25.96 26.16 26.72 26.90 26.63 26.15 25.99 25.56 24.74 24.41 24.23 24.56 24.76
35.78 33.56 30.54 33.27 32.06 31.46 31.59 30.22 30.35 30.46 26.02 18.98 14.55 23.67 29.40 30.81 30.37 29.31 30.13 30.97 30.08 29.42 28.97 29.35 28.13 28.21 28.08 27.48 26.88 26.38 26.36 26.37 26.22 26.48 26.13 26.00 25.64 25.25 24.93 24.70 24.18 24.15 24.43 24.82
37.24 33.37 24.63 29.81 32.48 33.16 31.61 31.63 31.60 27.07 23.18 23.19 23.08 26.00 32.24 31.72 32.62 32.18 31.17 31.36 30.64 30.07 29.48 28.31 27.46 26.86 26.49 26.96 27.11 27.20 27.20 26.65 26.51 26.37 25.64 26.14 25.58 24.85 24.15 23.89 24.16 24.34 23.94 24.56
37.50 30.43 19.77 26.71 29.78 30.61 29.82 30.63 30.45 28.94 24.99 18.13 20.97 23.19 32.20 30.50 30.60 31.41 30.99 30.47 30.37 30.01 28.15 27.88 26.22 26.04 26.23 26.04 26.31 25.77 26.15 26.34 27.01 26.51 25.68 25.13 24.56 23.70 23.22 23.25 23.72 23.91 23.57 23.30
41.16 33.06 30.59 27.91 27.10 29.38 25.76 28.97 28.88 28.04 24.38 24.73 26.55 27.84 28.00 30.13 30.81 30.69 30.05 30.35 30.44 29.66 27.71 27.21 25.55 25.56 25.29 24.87 24.90 24.62 24.62 25.23 26.03 25.04 24.56 23.82 23.47 23.32 22.73 22.88 22.57 22.50 22.59 21.95
36.44 31.07 28.59 29.98 29.06 29.45 27.78 26.95 26.59 25.68 27.22 25.56 28.00 26.36 28.37 30.31 29.60 29.69 31.17 30.71 30.03 29.49 26.94 26.65 27.29 25.33 23.79 23.90 24.38 24.47 24.43 24.66 24.69 23.96 23.94 22.82 22.82 22.48 21.93 21.35 20.92 20.30 19.82 19.41
31.93 26.07 28.42 25.60 27.21 28.96 27.66 28.95 29.37 29.44 28.15 26.28 26.08 25.97 31.12 28.45 28.08 25.87 26.86 26.87 28.41 30.26 29.14 26.30 26.01 25.73 24.99 24.59 24.87 25.24 24.78 24.95 24.58 22.40 20.68 20.93 20.75 20.67 19.85 18.76 17.80 17.50 17.16 16.45
29.10 26.03 22.15 25.19 22.26 22.20 18.48 20.73 25.82 27.21 27.52 27.38 23.44 28.09 22.34 25.17 25.72 25.60 25.45 25.43 25.73 27.07 28.26 26.80 25.86 25.82 25.91 25.21 25.83 23.72 23.55 22.92 19.70 18.63 16.65 17.05 17.86 16.53 16.16 15.56 15.04 14.57 13.56 13.82
28.20 27.32 25.18 17.40 16.41 13.47 23.23 21.87 23.99 23.75 24.29 23.23 22.00 18.92 22.12 24.25 24.23 25.93 24.64 24.56 24.72 24.97 25.20 25.38 25.07 24.58 24.59 24.34 23.81 23.16 22.49 20.23 19.11 16.97 14.87 15.27 15.62 13.12 13.23 12.48 11.53 11.41 11.42 10.65
28.67 25.26 17.76 17.91 7.99 16.21 21.66 22.61 20.87 20.07 19.82 22.11 23.74 22.18 23.27 23.26 20.42 19.80 23.92 23.56 24.24 24.01 25.07 25.52 25.66 24.88 23.05 22.74 22.52 21.29 19.63 18.93 17.42 16.76 16.64 14.75 12.87 9.73 10.30 6.73 7.94 8.84 8.24 7.78
26.60 27.00 24.74 9.54 7.68 7.68 18.33 22.52 24.22 23.90 13.09 16.95 20.40 19.22 19.38 19.75 13.63 20.24 23.35 24.70 24.77 25.49 25.68 25.55 24.78 23.61 22.06 20.63 20.48 18.90 17.05 14.65 14.08 15.99 15.02 13.25 11.61 4.84 4.87 7.00 6.06 6.70 5.26 7.22
12.79 18.83 19.97 14.00 14.36 12.31 17.54 20.39 23.99 10.08 16.42 15.68 18.02 20.86 19.27 17.45 22.12 23.94 23.94 23.81 25.56 25.73 25.58 24.62 23.47 22.36 20.95 18.76 17.57 16.02 14.52 12.60 14.04 12.39 11.17 9.66 8.85 4.75 4.39 3.78 4.80 3.75 2.94 4.60
14.01 11.65 9.92 9.60 8.03 7.54 22.08 21.06 17.87 20.73 21.40 21.41 21.36 23.08 22.17 23.13 24.46 23.72 23.96 24.19 24.47 24.47 24.50 25.12 22.01 20.28 17.57 17.18 15.53 13.71 12.04 13.02 10.44 9.28 6.94 4.87 -0.22 1.03 3.57 -5.05 -0.43 -1.09 -1.05 -1.13
14.51 18.21 13.00 15.87 14.59 22.60 22.84 23.22 25.95 24.66 22.52 23.16 23.49 24.76 24.57 23.84 23.28 24.11 23.38 23.29 24.20 24.45 23.85 22.96 20.13 17.13 15.88 13.38 12.19 11.12 11.35 9.98 6.94 3.39 -2.57 -5.69 -2.04 0.70 1.11 -4.15 -0.83 -0.94 -2.62 -2.72
18.11 19.77 17.00 16.33 19.58 20.16 23.26 24.93 24.41 25.19 24.85 25.71 25.57 25.26 24.39 24.00 23.80 23.56 23.11 23.42 22.79 21.75 20.09 17.39 15.41 13.99 11.43 9.46 11.47 8.69 8.44 7.41 -0.75 -0.89 -2.88 -0.98 -2.69 -1.97 -2.03 1.67 2.13 -0.58 -1.77 -1.32
19.04 19.12 14.95 15.36 20.60 20.75 22.58 23.69 25.22 25.74 24.96 24.38 24.51 24.78 24.32 23.84 23.87 22.64 22.77 21.93 22.34 20.97 16.79 15.26 15.78 14.08 10.35 8.97 7.28 5.52 6.13 1.72 -1.25 -1.02 0.66 -1.32 -2.68 -3.92 -1.46 0.36 0.53 1.63 3.40 5.02
20.62 19.67 16.72 13.67 23.34 23.25 23.53 24.91 25.77 24.57 25.15 24.59 23.72 22.76 22.90 23.24 24.02 23.84 22.44 22.75 20.86 17.91 13.87 12.41 10.17 9.00 6.69 5.03 4.07 3.37 -0.16 -2.36 -2.59 -0.82 0.45 -1.61 -1.20 -1.45 -0.01 -0.53 -0.58 6.85 11.02 13.44

GFSCGP_sfc_wetblb_030.txt.gz
Wetbulb
36.88 34.36 32.42 34.85 35.60 34.03 32.54 30.68 31.64 32.44 36.76 34.46 35.25 34.93 38.01 36.11 33.43 31.91 31.73 31.63 31.46 31.75 32.99 33.21 33.17 32.71 33.16 34.27 35.09 35.67 36.50 37.22 38.91 38.94 41.06 40.54 38.28 38.89 39.24 40.49 40.80 40.92 41.58 43.25
33.92 31.62 37.25 36.72 36.04 34.72 32.17 30.63 30.55 33.76 36.15 35.46 34.25 34.87 35.23 34.51 33.32 33.42 32.14 31.29 31.05 30.64 31.04 31.84 31.30 30.96 30.70 31.15 32.44 33.64 34.84 35.72 37.02 37.44 37.51 37.71 37.46 36.70 36.57 37.88 36.50 36.69 37.06 38.46
32.89 36.78 37.93 36.81 33.61 32.79 31.31 30.69 30.19 32.95 33.31 33.45 31.09 31.32 31.30 32.58 33.14 33.41 33.03 32.15 31.43 30.36 29.68 29.62 29.60 28.60 28.45 28.71 28.70 31.23 31.92 33.11 34.25 35.70 36.48 36.02 35.30 33.77 33.02 32.41 32.83 32.72 33.28 34.35
33.76 37.18 37.56 33.94 33.85 34.19 29.91 35.02 34.88 32.79 31.06 28.10 30.82 24.94 29.48 30.74 30.51 31.08 30.59 29.57 29.75 30.01 29.91 29.28 28.30 27.65 27.67 27.77 28.42 29.34 30.20 30.63 31.78 32.51 32.28 30.79 29.62 28.35 28.96 28.95 30.04 30.84 31.32 31.37
35.47 34.74 33.76 33.72 34.91 36.20 33.79 35.40 33.49 31.55 29.16 26.44 27.12 24.80 28.57 30.40 29.13 29.57 29.60 29.63 29.52 29.50 29.25 28.75 28.07 28.61 27.99 27.95 27.04 27.44 28.81 29.22 29.33 29.56 29.67 29.25 28.02 27.93 27.56 27.66 27.94 28.38 29.30 29.72
35.53 36.01 36.37 36.65 34.77 36.43 35.82 33.72 31.85 29.37 28.12 22.39 29.00 28.28 26.46 28.18 31.03 30.03 30.35 30.04 30.03 29.34 28.94 28.69 28.64 28.40 27.43 27.21 27.23 27.34 27.89 27.62 27.88 28.12 27.55 26.75 26.05 25.59 26.27 25.78 26.15 26.45 27.03 27.83
32.75 34.15 34.80 35.82 33.10 32.64 32.51 30.84 25.00 22.69 21.76 23.22 27.25 24.86 29.09 31.21 31.36 31.91 31.22 30.04 29.73 29.70 28.59 28.13 27.24 26.10 26.13 26.18 26.62 27.73 26.97 26.43 26.62 26.70 26.41 26.04 25.31 25.01 24.69 24.44 24.30 24.50 24.79 24.87
29.34 28.11 34.45 36.35 35.10 32.41 30.97 31.25 26.24 19.85 19.39 22.26 26.59 24.50 30.43 29.85 30.74 31.85 32.76 31.10 30.21 29.42 29.27 28.73 27.91 26.40 25.95 26.09 25.94 26.37 26.25 25.87 25.99 25.81 25.46 25.39 25.26 24.63 24.40 24.09 23.85 23.72 23.82 24.28
28.76 30.23 33.34 33.60 34.32 35.37 30.38 28.48 31.78 25.79 14.61 20.27 26.20 27.89 29.29 29.60 28.60 29.04 29.11 29.70 29.06 28.91 29.09 29.20 28.61 27.05 26.16 25.46 25.59 25.92 25.72 25.59 25.66 25.47 25.08 24.65 24.61 24.16 23.20 22.97 23.45 23.30 23.89 25.84
34.48 29.50 32.54 32.71 35.42 34.44 33.32 35.15 28.26 26.43 16.55 16.51 23.55 24.25 27.77 28.18 28.22 28.02 28.24 28.78 28.91 29.67 29.61 29.01 28.50 27.62 27.11 26.31 25.76 25.26 25.21 25.07 25.18 25.18 25.15 24.46 24.13 23.75 23.37 23.58 23.33 23.30 23.92 24.48
35.27 33.83 30.10 32.51 31.02 30.84 31.55 29.84 29.73 30.05 26.36 19.96 15.76 23.79 29.24 30.55 29.31 28.39 29.50 30.47 30.12 30.09 30.24 29.30 28.29 28.22 27.92 26.79 25.52 24.88 24.99 24.98 24.76 25.19 24.83 24.95 24.40 23.73 23.78 23.54 23.14 23.18 23.31 23.50
36.51 32.72 26.01 29.57 31.60 31.94 30.23 31.12 30.77 27.57 23.28 22.25 22.74 27.07 29.90 30.21 30.68 31.59 31.00 31.31 30.67 30.43 29.66 29.85 28.57 27.60 26.36 26.57 26.20 25.59 25.21 25.16 25.67 25.32 24.54 25.23 24.52 24.23 23.32 22.71 22.93 23.21 22.90 23.48
37.25 30.88 20.15 25.60 29.22 29.42 28.81 29.91 30.46 28.53 25.56 20.48 25.46 25.43 31.22 28.77 29.38 30.42 29.86 29.94 30.34 30.28 29.32 28.50 27.11 25.82 25.67 24.43 25.17 25.31 25.72 25.85 26.07 25.00 24.71 24.55 24.17 23.19 22.56 22.39 22.69 22.81 22.22 21.63
41.02 31.36 28.37 27.51 27.44 29.96 26.96 29.20 29.48 30.18 27.35 27.55 27.85 29.55 27.48 29.58 30.66 29.76 30.01 30.42 30.25 29.96 29.45 27.78 25.55 24.63 24.70 25.08 25.14 24.81 24.56 24.90 25.69 24.97 24.24 23.57 23.11 22.55 21.66 21.79 21.36 20.45 20.07 18.73
37.85 29.72 29.32 29.60 28.71 29.26 29.17 28.92 27.82 27.29 29.99 28.60 30.00 27.50 28.90 31.85 31.50 31.42 30.97 30.18 29.50 29.54 28.72 26.70 26.93 25.98 25.67 24.66 24.67 24.34 23.78 23.88 23.97 23.30 23.35 22.94 22.63 21.48 20.64 19.33 18.39 17.86 17.76 17.33
33.59 30.34 28.84 24.56 27.54 28.52 26.67 28.36 27.47 29.46 27.32 26.82 25.70 25.49 30.92 30.22 30.62 28.32 29.24 29.85 27.85 27.86 29.32 28.40 27.67 27.69 26.23 24.80 24.52 24.76 23.73 23.58 23.68 22.97 22.42 21.23 20.39 19.87 18.08 17.36 16.71 16.33 15.69 14.71
31.32 27.38 24.55 26.12 22.78 23.71 23.74 25.78 27.78 27.33 28.15 29.55 24.61 30.69 24.84 25.99 26.79 26.16 26.24 25.82 26.31 27.94 29.72 30.09 27.02 27.18 26.94 25.29 26.01 23.66 23.46 23.33 20.85 19.74 16.92 17.08 16.80 15.85 15.26 14.75 14.25 13.43 12.29 12.43
27.62 25.90 24.95 19.44 20.49 16.50 23.55 21.35 25.43 29.62 28.79 28.93 24.61 21.55 22.97 24.50 24.42 26.08 25.49 25.93 25.89 26.15 26.61 28.11 27.00 24.92 24.98 24.91 23.98 23.22 23.18 20.89 19.36 17.53 15.11 15.00 14.91 12.73 12.76 11.79 10.74 10.55 10.41 9.70
29.14 27.76 19.37 18.56 16.95 20.41 22.68 22.01 21.03 22.07 21.96 22.07 24.50 25.13 23.33 23.68 21.32 21.53 24.99 25.17 25.62 24.88 25.39 25.15 24.90 24.32 23.10 23.13 23.04 21.97 20.31 19.97 18.13 16.55 16.37 14.38 12.38 9.55 9.77 5.91 7.19 8.06 7.49 7.19
27.61 30.13 28.99 15.61 16.09 14.98 17.65 22.11 24.41 24.38 15.17 19.28 21.16 21.53 19.23 20.78 14.31 19.26 24.03 24.05 24.34 24.73 24.78 24.98 25.16 24.03 22.81 22.30 21.60 20.04 18.47 16.59 15.11 16.10 16.09 13.44 11.31 5.64 4.73 7.07 5.35 5.70 3.13 7.12
20.56 20.75 23.59 18.57 18.09 17.59 20.20 20.92 24.02 13.89 19.59 15.65 18.21 20.46 19.66 18.23 21.99 24.28 24.43 23.63 24.86 25.08 24.90 24.52 23.05 23.00 22.68 20.49 18.91 18.09 16.11 14.76 14.40 13.60 11.41 9.88 9.05 4.96 4.14 2.86 3.68 0.72 0.57 4.15
18.59 18.88 16.85 17.58 15.92 14.50 22.27 21.90 19.62 22.73 22.23 22.71 22.05 22.80 22.81 23.78 24.75 24.05 24.25 24.27 23.82 24.19 24.53 24.92 22.74 22.16 20.69 18.80 18.23 16.33 15.09 13.76 11.50 9.42 8.59 7.26 5.08 2.74 4.70 -5.73 -3.86 -4.54 -3.80 -4.01
17.44 21.55 17.53 21.22 19.75 22.57 25.10 24.72 25.94 25.33 22.87 22.76 23.12 24.01 24.29 23.42 23.02 23.97 23.03 22.59 23.13 23.65 23.77 23.20 21.69 20.63 17.91 15.97 16.72 14.99 12.79 10.65 7.82 5.49 4.57 1.39 1.53 4.11 3.83 -3.70 -1.30 -2.67 -6.07 -5.63
18.71 20.50 18.58 19.20 20.23 21.48 23.82 25.30 24.72 25.25 25.21 25.47 25.15 24.45 24.11 23.57 23.91 23.32 22.54 22.40 22.24 21.85 21.40 18.56 15.77 15.70 14.64 11.93 13.67 10.66 9.63 7.83 2.04 -2.07 2.56 3.61 2.30 2.45 1.83 2.95 2.36 -4.49 -4.99 -2.72
20.46 19.74 16.25 16.52 20.40 21.41 23.30 24.23 25.71 25.42 25.10 24.15 23.84 24.32 24.16 23.26 22.99 22.24 21.96 21.55 21.29 21.14 18.56 15.94 17.05 17.23 15.90 11.11 8.61 6.25 6.46 3.53 0.15 -0.58 1.77 3.01 2.48 1.33 1.13 1.30 1.28 1.04 2.06 2.85
20.78 19.23 16.95 14.84 23.41 23.58 24.46 25.59 26.29 24.48 24.59 24.35 23.21 21.88 22.19 22.56 22.72 22.16 21.29 21.71 20.93 20.63 15.30 14.13 14.15 13.77 10.97 9.53 6.03 2.09 1.14 0.62 -0.30 1.16 3.35 3.03 2.14 1.21 1.35 0.74 -0.13 6.90 11.49 14.06

GFSCGP_sfc_wetblb_033.txt.gz
Wetbulb
37.47 35.42 33.71 35.52 35.90 35.31 34.04 32.22 32.97 33.74 37.39 36.67 36.29 36.16 39.00 35.84 33.96 32.62 32.43 32.43 32.43 32.60 33.82 33.84 33.73 33.60 34.06 34.80 35.66 36.38 38.03 38.77 41.44 42.39 42.34 40.99 38.40 38.68 37.69 37.39 37.44 38.54 39.87 41.38
34.33 32.53 37.44 37.08 36.20 34.89 32.70 31.77 31.77 34.26 36.24 36.00 35.07 35.32 37.29 35.85 34.54 34.26 32.73 31.97 32.21 32.12 32.30 32.43 32.22 31.95 31.69 31.99 32.53 33.86 35.04 36.36 38.70 39.34 39.44 39.39 37.31 35.61 35.00 35.28 34.72 35.06 36.04 37.24
32.64 36.35 37.08 36.64 33.56 33.18 32.04 31.61 30.74 33.16 34.19 34.37 32.73 32.93 33.38 33.31 33.55 33.48 33.24 32.67 32.14 31.52 30.86 30.71 30.57 29.97 30.56 30.03 29.97 31.71 32.69 33.75 34.63 36.33 37.81 36.54 35.37 34.50 33.36 32.83 32.82 32.80 33.79 34.30
33.76 36.57 36.69 33.44 33.49 33.67 29.73 34.24 34.06 33.15 32.06 29.06 32.61 27.13 31.82 32.17 31.29 31.62 31.26 30.65 30.95 31.09 31.03 30.34 29.63 29.18 29.46 29.25 30.04 30.68 31.28 32.27 32.59 34.10 33.10 32.51 31.49 29.85 30.49 30.70 31.48 31.73 31.92 32.16
35.90 34.14 33.74 33.64 34.95 35.49 33.79 34.47 33.30 32.66 31.11 29.16 29.26 27.24 30.06 31.40 30.71 30.53 30.28 30.21 30.70 30.74 30.27 29.36 29.12 29.30 29.32 29.49 29.15 29.59 30.38 30.33 30.50 31.00 32.07 31.09 29.55 29.93 30.18 30.21 30.32 30.25 30.59 30.71
35.45 35.82 36.35 36.55 35.06 35.80 35.15 33.50 32.10 30.05 29.09 23.23 29.65 29.48 28.47 29.98 32.34 30.58 31.37 30.62 30.87 30.23 29.90 29.41 29.57 29.46 28.91 29.22 29.15 29.33 29.38 28.76 29.38 29.72 29.50 29.57 29.09 28.65 28.83 28.53 28.62 28.72 29.15 29.33
32.90 34.10 34.80 35.79 32.99 33.45 32.09 31.44 25.52 23.93 23.09 23.82 27.75 26.04 30.61 32.99 33.15 33.50 32.45 31.10 30.55 30.64 29.43 28.83 28.23 27.88 28.17 28.23 28.58 29.12 28.60 27.53 28.17 28.51 28.44 28.40 27.93 27.99 27.38 27.19 27.44 27.53 27.69 27.57
29.65 28.57 34.29 36.06 35.15 32.78 30.77 32.16 26.61 20.26 20.38 23.40 26.46 24.88 31.52 31.76 31.72 32.58 33.60 32.40 31.36 30.07 29.83 29.23 28.31 27.68 27.89 28.32 28.40 28.13 27.60 27.09 27.53 27.78 27.43 27.64 27.63 27.58 27.06 27.10 27.12 26.93 27.15 27.26
29.74 30.18 33.52 33.96 34.58 36.00 31.31 29.37 32.65 25.11 14.82 20.95 26.87 29.09 32.59 30.83 30.22 30.15 30.23 30.36 30.20 30.06 29.84 29.77 28.97 27.59 27.16 27.29 27.72 27.65 27.16 26.92 27.23 27.05 27.10 26.69 26.75 26.59 26.10 26.15 26.57 26.66 27.06 27.48
34.32 29.52 32.71 32.87 34.99 34.23 33.29 35.01 28.37 26.72 18.82 17.17 24.19 26.12 29.50 29.40 29.85 28.75 28.54 29.69 30.50 30.51 29.71 29.93 29.51 28.34 27.51 27.27 27.36 27.27 27.54 27.21 27.09 26.95 26.79 26.58 26.04 26.15 26.17 26.35 25.73 25.69 25.95 26.08
35.50 34.32 30.14 32.56 31.30 31.54 31.73 30.09 29.68 30.51 27.62 21.79 18.31 24.75 30.86 32.30 31.19 29.68 30.02 31.00 31.17 30.70 30.90 30.65 30.23 29.23 28.45 27.47 26.58 26.46 26.61 26.51 26.83 27.12 26.64 26.70 26.39 26.17 26.29 25.87 25.57 25.44 25.50 25.09
36.58 33.54 27.16 29.52 31.60 31.96 31.51 31.72 31.72 27.86 23.52 23.20 23.71 27.69 31.28 31.48 31.85 32.04 31.36 31.89 31.43 32.28 31.96 31.45 30.59 29.61 27.99 27.45 26.58 26.16 26.24 26.48 27.09 26.67 26.49 26.75 26.43 26.16 25.34 24.88 24.92 25.04 23.93 24.00
37.04 32.11 24.10 27.77 30.15 29.94 29.48 30.30 30.58 29.46 26.89 22.21 22.71 25.66 31.29 29.50 29.84 30.92 30.95 31.12 31.82 31.62 30.90 30.93 29.72 28.96 28.29 27.19 26.74 26.27 26.42 26.80 27.30 26.41 26.39 26.01 25.95 25.23 24.59 24.21 23.99 23.33 22.37 21.68
41.31 32.56 30.93 31.13 30.21 30.89 27.76 29.03 29.96 31.24 22.71 26.55 28.84 30.32 28.69 29.91 30.60 29.87 30.53 30.98 30.37 31.10 31.26 30.05 28.81 28.77 27.67 26.89 26.92 26.53 26.34 26.80 26.98 26.15 25.95 25.64 25.16 24.58 23.83 23.30 22.01 20.97 20.60 19.74
37.97 31.37 29.09 30.42 30.27 30.93 30.20 29.28 28.75 29.34 31.94 28.63 31.51 29.61 31.77 32.02 31.63 31.98 31.84 30.33 29.87 30.27 29.85 29.27 29.24 27.98 26.40 26.04 26.24 26.49 26.56 26.14 26.19 25.83 25.50 25.34 25.20 23.44 22.41 20.59 19.28 19.14 18.63 18.10
35.85 32.81 29.91 27.63 28.76 28.79 27.19 29.13 29.65 30.79 30.84 30.45 29.51 28.12 33.07 33.52 31.23 30.39 30.55 30.28 29.78 29.93 30.27 30.32 29.33 28.36 27.06 27.16 26.85 26.83 26.30 25.70 25.50 25.15 24.86 24.33 22.75 21.23 19.51 18.50 17.75 17.26 16.26 15.50
33.24 30.64 30.16 30.40 25.84 27.70 26.83 27.72 28.31 28.29 28.29 31.69 26.64 33.33 28.02 28.81 29.55 29.63 29.70 30.19 29.89 28.84 28.85 29.22 29.31 28.69 28.15 26.97 28.18 26.44 25.87 24.72 23.41 22.61 21.35 20.47 19.99 18.86 17.29 16.20 15.48 14.63 13.43 13.24
30.85 30.79 30.53 17.96 23.31 20.42 23.90 21.57 27.61 29.86 29.40 27.28 25.16 22.23 27.64 29.89 27.98 28.16 27.76 27.79 26.82 27.59 28.43 29.57 30.11 28.26 27.38 27.24 25.81 25.49 24.36 23.21 22.59 21.58 19.33 17.79 17.21 15.61 14.35 13.22 12.35 12.04 11.84 10.94
32.46 30.88 21.93 20.96 20.39 24.15 22.10 21.36 24.28 26.44 25.66 27.07 29.51 27.84 24.54 23.92 23.13 22.87 25.53 26.32 27.67 27.30 27.49 27.65 28.83 28.22 25.82 25.48 25.17 23.19 21.88 21.85 21.03 20.30 18.89 17.10 15.76 12.89 12.26 9.65 9.63 9.94 9.45 8.93
29.67 31.06 30.77 19.61 19.07 18.55 21.67 22.96 24.38 25.98 19.56 20.32 27.71 24.96 20.39 21.63 16.90 21.22 24.60 25.54 26.15 26.08 25.91 26.02 25.80 24.96 24.15 23.68 22.85 21.26 20.36 19.29 19.35 19.53 18.66 16.17 13.43 9.30 8.28 9.73 8.19 8.45 6.97 8.77
22.39 22.75 25.81 21.45 20.55 22.68 24.19 21.65 24.85 19.82 23.94 21.66 20.91 21.87 21.61 20.98 23.93 24.76 25.03 23.70 25.13 25.66 25.29 25.13 24.18 24.11 24.16 22.40 20.39 19.92 18.42 18.19 19.19 16.75 14.87 12.49 11.42 8.46 8.03 6.49 7.04 5.15 3.94 5.84
21.90 21.74 20.96 21.46 18.85 18.85 23.49 22.72 22.34 26.24 23.65 24.09 23.22 23.52 23.36 24.43 25.01 24.77 24.80 25.23 24.85 24.34 24.41 25.50 22.86 22.93 22.97 20.67 19.68 19.01 17.97 17.81 14.88 13.11 11.14 9.14 5.89 8.42 6.64 0.90 2.42 1.18 0.85 0.23
20.43 24.36 22.62 24.49 23.42 23.39 26.22 25.55 26.95 26.77 25.18 24.04 24.71 24.77 25.12 24.20 23.95 24.72 24.47 23.84 24.03 23.93 23.48 23.48 22.59 22.02 21.50 18.50 18.77 18.20 17.81 14.08 11.16 9.04 5.77 3.49 3.30 4.88 4.21 -0.23 1.46 3.07 0.91 -0.01
20.16 21.74 19.65 20.97 20.98 21.67 24.65 25.76 25.85 25.84 25.69 25.62 25.44 24.86 24.09 23.98 23.60 23.37 22.99 23.06 22.79 21.08 20.87 20.09 17.76 17.64 18.63 15.32 17.06 18.30 12.99 11.29 6.97 4.13 4.08 3.33 2.18 3.28 2.30 5.64 4.48 1.98 1.46 1.12
22.63 21.37 17.47 17.74 20.66 22.39 24.19 24.86 26.27 26.16 25.64 24.83 24.20 24.44 24.24 23.25 22.73 22.53 21.73 21.49 21.50 21.16 18.99 16.82 18.20 18.78 19.53 14.58 13.06 9.81 9.89 7.96 5.23 3.48 4.36 3.99 2.50 2.06 3.96 4.32 4.83 4.66 4.56 3.24
21.17 19.52 18.74 17.39 23.93 24.45 25.31 27.73 26.89 25.61 25.30 24.12 23.46 22.12 22.06 23.02 23.16 22.21 21.12 21.13 19.63 19.20 15.86 15.02 16.32 15.66 13.68 9.24 8.36 6.68 5.63 6.39 4.42 3.71 3.47 3.23 3.66 3.62 3.90 3.26 3.04 8.41 12.33 14.46

GFSCGP_sfc_wetblb_036.txt.gz
Wetbulb
44.85 43.98 41.30 44.61 45.46 44.19 43.11 41.72 42.02 42.25 42.83 42.74 44.01 44.35 44.68 43.45 42.51 41.65 41.28 40.63 40.11 39.18 39.23 40.07 40.37 41.42 42.96 44.00 45.15 46.29 47.54 47.98 50.56 49.50 48.44 46.33 43.68 42.82 41.80 41.86 42.79 43.77 44.59 45.73
42.56 40.92 46.06 43.60 43.12 41.96 40.85 40.87 41.49 42.04 41.62 41.97 42.90 42.21 45.70 42.22 43.26 43.40 41.39 40.32 39.66 38.96 38.98 38.67 39.45 40.29 40.72 41.18 42.58 43.38 44.02 45.39 46.05 46.46 45.30 43.45 40.86 39.77 39.81 39.68 39.30 40.02 40.27 40.69
42.69 43.20 43.40 42.13 40.00 39.44 40.20 39.96 41.15 40.29 40.34 41.08 40.19 40.70 42.98 41.46 39.93 40.00 40.78 41.16 40.15 39.86 38.32 38.12 37.91 38.51 39.89 39.07 40.00 40.73 41.65 42.50 43.32 42.45 41.38 40.34 40.39 40.01 38.62 37.77 37.13 37.37 38.11 38.31
42.12 42.62 40.11 40.26 39.90 41.46 38.67 41.71 40.48 38.98 38.07 36.68 40.17 36.59 40.84 41.70 39.14 37.55 38.00 38.38 38.88 38.47 38.25 37.33 37.38 37.50 37.43 37.06 38.26 38.49 39.64 39.94 40.47 41.54 41.40 40.76 38.91 35.91 36.01 36.19 36.35 36.04 36.75 36.50
41.74 38.75 39.16 39.45 41.11 41.32 41.10 40.40 39.73 39.08 38.33 36.85 37.01 35.54 41.24 37.67 37.47 36.99 37.52 38.19 38.91 38.81 37.61 36.02 35.86 35.05 35.10 36.31 36.47 37.18 37.41 37.33 37.93 38.65 38.91 37.99 36.22 36.01 36.27 36.11 35.35 35.24 35.27 35.52
42.04 41.68 41.92 42.76 39.77 41.64 40.24 39.39 38.27 37.79 37.19 31.77 37.29 36.52 39.37 38.75 39.94 40.10 38.16 37.72 37.84 37.14 36.63 35.97 35.25 34.53 34.18 35.03 35.50 36.16 35.52 35.09 36.36 37.13 37.67 37.05 35.81 35.28 34.89 34.82 34.23 34.26 34.49 34.43
38.99 39.77 40.77 40.87 38.32 38.72 40.18 39.04 33.50 30.87 30.29 30.63 33.32 33.84 40.04 42.68 39.22 40.75 38.17 37.37 37.64 37.11 35.85 34.98 33.88 33.63 33.79 33.96 34.29 34.69 34.77 33.77 34.98 35.37 35.51 35.59 35.46 35.40 34.57 34.43 34.30 33.94 33.58 33.17
36.65 34.89 38.83 40.83 42.32 39.34 37.71 40.16 35.72 28.55 28.30 32.44 30.71 30.63 37.92 37.65 37.74 37.80 40.79 39.03 37.68 36.49 35.97 35.11 34.80 34.50 33.75 33.52 34.25 34.12 34.07 33.06 34.12 34.36 34.10 34.64 34.85 34.59 34.11 33.98 33.81 33.44 33.04 32.59
36.01 36.09 38.75 38.15 39.43 42.39 36.55 34.07 40.09 30.98 24.73 30.47 35.26 36.31 40.28 35.51 35.48 35.94 37.08 36.92 36.01 36.08 35.72 35.41 35.17 34.69 34.04 34.00 33.91 34.11 33.68 33.38 33.56 33.48 33.65 33.43 33.76 33.60 32.83 32.94 33.39 32.80 32.62 31.30
40.73 35.51 36.54 36.93 40.15 39.35 38.76 40.35 32.47 33.93 28.51 27.57 33.10 34.17 38.16 35.05 36.04 35.07 34.89 35.68 36.65 36.88 36.15 35.94 35.10 34.41 34.74 34.81 34.37 34.24 34.11 33.44 33.37 33.41 33.56 33.06 32.94 33.07 32.80 32.72 31.72 31.55 31.04 30.76
40.54 38.35 34.20 36.47 35.67 36.72 34.76 34.79 35.46 36.50 34.55 31.50 30.80 34.86 41.05 41.29 39.75 36.45 37.13 37.26 37.52 36.82 36.57 36.38 35.91 35.22 34.29 34.21 33.71 33.34 33.42 33.04 32.77 33.16 33.04 32.74 32.38 32.34 32.44 31.99 31.61 31.13 30.18 29.62
41.72 37.99 33.03 33.83 36.65 36.73 39.82 38.12 37.21 33.66 29.33 31.16 30.64 35.35 36.73 39.27 40.69 39.79 39.02 37.99 38.62 38.09 37.52 37.29 37.21 35.82 33.75 32.87 32.74 32.82 33.14 32.91 33.23 33.15 32.69 32.53 32.36 32.02 31.63 31.20 30.70 30.16 29.03 28.34
40.44 36.84 32.90 32.59 33.75 34.47 34.03 35.47 37.19 37.23 35.26 32.94 31.93 34.68 35.91 35.88 36.45 37.80 38.98 38.33 37.88 37.54 37.47 37.75 37.35 36.08 34.85 33.93 33.01 32.86 33.01 33.03 33.23 32.67 32.32 32.05 31.72 31.37 31.07 30.27 29.44 28.29 27.64 26.75
42.84 37.63 35.74 33.68 36.62 37.80 32.68 34.41 35.19 36.14 33.13 34.20 33.86 37.33 34.81 36.06 36.33 37.26 36.85 38.25 38.12 37.10 37.41 37.70 37.10 36.69 36.97 35.64 34.15 33.14 32.84 33.27 32.76 32.08 31.96 31.61 31.66 31.24 30.65 29.60 28.07 26.86 26.32 25.41
40.37 34.80 37.18 38.08 37.83 36.28 35.95 35.25 34.29 33.91 36.27 34.77 38.16 36.46 38.35 38.40 38.25 39.85 40.56 38.23 36.86 36.29 36.52 36.97 36.75 37.38 37.35 35.78 34.67 33.99 33.43 32.80 32.75 31.50 31.41 31.61 31.82 31.06 29.51 27.37 25.21 24.31 23.90 23.82
37.55 35.48 36.88 33.38 37.95 34.83 32.95 35.56 34.98 35.30 36.66 37.37 38.10 36.29 42.39 41.65 39.21 37.76 37.08 36.03 35.88 36.68 36.89 37.01 36.95 36.97 36.58 35.75 34.62 33.89 33.31 32.56 32.56 31.73 30.97 31.90 30.82 28.18 26.25 24.56 23.02 22.33 21.40 20.69
35.94 35.93 31.99 31.51 35.51 30.46 27.54 32.66 34.36 35.19 37.62 37.21 33.74 37.68 36.86 35.54 36.40 38.57 38.24 37.10 36.98 37.52 37.43 36.91 36.74 36.39 36.38 36.07 35.25 33.76 33.29 33.08 30.88 29.95 29.95 29.10 28.18 25.74 24.49 23.04 21.33 20.60 19.96 19.56
35.43 34.76 34.21 30.59 28.59 23.01 31.87 30.05 37.64 34.86 35.10 35.59 34.27 34.54 35.96 36.53 36.64 37.14 37.68 37.35 36.81 36.42 36.53 37.03 37.13 36.74 36.23 35.35 33.73 34.54 33.27 30.95 29.04 29.30 28.71 27.41 25.91 24.74 22.57 20.35 19.59 19.44 18.85 17.88
34.90 32.83 24.89 24.64 24.96 30.29 24.24 27.01 31.50 31.80 33.94 34.63 35.72 33.72 32.16 29.39 32.25 33.85 32.80 34.52 36.75 36.03 36.17 36.28 37.44 37.28 34.56 33.23 32.95 30.27 28.55 28.50 28.24 27.93 27.42 25.94 24.78 22.45 20.26 18.41 18.27 18.29 17.50 16.73
30.75 33.96 32.37 24.68 25.79 25.13 29.52 27.55 30.26 33.60 28.66 31.02 35.24 32.41 28.46 29.58 30.35 35.96 31.82 32.48 32.88 33.42 33.68 32.93 32.83 32.49 32.81 31.64 30.26 27.45 27.47 26.88 26.44 27.62 26.91 25.73 23.59 20.81 18.64 18.13 16.85 17.44 16.28 15.52
25.50 25.79 28.11 25.36 26.19 28.12 32.40 27.25 28.61 25.50 31.33 29.73 33.66 31.41 27.94 29.44 33.93 32.45 31.34 30.74 32.18 32.10 31.23 30.36 29.81 29.93 30.18 29.18 26.54 26.47 26.69 25.47 28.05 26.99 24.74 22.41 21.11 18.42 18.08 16.79 16.09 14.51 13.58 13.04
26.37 25.46 25.56 26.21 25.11 23.87 27.34 25.84 27.27 31.78 27.63 29.20 28.53 28.83 28.81 29.65 28.45 29.21 29.78 29.24 28.94 29.26 28.77 29.81 28.72 28.58 29.53 27.15 25.99 26.13 25.05 27.74 24.25 23.04 21.27 19.20 17.01 16.95 15.17 12.87 12.83 11.12 10.99 9.76
24.52 29.91 28.34 28.98 29.10 26.14 29.67 29.34 30.38 30.14 30.43 28.41 29.95 29.17 29.81 28.42 27.90 28.41 27.95 28.29 27.95 28.11 28.33 28.03 27.79 27.03 26.48 25.75 25.80 25.86 27.04 23.01 20.27 19.02 17.39 15.43 13.92 14.01 13.17 11.00 11.04 11.51 11.16 10.85
24.08 25.16 26.40 26.84 25.72 25.52 27.80 27.83 29.11 28.94 29.60 29.95 30.88 30.10 29.63 28.89 28.24 27.73 28.14 28.22 27.94 26.74 25.97 25.67 24.74 24.02 24.69 24.46 23.40 25.67 21.73 20.01 17.12 16.80 14.64 13.07 10.87 11.75 10.48 12.01 12.26 12.09 12.54 12.29
25.94 25.38 22.76 22.01 23.31 25.30 26.97 27.93 29.49 28.92 29.10 28.17 27.92 28.66 28.67 28.27 27.17 27.90 26.56 26.56 26.76 26.58 25.01 23.81 23.86 24.45 25.41 24.58 23.40 22.51 19.38 16.88 16.64 15.68 13.95 13.88 13.09 10.75 12.69 11.94 13.29 12.43 13.34 12.94
24.33 22.37 22.44 23.02 26.59 27.55 28.17 30.34 29.15 28.36 28.04 28.13 27.52 25.72 26.03 27.18 27.33 26.33 25.86 26.24 25.91 25.41 23.84 22.20 22.42 22.63 24.36 21.90 20.83 16.89 15.48 15.33 15.67 14.55 13.54 13.99 13.27 12.39 12.19 12.43 12.14 14.33 15.51 16.38

GFSCGP_sfc_wetblb_039.txt.gz
Wetbulb
48.83 45.21 43.04 46.22 47.30 47.38 45.79 44.75 44.22 46.86 46.15 44.24 45.35 45.76 47.92 46.48 45.90 46.64 46.77 45.68 44.78 43.51 43.14 43.62 44.43 46.46 48.10 49.88 49.43 48.31 49.02 47.77 48.14 48.20 48.43 47.51 45.15 44.25 43.28 43.72 44.47 44.48 45.14 46.15
44.35 41.98 47.73 48.99 47.64 46.14 44.51 43.16 43.38 46.75 44.76 43.19 44.76 44.77 47.63 47.76 45.90 47.08 46.87 45.82 44.86 42.39 42.03 42.48 44.06 45.31 47.15 47.46 48.30 48.78 49.41 50.39 50.51 49.09 46.82 45.02 43.34 42.49 41.57 41.67 41.15 41.41 41.51 41.85
44.04 46.08 46.68 45.25 44.04 42.57 43.41 42.48 43.26 43.32 42.99 43.58 43.22 42.03 44.69 47.99 47.34 47.10 47.02 47.03 45.13 42.91 41.80 41.57 42.41 44.00 44.83 44.97 45.79 46.24 46.62 46.37 45.85 45.15 43.84 42.80 42.41 42.13 40.29 39.13 38.35 38.83 39.25 39.50
44.91 48.05 43.82 43.31 42.90 44.03 41.10 45.82 43.88 42.69 40.64 38.37 43.72 36.19 44.44 47.17 44.37 43.32 43.38 44.08 43.53 43.17 42.70 42.16 41.41 41.98 42.11 41.57 42.63 43.68 43.47 43.83 44.45 45.08 43.93 43.35 41.21 37.80 38.08 37.43 37.57 37.42 37.92 37.83
43.42 41.41 41.07 41.20 43.26 45.06 42.77 44.23 43.21 42.85 40.74 40.38 41.05 36.34 42.50 46.66 43.66 42.81 42.40 42.33 42.65 42.61 41.81 40.67 40.84 40.14 39.46 40.21 40.47 40.93 40.93 40.83 41.64 42.26 42.40 40.92 38.26 38.16 37.84 37.55 36.51 36.21 36.46 36.78
44.56 44.53 44.38 44.62 42.68 44.37 44.18 42.47 41.03 40.71 40.22 33.47 39.09 38.93 40.63 42.20 42.55 45.65 42.70 41.72 41.87 41.08 40.78 40.10 38.93 37.97 37.65 38.43 39.04 39.44 38.56 38.32 39.66 40.24 40.32 39.25 37.93 37.32 36.73 36.44 35.65 35.50 35.54 35.48
42.25 42.11 44.14 43.99 40.98 41.47 42.69 40.91 35.64 33.20 31.72 32.12 38.60 38.33 41.52 46.45 43.52 45.33 41.85 40.78 41.46 40.94 39.92 38.38 36.44 36.79 36.73 36.99 37.37 37.34 37.31 36.72 38.24 38.74 38.60 38.54 37.97 37.73 36.56 36.11 35.68 35.03 34.46 34.00
39.34 37.62 42.99 43.53 44.12 42.16 39.37 41.40 36.47 30.30 31.82 34.97 33.28 32.36 39.36 44.23 43.93 42.82 43.86 41.92 41.40 39.92 39.45 37.93 37.11 36.85 36.05 36.10 36.44 36.18 36.40 35.67 36.60 36.79 36.64 37.34 37.44 36.77 36.38 36.36 35.98 35.19 34.11 33.42
39.63 39.86 43.56 43.99 45.00 45.95 39.59 36.91 43.78 35.49 29.99 31.50 36.58 38.84 43.51 38.97 38.11 38.97 41.66 40.69 39.65 39.28 38.98 38.08 37.94 37.28 36.27 35.68 35.77 36.14 35.51 35.31 35.60 35.63 35.66 35.62 36.00 35.62 34.88 35.10 35.20 34.49 33.93 32.89
44.48 38.67 40.59 40.52 41.45 42.45 41.31 43.31 33.70 35.56 30.21 29.33 36.20 38.10 38.88 36.20 37.33 38.18 39.15 39.11 39.02 39.36 38.76 38.51 38.03 37.33 36.75 36.35 36.21 36.23 35.97 34.87 35.19 35.21 35.24 34.91 35.13 35.24 34.89 34.71 33.79 33.30 32.35 32.32
44.68 41.14 36.37 38.10 37.16 37.97 36.66 36.59 38.19 39.11 37.25 33.01 31.93 36.64 45.38 44.39 42.54 39.02 39.11 39.49 39.40 39.03 38.61 38.41 38.17 37.67 36.95 36.89 36.02 35.57 35.23 34.67 34.34 34.75 34.58 34.58 34.28 34.39 34.48 33.81 33.29 32.80 32.07 31.46
43.91 40.68 38.30 38.11 41.21 41.84 42.56 39.58 38.98 34.21 31.53 33.54 33.62 36.54 41.32 46.13 45.95 43.00 40.48 40.16 40.99 40.35 39.81 39.23 38.59 37.08 36.16 35.76 35.42 34.92 35.06 34.66 34.55 34.85 34.48 34.23 34.06 33.80 33.40 32.89 32.66 32.41 31.09 30.82
42.56 37.47 33.56 35.84 35.95 36.69 35.24 38.43 39.46 38.84 36.70 33.61 32.75 36.29 39.58 39.59 41.41 42.43 41.74 41.14 41.22 40.48 39.94 39.44 38.59 36.91 35.78 35.31 34.92 34.61 34.65 34.38 34.60 34.63 34.09 33.72 33.44 33.01 32.93 32.52 31.73 31.06 30.28 29.40
43.89 38.91 36.40 35.02 38.75 39.85 34.17 35.89 37.37 36.99 32.77 34.30 35.51 38.75 37.01 38.15 39.09 40.08 41.65 41.75 41.32 40.17 39.50 39.29 38.52 38.11 37.15 36.16 35.26 34.90 34.87 35.34 34.72 34.27 33.36 33.09 32.91 32.85 32.84 32.25 30.99 29.68 29.22 28.16
41.94 35.69 38.63 39.34 41.05 41.48 38.17 36.63 36.22 34.37 36.74 34.76 38.00 38.89 42.67 40.24 40.68 41.75 41.70 41.63 40.38 39.13 38.82 38.64 38.56 38.97 38.65 37.17 36.36 35.74 35.57 35.08 34.92 33.44 32.77 32.89 33.40 33.25 32.55 30.80 29.36 28.10 27.25 27.04
39.66 35.29 36.82 34.67 39.19 38.99 36.34 37.79 38.00 36.56 37.13 37.94 39.21 39.42 46.23 43.96 43.54 42.61 42.10 40.58 39.54 39.11 38.86 38.86 38.95 38.62 38.45 38.20 37.23 36.03 35.28 34.27 34.17 32.74 32.05 33.21 32.49 31.23 29.86 28.34 26.39 25.68 24.64 23.90
35.34 34.20 32.94 31.47 36.37 35.86 29.59 35.07 36.93 38.13 38.86 39.26 35.31 40.39 41.87 41.13 39.19 40.20 40.69 39.91 39.21 39.76 39.79 38.91 38.69 38.55 38.63 39.76 37.63 36.56 35.81 34.86 32.33 31.13 30.73 30.63 30.85 28.81 27.64 26.73 24.93 23.75 23.24 23.12
34.84 33.09 34.05 32.11 31.81 26.16 36.52 41.26 39.54 38.95 40.22 40.79 39.70 37.69 38.84 38.67 38.61 40.06 42.67 40.19 38.61 38.86 39.55 39.58 39.28 39.71 39.12 39.37 37.85 37.61 35.89 33.56 31.09 30.59 30.26 29.75 28.90 27.29 26.57 24.57 23.29 23.04 23.00 21.49
38.17 34.73 31.78 29.60 29.51 34.20 37.36 30.18 34.64 35.10 36.72 41.74 39.64 36.39 34.67 34.55 35.87 36.87 38.77 39.06 39.28 39.57 39.98 39.66 40.20 40.25 39.42 37.06 36.56 34.04 31.75 31.45 30.05 29.26 29.38 28.80 28.14 26.57 24.99 22.60 21.98 22.50 21.72 20.85
32.18 36.87 32.88 28.09 28.35 27.27 34.44 33.83 36.05 37.79 31.50 38.35 38.16 35.16 31.97 32.40 32.59 37.23 34.83 34.69 37.12 38.33 36.35 36.20 36.58 35.50 34.85 34.51 33.06 29.41 28.77 28.40 27.97 28.64 29.16 28.87 27.53 25.99 24.10 22.89 21.60 22.35 21.51 20.62
27.23 28.99 28.58 30.77 29.23 32.69 34.28 30.06 34.06 29.55 33.44 34.04 37.45 34.89 32.51 33.38 37.12 35.11 34.81 34.20 34.80 33.71 31.79 32.09 32.08 32.20 33.34 32.08 28.83 28.06 27.90 27.13 28.99 28.39 27.49 26.55 26.42 24.68 24.16 22.61 22.08 20.26 18.80 17.94
29.12 27.88 28.03 30.39 27.78 26.59 31.21 28.36 31.08 33.79 31.78 33.07 36.49 35.33 33.64 32.27 31.60 32.11 33.07 31.31 30.88 29.82 30.17 30.64 30.12 30.14 30.24 28.52 28.25 27.64 27.14 28.79 27.43 26.55 24.96 23.59 22.71 22.63 21.57 19.16 18.52 17.26 16.24 14.85
27.51 33.07 31.46 31.89 30.94 27.64 30.91 29.62 31.29 31.48 32.38 30.56 32.98 33.42 33.73 30.67 30.01 30.66 29.72 29.43 29.15 29.69 29.34 29.50 28.73 27.82 28.05 27.12 27.28 26.91 27.71 25.87 23.47 22.58 20.97 20.07 19.19 19.99 18.51 16.32 15.92 14.29 14.25 14.26
27.62 29.34 31.09 31.01 28.12 28.09 28.07 30.11 29.70 30.47 31.25 31.88 32.93 32.49 32.29 30.06 29.26 28.66 28.85 28.84 28.42 27.88 27.02 26.77 26.17 25.26 25.07 25.40 25.36 26.57 24.53 22.82 20.48 20.12 18.69 17.52 15.80 16.43 15.23 16.09 16.61 15.81 16.36 15.24
27.83 28.05 27.45 24.12 24.47 26.04 28.78 29.63 30.52 30.30 30.41 30.36 31.14 31.31 31.04 30.39 29.18 29.20 28.10 27.79 27.88 27.69 26.05 25.52 25.27 24.85 25.18 25.63 24.87 24.43 22.08 19.85 20.56 20.02 17.97 18.16 16.86 15.09 15.22 15.23 16.41 15.66 17.05 17.97
26.94 25.92 25.11 25.93 27.14 30.44 29.12 32.02 32.06 29.85 29.42 29.87 28.72 27.09 27.72 28.98 28.23 27.93 27.47 27.72 27.40 26.66 25.63 23.56 23.23 22.79 23.55 23.67 22.76 21.25 19.77 18.77 19.74 19.00 17.76 18.31 17.29 15.86 15.92 16.07 14.94 19.30 19.86 19.29

GFSCGP_sfc_wetblb_042.txt.gz
Wetbulb
45.93 40.68 38.44 42.06 43.49 44.00 42.67 40.32 39.43 41.38 42.70 41.32 40.88 41.31 44.02 42.99 42.38 41.91 42.32 41.72 40.98 40.72 40.39 40.98 42.48 44.14 46.30 48.14 47.71 47.11 46.28 46.52 47.09 46.26 45.41 43.51 40.80 39.40 39.00 39.77 40.01 40.12 40.90 41.65
40.96 38.09 44.72 46.57 45.77 43.40 42.10 39.69 38.81 42.59 42.50 39.87 40.30 40.40 43.71 43.40 42.64 43.45 43.67 41.92 41.02 38.71 38.23 40.09 41.11 43.20 44.57 46.72 47.62 48.02 47.94 47.48 48.12 45.74 43.72 40.26 37.78 36.79 36.66 36.69 37.06 37.55 37.67 37.79
40.62 43.47 46.24 44.76 42.37 41.30 40.73 38.85 38.52 39.39 40.34 39.19 37.05 36.02 40.45 44.26 44.71 43.99 44.11 43.79 42.32 38.82 37.63 38.38 40.01 40.77 41.79 42.35 44.61 45.74 45.40 43.54 42.08 40.53 39.76 38.73 37.56 35.93 34.28 33.80 34.12 35.28 36.01 36.21
42.32 46.03 42.82 42.29 41.40 41.84 37.69 42.70 42.11 40.54 36.49 31.73 38.02 29.52 38.40 42.43 43.37 42.65 43.21 41.58 40.22 39.26 39.01 38.80 39.60 39.39 39.72 39.07 40.11 40.77 41.42 40.62 40.47 39.88 38.35 37.54 35.32 32.71 32.52 32.43 33.01 33.74 34.12 34.03
40.25 39.91 39.76 39.71 41.27 43.19 39.59 42.01 39.75 38.60 35.93 34.45 34.81 32.64 36.66 42.17 41.63 42.23 41.50 40.13 39.52 39.05 38.61 38.09 37.73 38.26 36.90 37.29 37.40 37.56 37.64 38.14 38.63 38.83 37.50 35.55 33.53 32.82 32.64 32.04 31.55 31.54 31.95 32.70
40.83 42.29 41.68 41.72 41.08 41.65 42.47 39.93 38.24 36.67 35.42 28.53 35.44 35.04 34.29 39.92 41.81 42.60 41.09 40.59 39.69 38.54 37.90 37.10 36.48 35.65 34.64 35.04 35.16 35.22 35.19 35.63 36.63 36.48 35.63 34.22 33.03 32.60 31.73 31.00 30.19 30.06 30.28 30.53
38.72 39.36 41.37 42.38 38.12 39.63 39.88 36.75 29.48 27.07 25.67 26.69 34.27 33.47 37.45 41.38 41.28 42.39 41.47 40.57 39.78 38.75 37.23 35.42 33.33 32.73 33.15 33.22 33.40 33.67 33.44 33.47 34.59 34.70 34.62 34.19 33.04 32.45 31.43 30.56 29.82 29.22 28.73 28.34
34.13 32.83 39.61 41.48 41.47 38.00 36.36 37.59 30.73 24.93 25.81 27.64 29.00 27.76 35.34 39.05 39.32 40.81 43.00 41.72 40.44 38.29 37.44 34.56 33.35 33.51 33.20 33.34 32.39 32.04 32.21 32.39 33.10 33.14 33.12 33.06 33.07 31.83 31.43 31.28 30.47 29.42 28.31 28.22
36.93 36.66 41.13 41.09 42.41 43.30 36.42 33.52 40.87 31.73 24.02 24.22 31.14 33.79 39.08 36.84 35.97 36.50 38.36 39.02 38.57 37.70 36.53 34.62 34.27 33.56 32.50 32.34 32.01 32.20 31.79 31.85 32.05 31.96 31.67 31.66 31.63 31.15 30.49 30.45 30.08 28.88 28.57 29.68
41.81 35.79 38.97 36.80 40.02 39.92 37.84 40.25 31.34 31.06 20.60 21.62 29.41 32.26 34.21 33.44 35.23 35.39 37.12 37.52 38.18 37.90 36.53 35.17 34.34 33.43 32.95 32.33 31.97 32.23 31.97 31.49 31.53 31.67 31.35 31.14 30.79 30.77 30.44 29.92 28.60 27.75 27.12 27.77
42.19 38.53 32.71 36.10 34.20 35.28 34.04 33.09 35.04 35.77 31.70 25.73 24.48 30.89 38.73 39.47 38.85 35.80 37.83 38.41 38.13 37.39 36.34 35.28 34.90 34.58 33.69 33.16 32.34 32.19 31.71 31.46 30.80 30.90 30.65 29.91 29.65 30.10 29.82 28.65 28.10 27.45 26.93 26.51
42.42 39.33 30.57 31.96 37.52 38.41 38.55 36.28 36.19 29.62 28.07 30.52 28.26 33.17 38.61 38.58 40.05 38.83 38.35 38.78 38.24 37.84 36.74 36.20 35.39 34.27 32.79 32.40 31.94 31.64 31.14 30.67 30.39 30.64 30.04 29.39 29.66 28.96 28.17 27.87 27.52 26.67 25.67 25.85
41.83 36.21 29.57 30.67 33.25 34.77 33.41 35.98 38.39 37.87 32.88 31.92 27.20 31.77 36.40 36.36 37.51 38.62 37.69 37.82 38.11 37.59 36.94 36.24 35.32 33.69 32.69 32.35 31.94 31.46 31.37 30.73 30.77 30.45 29.76 28.77 27.92 27.54 27.27 26.75 26.43 26.13 25.14 24.38
44.32 38.03 34.46 32.55 34.51 36.42 30.70 33.22 36.15 36.19 30.42 30.38 33.23 35.38 32.78 34.99 35.40 36.84 37.23 38.09 37.83 37.53 36.95 35.90 35.09 33.96 33.26 32.78 31.94 31.36 31.14 31.28 30.33 30.15 29.11 27.98 27.77 27.39 27.06 26.48 25.68 25.17 24.77 23.70
42.07 35.18 37.08 38.64 40.02 38.12 33.72 32.65 34.53 33.53 35.55 32.20 35.21 35.79 40.02 38.83 36.75 38.39 38.61 38.27 37.77 37.07 36.62 36.15 35.26 34.61 33.55 32.49 32.13 31.77 31.42 31.21 31.02 29.76 28.27 28.23 27.86 27.62 27.25 26.01 25.15 24.46 24.00 23.63
38.79 33.81 36.32 34.79 36.90 37.70 35.94 37.68 35.09 34.69 35.39 36.39 36.88 36.14 40.86 42.65 40.40 37.20 38.62 38.14 37.46 37.04 37.18 36.97 36.48 35.31 33.96 32.99 32.25 32.13 31.51 30.44 30.56 29.12 28.32 28.11 28.48 28.04 26.79 25.37 24.35 23.47 22.98 22.00
35.51 34.21 32.76 31.79 34.86 35.13 31.60 35.74 37.16 37.48 37.01 36.79 32.40 38.21 40.82 39.84 37.83 37.23 37.33 37.99 37.39 37.44 37.70 36.84 36.41 36.09 35.69 34.45 33.56 32.21 31.96 29.75 29.17 28.04 26.63 27.08 28.24 27.65 25.39 24.51 23.19 22.47 20.97 20.73
34.89 33.72 34.04 32.12 33.04 25.97 33.97 39.80 40.29 38.49 39.61 39.60 38.32 34.08 34.91 38.26 38.50 38.00 38.67 38.23 37.38 37.45 37.04 37.48 36.74 36.59 36.35 35.61 34.25 32.81 30.57 29.30 28.61 28.23 27.35 27.29 27.23 25.42 23.83 22.93 22.08 20.52 20.07 19.16
39.93 34.61 32.78 30.55 31.14 33.87 34.68 28.96 32.35 33.98 35.89 41.10 39.55 38.62 34.69 34.11 36.26 34.82 36.58 38.59 37.84 37.99 38.69 38.40 38.69 38.58 37.65 35.31 34.40 32.59 30.37 28.88 28.29 27.70 27.75 28.04 26.63 24.71 23.74 22.57 20.44 20.00 18.92 17.61
33.12 37.78 33.79 30.05 28.80 27.30 26.88 27.72 32.90 36.82 30.52 36.41 39.32 38.77 32.24 35.37 32.82 34.61 34.76 36.53 37.77 37.92 37.01 36.06 35.55 34.85 34.85 32.80 32.16 30.69 28.40 28.09 27.96 27.95 28.27 27.22 26.34 25.20 23.67 22.63 19.08 18.08 16.20 18.27
28.76 31.41 28.99 31.19 29.27 30.37 27.62 25.87 31.44 28.32 28.18 27.35 31.21 32.33 33.07 35.72 35.12 35.99 33.28 33.19 32.95 32.17 32.30 31.88 31.52 31.45 30.45 29.27 28.42 27.50 26.52 27.41 27.90 25.30 25.50 25.16 25.27 25.10 23.28 19.01 16.79 17.42 14.64 17.17
28.07 27.35 27.12 30.01 28.24 26.77 27.65 27.21 29.70 29.75 27.09 29.55 30.82 31.37 31.55 29.70 30.15 29.60 29.88 29.22 28.74 27.95 28.78 28.58 28.39 28.74 28.27 27.46 27.58 25.92 26.01 26.55 24.57 24.35 23.68 22.25 20.97 21.39 19.82 17.60 13.49 14.51 13.93 10.97
28.11 31.36 29.79 31.43 30.48 27.22 27.36 27.75 29.42 29.67 29.99 30.59 32.50 31.23 29.78 27.58 27.17 27.19 26.41 26.45 26.55 26.87 26.84 27.06 26.19 25.58 25.55 24.35 25.18 24.98 24.00 23.78 22.42 21.39 18.51 14.76 15.72 16.87 16.17 15.40 13.28 10.42 9.99 11.22
26.36 28.35 29.26 29.37 28.57 26.63 28.16 30.97 29.95 28.36 28.20 28.85 30.27 30.77 29.00 27.04 26.26 25.55 25.52 25.40 25.44 24.36 24.35 22.51 23.01 21.69 20.72 19.65 22.45 20.39 22.27 20.55 18.80 15.90 15.27 14.63 15.25 13.45 12.55 14.08 13.36 12.31 10.83 10.17
26.59 28.73 27.39 22.37 24.75 28.10 29.40 30.01 31.31 31.64 27.98 27.44 27.99 28.09 28.32 26.77 25.71 25.53 25.13 24.47 24.55 24.35 22.59 21.63 22.28 21.35 20.67 19.22 18.04 17.08 18.72 18.80 17.57 16.12 14.74 14.11 13.32 11.89 10.49 11.89 12.62 13.32 10.62 13.39
25.50 26.48 26.29 26.36 27.42 29.72 30.46 32.33 32.97 31.48 28.84 26.82 26.46 25.74 26.22 26.61 26.09 25.81 25.04 24.89 24.57 23.60 21.15 20.33 18.90 18.28 17.00 17.04 16.32 16.04 16.46 16.83 16.34 14.59 14.00 13.18 12.18 9.77 10.47 9.51 7.57 19.49 19.92 20.95

GFSCGP_sfc_wetblb_045.txt.gz
Wetbulb
41.64 37.17 35.27 38.12 39.07 39.47 37.64 35.91 35.50 38.27 41.16 39.11 37.90 38.28 40.49 41.24 39.91 38.82 38.33 38.56 38.97 38.73 38.33 39.89 41.75 44.28 44.54 45.26 46.04 45.92 45.24 44.99 45.37 45.04 43.03 41.13 39.07 38.86 38.41 37.97 37.51 38.06 38.44 38.38
38.60 35.76 41.10 42.71 41.60 40.29 38.85 36.30 35.94 39.03 40.28 38.81 37.85 37.76 40.72 40.41 40.95 41.63 41.27 40.42 39.92 36.44 36.72 38.74 40.35 42.49 43.91 44.70 46.57 46.28 46.34 46.78 47.01 45.31 42.53 40.17 37.56 35.86 34.78 35.29 35.31 36.05 36.34 36.43
36.67 40.92 44.17 42.43 40.42 39.39 37.88 36.40 35.41 37.40 37.73 37.28 35.06 33.93 37.40 41.12 41.42 41.71 42.85 42.70 41.03 37.53 36.43 37.22 38.96 40.90 42.17 43.36 46.39 47.09 47.07 45.30 42.52 40.50 39.13 37.35 35.66 33.88 33.32 32.46 33.23 33.77 34.85 34.95
38.95 43.57 41.88 40.28 39.24 40.15 35.20 40.23 39.98 38.49 34.64 30.50 35.18 29.43 35.63 38.74 39.67 39.54 42.22 39.69 39.84 37.11 37.32 38.06 38.91 39.16 40.29 41.10 43.64 44.09 42.94 40.99 40.08 39.49 37.17 35.81 34.03 31.81 30.81 31.31 31.82 32.29 32.84 32.86
38.06 39.39 38.90 39.44 39.92 41.29 37.83 39.76 38.02 36.66 33.49 31.64 32.09 29.50 33.90 39.28 39.65 42.51 41.99 41.24 39.65 37.76 37.41 37.75 38.89 39.81 38.40 37.74 37.45 39.73 40.30 38.01 37.91 37.78 37.21 34.59 32.05 32.12 31.95 31.13 30.43 30.57 30.98 31.66
39.01 40.57 40.58 40.63 39.06 40.55 40.61 38.41 37.27 35.22 33.26 26.31 32.88 32.25 31.98 38.19 40.54 43.34 41.23 39.02 37.47 36.72 36.93 37.72 37.62 36.41 35.13 34.96 34.71 34.56 35.48 35.87 36.69 36.01 34.00 32.99 31.64 30.78 30.00 29.58 29.30 29.60 29.54 29.64
36.63 37.04 38.80 40.76 37.52 39.49 38.89 34.93 27.20 26.00 24.62 26.99 33.27 31.01 36.92 39.41 41.46 42.03 41.13 37.96 36.85 36.86 35.78 35.49 34.45 34.41 33.36 32.56 32.57 33.00 33.54 33.26 34.12 34.11 32.72 32.20 31.79 31.48 30.63 29.82 29.44 28.88 28.40 27.56
33.62 30.97 37.74 39.84 39.11 36.81 34.80 35.35 28.91 23.20 23.71 26.08 29.22 27.15 34.42 40.97 42.14 38.86 41.57 40.54 37.55 36.15 36.16 34.86 34.04 33.68 33.07 32.72 31.82 32.17 32.57 32.15 32.32 32.60 32.21 32.29 32.03 31.87 31.39 30.72 29.86 28.56 27.93 27.36
33.32 33.02 38.74 39.06 41.87 41.85 34.31 32.92 39.33 31.24 19.66 22.42 29.42 32.73 37.40 36.93 36.95 36.51 37.56 38.16 36.78 35.90 34.64 33.41 32.60 32.62 32.42 32.14 31.93 32.46 31.76 31.46 32.40 32.64 32.17 31.76 31.14 31.30 31.07 29.78 29.11 28.39 27.60 28.40
39.82 33.61 36.13 35.97 40.89 38.93 37.15 38.57 30.93 29.63 19.97 19.55 26.94 29.14 33.37 34.14 36.55 35.39 35.87 36.20 35.46 35.22 33.54 32.86 32.58 32.43 32.75 32.90 31.51 31.75 32.12 31.97 31.50 31.35 31.77 31.34 30.49 30.43 30.09 29.71 28.06 27.58 26.80 26.75
40.68 38.41 31.20 34.79 33.53 34.66 34.63 32.67 33.95 34.69 29.63 24.71 23.71 30.19 36.99 38.90 39.02 35.83 36.48 37.07 36.84 35.35 33.62 33.14 33.09 32.50 32.25 32.10 31.61 31.40 30.75 30.42 30.40 30.90 29.49 29.51 29.31 29.65 29.16 28.19 27.21 26.16 26.08 25.69
41.57 38.19 27.51 31.67 35.19 36.94 35.33 35.54 34.25 30.68 27.25 27.59 26.99 33.53 37.34 36.43 36.88 37.79 36.80 37.82 37.95 37.38 35.02 33.92 33.13 32.13 31.69 31.57 30.65 30.71 30.85 30.55 30.36 30.45 29.60 28.73 29.02 28.32 27.97 27.49 26.39 25.87 25.21 25.28
41.51 36.23 30.02 29.75 32.48 33.38 33.37 35.44 38.60 35.66 28.74 30.21 25.58 32.57 35.75 35.27 36.50 36.68 35.57 35.71 36.55 36.07 34.05 33.62 33.03 32.04 31.73 31.50 31.24 30.93 30.50 30.22 29.86 29.76 28.84 27.71 27.55 27.24 26.87 26.23 25.80 25.24 24.54 23.86
44.18 37.51 35.88 33.02 34.53 35.00 31.25 33.58 35.41 36.30 30.40 30.57 32.97 36.11 33.99 34.30 36.60 35.90 35.47 35.96 35.91 36.42 35.14 33.83 32.87 32.61 32.63 31.89 31.37 30.77 30.33 30.38 29.66 29.26 28.43 27.68 27.11 27.02 26.64 25.92 25.32 24.88 24.27 23.07
42.35 34.75 35.63 38.34 37.33 35.85 33.29 33.01 34.61 33.55 35.41 32.31 36.05 35.80 39.92 40.52 37.30 37.35 36.73 35.64 35.11 35.19 34.84 34.19 33.76 33.32 32.47 31.52 31.36 30.94 30.53 30.41 30.15 29.13 28.23 28.03 27.84 26.58 25.74 25.53 25.03 24.24 23.88 23.49
40.26 34.39 36.39 34.86 37.30 36.14 34.27 34.27 34.70 35.66 36.49 36.55 37.34 36.47 40.35 41.62 39.34 36.39 37.25 36.67 35.79 35.69 35.87 35.73 35.19 33.78 32.40 32.04 31.70 31.31 30.93 30.46 30.34 29.35 28.26 28.33 27.40 27.12 26.20 25.95 25.02 24.48 23.55 22.76
36.72 35.63 33.03 32.02 35.06 33.96 31.49 35.67 36.86 36.16 36.81 36.52 32.87 38.28 39.41 40.49 40.53 36.61 36.13 37.16 37.14 37.38 36.91 36.15 35.30 34.30 33.71 32.89 32.67 31.58 31.38 30.70 29.80 28.79 28.44 28.15 28.13 27.29 26.63 25.94 25.16 23.33 22.86 21.22
33.99 35.61 34.34 32.36 33.05 26.27 34.60 39.11 40.81 39.28 39.87 39.10 37.61 39.58 35.99 39.52 41.08 38.63 37.67 37.72 37.38 37.84 37.08 36.62 36.50 35.58 33.89 33.23 32.62 32.78 31.09 29.76 29.62 28.88 28.18 28.34 28.19 27.34 25.52 24.78 24.22 22.84 21.58 20.19
40.74 36.13 31.83 30.37 31.11 32.99 34.90 30.55 34.44 35.25 36.50 41.81 40.82 41.45 41.83 35.65 33.81 34.49 36.51 37.89 38.92 37.77 38.56 38.10 37.44 37.02 35.71 33.07 32.65 31.54 29.82 29.45 29.12 28.51 27.98 27.60 28.39 27.41 25.34 24.42 23.36 22.31 20.56 18.81
38.52 40.48 34.67 30.47 29.12 27.29 30.15 29.21 31.63 37.31 33.01 38.00 40.66 41.14 41.07 35.20 33.39 39.17 35.54 35.69 36.44 38.10 37.21 37.03 36.52 35.77 36.07 34.51 32.91 30.50 29.38 28.08 27.52 28.24 28.52 28.68 28.09 27.62 25.92 25.54 22.32 19.15 19.51 20.24
32.13 33.93 31.44 32.08 31.24 31.39 29.08 26.42 31.41 30.79 30.58 25.23 29.32 36.16 33.65 35.74 39.79 37.04 35.24 35.22 34.67 34.25 34.49 34.63 35.77 36.03 35.52 32.88 31.42 29.47 28.04 27.16 28.61 27.08 27.09 26.50 26.77 26.39 25.43 23.19 19.81 17.11 17.38 17.59
30.61 30.59 29.44 31.26 29.62 28.28 31.56 29.32 31.56 30.66 27.69 28.58 30.72 30.80 32.19 30.63 29.25 31.04 31.59 30.84 30.91 31.70 31.48 31.05 31.19 30.28 28.88 29.83 30.58 27.66 27.62 27.76 25.07 24.87 24.52 23.66 23.04 23.70 21.33 20.19 14.66 15.23 16.09 16.70
28.77 31.04 29.45 31.66 31.29 31.31 29.40 31.52 30.45 29.91 28.38 30.74 31.78 30.27 29.88 28.73 27.82 27.79 27.24 27.91 29.34 29.52 28.07 28.21 29.32 27.41 26.73 24.97 28.39 26.97 24.72 23.42 22.00 21.42 20.58 19.41 17.36 18.78 17.78 17.10 15.36 14.63 15.23 15.84
28.14 29.91 30.31 30.08 29.65 26.92 27.17 29.83 29.29 28.60 28.30 29.28 31.33 29.88 28.35 27.45 26.88 26.34 25.95 26.05 25.93 25.17 24.86 22.37 24.17 23.02 21.24 18.97 21.31 19.72 21.05 20.18 19.56 17.72 14.58 14.21 17.21 14.75 13.71 17.59 16.89 15.98 13.70 12.85
28.56 29.83 28.55 26.75 25.50 28.08 30.27 29.67 31.36 31.90 29.13 29.04 28.66 29.06 28.58 27.25 26.12 26.02 25.26 24.70 24.68 24.12 21.88 21.79 22.01 20.39 19.39 17.41 15.97 14.07 16.86 17.99 17.24 15.10 14.88 14.61 13.62 13.67 11.59 11.83 10.97 12.82 9.87 12.64
26.13 27.53 28.14 27.54 29.65 31.42 32.03 32.40 32.33 31.89 30.27 28.17 27.81 27.11 26.18 27.12 26.17 25.53 24.61 24.26 23.84 22.96 18.94 18.49 16.25 17.86 14.53 15.15 13.34 13.00 15.15 18.04 17.80 15.41 14.39 13.25 11.92 9.14 10.18 9.07 7.90 19.20 18.90 20.99

GFSCGP_sfc_wetblb_048.txt.gz
Wetbulb
39.83 36.41 34.44 37.42 37.53 37.58 36.07 34.15 34.16 36.38 40.47 38.29 36.84 37.36 39.95 39.78 38.34 37.67 37.31 37.36 37.93 38.57 37.96 38.87 41.36 43.97 44.05 44.15 43.89 44.09 43.67 44.83 45.32 44.06 42.65 41.84 39.34 38.75 38.57 39.10 39.00 37.39 37.59 37.41
37.24 34.50 40.08 40.58 39.59 37.99 36.08 34.09 33.70 37.30 39.62 37.90 36.96 36.45 39.18 38.83 39.34 40.97 40.65 39.55 39.43 36.68 36.15 38.29 39.84 42.56 43.01 43.80 43.98 43.86 44.12 45.08 45.90 45.28 41.06 39.50 37.69 36.60 36.48 36.77 35.59 35.28 35.30 34.99
35.92 39.91 42.26 40.94 38.36 37.00 36.29 34.32 33.70 36.27 36.30 35.89 33.46 32.39 36.45 40.27 39.64 40.33 41.96 42.98 41.44 39.06 37.18 37.32 39.09 41.94 42.55 42.92 43.09 44.29 44.26 45.31 43.57 40.59 37.99 36.20 36.03 35.67 34.72 33.72 32.57 32.91 33.99 33.97
37.48 41.69 40.38 38.46 37.71 38.81 34.00 38.94 38.36 36.89 33.67 29.98 34.37 28.23 33.78 37.17 38.64 39.11 41.81 40.81 41.18 38.96 38.04 38.05 39.20 40.65 42.50 42.88 43.39 44.50 44.29 41.15 40.42 39.59 37.54 36.68 34.29 32.28 30.97 30.91 31.14 31.19 31.89 31.92
37.26 38.19 38.23 37.47 38.51 40.28 37.18 39.47 37.01 35.15 32.08 29.62 30.61 28.42 31.82 36.00 36.22 39.24 43.20 41.10 39.97 38.31 37.67 37.64 39.07 42.02 42.14 41.52 41.88 41.29 40.62 40.14 39.59 39.05 38.09 35.92 32.21 31.57 30.61 29.89 28.85 28.76 29.20 29.98
38.01 39.68 40.64 40.56 39.60 40.87 39.87 37.36 35.67 33.53 31.79 25.79 32.41 30.71 30.05 35.12 40.03 40.45 43.27 43.08 39.20 37.66 37.45 38.45 39.37 41.19 39.37 37.64 37.39 40.75 39.79 38.55 38.56 37.92 36.18 34.56 31.48 30.33 29.36 28.43 28.00 27.19 27.61 28.23
35.76 36.95 38.48 39.97 37.54 38.68 38.15 34.61 26.42 25.28 23.99 26.13 30.94 28.84 35.83 38.27 40.66 42.38 44.16 41.86 37.24 37.39 36.54 36.45 36.67 38.83 37.87 36.18 35.40 37.49 39.13 36.85 36.52 35.46 32.89 32.19 31.50 31.05 29.64 28.59 28.29 27.48 27.05 26.19
32.84 29.85 37.25 39.47 39.26 36.38 35.29 34.23 27.67 21.56 22.29 25.08 28.92 27.12 33.80 39.29 42.32 39.79 39.37 39.10 35.94 34.52 35.94 36.18 37.17 38.47 37.28 35.86 34.27 35.88 36.34 35.68 33.48 32.40 31.30 31.26 31.02 30.66 30.28 29.34 28.61 27.66 27.04 27.19
32.63 32.97 37.04 37.70 39.56 41.78 34.55 32.06 38.00 30.39 17.21 22.06 29.09 32.17 37.09 37.88 37.76 38.31 38.17 36.31 33.21 33.86 34.75 35.31 36.19 36.48 35.47 34.63 33.80 33.90 33.30 33.32 32.94 32.62 31.18 30.69 30.88 29.82 29.09 27.87 27.68 27.44 26.85 27.53
37.66 31.01 33.96 34.74 38.69 36.94 35.60 38.23 30.44 28.54 19.77 18.83 26.49 28.05 32.89 34.00 36.95 39.04 38.43 34.99 33.84 33.24 32.82 33.75 34.20 34.28 34.64 34.48 33.53 32.44 33.19 32.69 32.21 31.65 31.62 31.29 30.83 29.83 29.13 28.79 27.18 26.76 26.09 26.11
39.60 36.65 30.37 33.88 33.19 33.54 33.28 32.22 33.15 33.90 28.99 23.69 20.71 28.53 35.35 39.06 38.54 38.44 38.85 36.62 34.78 33.23 32.69 32.74 32.92 33.28 33.17 32.87 30.88 30.84 30.72 30.29 30.04 31.13 30.99 30.02 29.25 29.39 29.17 28.13 27.00 26.60 26.01 25.49
39.60 37.90 27.30 30.97 34.21 34.12 34.05 33.57 33.38 28.32 25.88 27.14 26.43 32.62 37.83 37.57 38.02 38.59 38.68 37.06 35.54 34.87 33.08 33.04 32.26 31.41 30.87 30.99 30.85 30.72 30.48 30.42 30.74 30.80 30.08 29.71 29.26 28.41 27.60 26.92 26.06 25.72 25.65 25.28
40.17 34.82 25.61 28.57 32.42 32.30 31.90 34.93 38.22 34.39 29.97 27.28 26.28 32.86 34.66 34.61 36.27 37.56 37.89 35.75 34.90 34.10 32.50 31.92 30.84 30.25 30.54 31.19 30.55 30.42 30.13 30.35 29.64 29.13 28.89 27.83 27.63 27.48 27.10 26.18 25.56 25.65 25.08 24.78
43.24 37.09 33.07 30.79 31.68 34.34 29.99 31.88 34.60 36.72 31.98 31.58 32.51 36.09 34.18 36.46 36.76 37.80 36.37 35.18 33.85 34.01 33.01 31.85 31.27 31.18 31.64 31.51 30.43 30.22 30.18 30.28 29.09 29.11 28.21 27.59 27.22 27.77 27.18 26.43 25.76 25.68 25.29 24.40
41.42 34.87 34.68 37.86 36.76 35.93 33.87 32.59 34.75 33.77 36.11 33.27 37.10 35.58 40.35 40.80 37.85 38.72 37.90 35.55 33.46 33.30 32.57 32.42 32.10 31.82 31.32 30.87 31.20 31.33 30.72 30.05 29.73 28.92 27.91 27.69 27.71 27.46 26.51 26.23 25.64 25.06 24.83 24.96
39.87 35.33 36.77 34.57 37.34 34.87 32.90 33.51 35.22 35.79 36.58 36.89 37.56 37.35 40.61 40.53 38.94 36.61 37.64 35.87 34.22 34.39 34.78 34.06 33.45 32.48 31.60 31.61 31.48 31.22 30.68 29.69 29.70 29.19 28.05 28.03 27.53 26.70 26.53 26.63 25.44 25.12 24.43 23.20
39.00 36.74 34.71 32.24 35.79 32.87 30.73 35.15 34.40 34.92 37.48 36.86 33.39 38.88 39.40 40.73 40.07 38.63 37.28 36.65 36.68 36.45 36.44 35.27 34.12 33.42 33.07 32.79 32.50 31.00 30.85 30.40 28.68 28.46 28.24 27.81 28.02 27.17 27.16 26.65 25.70 24.74 23.83 23.35
34.96 36.54 35.97 32.96 33.21 26.76 36.05 40.65 41.21 38.48 38.07 38.23 37.73 39.50 36.55 39.72 42.10 41.83 38.82 37.15 37.39 38.49 37.50 36.11 35.34 34.71 33.90 33.47 32.65 32.37 30.06 29.12 28.96 28.62 28.52 28.26 28.03 27.47 26.74 25.97 25.40 24.48 23.79 23.00
41.10 37.10 32.71 30.66 31.21 33.96 34.56 32.54 35.00 35.30 37.18 41.97 40.28 41.23 42.23 42.11 33.59 38.91 38.01 39.87 40.93 38.93 38.61 37.87 37.02 36.46 34.78 32.68 32.19 30.67 29.02 29.13 28.99 28.37 28.45 28.51 28.44 27.91 26.22 25.83 25.19 24.90 23.86 22.18
40.29 39.96 33.79 30.54 28.62 27.05 32.27 32.18 36.01 37.92 33.73 39.81 41.16 41.60 41.63 37.80 33.82 40.69 41.35 35.66 36.56 36.96 35.77 34.91 33.92 33.44 32.55 31.68 31.58 29.67 28.61 28.57 28.36 28.93 28.98 29.19 29.27 28.91 26.92 27.19 26.47 25.63 24.81 23.59
32.93 34.92 31.22 31.57 30.73 32.68 29.34 27.15 33.98 31.60 32.21 24.98 29.23 32.27 33.38 35.76 40.34 35.64 34.06 33.40 33.53 33.39 33.49 33.47 34.51 33.96 32.70 31.80 30.63 29.32 28.72 28.34 30.14 30.83 30.77 28.69 28.57 28.81 28.49 27.83 25.37 21.75 21.70 19.58
31.12 31.97 32.19 32.79 30.53 28.64 31.86 29.93 33.77 32.73 28.02 29.55 29.60 31.63 33.27 33.22 30.88 30.37 30.38 31.38 32.07 32.31 32.43 32.40 32.02 30.74 31.11 30.53 30.52 29.02 28.63 29.35 27.67 27.17 26.82 26.76 27.12 27.93 27.24 25.54 18.76 18.39 18.50 17.57
29.01 33.86 31.14 32.19 31.80 33.21 31.88 32.76 31.83 31.11 31.20 32.45 32.95 31.32 30.65 29.59 28.73 28.39 29.11 29.39 30.16 30.47 30.26 30.71 31.23 29.27 28.31 28.30 29.13 26.80 25.34 24.33 24.25 25.07 24.95 23.75 23.06 22.84 22.21 20.74 17.18 14.33 15.24 17.56
29.63 31.14 32.06 32.16 31.95 30.06 28.90 29.83 29.42 28.84 29.35 29.54 31.65 30.65 29.20 28.18 27.42 26.36 27.10 27.39 27.42 25.12 26.27 25.63 27.89 25.70 22.47 20.27 23.35 23.20 23.49 22.37 23.71 21.76 19.78 18.19 19.89 16.45 15.73 18.26 17.83 17.72 16.76 16.82
29.86 31.82 30.48 29.40 29.38 28.79 31.35 29.98 31.04 29.39 28.04 28.26 28.58 29.14 28.45 28.44 26.23 26.11 24.86 24.25 24.60 23.66 22.55 24.37 26.13 24.60 21.75 20.64 19.43 18.02 20.00 20.31 19.36 16.90 15.49 15.42 15.52 15.68 13.24 12.65 13.03 14.37 9.25 14.68
27.77 29.19 30.03 29.40 32.10 33.35 33.08 33.09 31.23 31.77 29.72 28.79 29.09 27.28 26.08 27.37 26.60 25.87 24.67 24.27 23.83 22.77 20.26 21.13 19.33 20.60 17.42 18.12 16.77 15.56 16.31 19.70 18.22 16.05 15.10 14.71 15.14 11.03 11.76 11.12 7.68 19.82 19.16 22.11

GFSCGP_sfc_wetblb_051.txt.gz
Wetbulb
38.59 35.65 33.93 36.74 36.48 35.63 34.54 32.34 32.50 34.97 38.65 36.72 36.30 36.44 39.57 39.08 36.80 36.59 36.99 37.19 37.91 38.61 39.98 38.33 39.17 42.81 43.73 43.82 43.82 43.85 43.84 45.01 44.48 43.28 43.98 43.36 40.15 40.03 39.71 40.14 40.89 40.82 39.51 37.47
36.37 33.70 39.01 39.09 37.70 36.14 33.99 32.29 32.50 35.57 37.66 36.95 35.95 35.79 38.36 37.18 38.24 39.76 40.11 39.87 39.34 39.30 36.04 37.78 38.19 41.59 42.71 43.66 43.70 43.44 43.55 43.94 44.70 46.09 41.96 40.42 39.25 36.85 37.20 37.87 37.38 37.53 36.45 35.12
35.08 38.44 40.45 39.50 36.47 35.63 34.34 32.74 32.49 34.64 35.09 34.40 32.93 32.10 35.30 39.70 38.55 39.61 40.63 42.65 41.99 41.01 38.77 37.94 37.62 41.07 42.17 43.08 43.12 43.67 43.36 44.87 45.77 40.73 38.53 36.69 36.80 36.29 35.65 35.37 35.08 34.71 33.81 33.51
36.58 39.95 39.14 36.82 35.94 37.37 32.46 37.38 36.74 35.04 33.07 29.04 33.05 27.66 32.83 35.95 38.04 38.67 41.72 40.50 41.50 41.06 38.97 38.35 38.31 40.15 42.24 43.52 43.26 43.94 43.45 42.62 39.58 39.84 38.40 38.35 35.75 33.51 35.04 34.68 33.70 32.60 31.68 31.56
36.35 36.82 36.88 36.01 37.01 38.91 35.85 37.78 35.93 33.78 31.19 28.97 29.94 27.90 31.93 33.70 35.61 39.64 41.79 42.27 42.29 40.04 39.30 38.09 38.71 40.70 42.91 43.18 43.27 43.49 43.09 38.80 38.84 39.81 39.61 38.57 36.49 31.41 31.84 32.42 31.74 28.80 28.95 29.63
36.22 38.42 39.42 39.04 38.15 39.56 39.08 36.39 34.54 32.30 30.57 24.97 32.36 30.41 29.40 33.80 37.64 39.21 42.65 43.86 40.88 38.24 37.67 38.08 38.93 39.86 41.90 42.40 42.75 42.68 41.10 38.61 38.83 38.93 38.43 36.94 33.98 31.34 29.51 29.08 28.25 27.71 27.35 27.79
34.52 35.95 37.08 39.14 36.78 37.15 36.86 34.50 26.31 24.06 22.72 25.60 29.50 27.91 35.96 36.91 39.07 40.90 42.98 42.00 38.71 36.67 34.94 34.85 35.86 39.16 40.39 40.66 41.69 41.80 40.15 37.05 38.49 38.12 36.76 35.41 34.24 33.39 30.62 29.43 28.90 27.64 26.69 25.59
31.50 29.52 36.44 38.71 39.03 36.43 35.13 34.09 27.20 20.65 20.70 23.81 28.55 26.63 32.94 37.68 40.83 39.75 40.08 39.74 37.43 34.61 34.29 35.00 36.76 39.20 40.07 40.57 39.97 41.10 39.24 36.91 36.92 36.51 35.58 34.93 33.98 33.10 31.37 29.98 29.13 28.40 27.74 26.63
31.01 31.09 35.86 37.02 38.79 40.98 33.90 31.23 36.54 29.92 16.71 21.26 28.02 31.03 36.12 37.70 37.80 37.99 38.75 37.83 35.16 35.47 33.61 34.01 35.87 38.48 39.50 39.40 39.20 40.19 38.38 36.17 35.69 35.74 34.39 33.14 32.99 31.78 29.66 27.58 27.75 27.10 25.62 26.90
36.47 29.71 33.27 34.48 38.15 36.38 35.83 38.13 30.52 28.46 19.11 16.56 25.00 27.14 31.49 35.51 36.89 40.18 39.43 39.56 35.15 34.28 32.66 33.13 35.07 37.23 38.67 39.02 38.45 36.87 36.59 35.34 34.01 33.70 33.60 32.18 31.27 29.59 28.53 28.30 26.68 25.93 25.31 25.97
37.35 34.52 29.63 33.14 32.45 32.70 32.82 31.81 31.53 31.99 28.14 22.76 19.75 28.37 34.88 39.06 38.32 38.99 39.79 38.42 37.19 34.65 32.33 32.52 33.99 34.70 35.55 35.67 34.03 32.85 32.85 32.17 31.59 31.36 31.64 29.98 28.57 28.33 28.32 27.80 26.39 26.01 26.14 25.56
38.43 36.18 27.20 30.17 33.30 33.93 33.68 32.60 32.50 26.49 24.42 26.12 25.49 31.74 35.93 38.04 38.78 38.15 39.27 39.42 35.51 34.55 32.50 32.14 32.37 32.28 32.19 32.45 31.71 31.94 31.81 31.68 31.66 31.26 30.24 29.30 28.69 27.87 27.24 26.58 26.08 25.92 25.84 25.62
39.03 33.61 22.87 27.52 31.32 31.55 30.40 32.86 35.43 32.67 27.97 27.50 24.14 32.06 34.36 33.65 35.07 37.28 38.69 37.13 35.69 33.70 31.52 30.93 30.06 30.64 31.10 31.18 31.44 31.86 31.28 31.06 30.49 30.03 29.47 28.16 27.58 27.35 26.97 26.15 26.05 26.19 25.42 25.22
42.31 36.01 30.72 29.49 30.43 32.75 29.47 31.61 34.04 35.71 29.52 30.74 32.05 35.55 34.19 35.82 35.52 37.29 38.02 37.26 35.10 33.37 31.91 30.64 30.11 30.52 31.11 31.68 31.69 31.36 30.38 30.68 29.08 29.09 28.57 27.69 27.31 27.73 27.80 27.02 26.24 26.01 25.81 25.16
41.10 33.42 33.84 36.21 35.81 33.65 31.93 31.58 33.67 33.14 35.19 31.37 35.73 35.63 40.07 40.54 37.71 39.64 39.11 37.40 34.65 33.38 31.54 31.49 31.25 30.68 30.76 31.05 31.23 31.20 30.65 29.72 29.78 29.08 28.29 28.31 28.40 28.68 28.20 26.92 26.52 26.24 25.79 26.00
40.00 33.23 35.72 33.53 36.52 34.00 32.14 32.76 34.26 34.92 36.33 36.21 37.06 36.52 40.69 40.28 38.54 37.19 39.10 37.86 35.85 34.47 34.17 33.38 32.72 31.73 31.04 31.42 31.21 31.15 30.76 30.03 30.21 29.34 28.62 29.21 28.65 27.88 27.28 26.55 25.85 25.61 25.07 24.46
37.12 35.19 33.47 31.22 33.77 33.74 29.85 34.28 35.57 34.28 37.21 37.02 32.97 38.90 40.51 41.74 41.09 42.36 40.60 37.08 36.91 37.23 37.05 34.95 33.31 32.94 32.70 32.33 32.47 31.27 30.97 30.34 29.16 28.86 28.68 28.16 28.08 27.44 27.01 26.66 25.77 25.11 24.60 24.30
35.50 35.81 34.55 32.44 32.38 26.30 36.04 40.47 40.32 38.51 39.13 39.07 39.02 40.91 41.28 40.92 42.50 40.31 38.98 38.97 38.41 38.79 37.40 35.88 35.15 34.18 33.86 33.12 32.48 32.34 30.50 29.06 29.06 28.49 27.81 27.93 27.99 27.39 26.73 26.17 25.59 24.96 24.57 23.64
41.60 37.87 33.85 31.26 31.31 34.06 35.13 35.60 35.89 34.42 36.61 41.99 40.11 40.65 41.77 41.62 35.76 40.54 38.90 40.46 41.52 38.89 39.83 39.72 38.23 36.21 33.88 32.25 31.96 30.24 28.19 28.36 28.36 27.83 28.07 28.27 28.32 27.49 26.40 26.03 25.38 24.98 24.62 23.76
39.87 40.63 34.81 30.77 28.97 27.05 35.93 36.83 37.52 39.07 33.58 41.90 41.57 41.85 41.47 39.70 35.26 41.49 40.03 37.36 37.84 38.83 36.87 35.86 33.49 32.05 31.96 31.22 30.48 28.47 27.46 27.53 27.63 28.76 28.80 28.92 28.92 28.66 27.15 26.96 26.16 26.36 26.15 25.42
33.11 34.79 32.74 32.25 30.85 32.16 32.07 27.49 33.30 32.18 32.99 28.55 35.23 39.04 36.69 38.02 41.21 35.70 34.81 35.42 33.34 33.32 32.42 31.57 31.41 31.62 30.29 29.75 28.79 27.85 27.27 27.45 29.53 29.80 29.10 28.61 28.81 29.05 28.63 28.15 27.89 27.37 26.08 25.24
32.18 31.80 32.08 32.73 30.48 28.08 29.13 29.98 33.11 34.10 27.50 27.82 29.98 31.40 32.83 34.36 34.20 32.14 31.54 31.93 30.75 30.42 31.01 30.17 29.11 27.84 26.84 27.84 28.83 27.68 27.26 28.35 28.76 29.16 28.56 28.86 29.68 30.06 30.08 29.86 28.53 27.46 25.86 23.96
29.43 33.01 32.21 33.92 34.01 35.51 32.60 30.23 31.28 30.54 29.20 29.99 30.61 31.72 32.41 31.94 30.89 29.67 29.80 28.45 29.90 29.98 29.92 29.11 28.39 27.04 26.46 27.56 29.21 28.14 28.02 29.61 29.68 29.87 29.85 30.39 30.26 29.82 29.02 28.24 24.88 22.34 22.14 21.25
28.77 30.75 29.57 33.11 33.28 33.88 34.23 31.43 31.19 30.35 30.35 30.65 31.91 30.69 29.86 29.83 28.59 27.93 28.22 28.18 27.69 23.91 24.61 23.93 26.49 24.70 24.13 25.75 27.71 28.70 26.70 27.05 28.32 27.73 25.72 23.73 24.45 21.73 22.57 23.56 22.03 21.53 19.63 19.60
28.54 30.73 31.59 31.23 31.00 31.18 33.85 31.76 31.46 30.33 29.88 29.11 29.40 29.50 28.47 28.46 27.19 27.13 25.38 23.78 23.76 22.74 22.34 23.94 26.12 24.26 21.85 22.53 21.69 22.25 22.58 24.28 23.28 21.36 19.51 20.23 20.31 20.15 17.75 17.55 19.20 19.56 13.88 19.08
28.63 29.01 31.14 31.36 32.20 33.28 34.32 33.03 32.80 29.55 28.49 29.36 29.34 28.06 27.04 27.47 27.58 25.85 24.19 24.04 22.87 23.08 21.14 22.75 21.78 22.45 19.15 19.60 18.33 17.87 17.90 21.71 20.68 17.83 17.77 18.16 17.95 16.38 15.89 14.93 12.11 21.58 20.48 24.20

GFSCGP_sfc_wetblb_057.txt.gz
Wetbulb
37.70 35.51 33.89 36.37 35.62 34.32 33.67 32.00 31.94 34.09 37.22 36.69 36.12 36.08 38.44 40.51 38.05 38.21 39.88 40.15 40.52 40.96 44.87 43.05 42.65 42.74 42.63 44.94 46.00 46.95 48.34 48.84 48.57 48.47 47.73 47.64 47.63 46.15 45.60 46.25 47.29 47.87 48.70 48.76
34.95 32.76 37.72 37.82 36.21 35.41 33.44 31.86 32.71 34.76 36.21 36.43 35.49 36.02 39.63 38.99 41.47 42.03 42.64 42.64 42.09 43.12 41.21 40.87 41.29 40.95 42.10 43.94 45.69 46.30 47.86 47.65 48.72 50.52 46.81 46.65 45.11 42.64 43.31 42.63 42.97 44.46 46.00 45.83
33.26 36.08 37.84 37.56 34.29 33.87 32.56 32.11 31.96 33.98 34.39 34.25 33.07 32.38 35.10 38.36 38.93 40.39 40.67 43.02 42.91 43.47 44.19 42.56 39.12 40.08 41.73 42.97 44.80 46.07 47.20 47.19 48.30 48.80 40.95 40.36 40.09 40.11 39.47 39.87 39.19 39.51 41.96 41.97
34.64 37.60 37.27 34.65 33.65 35.61 30.83 35.21 34.56 33.36 32.57 28.67 32.67 26.37 33.25 36.33 37.61 38.59 41.09 40.97 42.14 43.43 42.97 41.56 39.32 39.58 40.43 42.69 45.08 46.49 46.81 46.67 47.01 43.40 43.60 43.60 43.45 40.80 40.94 41.30 39.34 37.48 38.84 38.17
34.48 35.09 34.93 34.20 35.19 36.36 33.88 35.26 34.01 32.77 31.27 29.61 29.42 28.26 32.49 33.60 35.72 38.21 41.81 42.81 42.88 42.47 41.43 41.57 39.82 40.96 41.13 42.48 44.15 45.86 46.04 46.07 46.08 43.67 45.28 44.92 43.28 40.71 39.73 38.19 36.38 35.58 35.24 35.79
34.24 36.41 37.35 37.20 36.44 36.84 36.80 34.85 33.23 31.28 30.53 25.25 29.96 30.27 31.87 32.53 36.63 38.56 40.59 42.13 42.25 41.06 40.32 39.97 39.88 39.28 39.34 41.78 43.82 44.85 44.88 44.99 43.27 43.98 44.45 45.00 44.14 37.23 37.11 35.82 34.59 34.10 33.66 32.87
33.02 34.49 35.76 37.67 35.01 35.76 34.35 32.90 25.79 23.21 22.81 25.35 28.45 28.24 35.70 36.09 37.97 39.11 41.42 43.18 40.61 40.30 40.17 39.61 37.93 37.04 38.00 40.64 42.61 43.91 44.31 43.64 41.93 43.31 43.16 43.77 41.05 39.32 38.73 36.13 35.18 32.56 31.87 31.07
29.74 27.61 34.85 37.66 37.14 34.53 33.05 33.29 26.51 19.55 19.11 23.38 27.39 25.47 32.10 37.40 38.81 38.95 39.09 39.17 38.14 39.02 39.73 39.45 38.22 36.98 37.91 40.20 41.89 43.38 43.79 43.65 40.96 41.02 41.33 40.73 40.01 40.05 38.82 38.12 36.34 34.58 33.76 32.41
27.51 28.37 33.68 35.22 36.27 39.11 32.76 30.79 35.36 28.76 15.43 21.33 26.59 29.51 35.00 36.61 37.50 38.13 39.21 38.52 37.97 38.72 39.20 38.90 37.60 36.36 37.61 39.84 41.33 42.99 43.48 43.55 40.72 40.78 39.98 38.77 38.49 38.14 37.91 36.72 34.85 33.91 33.22 31.16
33.95 28.50 32.40 33.25 36.07 35.17 34.78 36.57 29.21 27.22 18.78 15.73 24.49 25.80 30.88 34.27 38.10 38.53 38.39 39.03 39.28 38.98 39.03 37.90 36.22 35.73 37.32 39.47 41.00 42.67 43.35 42.86 40.79 40.58 39.86 38.19 37.92 36.97 36.56 34.60 33.02 31.70 30.60 30.00
36.98 32.98 28.76 31.91 31.64 31.29 32.37 31.14 30.71 30.91 27.53 21.43 18.43 27.53 32.64 36.81 37.65 37.72 38.77 39.14 39.71 39.75 38.90 37.98 36.01 35.46 36.97 38.60 39.79 41.59 41.71 41.00 38.75 38.95 38.35 36.34 35.98 35.32 34.43 33.48 32.40 30.88 30.02 29.25
37.17 34.91 29.05 29.76 31.99 32.56 30.34 31.26 33.16 26.87 23.23 24.18 23.98 31.07 35.25 36.68 38.41 38.08 38.66 38.78 38.83 38.45 38.59 36.99 35.45 34.85 35.68 37.18 38.39 40.00 40.52 38.37 37.93 37.79 37.31 36.29 35.35 34.19 33.03 32.29 30.80 30.13 29.34 29.12
37.52 33.66 22.70 29.20 30.27 29.52 29.54 30.99 32.48 30.33 27.14 24.31 24.33 31.02 34.88 35.07 36.47 36.89 37.62 37.78 38.31 37.90 37.00 35.45 33.66 33.60 34.42 35.64 36.88 38.14 38.64 38.03 36.40 35.64 35.43 34.98 33.56 32.53 32.38 31.34 30.05 29.40 28.89 27.78
41.96 35.42 30.96 29.47 29.43 31.30 28.30 29.91 33.59 34.60 28.81 30.99 28.41 33.96 38.08 35.75 37.11 37.78 38.34 38.25 38.09 38.02 36.97 35.09 33.26 33.06 33.46 34.53 35.51 36.22 36.86 37.36 34.98 34.25 33.73 33.31 32.86 32.47 32.37 31.07 29.38 28.65 28.33 27.08
40.80 33.53 34.63 35.04 34.12 31.45 31.33 30.81 32.68 32.63 34.53 30.76 34.22 34.22 38.55 39.88 40.30 41.84 42.01 38.57 38.58 38.95 36.58 35.50 35.03 34.35 32.69 32.87 34.04 35.12 35.92 35.79 34.42 33.35 32.84 32.62 31.95 32.26 31.66 29.98 28.77 28.12 27.73 27.66
40.11 32.51 35.07 33.04 34.79 34.82 31.10 31.64 32.17 33.62 34.77 35.15 36.03 35.37 42.42 43.07 38.62 37.72 39.80 41.56 41.32 39.67 39.11 38.29 37.65 34.58 32.98 33.06 33.56 34.22 34.83 34.56 34.04 33.63 32.80 32.63 30.98 30.38 29.72 28.84 28.12 27.07 26.79 26.58
36.86 33.71 32.28 30.24 34.11 33.21 29.11 32.93 34.12 34.25 34.94 35.12 31.21 37.15 41.46 40.25 40.71 39.68 39.48 39.12 40.72 41.29 41.27 42.21 39.26 37.34 35.73 34.59 34.68 33.67 34.39 34.02 32.31 33.00 32.44 30.86 29.96 29.30 29.15 28.27 27.14 26.44 25.85 25.97
33.59 32.05 32.76 30.95 30.80 24.53 34.32 37.97 38.56 36.90 37.76 38.12 37.84 39.82 41.52 42.00 41.95 40.53 42.58 41.42 41.27 41.04 41.01 40.79 41.23 39.07 37.57 35.94 33.66 34.15 33.01 31.85 31.15 31.73 31.14 30.08 29.22 28.68 28.04 27.61 26.67 26.54 26.14 25.63
36.87 33.59 30.20 29.05 29.07 31.07 31.41 33.95 32.57 33.48 34.93 40.15 39.08 40.44 41.68 42.53 35.37 39.97 42.87 40.20 42.91 43.20 41.35 40.53 40.00 38.92 37.39 34.51 32.84 31.69 30.38 30.06 29.91 30.18 30.04 29.45 29.14 28.07 27.06 26.51 26.71 26.51 25.89 25.69
34.45 36.65 31.49 29.27 25.65 23.99 29.98 35.34 36.74 37.05 31.50 38.28 39.46 40.18 40.30 38.18 33.49 39.57 36.95 35.92 37.41 37.31 36.54 36.02 35.57 35.58 34.94 32.57 30.79 30.02 29.04 28.35 28.52 29.71 29.67 29.25 29.06 28.04 27.01 27.04 26.32 26.89 26.73 26.18
29.39 31.77 30.04 30.97 28.62 31.58 33.92 30.62 34.35 30.89 30.31 27.84 31.16 37.86 34.84 36.00 40.04 37.33 34.46 36.35 34.03 33.05 33.28 32.84 31.99 32.67 31.81 29.52 28.76 28.02 27.08 27.12 28.04 28.10 27.80 27.74 28.33 27.56 27.80 27.32 27.04 26.58 26.02 25.42
26.12 25.52 28.25 29.92 28.61 26.55 32.68 31.79 32.64 36.09 29.83 28.55 31.69 34.09 34.27 35.64 35.66 34.00 32.93 32.60 32.31 31.35 31.02 29.88 28.86 27.61 26.70 27.09 27.33 25.47 25.38 26.02 26.15 26.33 26.00 25.88 26.25 27.71 27.85 26.96 26.54 26.92 26.35 25.42
26.15 31.36 31.43 32.25 31.76 36.36 35.39 35.82 37.82 36.19 35.98 32.28 32.42 33.49 32.20 32.67 32.75 32.64 32.21 30.72 30.41 29.94 29.66 26.65 25.34 24.78 24.45 23.10 25.10 24.42 23.62 25.00 24.77 24.67 24.22 25.37 27.31 28.04 28.22 27.43 26.85 26.71 27.14 26.05
30.17 31.86 31.08 30.91 28.69 32.22 36.51 35.80 33.19 32.74 32.47 32.46 34.02 32.93 31.61 32.25 31.32 30.55 30.50 29.81 29.47 25.20 24.41 22.19 23.32 23.10 21.91 21.48 23.34 23.78 23.85 24.74 25.47 25.78 27.31 27.91 27.86 28.09 28.71 28.85 28.30 27.80 27.11 26.70
26.51 28.56 28.39 27.83 31.28 32.19 34.59 33.72 35.18 35.86 33.50 31.88 30.93 31.34 31.60 31.51 30.38 29.30 28.02 24.80 24.45 23.39 22.76 22.23 22.36 22.55 21.82 23.09 24.10 26.53 29.13 30.22 29.32 28.72 27.83 28.41 28.65 28.83 28.39 27.82 28.67 28.26 29.00 29.43
29.15 28.23 27.01 26.49 31.28 32.49 33.25 31.01 30.97 31.82 32.86 31.87 28.82 28.18 29.09 29.47 29.64 26.83 24.92 24.54 24.30 25.12 22.57 22.66 21.44 22.49 22.70 22.68 22.51 24.33 27.53 28.49 26.86 24.93 25.72 26.17 26.96 26.11 24.22 23.92 21.50 26.41 26.72 29.99

GFSCGP_sfc_wetblb_060.txt.gz
Wetbulb
44.60 44.35 42.14 44.75 45.32 42.92 42.07 41.11 40.66 42.64 43.26 42.85 44.06 44.50 46.41 48.62 48.64 47.80 48.73 49.80 50.54 50.89 52.72 52.70 52.45 51.92 51.60 52.64 52.58 52.92 53.29 54.65 55.90 55.77 55.51 55.33 53.03 52.43 53.86 55.42 54.97 55.43 55.43 55.28
43.46 41.13 45.82 43.72 43.04 42.12 41.67 41.19 41.28 43.22 41.82 42.10 43.57 42.84 46.24 47.53 47.72 49.05 49.57 50.07 50.91 51.70 52.25 51.85 51.05 50.92 50.33 50.90 51.58 52.17 52.70 53.97 55.17 55.30 55.85 55.72 54.76 50.95 53.37 51.64 50.89 50.97 51.81 52.42
41.62 43.22 43.59 42.63 40.68 40.28 41.15 40.58 40.77 40.23 40.86 41.95 41.04 41.33 44.39 46.93 46.99 47.71 48.88 49.90 50.60 51.07 51.35 52.29 50.35 49.86 50.51 50.23 50.82 51.28 52.20 53.45 54.24 55.06 55.02 49.85 46.49 45.93 46.36 46.71 46.27 46.47 48.72 46.95
42.31 43.86 41.61 40.56 40.16 41.98 38.86 42.40 41.44 39.73 39.31 36.89 40.33 35.30 42.30 44.98 45.48 46.19 48.30 49.87 50.25 50.54 50.99 51.14 51.58 49.38 49.70 50.49 51.49 51.49 51.92 52.69 53.48 54.44 51.65 51.39 49.50 48.92 49.59 48.57 45.17 44.44 46.24 45.67
41.14 39.74 39.67 39.78 41.15 42.43 40.62 41.23 40.60 39.41 39.32 37.67 38.73 35.59 40.53 41.74 42.25 45.03 47.63 49.38 50.74 51.65 51.43 50.68 50.35 49.92 50.32 50.56 50.57 50.98 51.43 51.90 52.50 53.52 52.63 52.82 52.64 53.13 49.61 47.09 43.26 42.47 42.22 42.49
40.90 42.19 42.79 42.82 40.27 42.11 41.37 40.81 39.75 39.33 38.88 33.09 38.75 36.92 38.72 41.83 43.16 45.22 47.16 48.65 49.98 50.65 50.24 49.75 49.92 49.06 48.93 49.43 49.29 50.02 50.25 50.57 51.69 51.58 52.09 52.17 52.34 52.84 49.97 45.42 42.76 41.15 41.35 39.28
38.96 39.77 41.43 42.04 39.78 40.81 41.03 39.97 33.60 32.03 31.12 31.76 35.72 34.77 39.10 43.37 44.40 45.05 46.74 48.32 48.78 48.31 49.14 49.39 48.56 47.12 46.63 46.37 47.39 48.52 49.15 48.96 50.43 50.26 51.14 51.75 52.23 50.78 50.00 48.99 46.45 42.19 40.95 40.53
34.84 32.96 39.40 42.31 42.25 39.94 38.81 40.11 34.51 28.32 28.80 33.65 32.06 32.01 39.55 44.66 45.84 45.39 46.32 47.25 47.75 46.66 48.40 49.26 49.69 48.45 46.79 45.66 46.73 47.59 47.66 48.07 49.32 49.20 50.19 51.09 52.29 50.12 50.19 48.84 48.62 45.83 44.43 41.42
34.45 34.08 39.03 39.81 41.84 43.26 37.92 35.04 41.50 35.23 27.47 30.25 35.94 39.46 43.18 43.82 43.15 44.48 45.26 47.22 47.90 48.19 48.20 48.56 49.12 47.91 46.27 45.73 46.17 47.02 47.19 47.51 48.38 48.18 49.52 49.43 49.75 48.67 47.91 45.86 46.82 44.84 42.75 38.45
39.05 33.81 37.26 38.59 41.62 40.81 39.97 42.21 34.48 35.00 28.97 27.13 33.93 35.52 37.20 41.87 44.07 46.05 44.74 45.91 47.42 48.17 48.47 49.07 48.32 47.02 45.50 45.92 46.40 46.89 47.45 46.94 47.85 47.45 48.29 47.59 46.78 46.99 44.49 43.07 42.36 41.94 40.61 37.16
42.04 37.54 34.90 37.90 36.99 37.27 37.27 36.60 36.79 37.04 34.64 30.51 29.63 35.09 43.86 43.50 44.98 44.15 45.68 45.41 47.28 47.85 47.40 48.09 47.41 45.27 44.70 44.99 45.50 45.96 46.48 46.37 46.53 46.15 47.02 46.48 46.11 44.27 43.39 42.11 42.51 39.85 37.69 33.67
41.79 37.95 33.94 36.27 39.33 40.48 41.02 39.66 38.92 33.45 30.67 33.07 32.83 35.12 42.09 44.49 45.17 44.44 45.35 45.16 46.72 46.68 46.75 46.14 45.60 44.29 43.58 43.70 44.46 45.03 45.91 45.81 46.16 45.80 46.09 45.17 44.81 43.66 41.82 40.94 41.16 38.57 35.38 32.81
41.09 36.18 31.88 33.93 35.84 36.28 35.57 38.29 38.75 39.26 34.86 33.24 30.85 34.75 43.17 43.42 43.66 44.85 44.55 46.49 46.53 45.90 46.51 46.00 44.34 44.12 44.33 44.22 44.19 44.42 45.12 45.34 45.23 44.90 44.50 43.75 43.38 41.62 40.46 39.42 39.44 36.87 35.11 31.75
42.54 37.43 34.77 32.52 36.55 38.09 33.44 36.04 38.00 37.65 32.27 33.25 34.67 37.54 42.37 43.83 43.65 44.84 45.64 46.81 46.96 46.80 46.37 47.13 46.11 45.84 45.01 44.16 43.96 43.78 44.21 45.03 44.10 43.54 42.85 42.82 42.26 40.76 39.13 38.04 36.91 34.40 33.26 31.00
40.82 33.63 36.44 38.31 39.48 37.65 36.69 36.51 36.79 35.29 37.31 34.05 37.12 38.11 41.65 43.99 44.88 45.95 47.06 47.18 47.30 46.51 46.31 45.66 45.54 46.07 45.73 43.45 42.52 42.41 43.33 43.39 43.37 41.59 41.54 41.88 41.67 40.52 38.37 35.75 33.88 32.19 31.39 30.48
39.54 32.47 35.71 33.60 38.02 37.67 35.46 37.30 36.77 37.02 37.85 38.42 39.00 38.85 45.30 46.19 47.02 46.50 45.87 45.98 45.83 46.72 47.81 48.91 46.39 44.89 43.81 43.98 42.32 41.99 41.98 42.17 42.02 40.67 40.36 41.17 40.22 37.70 35.59 33.64 32.23 30.03 29.74 29.31
36.45 33.92 31.85 29.08 35.59 35.19 30.97 35.00 37.46 38.21 39.63 39.83 35.58 40.89 44.99 44.36 45.00 45.62 46.31 46.11 45.35 46.84 47.69 48.25 47.90 47.58 46.21 45.66 43.89 42.02 42.32 41.95 39.70 38.66 38.16 37.51 36.33 34.36 33.96 32.32 30.58 28.88 28.85 28.48
33.19 32.37 31.94 30.60 32.20 24.51 36.18 42.29 41.52 39.20 40.60 42.20 40.71 42.62 44.41 45.05 46.63 46.69 47.68 46.79 46.63 47.11 46.55 47.26 48.11 48.44 48.24 45.44 43.78 42.56 40.62 38.89 36.93 36.33 36.15 35.33 34.02 33.29 32.79 31.42 29.94 29.08 28.41 27.47
36.74 33.23 29.59 26.82 28.11 31.65 35.19 38.93 37.96 37.11 37.64 42.75 42.00 43.34 44.50 45.66 45.12 45.38 47.79 48.14 47.48 47.93 48.31 47.44 47.14 45.30 44.69 43.37 41.60 37.83 35.81 36.02 34.97 34.65 35.14 34.51 33.72 32.89 31.72 30.54 29.95 29.08 27.87 27.01
35.38 36.34 30.95 29.08 24.31 21.69 33.73 40.09 40.42 41.29 32.45 43.08 43.56 42.87 43.41 44.40 38.61 43.24 46.55 43.70 44.53 43.88 42.44 41.78 41.37 40.24 40.23 41.10 37.83 34.54 33.88 33.44 32.96 33.75 34.51 34.30 33.36 32.31 30.88 30.93 30.25 30.14 29.07 27.41
28.85 28.85 26.71 26.72 25.88 29.82 36.95 39.32 40.12 30.23 33.30 36.42 40.64 43.21 42.35 40.99 43.86 46.97 41.62 42.25 40.94 39.07 37.94 38.27 38.15 37.52 37.04 35.68 33.53 32.92 32.41 31.61 32.96 32.93 32.48 31.84 31.96 31.25 31.36 30.95 30.71 29.57 28.03 26.54
26.30 26.38 27.18 29.45 27.01 24.97 36.58 36.63 35.21 35.80 37.80 37.17 38.05 39.49 39.44 40.72 39.79 39.73 38.65 37.96 38.22 37.01 35.95 35.37 34.49 33.81 32.31 31.41 32.09 30.98 30.40 30.67 31.10 30.93 30.38 30.37 30.75 30.89 30.64 29.42 29.18 29.22 27.39 26.04
24.91 30.61 28.80 30.59 30.45 38.54 39.53 39.38 41.20 39.48 36.17 38.56 39.72 39.89 38.12 37.34 37.72 38.31 37.31 36.65 35.72 34.26 33.39 30.99 30.06 28.89 28.05 28.99 31.09 30.05 28.89 29.09 28.56 28.47 27.51 28.72 29.84 30.16 30.16 29.00 28.25 28.08 28.14 26.41
32.45 35.30 30.86 30.05 34.26 35.84 37.49 39.57 41.07 38.37 38.40 39.88 39.14 36.41 36.41 36.45 37.52 36.61 35.03 34.22 33.24 30.40 29.57 27.75 27.99 27.27 26.68 27.33 27.42 28.21 27.66 27.98 27.30 27.36 28.00 28.67 28.69 29.16 29.73 29.95 29.41 29.14 28.42 27.39
29.72 31.77 30.87 30.66 33.37 35.37 36.85 37.54 37.80 36.96 37.63 36.91 35.51 34.63 34.75 35.55 35.73 35.41 32.94 31.01 29.47 28.81 27.58 27.05 27.09 26.48 25.97 27.55 28.30 28.94 28.94 30.01 29.48 28.82 27.96 28.73 29.26 30.16 29.39 29.41 29.60 29.10 30.32 30.64
31.92 29.91 26.66 26.46 32.82 33.22 35.31 37.10 34.87 33.66 34.64 35.24 34.51 33.70 32.37 31.46 32.03 30.46 29.57 28.55 28.66 28.26 26.84 26.08 25.20 24.81 24.48 24.94 25.10 27.33 31.11 30.92 29.35 27.99 28.84 29.01 29.03 29.39 28.51 28.14 26.36 30.94 30.99 32.40

GFSCGP_sfc_wetblb_063.txt.gz
Wetbulb
47.97 44.73 42.12 44.56 46.05 45.64 43.88 42.85 42.30 44.34 45.66 44.02 44.58 44.96 46.84 49.10 49.47 49.42 50.09 50.60 50.98 52.03 54.35 54.98 55.34 55.52 57.12 58.43 58.22 58.69 58.54 58.39 58.72 58.15 57.91 58.33 57.99 57.71 59.67 61.43 61.26 61.83 61.40 60.73
44.23 41.76 46.28 46.39 46.25 44.50 43.75 42.12 42.09 44.88 45.43 43.07 44.14 43.79 46.86 48.19 48.73 49.61 49.91 50.37 51.12 52.10 53.12 54.68 55.01 55.12 54.48 55.65 56.67 56.25 56.05 56.25 56.58 57.59 58.07 58.16 57.76 56.96 56.59 57.02 56.92 57.99 57.22 58.22
41.62 43.69 45.91 44.62 43.36 42.31 42.87 41.75 41.98 41.94 43.72 44.58 43.05 42.22 44.76 47.85 49.23 49.96 50.43 51.42 51.46 52.06 52.40 53.57 54.98 54.37 54.87 53.78 54.86 55.08 55.43 55.80 56.26 56.95 57.18 57.15 56.51 55.19 52.70 52.52 52.91 52.39 53.84 54.62
43.44 45.98 43.31 42.59 41.58 43.10 39.45 44.78 43.45 42.21 40.52 37.24 43.28 36.09 42.81 45.46 46.25 48.32 49.69 50.68 51.09 52.25 52.93 53.11 54.18 54.58 54.15 54.22 54.92 54.86 55.13 55.26 55.81 56.68 55.69 55.37 52.31 50.89 52.60 53.90 51.62 49.73 50.13 50.27
41.79 42.10 41.63 40.79 41.87 44.34 41.75 43.76 42.57 42.05 40.66 40.13 40.33 37.01 41.14 44.96 43.99 46.21 48.50 50.32 51.69 52.83 53.48 53.51 53.87 54.16 54.44 54.75 54.80 54.87 54.61 54.64 55.09 55.59 55.63 54.95 51.96 53.90 54.63 54.42 50.95 49.93 48.08 48.37
43.58 44.48 44.80 44.09 42.82 44.39 44.45 43.04 42.45 42.11 40.68 33.50 39.29 38.46 39.25 42.57 44.28 46.43 48.59 50.10 51.36 52.00 52.80 53.07 53.77 54.43 53.64 54.95 54.34 54.31 53.52 53.30 54.28 54.68 54.93 54.32 52.83 53.79 54.30 52.64 51.54 47.85 46.08 43.74
41.65 41.39 43.66 44.13 40.85 42.66 43.10 40.53 34.08 32.89 32.75 32.25 39.20 37.58 40.50 44.51 46.20 47.22 47.51 49.12 50.70 51.38 51.29 51.97 51.49 50.30 50.84 51.70 51.88 52.20 52.20 51.88 53.14 53.61 53.71 54.00 53.65 54.41 54.34 51.78 49.95 47.59 44.21 41.66
37.31 35.09 40.97 43.44 42.74 40.67 40.10 40.57 35.01 28.68 30.96 34.52 35.43 33.67 39.95 46.76 48.25 48.28 48.29 49.01 50.06 50.55 50.65 50.82 52.33 52.48 51.04 50.13 50.24 50.32 50.37 50.98 51.98 52.57 52.73 53.02 53.50 53.70 54.38 53.94 50.92 47.29 46.31 44.60
38.05 36.66 42.85 43.32 44.35 44.07 39.74 36.56 42.89 36.53 34.03 31.65 36.20 40.22 44.23 46.43 45.21 46.76 47.49 48.26 48.99 50.51 51.68 50.83 51.56 52.39 51.46 49.54 49.27 49.72 49.66 50.01 51.05 51.50 52.09 51.66 52.64 52.95 53.10 52.47 53.38 50.72 48.32 46.68
41.55 35.38 39.79 41.03 42.88 43.02 41.20 43.27 34.92 35.83 29.52 27.37 33.91 36.23 37.98 43.43 44.90 46.63 47.00 47.89 49.21 50.56 50.89 51.30 51.56 51.56 50.16 49.81 49.66 49.79 49.99 49.37 50.01 50.75 51.17 50.59 51.58 52.20 53.09 51.99 51.10 50.42 49.82 44.79
42.87 39.22 36.22 39.50 38.23 38.54 38.33 36.95 38.13 38.56 36.15 30.56 29.73 35.15 44.42 44.28 45.77 46.06 47.74 48.53 49.10 50.05 50.28 50.14 51.13 50.10 49.19 48.80 48.84 48.80 48.87 48.81 48.96 49.84 49.82 49.72 50.37 50.81 50.82 50.21 48.98 47.01 45.13 40.82
43.00 39.66 35.07 37.13 42.44 43.13 42.49 39.68 39.36 33.58 31.93 34.95 33.37 34.92 46.04 46.21 46.20 47.09 46.83 48.48 49.43 49.74 49.84 49.50 49.28 48.74 47.62 47.50 47.82 47.96 48.35 48.29 48.76 49.16 48.68 48.39 49.17 48.61 48.10 47.54 46.19 44.34 41.72 38.56
42.30 36.36 31.72 34.43 39.22 39.35 37.27 40.14 40.34 40.28 36.78 33.32 31.10 34.33 45.53 46.89 46.61 47.20 47.09 48.60 49.36 49.44 49.85 50.07 48.92 48.39 48.32 48.38 47.84 47.51 47.61 47.90 48.35 48.19 47.56 47.36 47.38 47.27 46.59 46.04 44.67 42.27 38.73 36.51
42.24 37.28 35.50 32.98 37.19 40.37 35.49 37.64 40.10 38.54 32.97 33.84 34.59 37.50 42.47 44.62 45.64 47.25 47.79 47.98 48.91 50.02 49.61 50.07 50.52 50.39 49.85 49.02 48.53 47.80 47.54 47.98 47.72 47.30 46.45 45.82 46.14 45.95 45.94 45.33 43.38 39.76 37.61 35.28
39.07 33.06 36.43 37.98 39.27 39.37 38.61 38.64 38.76 36.75 38.28 34.38 37.31 38.31 42.20 44.44 45.74 47.15 49.00 49.19 48.70 48.61 48.96 49.46 49.03 50.01 50.89 50.27 47.90 47.11 47.52 47.35 47.30 46.05 45.24 45.05 45.36 45.31 44.57 43.12 41.26 38.07 36.57 34.91
37.90 32.19 34.13 31.07 35.22 35.68 33.36 36.55 39.07 39.32 38.75 38.58 39.23 39.01 45.86 47.00 47.89 47.52 48.08 48.30 47.97 48.49 48.88 49.37 50.01 49.37 48.56 49.30 48.80 47.11 46.41 46.21 46.13 45.19 43.84 44.59 43.22 41.89 40.68 39.15 36.61 34.52 33.27 32.09
35.99 34.40 31.43 27.05 33.52 33.86 30.49 34.90 36.89 38.93 41.15 40.29 35.47 41.15 45.60 45.22 45.92 46.89 47.85 48.52 48.19 48.51 49.07 49.26 49.47 49.99 50.14 49.58 48.30 47.34 46.59 45.47 43.12 42.11 40.55 39.36 39.33 38.75 37.93 36.16 33.73 32.36 31.45 30.60
33.24 32.01 31.13 27.56 28.72 21.74 34.30 40.41 41.92 39.91 41.17 42.87 42.49 43.56 44.88 45.65 47.31 47.79 49.00 48.83 48.44 48.74 48.96 49.62 50.27 50.77 50.89 50.31 48.36 47.77 44.50 42.49 40.34 39.38 38.39 37.67 37.71 36.30 35.32 33.85 32.30 31.68 30.82 29.37
36.85 32.65 27.58 23.65 23.64 28.84 33.09 37.58 37.41 36.46 36.47 42.92 42.80 44.26 45.61 46.87 46.96 46.86 49.51 49.78 49.53 49.64 50.12 49.13 47.16 46.17 45.74 45.32 45.34 40.95 38.62 38.83 38.26 37.42 37.07 36.68 36.29 34.35 33.69 32.09 31.58 31.10 30.18 29.19
35.21 35.60 29.81 27.31 22.04 19.31 31.30 37.67 41.05 40.48 31.08 40.30 38.48 38.79 39.12 43.27 39.12 43.89 47.51 46.16 46.06 46.33 45.04 43.00 42.49 42.54 42.79 43.42 40.62 36.18 36.06 35.74 35.51 35.43 35.76 36.07 34.95 33.57 32.97 32.40 31.65 31.38 31.08 29.35
29.70 30.11 25.76 25.78 23.71 28.31 35.75 38.30 40.91 28.43 31.97 36.56 37.84 38.50 38.12 36.50 39.93 42.73 44.36 44.21 44.11 41.48 39.55 39.80 40.09 39.64 38.91 36.17 33.58 33.69 34.37 33.78 34.78 34.18 34.20 33.60 33.75 32.75 32.84 32.25 31.70 30.62 29.67 27.67
25.33 25.75 26.38 28.44 24.97 22.78 38.79 39.05 33.61 35.36 37.43 37.10 37.12 38.38 38.66 40.05 40.30 40.33 41.55 40.55 39.59 38.99 37.62 36.78 35.13 35.45 34.29 32.39 32.43 32.43 31.99 31.72 32.03 31.83 31.29 31.10 31.30 31.95 31.82 30.72 30.23 30.19 27.91 26.48
22.92 27.72 26.22 28.82 29.30 38.84 40.38 39.90 42.40 39.43 36.59 36.70 36.36 38.42 38.38 38.53 39.34 39.61 39.65 39.58 37.82 36.89 35.35 33.30 30.68 30.04 29.87 29.79 30.84 30.92 29.81 30.06 29.44 29.04 27.75 29.64 30.23 30.77 30.57 29.63 28.63 28.00 27.75 26.20
30.65 34.39 29.40 29.18 32.31 34.47 36.61 39.07 39.70 40.13 40.05 40.82 40.53 40.36 40.66 39.26 38.89 37.78 37.90 38.23 37.43 33.50 31.57 30.25 29.38 28.83 28.17 28.56 28.24 29.05 28.78 28.66 27.56 27.75 28.17 28.75 28.78 29.42 29.60 30.10 29.40 28.64 27.80 27.05
29.71 30.79 28.84 28.83 31.78 34.03 36.54 38.61 37.88 38.54 39.21 38.24 38.82 38.31 37.33 36.20 36.55 37.51 36.23 33.95 32.81 31.86 30.26 29.12 29.22 28.12 27.29 28.83 28.92 28.79 28.55 28.52 28.93 28.48 28.33 29.67 29.43 29.45 29.10 29.23 29.86 29.22 29.84 29.44
30.41 28.24 26.01 25.46 32.62 33.28 33.80 36.04 36.84 35.88 36.26 37.25 36.25 35.26 35.22 34.02 33.71 33.49 32.21 31.47 30.33 30.28 28.84 27.66 26.83 26.31 25.99 26.32 25.40 27.65 29.93 30.62 28.88 27.10 27.58 28.40 29.68 29.76 29.22 28.96 29.21 32.64 32.36 32.51

GFSCGP_sfc_wetblb_066.txt.gz
Wetbulb
45.00 39.70 36.99 40.56 41.97 42.24 39.69 38.59 37.28 39.01 42.04 39.78 39.83 40.48 42.41 44.51 44.02 43.37 43.93 44.91 45.70 46.62 48.44 49.75 50.15 50.73 52.22 54.68 57.46 60.42 60.52 59.41 59.05 58.50 57.58 56.73 57.15 56.81 58.40 60.02 61.74 62.30 62.31 62.27
40.49 37.24 43.50 44.76 44.13 41.85 39.42 37.29 36.86 40.62 42.17 39.19 39.27 39.06 42.19 43.29 44.00 44.74 44.82 44.70 45.47 46.01 47.31 48.63 49.15 49.06 51.17 53.11 54.70 56.81 58.87 58.44 58.09 58.18 57.04 55.62 54.85 54.10 56.53 56.25 57.75 59.65 59.88 60.73
38.97 41.17 44.58 43.49 40.47 40.26 38.59 37.20 37.14 37.68 39.67 39.51 36.17 35.47 39.20 43.44 45.12 45.03 45.72 46.64 46.16 46.40 46.31 47.00 48.25 48.44 48.87 50.01 52.14 53.82 55.67 56.63 56.47 55.35 54.56 52.87 52.70 51.75 51.06 53.38 55.57 55.72 56.62 57.96
40.29 43.45 42.05 40.13 39.64 40.50 36.01 40.50 40.75 38.99 35.82 30.30 37.62 27.92 36.61 40.46 41.34 43.39 44.84 44.64 45.10 45.91 47.14 47.74 47.66 47.62 49.06 50.06 51.59 52.29 51.61 51.47 53.19 53.52 53.30 53.00 52.22 51.18 50.94 51.77 53.02 54.31 53.45 54.63
38.54 39.49 38.90 38.50 39.85 41.59 38.20 41.30 39.65 37.90 34.44 33.81 33.37 29.65 34.72 38.47 37.93 40.83 43.04 44.50 45.13 46.05 46.84 46.99 47.59 48.73 48.72 48.47 48.20 49.05 50.06 50.72 51.62 52.65 52.96 52.38 51.25 50.16 48.34 49.77 49.44 50.16 49.85 51.32
39.69 42.03 41.32 40.96 40.99 41.39 42.70 39.83 38.43 36.84 35.18 26.18 33.97 32.76 31.48 36.28 37.99 39.59 41.90 42.74 45.65 47.57 46.38 47.22 47.31 48.37 48.19 47.97 48.17 48.12 48.62 49.93 50.82 51.40 52.41 51.35 51.13 48.10 48.03 48.69 48.45 48.47 47.58 48.09
38.59 38.67 40.54 41.94 38.14 40.37 39.28 35.85 26.50 25.71 25.08 24.89 33.21 30.78 35.07 39.71 41.74 39.87 41.57 42.99 43.32 46.50 45.54 46.36 45.80 45.36 46.41 46.41 47.04 47.77 47.77 47.37 48.73 49.20 50.32 50.51 49.79 48.24 48.16 48.98 49.52 45.44 43.69 44.20
34.59 31.79 38.34 40.93 39.77 36.62 36.41 35.82 27.84 21.79 23.46 25.58 30.01 27.90 33.80 40.77 41.46 42.03 42.15 43.39 44.00 42.96 44.85 44.97 45.73 46.08 44.96 45.76 46.11 46.45 46.55 46.51 47.48 48.02 48.65 49.36 49.82 49.57 50.21 50.06 49.59 48.20 46.42 46.51
34.61 35.23 39.51 40.83 40.60 41.02 36.33 33.09 38.29 30.40 22.73 23.64 29.88 34.84 40.28 41.38 40.49 41.52 42.87 42.83 42.68 44.14 45.04 45.49 45.64 46.20 45.76 44.48 44.83 45.45 45.53 46.15 46.69 47.35 47.85 48.18 48.70 49.09 49.50 49.30 49.24 48.22 45.65 45.99
38.42 31.93 37.25 38.09 39.69 39.70 37.73 39.78 30.98 30.66 20.19 18.81 27.40 28.98 32.88 37.43 40.03 41.62 40.48 41.77 43.62 44.78 45.87 45.66 45.74 45.86 45.03 44.38 44.81 45.19 45.63 45.14 45.78 46.40 46.93 47.56 47.82 47.73 48.38 48.53 47.34 46.70 45.57 43.71
39.80 36.36 32.24 36.10 34.63 34.78 34.30 32.85 34.40 35.08 30.68 23.82 21.56 28.12 38.14 38.63 40.87 41.11 40.97 43.16 43.66 43.93 44.55 44.73 44.77 44.34 44.18 43.84 43.98 44.16 44.57 44.78 44.82 45.48 45.77 45.94 45.89 46.48 47.52 47.64 46.81 46.28 44.57 42.09
39.94 37.12 29.05 32.85 37.43 38.24 37.02 35.68 36.01 27.29 26.43 27.73 27.26 31.02 41.33 40.29 40.15 40.97 41.04 43.15 44.66 44.19 44.69 44.09 43.94 43.56 42.45 42.85 43.18 43.61 44.03 44.15 44.52 45.00 45.23 45.09 45.25 45.70 45.72 46.00 45.40 43.58 41.50 37.11
39.74 34.00 25.14 30.16 34.46 35.92 33.12 36.10 37.23 36.10 30.17 28.79 23.76 29.84 40.55 39.47 41.17 42.61 41.52 43.11 43.93 45.16 44.15 44.99 43.61 42.72 42.74 42.55 42.76 43.11 43.54 43.64 44.23 44.51 44.19 44.04 43.72 44.23 44.11 43.76 43.32 40.56 38.27 34.77
43.08 36.89 32.10 28.41 33.01 37.67 32.81 35.89 38.08 36.70 30.32 30.18 30.69 33.88 38.90 41.09 41.42 43.32 43.38 42.82 43.15 43.94 44.73 44.02 43.82 44.11 43.72 43.39 43.21 42.94 43.16 43.66 43.58 43.91 43.41 42.50 42.57 43.86 43.84 43.04 41.70 39.04 36.57 34.02
40.14 32.41 34.79 35.48 36.56 37.07 35.82 35.88 36.90 35.92 36.23 32.14 34.03 34.36 38.94 41.74 42.10 42.45 43.47 44.22 44.19 44.63 45.02 44.73 43.94 44.20 44.74 44.73 43.44 42.97 42.86 43.02 43.30 43.28 42.93 43.51 42.11 42.72 42.33 39.99 38.45 35.90 33.92 33.52
38.77 31.41 32.36 26.96 33.46 33.08 29.77 32.04 33.14 35.10 36.17 36.59 37.25 36.12 42.53 43.88 44.66 44.05 44.55 44.70 44.62 44.52 45.51 45.50 45.44 44.78 44.79 44.68 44.53 43.64 42.52 41.93 42.36 42.81 42.50 43.24 39.75 38.09 37.37 36.63 35.88 33.80 32.39 31.25
35.57 32.62 29.92 21.12 28.41 28.66 27.26 30.03 32.04 33.95 35.85 36.24 33.04 38.40 42.70 42.01 43.09 43.78 44.32 44.76 45.47 46.19 46.77 45.58 45.15 45.14 44.85 44.68 44.65 43.20 42.52 41.14 39.08 37.84 35.74 35.55 35.31 34.73 35.30 34.82 33.35 31.63 30.56 29.05
30.11 30.87 27.00 21.19 21.47 17.15 29.70 34.67 36.01 35.37 36.87 39.33 39.90 41.04 42.09 42.79 43.89 44.77 44.52 43.73 44.69 45.68 46.01 45.96 44.77 43.34 43.13 42.44 42.05 41.77 38.19 37.39 36.35 34.91 32.87 31.78 33.17 33.44 32.05 31.94 31.39 29.68 28.97 28.39
35.51 30.18 18.15 18.78 17.24 23.64 27.63 30.89 30.20 29.28 31.33 38.60 36.46 37.84 38.10 38.78 38.26 40.17 40.01 41.32 41.97 42.50 42.11 41.46 40.71 40.51 40.10 40.15 39.60 35.61 34.73 34.36 34.58 34.55 33.73 31.78 32.00 30.99 30.40 29.93 28.52 26.86 27.14 26.43
32.82 33.47 27.53 14.79 11.94 7.02 26.18 31.37 35.01 35.38 25.17 34.51 36.90 36.06 36.06 36.78 31.64 36.39 39.91 40.25 40.47 41.59 40.37 37.94 37.02 37.80 37.65 35.31 33.64 31.41 31.99 31.84 32.20 32.87 33.33 32.94 31.38 30.42 29.40 29.03 27.78 25.62 24.75 26.60
24.79 21.95 23.47 22.90 21.54 23.94 30.04 33.49 34.32 22.54 24.10 30.63 32.94 34.79 34.30 33.98 36.39 38.93 40.45 39.42 39.11 37.58 37.37 36.93 34.97 34.98 34.57 31.79 30.17 30.09 31.16 31.05 31.62 30.06 29.38 28.82 28.97 27.36 27.05 26.16 24.80 24.94 25.09 27.62
20.29 17.24 19.02 20.14 21.03 18.18 34.16 33.29 28.93 34.40 35.99 35.33 34.85 36.01 35.27 36.40 37.33 38.35 39.08 36.72 36.12 35.87 34.52 31.55 31.40 31.13 31.20 28.50 28.17 28.42 28.38 28.84 27.32 27.00 27.02 25.98 24.08 27.48 25.77 24.39 22.07 28.29 27.55 26.29
18.91 23.50 16.36 22.35 21.18 32.14 34.02 32.17 35.74 38.37 34.89 33.73 34.83 35.46 36.41 34.98 35.72 38.13 38.35 38.67 37.97 37.24 35.30 32.26 26.95 26.73 27.86 25.70 25.30 25.04 25.58 25.13 23.92 23.06 22.56 22.61 24.29 24.04 23.68 23.45 23.40 26.30 26.71 25.34
24.19 28.74 23.01 23.16 27.10 29.20 30.97 33.20 33.72 35.02 33.74 36.45 37.06 36.43 34.72 34.74 35.00 35.28 36.04 36.48 36.58 33.91 32.59 28.96 28.35 27.71 25.73 25.88 25.21 23.16 23.24 23.15 21.03 20.65 20.58 20.40 22.27 23.47 22.75 25.34 24.82 24.06 21.52 23.46
23.68 25.52 22.69 23.13 26.83 28.49 30.30 31.53 32.93 33.00 33.73 33.20 33.08 33.94 33.43 32.35 32.96 31.96 32.83 32.45 32.36 30.36 26.85 26.59 26.22 26.15 24.08 24.48 23.49 23.53 24.09 23.82 22.40 24.42 23.33 21.28 21.44 21.76 21.57 21.92 22.67 24.10 23.41 25.39
26.38 25.02 22.60 21.65 27.11 28.01 29.32 30.60 31.21 31.54 30.97 31.84 31.29 32.17 33.57 32.17 31.52 29.85 29.84 28.71 27.55 26.37 24.12 23.79 23.02 21.92 21.05 21.10 18.56 21.55 24.99 26.51 26.03 25.48 26.61 27.00 26.83 25.92 25.10 24.81 26.50 31.37 30.89 31.72

GFSCGP_sfc_wetblb_069.txt.gz
Wetbulb
41.66 36.52 33.52 36.84 37.76 38.23 36.86 34.51 32.77 35.42 40.38 38.54 37.50 37.42 39.92 42.15 40.58 39.76 40.61 41.57 42.47 44.05 46.80 46.00 48.06 49.55 52.10 55.63 57.36 60.05 60.10 60.34 61.60 60.61 59.25 58.61 60.25 59.94 59.18 60.93 63.29 64.01 63.97 63.18
37.40 33.86 39.86 41.04 41.13 39.12 36.52 33.77 32.96 36.52 39.51 37.28 36.92 37.41 39.81 40.41 42.08 42.62 42.91 40.79 41.84 42.38 44.60 46.04 45.53 46.04 48.93 54.50 56.51 59.13 60.25 59.68 60.82 61.70 61.65 60.86 58.16 55.17 58.02 56.16 58.17 63.52 63.69 63.20
35.28 38.66 42.15 41.62 38.12 37.88 35.54 33.60 33.26 34.82 36.50 36.05 33.76 32.62 35.82 40.04 40.84 42.15 42.25 42.83 42.96 43.69 44.00 44.24 44.75 44.86 47.87 50.25 53.33 57.00 59.50 59.43 60.03 59.81 56.02 52.94 52.67 51.33 52.87 53.17 54.29 57.40 60.44 61.72
37.62 41.18 40.13 37.80 37.38 38.48 33.74 37.64 37.96 36.45 33.07 28.71 35.06 25.75 33.16 38.68 40.12 39.35 41.65 41.30 42.44 42.70 43.41 43.93 44.90 43.96 44.88 49.37 52.42 55.52 57.23 57.88 58.46 56.86 55.86 56.26 56.25 55.46 56.29 57.31 56.33 52.58 55.45 58.22
35.82 36.84 36.68 36.13 37.87 39.39 36.21 39.30 37.05 35.80 32.37 30.55 30.12 26.90 31.89 34.83 35.38 38.55 39.77 40.41 41.63 42.83 42.92 44.17 44.82 45.18 45.45 47.00 47.66 49.52 50.73 53.30 55.19 55.48 55.52 55.01 54.81 54.43 47.34 48.34 49.35 50.11 49.69 53.50
37.17 39.89 39.23 38.96 38.98 39.22 40.83 38.40 37.59 34.96 32.04 24.25 30.84 30.12 27.91 33.50 36.29 36.69 38.80 40.70 42.36 43.11 46.32 45.89 46.29 45.85 45.33 44.27 44.67 46.55 48.31 48.57 50.12 53.22 52.17 52.41 52.70 47.48 46.48 46.35 48.24 48.40 47.55 49.88
35.83 36.33 38.48 40.31 36.69 39.35 37.54 33.29 25.01 24.01 23.15 23.10 29.79 27.43 32.15 36.97 39.11 38.94 39.52 39.41 39.86 42.86 44.01 44.02 44.33 44.41 44.34 44.46 44.66 45.09 46.44 47.32 47.19 48.43 50.07 48.81 49.62 48.51 48.60 47.49 48.14 47.25 48.87 49.27
32.16 30.15 36.66 39.49 37.87 35.69 35.14 33.43 25.67 20.40 21.73 24.30 28.93 26.53 33.99 38.79 40.19 39.80 40.25 41.32 40.43 40.40 41.49 42.51 43.11 43.75 43.53 43.16 44.45 45.21 45.08 44.93 45.98 46.74 47.92 49.18 48.76 49.95 49.80 48.42 49.35 48.57 48.16 48.41
31.79 32.53 37.14 38.66 39.51 39.90 34.35 31.97 35.96 28.87 18.35 21.80 27.16 31.20 37.10 39.67 39.40 41.41 40.57 40.98 41.99 43.29 43.70 44.20 43.86 43.38 43.94 42.91 43.49 44.53 44.84 45.13 45.39 46.10 46.70 47.37 48.93 48.05 48.68 47.35 48.95 49.28 47.21 46.44
36.62 30.26 35.05 35.88 37.96 37.18 36.12 38.15 29.82 28.48 18.64 17.49 23.99 26.67 31.22 35.31 37.33 40.38 41.20 40.74 41.13 41.83 43.12 43.15 43.18 43.32 43.34 42.99 43.26 43.46 43.92 44.09 44.80 44.89 45.70 46.84 47.34 47.82 47.38 46.75 46.48 47.19 45.88 44.96
38.73 34.34 30.96 34.41 33.08 33.05 32.83 31.39 32.77 33.08 28.67 22.16 19.50 26.72 35.10 36.87 39.55 38.60 39.75 41.71 41.59 42.79 43.14 43.29 43.20 42.97 43.14 43.12 43.22 43.26 43.30 43.61 43.48 44.12 44.50 44.97 45.19 45.77 46.02 46.64 46.34 46.12 44.02 43.68
39.00 35.21 26.66 31.18 35.19 36.24 34.60 33.44 33.69 26.88 25.18 26.54 25.60 30.55 37.86 38.37 38.80 40.11 40.27 41.74 42.01 42.67 43.65 42.87 42.77 42.50 41.96 42.36 42.28 42.78 42.99 42.91 43.33 43.64 43.79 43.85 44.50 44.56 44.82 46.02 45.95 44.16 44.10 41.93
38.76 31.87 21.07 27.62 32.93 34.81 31.46 33.77 34.75 33.69 28.41 25.23 21.74 29.65 39.21 39.04 40.04 41.02 40.04 40.80 41.10 41.77 42.35 43.12 42.35 41.46 41.27 41.08 41.37 41.87 42.42 42.75 43.21 43.29 43.13 43.13 43.15 43.36 44.34 44.63 43.64 42.76 41.42 39.71
41.66 34.69 28.38 24.69 30.58 35.23 31.93 34.19 36.20 35.14 24.17 28.03 29.64 32.61 37.83 38.26 39.91 41.75 40.58 40.57 40.94 42.16 42.99 42.13 42.23 42.39 41.86 42.26 41.72 41.39 41.90 42.60 42.50 42.70 42.46 42.21 43.02 43.63 44.10 43.58 42.08 41.14 39.09 37.25
39.01 32.65 34.36 33.86 34.49 35.96 36.44 35.52 35.74 34.33 35.15 31.37 32.99 33.66 37.76 40.13 41.03 41.92 40.69 42.24 42.26 42.14 42.67 43.68 43.25 43.16 43.76 42.63 42.58 41.91 41.48 41.79 42.18 41.69 41.86 42.75 42.73 41.51 41.28 39.55 38.61 37.66 35.70 35.38
37.58 29.46 32.82 29.57 33.74 34.41 30.58 32.82 33.41 33.85 34.74 35.25 35.10 34.96 40.97 42.45 43.11 42.08 42.04 42.01 42.38 43.26 43.60 44.03 44.27 43.53 42.70 43.05 42.68 42.35 41.80 40.95 40.70 41.03 40.98 42.51 39.59 37.70 37.12 36.93 36.48 35.54 34.17 32.46
33.50 31.11 28.71 16.60 27.95 27.87 21.64 28.72 30.89 32.26 33.78 34.46 30.68 35.57 39.49 39.06 40.52 40.14 40.18 39.67 39.12 40.11 41.30 41.60 41.45 41.47 41.65 41.24 41.45 40.80 40.32 39.09 37.14 36.17 35.70 35.70 35.48 34.94 35.58 35.38 34.73 34.24 33.01 31.00
33.01 30.58 28.98 14.32 17.15 7.33 25.67 31.54 31.40 31.71 33.60 35.16 36.39 37.64 37.97 36.55 37.54 38.04 38.37 37.88 38.50 39.40 40.04 40.34 39.98 38.91 39.43 39.24 38.79 37.59 34.88 34.29 34.07 33.58 32.75 32.47 32.99 33.31 32.43 32.21 33.02 31.85 30.43 30.42
33.75 29.66 23.90 17.62 7.72 19.26 25.57 28.13 27.71 26.08 26.73 31.60 30.42 33.86 35.10 35.59 35.16 35.95 38.40 38.14 38.06 39.04 39.52 39.22 38.30 37.04 36.82 36.22 33.64 31.22 31.71 31.76 32.11 32.72 33.07 32.54 31.19 31.57 30.29 30.46 30.40 26.89 26.23 25.66
33.49 32.13 23.59 4.35 5.27 6.07 21.57 28.44 31.28 31.36 21.09 32.97 33.67 32.68 32.72 33.56 28.68 31.83 37.44 38.66 39.42 38.97 38.63 37.46 36.19 35.38 34.89 33.65 31.08 29.51 30.39 30.05 30.93 31.58 31.87 32.23 31.60 31.15 31.35 29.98 25.94 24.53 23.47 25.71
23.87 26.39 23.81 22.14 20.01 19.09 27.37 28.93 32.09 18.90 22.29 31.98 33.59 35.17 33.46 31.72 33.84 36.47 37.70 38.45 38.89 36.84 36.98 36.55 34.83 35.18 34.08 31.22 28.89 28.44 28.64 29.08 30.44 30.13 29.95 29.45 29.08 27.27 26.07 24.06 24.39 23.87 23.12 24.93
20.17 20.55 16.28 23.39 19.88 17.58 30.40 28.82 27.24 30.75 31.09 33.84 34.42 34.87 34.65 35.22 34.54 35.20 36.83 36.14 36.00 35.62 35.49 36.12 33.44 34.21 31.60 28.97 27.75 27.03 27.15 28.36 26.42 26.12 26.64 26.90 23.68 25.72 25.22 21.72 22.38 26.90 26.72 26.59
15.52 22.28 18.00 21.82 20.69 29.85 29.98 29.78 33.81 37.13 32.53 31.45 33.37 33.32 34.45 33.17 33.35 34.07 34.47 35.22 35.14 33.96 33.53 33.12 30.68 29.36 29.62 26.02 25.35 25.05 28.33 27.80 24.49 24.30 25.69 23.12 19.54 21.62 20.68 21.77 27.68 26.77 26.80 25.78
22.69 26.73 21.28 21.46 24.76 25.62 28.74 30.83 31.81 33.62 33.03 32.85 34.32 33.38 32.95 32.45 31.82 31.31 31.46 33.21 33.55 32.71 30.70 28.22 26.78 27.15 25.75 23.58 24.63 22.87 25.45 24.64 19.37 22.32 23.09 20.21 20.03 19.22 18.61 24.58 25.11 25.79 25.82 24.82
22.48 24.02 20.37 21.65 25.07 26.01 28.13 29.01 30.27 30.36 29.53 29.48 29.95 31.56 31.32 30.58 30.07 29.52 30.27 29.84 30.56 29.17 26.06 24.27 24.46 23.59 22.94 21.84 23.84 25.87 24.83 23.69 24.53 23.41 21.41 18.14 19.03 18.55 19.77 21.84 21.10 21.67 20.76 25.07
23.79 22.61 20.29 18.95 26.00 25.64 26.90 28.80 28.74 28.38 29.11 29.40 28.87 29.01 29.88 29.15 29.54 29.96 28.23 27.67 26.60 26.53 23.42 21.94 21.02 18.61 18.41 17.25 16.71 16.83 22.04 22.76 18.85 22.09 24.81 23.53 25.68 25.46 24.00 23.65 25.61 29.69 29.23 30.45

GFSCGP_sfc_wetblb_072.txt.gz
Wetbulb
40.43 35.64 33.77 36.45 36.59 36.11 35.33 33.52 32.38 34.18 38.54 37.28 36.43 36.05 38.62 40.96 39.62 38.76 39.28 39.50 40.54 41.46 45.87 43.98 45.05 46.66 50.52 53.30 55.42 58.27 59.62 61.49 61.90 60.37 60.79 61.44 61.62 62.15 62.72 64.60 64.73 64.57 64.12 62.65
37.04 33.16 37.90 39.10 38.22 36.79 34.81 32.89 31.92 34.70 37.81 36.33 34.84 36.10 38.25 39.00 40.03 40.28 40.37 39.62 39.88 40.65 42.62 44.70 44.09 43.22 45.66 52.19 54.59 57.38 59.02 60.78 61.39 62.57 62.58 62.60 61.93 57.90 61.09 60.51 62.13 64.11 63.75 63.13
34.34 37.04 40.18 40.02 37.36 36.76 34.03 32.89 32.17 33.20 34.48 33.79 32.63 31.33 33.73 37.67 38.55 40.37 40.78 40.86 40.46 40.87 41.54 42.24 42.59 42.86 42.85 46.27 51.79 55.57 58.69 59.85 61.26 62.02 58.84 53.29 52.69 52.07 53.90 54.10 59.39 62.48 63.34 62.88
36.55 39.74 38.56 36.62 36.19 36.83 32.83 36.50 35.57 34.16 31.78 27.77 32.56 24.72 31.21 36.08 38.14 38.58 39.53 37.06 38.88 40.22 40.92 42.09 42.78 42.05 42.10 44.94 48.36 54.03 57.13 59.00 59.94 60.36 59.46 59.13 58.92 57.97 58.43 60.22 58.09 55.06 58.36 62.05
35.41 35.94 35.68 34.88 36.49 37.73 35.00 37.31 34.87 33.91 30.66 28.52 28.38 26.41 30.16 32.60 35.40 37.23 38.49 38.22 40.99 41.98 39.53 41.71 43.84 44.18 43.59 43.13 44.22 48.47 52.62 56.54 58.29 58.74 59.16 58.57 58.63 58.97 53.04 50.18 52.43 51.41 53.48 56.31
35.92 38.79 38.21 37.93 37.44 37.35 39.31 36.68 34.58 32.45 29.70 23.48 28.55 27.96 27.20 31.64 34.55 35.62 38.58 40.47 40.62 41.90 42.13 42.17 42.55 43.70 43.75 43.25 42.73 45.29 49.13 51.24 53.32 56.29 56.24 56.41 57.27 53.69 47.57 47.04 49.12 49.08 49.77 54.67
34.42 34.95 37.09 38.73 36.09 37.86 35.54 31.69 24.03 22.80 21.71 22.08 27.15 25.75 29.69 35.54 36.84 36.93 38.93 39.10 39.94 40.12 40.77 41.75 42.46 42.51 42.26 42.40 43.26 43.08 45.68 47.15 48.59 51.84 52.92 51.97 54.14 50.68 49.58 48.43 49.87 46.80 47.67 48.26
30.27 28.72 36.03 38.68 36.94 34.96 33.45 31.79 24.88 19.28 19.44 22.36 27.45 25.36 32.34 36.50 38.60 39.54 38.56 39.67 39.35 40.95 41.75 42.18 41.81 41.83 41.70 42.79 42.87 43.82 44.07 44.43 45.45 46.69 48.30 48.38 49.84 51.03 50.62 48.58 48.64 48.79 49.30 49.69
30.72 31.05 35.77 37.07 37.56 38.78 33.46 30.23 34.07 27.37 16.61 20.99 26.25 29.53 36.21 38.44 36.55 38.36 39.93 40.48 41.40 42.00 42.22 42.37 43.12 43.06 42.58 42.71 43.08 43.51 44.05 44.21 44.14 44.95 45.52 46.31 47.09 48.08 48.61 46.89 47.83 48.47 47.71 46.86
36.28 29.61 33.73 35.11 37.40 36.71 34.81 37.29 29.49 27.22 17.67 15.89 23.28 24.93 29.98 34.29 37.00 38.74 38.94 40.06 41.12 42.49 42.91 43.05 42.62 43.05 43.28 43.00 43.04 42.80 43.18 43.57 43.85 44.06 44.20 45.18 46.06 46.75 46.64 46.16 46.64 47.57 46.89 44.83
36.56 33.75 29.88 33.56 32.52 32.62 32.85 31.14 31.39 31.73 27.08 21.16 17.98 25.74 33.58 35.17 37.52 37.40 38.11 39.48 39.46 40.75 41.61 42.56 42.80 42.65 42.13 42.11 42.17 42.50 42.55 42.89 43.16 43.29 43.57 43.56 44.04 45.00 45.59 46.38 46.91 47.00 45.54 44.58
38.18 33.41 26.53 30.22 33.16 34.66 32.91 32.84 32.51 26.18 24.02 24.69 25.14 26.88 36.91 36.92 37.29 38.41 38.48 39.92 39.87 39.94 40.87 41.18 41.50 41.39 41.23 41.40 41.21 41.60 42.09 42.28 43.00 43.41 43.34 43.30 43.76 44.02 44.38 45.73 46.43 44.58 44.92 42.47
39.04 32.45 23.31 28.13 32.20 33.63 30.34 32.69 33.01 31.50 27.85 24.39 21.60 27.04 36.53 36.75 38.65 39.36 39.78 39.23 39.75 40.59 41.43 41.28 42.17 43.19 44.02 42.03 41.11 41.05 41.17 41.77 42.17 42.40 42.36 42.42 42.43 42.19 43.01 43.43 43.12 42.22 42.56 40.70
41.55 33.80 29.59 26.13 29.67 33.86 30.77 31.87 34.72 32.24 23.92 27.38 28.42 31.73 34.93 37.10 39.06 41.24 41.50 40.09 39.28 40.57 41.09 41.23 41.54 41.89 42.69 43.01 40.78 40.35 40.43 40.85 41.21 41.35 41.43 41.10 41.47 42.41 42.58 41.96 41.59 40.86 40.52 39.87
39.00 28.56 32.13 33.93 34.08 34.36 33.95 33.13 34.01 32.59 32.67 29.15 30.43 32.45 35.50 38.29 38.91 39.84 39.44 40.21 40.03 39.98 40.07 40.30 40.00 39.97 40.10 40.78 41.14 41.25 41.56 40.86 39.74 39.82 40.16 41.24 41.83 41.08 40.53 39.35 38.17 37.69 37.36 39.05
37.16 30.55 32.17 28.17 32.47 33.64 30.02 32.06 32.70 33.37 33.33 34.00 33.89 33.39 39.27 39.48 38.48 38.26 38.25 38.51 38.08 38.47 39.55 40.15 40.20 39.75 39.49 39.38 39.40 39.57 39.22 38.60 37.80 37.33 36.79 38.59 37.55 36.69 36.47 35.98 35.80 35.45 35.31 34.88
34.17 30.96 26.33 19.51 27.67 26.98 19.86 27.60 31.39 31.14 32.07 33.96 30.04 34.45 36.22 35.55 36.71 36.00 36.28 36.73 36.94 37.79 38.96 39.17 39.06 38.81 38.14 37.94 38.36 37.38 36.02 34.89 33.11 32.93 33.39 33.31 33.24 33.22 34.17 34.53 34.33 34.17 33.95 33.46
29.29 25.51 22.12 14.99 16.99 14.09 26.06 29.05 29.91 31.18 32.32 33.97 34.11 34.18 34.14 34.50 34.97 36.06 37.79 35.89 36.98 37.89 38.23 38.68 38.42 37.72 37.16 36.75 36.30 34.41 32.88 32.03 31.40 31.22 31.18 31.13 31.73 32.07 31.86 31.44 31.64 32.08 31.84 30.99
33.10 28.86 21.93 15.74 8.93 19.54 26.00 27.35 26.57 26.24 26.31 31.17 30.26 31.05 31.68 32.94 31.89 32.23 37.47 36.98 37.00 37.67 38.40 38.04 37.97 37.03 36.15 35.36 34.37 30.55 30.89 31.31 30.92 31.27 30.93 30.32 30.40 30.77 30.75 30.73 30.31 29.33 27.40 25.37
33.15 32.30 26.55 10.87 14.71 8.07 21.12 26.87 29.05 29.69 19.49 31.26 32.39 31.66 31.29 31.16 26.50 28.66 34.54 35.43 36.65 37.35 37.33 36.70 36.56 35.44 34.55 34.88 31.93 29.37 30.10 29.18 29.98 30.70 30.53 30.12 29.29 27.61 28.86 29.67 30.36 28.04 23.59 27.11
27.48 28.11 25.53 18.25 19.19 17.65 25.14 28.67 30.19 17.06 21.32 28.95 30.66 31.68 30.16 29.79 31.69 34.02 34.61 35.29 34.85 34.64 35.27 35.37 34.98 35.00 35.03 33.30 29.69 28.32 28.32 28.13 29.72 28.70 28.21 27.84 28.01 26.54 26.21 24.61 23.56 21.83 21.60 23.77
21.53 20.53 16.61 21.78 20.07 16.08 28.73 26.99 24.65 27.21 29.33 31.42 31.81 32.39 32.34 33.25 33.39 33.51 33.81 32.58 31.67 31.94 32.49 32.44 31.54 31.80 32.22 29.75 26.69 26.63 26.39 28.18 26.35 25.74 25.70 26.32 24.84 26.83 27.94 19.80 19.19 21.64 27.34 27.48
16.88 22.08 17.86 21.60 21.75 29.60 28.98 30.00 32.17 32.99 30.08 30.03 31.80 32.43 31.89 31.68 31.42 32.03 31.78 32.12 31.24 30.59 31.03 30.62 27.92 28.23 28.93 25.09 22.94 24.49 25.94 25.26 24.51 22.47 23.92 23.78 23.00 24.92 22.93 23.06 26.34 27.46 27.22 26.38
21.99 25.20 20.74 20.93 23.98 25.48 27.22 28.94 31.64 30.48 32.70 31.38 30.76 30.75 30.27 29.82 30.19 29.86 29.70 30.02 30.57 30.63 28.57 24.67 22.87 24.50 25.79 21.41 22.99 21.88 24.66 23.79 19.65 19.05 20.45 20.89 21.18 21.75 20.78 26.19 26.03 27.15 26.33 25.22
24.12 24.97 20.87 20.66 24.92 25.71 27.29 28.55 29.87 29.97 29.19 29.20 29.75 29.25 28.65 28.91 29.00 28.16 27.59 27.49 28.63 28.60 25.96 21.76 23.38 24.23 24.34 21.30 19.68 17.18 21.29 24.79 24.13 19.63 19.49 20.21 18.41 16.70 20.05 20.81 20.13 20.52 21.14 24.98
23.76 22.82 21.24 18.15 25.59 26.04 26.28 28.53 28.19 27.03 26.78 26.46 26.34 26.42 27.32 27.83 27.75 27.62 27.63 27.03 26.25 27.09 24.45 21.87 20.45 19.55 20.54 17.03 16.40 14.97 12.82 18.20 22.92 23.44 25.36 26.24 19.30 20.05 24.32 25.41 25.66 29.58 29.50 29.62

GFSCGP_sfc_wetblb_075.txt.gz
Wetbulb
39.08 35.54 32.83 35.76 34.94 33.69 33.81 32.55 31.13 33.35 37.38 35.88 35.45 34.90 38.28 39.99 37.99 38.08 38.68 38.52 39.20 40.23 43.52 42.82 43.52 44.11 49.54 52.07 53.41 56.09 58.45 60.87 61.70 61.59 61.54 62.51 62.48 63.28 63.71 64.04 63.73 63.31 62.89 61.75
36.63 33.14 37.22 37.98 37.15 36.25 34.11 31.87 31.06 33.87 37.06 36.05 34.35 35.37 37.50 38.18 39.30 38.96 39.26 39.11 38.72 38.65 40.26 41.33 41.96 41.33 42.72 49.21 52.65 54.81 57.16 59.39 60.90 62.27 62.43 62.46 62.33 63.15 63.93 63.89 63.89 64.03 63.41 62.78
33.59 35.70 38.90 38.39 35.08 35.04 32.40 31.86 31.41 32.26 33.35 32.92 31.62 31.15 32.49 35.66 36.67 38.99 38.55 38.50 38.82 39.31 39.80 40.26 40.12 40.35 40.80 41.88 47.27 53.16 55.90 57.99 60.02 61.75 59.95 53.72 54.13 53.04 56.84 58.61 62.00 63.11 63.41 63.07
34.91 37.79 36.97 35.46 35.10 35.67 31.79 36.08 35.38 33.21 30.22 26.56 30.54 24.75 30.90 34.00 35.92 36.70 37.39 35.82 37.68 38.86 39.21 40.39 41.51 41.31 40.48 41.06 42.13 47.94 52.32 55.98 58.50 60.00 59.54 59.78 59.92 59.23 58.98 60.94 60.03 61.75 62.71 62.78
34.03 35.90 34.99 33.94 35.78 36.74 34.08 36.41 33.66 32.23 29.53 28.04 27.44 25.92 30.34 31.47 33.30 35.20 37.52 37.96 38.57 39.35 39.42 40.73 41.08 42.28 41.73 42.24 40.68 42.10 49.04 53.60 56.06 58.06 59.93 59.28 59.45 60.24 55.95 54.13 54.73 54.64 58.27 60.81
34.80 37.46 36.74 36.69 36.53 36.03 37.89 34.93 32.60 30.77 28.08 22.88 26.75 25.69 27.16 30.15 32.25 34.24 36.04 37.96 39.21 39.94 41.08 42.31 42.37 42.27 41.69 41.25 41.92 42.87 46.02 49.97 53.53 55.55 56.32 57.02 58.39 56.10 50.68 49.41 52.30 51.52 54.85 57.70
33.13 33.71 35.89 37.55 35.23 36.49 33.60 30.63 23.77 22.45 20.79 21.27 25.94 24.89 29.21 32.35 34.95 34.83 36.25 39.14 39.58 39.98 40.74 41.29 41.64 41.88 42.20 42.78 41.95 43.13 44.31 45.75 49.31 52.08 53.12 53.44 55.19 53.95 51.86 50.18 51.42 48.29 48.84 51.50
29.22 27.80 35.40 37.89 36.10 34.24 32.21 30.92 24.23 18.42 17.85 21.92 26.87 24.80 31.20 35.62 36.69 36.68 38.59 39.06 39.23 39.76 40.14 40.53 41.09 41.18 41.74 42.43 42.58 42.54 43.30 43.51 44.39 46.55 49.61 50.06 50.69 51.28 51.37 49.26 49.15 50.13 50.40 51.26
28.92 29.25 35.04 35.91 36.46 37.50 32.80 28.68 32.21 25.37 14.49 19.83 24.60 27.83 34.78 35.50 36.41 37.63 38.66 39.05 38.86 39.93 40.58 41.23 41.11 41.01 41.15 41.55 42.04 41.87 42.35 42.88 43.54 43.69 44.69 45.70 47.00 47.87 48.56 48.03 47.52 49.34 48.00 47.26
35.27 29.57 32.95 34.40 36.33 35.27 33.97 36.27 28.44 25.74 16.71 14.87 21.82 23.64 29.09 32.68 34.65 36.73 37.15 37.59 38.74 40.07 41.43 42.14 42.04 41.63 41.53 41.13 41.26 41.71 41.92 41.97 42.41 42.79 43.19 43.85 44.44 45.43 46.32 46.23 46.35 46.51 46.71 45.17
35.74 33.90 29.48 33.35 32.06 31.82 32.20 30.61 30.42 30.84 26.69 20.85 17.20 24.74 31.93 34.88 36.23 36.61 37.26 38.40 38.82 39.41 40.17 40.56 41.16 41.69 41.83 42.11 41.90 41.26 41.42 41.67 41.95 42.43 42.48 42.61 42.95 43.68 44.47 45.14 45.71 45.36 44.86 43.86
36.61 33.13 27.15 29.67 32.85 33.81 32.06 32.21 31.48 26.60 23.37 23.86 24.75 25.92 36.03 36.52 36.57 37.71 37.15 38.11 38.69 38.76 39.47 39.56 40.12 40.33 40.49 40.19 40.28 40.23 40.30 40.34 41.01 41.90 42.16 42.29 42.58 42.67 42.77 43.30 43.90 43.56 43.65 42.40
37.89 31.40 24.20 29.25 30.94 32.18 29.98 31.17 31.87 30.41 27.46 22.68 22.20 25.02 35.83 35.23 36.88 38.16 38.12 37.84 37.87 38.89 39.67 39.69 39.56 39.67 39.83 39.69 39.41 39.45 39.65 39.75 40.15 39.89 40.39 40.86 41.22 41.44 41.66 41.81 41.91 41.80 41.72 41.20
41.00 33.54 30.69 27.92 28.89 32.55 31.10 33.39 33.75 31.52 24.62 25.71 26.97 28.69 31.37 33.98 36.85 37.96 37.08 37.64 38.14 38.67 38.99 39.01 39.87 39.90 40.11 39.94 39.61 38.96 39.56 39.34 38.41 38.27 38.51 38.86 39.55 40.29 40.77 40.85 40.52 40.21 39.88 39.57
38.43 32.21 33.57 33.76 34.38 34.30 33.29 33.16 34.22 31.52 30.09 27.70 29.52 29.83 33.91 36.90 36.97 36.09 37.10 37.60 37.33 37.73 38.38 38.73 38.67 38.78 38.61 38.61 39.05 39.05 38.96 37.83 36.73 36.21 36.31 36.75 37.18 37.71 37.61 36.95 36.43 36.12 35.78 37.56
37.93 31.42 32.97 30.43 32.22 33.33 30.66 32.01 31.00 31.83 31.99 33.08 32.36 32.64 38.12 35.82 37.34 35.79 36.83 36.68 36.09 36.45 37.41 38.22 38.44 38.29 38.10 37.49 37.61 37.77 37.22 35.88 34.25 33.77 33.21 34.17 33.20 32.95 33.18 33.23 33.53 33.76 34.01 34.08
33.99 30.46 28.36 24.93 28.02 29.06 25.06 28.71 30.48 31.13 32.60 32.73 28.45 32.84 34.85 34.27 35.46 34.11 35.19 35.63 35.33 36.00 36.80 37.27 37.53 37.82 37.88 37.35 36.70 36.47 35.64 33.96 32.46 31.30 31.54 31.47 31.59 31.73 32.23 32.08 31.87 32.09 32.41 32.65
30.07 28.10 26.68 21.18 20.99 17.88 26.68 27.67 29.36 31.56 31.77 33.42 32.72 32.09 33.30 33.27 33.35 34.35 35.22 35.16 34.39 35.34 35.76 36.26 36.73 36.93 37.21 36.38 35.92 34.97 32.79 31.68 31.45 31.56 31.02 29.75 30.07 30.14 30.37 30.56 30.71 30.59 30.30 30.23
32.84 28.92 21.65 21.15 10.61 21.43 25.85 26.74 26.12 26.85 26.33 31.06 30.71 30.65 30.81 31.27 29.39 30.16 35.49 35.81 34.35 34.67 35.62 35.89 36.16 35.92 35.56 34.81 34.49 31.49 30.73 30.27 29.89 30.51 30.47 29.98 29.20 28.62 28.55 28.63 29.60 29.86 28.70 28.11
32.23 31.44 26.01 12.63 10.24 9.66 20.94 27.05 29.17 28.78 19.27 28.26 30.25 30.64 29.90 29.42 25.54 27.99 34.52 33.49 33.70 34.41 34.02 34.05 33.87 33.95 33.45 33.60 32.08 29.80 29.65 28.44 28.89 29.67 29.20 28.85 28.23 26.99 27.16 28.16 28.33 26.41 22.37 27.37
28.04 27.31 25.57 16.17 15.47 17.31 24.97 27.14 28.83 16.97 21.06 26.24 31.34 31.85 30.41 28.34 30.16 31.89 32.54 32.64 33.19 32.66 32.15 32.44 32.42 32.20 32.27 31.63 29.60 28.20 28.07 27.55 28.78 27.17 26.77 26.20 26.06 25.10 25.37 25.64 22.36 21.67 22.43 23.39
25.16 22.99 21.39 23.16 20.85 17.14 27.06 26.20 23.61 26.18 28.65 30.93 31.23 30.89 30.54 30.62 31.11 30.81 30.51 31.09 30.65 29.96 30.28 30.94 30.04 29.64 29.46 28.68 26.42 26.46 26.07 27.75 24.66 24.37 23.85 24.04 23.16 23.77 25.77 21.36 20.29 19.67 20.31 20.30
19.87 24.51 19.73 23.01 23.56 28.80 28.74 28.51 30.14 30.87 29.60 29.17 29.70 31.85 29.65 28.75 28.55 29.18 29.59 30.05 29.26 29.17 29.32 30.42 27.37 26.98 27.07 24.27 22.29 23.47 25.89 23.70 24.48 22.60 21.95 22.75 22.33 22.84 22.44 17.96 20.06 25.28 26.19 26.69
22.31 25.30 22.47 23.61 26.09 27.43 28.45 29.19 30.73 31.46 31.80 31.56 30.77 28.81 28.25 27.97 27.70 27.37 28.31 29.01 28.21 27.12 26.01 24.21 22.87 23.29 24.40 24.46 21.71 20.59 21.44 23.96 24.98 23.84 23.22 22.25 22.31 22.69 20.61 21.48 21.47 23.19 25.87 25.77
22.17 24.69 20.65 20.68 24.48 26.04 27.07 28.78 30.26 30.55 29.39 27.73 27.40 26.96 26.84 26.62 26.75 27.04 26.62 26.26 27.20 26.42 23.78 20.95 22.09 22.86 23.56 23.63 21.12 15.55 18.54 13.91 16.64 22.24 24.03 23.83 25.89 23.57 20.90 20.04 19.87 19.69 19.55 21.82
24.36 22.95 22.25 19.13 26.53 26.85 27.03 28.63 28.44 27.66 27.12 26.57 26.13 25.39 26.64 26.99 26.45 26.14 25.13 24.49 23.45 23.36 22.52 21.25 20.44 19.24 20.43 18.01 17.76 14.08 9.49 8.41 10.56 14.99 21.10 24.85 26.25 25.98 21.04 19.44 20.61 28.45 30.93 31.76

GFSCGP_sfc_wetblb_078.txt.gz
Wetbulb
38.50 35.29 32.13 35.99 34.75 31.85 32.66 30.62 29.62 31.91 35.95 34.95 33.94 34.21 37.78 38.99 37.69 38.09 38.33 37.64 38.25 38.88 40.86 41.54 42.11 42.16 47.58 51.56 53.60 56.14 58.38 60.37 61.52 61.49 61.98 62.22 62.00 62.54 62.93 63.37 63.19 62.36 61.47 59.99
35.76 31.64 36.58 37.45 36.42 35.38 33.60 31.41 30.46 32.85 36.08 34.87 32.97 34.69 36.98 37.60 38.17 37.83 38.64 37.43 37.51 37.51 38.52 39.92 39.66 38.53 40.53 45.00 50.82 53.16 56.56 58.87 60.70 61.91 62.10 62.12 62.76 62.92 63.13 63.18 63.19 63.22 62.26 61.67
33.42 35.17 38.04 37.12 33.85 34.18 30.94 31.28 30.40 30.07 31.43 31.67 30.89 30.76 32.03 34.99 35.55 36.47 36.53 35.61 36.38 36.71 36.78 38.83 39.92 39.49 38.73 38.81 41.62 49.38 52.72 55.63 58.54 61.22 58.91 54.11 55.77 56.55 60.79 62.13 62.55 62.95 63.08 62.42
33.95 36.99 36.63 34.89 33.14 34.16 30.30 35.18 34.00 32.54 29.96 26.72 30.17 25.14 30.82 32.70 34.19 35.40 35.90 35.65 36.68 37.50 38.89 39.06 40.12 40.36 40.88 41.08 39.23 41.69 48.20 52.39 54.94 57.82 57.97 58.67 59.75 59.37 60.82 62.13 62.36 62.28 62.89 62.92
33.54 35.32 34.41 33.61 35.44 36.38 33.27 35.49 33.59 30.69 29.13 26.93 27.77 26.26 30.31 30.13 31.30 34.28 36.17 37.45 38.18 38.80 39.09 40.23 40.62 41.08 40.38 40.98 40.95 41.56 44.25 48.78 52.98 55.50 58.35 58.24 58.57 59.14 56.92 55.68 57.92 61.03 61.23 62.21
33.84 36.34 35.78 35.68 35.84 35.40 36.19 33.34 31.78 29.25 27.19 22.55 25.93 25.25 26.71 28.92 30.56 32.88 35.61 37.25 38.10 38.88 39.41 40.31 40.61 41.14 41.25 40.85 41.55 42.51 44.83 47.08 50.80 53.18 55.04 55.70 57.35 56.01 52.24 51.46 53.35 55.14 58.39 59.97
32.18 32.62 35.28 37.16 34.30 35.35 32.59 30.20 23.43 21.95 20.28 20.43 24.75 24.24 27.95 31.29 33.35 34.28 35.20 36.56 37.06 38.04 39.19 39.91 40.24 40.90 41.33 41.21 41.03 41.72 42.44 43.19 45.75 49.68 51.60 52.73 53.47 53.47 52.69 51.54 51.77 49.81 52.34 53.06
28.73 27.11 34.88 36.90 34.67 32.99 30.68 30.44 24.22 18.29 17.04 21.06 26.12 24.09 29.08 32.12 33.73 36.97 36.80 36.05 37.51 38.64 39.06 39.47 39.72 39.95 40.07 40.60 40.88 40.94 41.33 41.69 42.35 43.31 45.09 47.85 49.49 50.69 51.28 50.55 49.78 51.31 51.63 52.73
28.12 27.90 34.41 35.18 35.86 37.65 31.50 28.12 30.93 23.99 13.67 19.46 23.54 26.35 31.09 33.84 35.55 36.00 37.02 38.20 38.20 39.01 39.27 39.33 39.77 39.77 39.85 40.09 39.86 39.61 40.28 40.90 41.52 41.85 42.42 42.85 43.63 45.35 47.53 48.32 47.96 48.50 48.05 47.96
34.58 28.72 32.78 34.00 35.88 35.01 32.93 34.55 27.66 24.72 14.61 14.26 20.57 23.22 25.74 31.30 33.64 34.65 36.25 36.63 37.53 38.50 39.08 39.54 39.88 39.87 40.05 39.70 39.85 40.81 40.10 39.86 40.29 40.94 41.39 41.96 42.34 42.95 43.39 44.13 44.79 45.20 45.47 44.82
35.08 33.31 29.59 33.25 31.92 31.07 31.45 29.42 29.12 29.71 26.18 19.32 16.41 23.42 31.01 34.73 34.89 35.03 35.53 37.20 36.95 37.63 38.15 38.74 39.27 39.52 39.70 40.05 40.39 40.15 40.50 39.99 40.20 40.61 40.59 40.81 41.26 41.88 42.06 42.59 43.34 43.78 43.76 43.56
36.01 32.94 26.99 29.54 32.34 33.02 31.87 31.31 30.75 25.40 22.37 22.97 24.04 25.29 36.17 36.29 36.20 36.40 35.77 36.89 36.32 37.84 38.41 38.64 38.97 38.97 38.86 38.98 39.15 39.13 39.39 39.21 38.90 39.11 39.60 39.78 40.34 40.49 40.64 41.19 41.73 41.59 42.04 41.91
36.62 30.73 21.03 26.99 30.38 30.94 29.09 29.74 30.58 29.68 27.72 22.71 22.65 25.00 34.29 34.67 35.56 35.92 36.22 36.38 37.81 38.11 38.32 38.16 38.04 37.99 38.09 37.92 38.12 37.66 37.96 37.51 37.10 36.87 37.24 37.90 37.97 38.22 38.64 39.17 39.64 39.64 39.77 39.67
40.26 31.45 30.56 28.23 29.17 31.14 29.07 31.48 30.77 31.86 25.96 26.80 26.41 27.08 31.10 33.29 34.58 35.73 36.26 36.76 36.77 37.44 37.86 37.56 37.54 37.56 37.58 37.60 37.30 37.00 36.97 36.32 35.40 35.13 34.95 34.77 34.99 35.57 36.00 36.27 36.45 36.47 36.71 36.77
37.53 28.48 31.10 31.36 32.15 31.75 31.39 31.49 31.25 29.54 32.86 29.07 29.79 28.82 34.79 34.77 35.77 35.94 36.62 36.45 35.76 35.99 36.47 36.78 36.67 36.94 36.99 37.43 37.83 37.82 37.81 36.69 34.80 34.07 33.68 33.48 33.57 33.57 33.01 32.54 32.29 32.48 32.71 34.43
37.89 31.80 32.75 30.88 33.49 33.16 29.98 31.31 31.87 31.55 31.45 31.83 31.93 31.38 37.44 37.25 37.08 35.44 35.45 35.05 34.45 34.74 35.00 35.19 35.58 36.27 36.78 36.67 36.65 36.77 36.48 35.33 33.51 32.87 32.43 32.43 31.16 30.81 30.77 30.70 30.90 30.96 31.33 31.55
34.84 32.40 31.50 27.59 30.17 31.44 29.26 29.57 30.74 31.13 31.68 32.73 29.78 33.16 35.21 35.60 35.75 34.97 35.00 34.31 34.23 34.25 34.22 34.32 34.81 35.54 35.81 35.53 35.36 34.39 34.26 32.60 30.88 30.59 31.04 30.51 30.13 29.90 30.13 30.01 30.09 30.45 30.71 30.40
32.62 31.59 30.27 21.78 26.88 21.91 26.79 26.98 30.87 32.26 32.90 34.97 32.80 33.08 34.17 34.62 35.03 34.74 35.13 33.98 33.48 32.57 32.73 33.39 33.87 34.55 34.97 34.35 33.71 33.24 31.08 30.01 29.76 30.01 29.66 29.10 29.22 28.72 28.48 28.20 28.30 29.00 29.51 29.19
34.32 30.37 21.52 22.01 21.26 22.52 24.83 27.77 27.54 29.67 29.10 33.86 32.22 31.98 31.46 32.21 31.06 30.83 34.12 34.65 33.31 32.62 32.63 33.15 33.33 33.61 33.47 32.88 32.50 30.59 30.20 29.73 29.43 29.70 29.38 28.80 28.03 27.12 26.85 26.24 26.93 27.54 28.07 28.22
32.37 31.81 29.40 18.83 16.19 13.67 22.80 26.43 28.54 29.13 21.77 28.16 32.50 31.06 30.55 29.12 24.78 26.18 33.90 33.33 32.61 31.95 31.74 31.43 31.89 31.96 31.46 31.43 30.09 28.96 28.43 27.24 27.74 28.66 28.79 27.90 26.93 25.16 24.89 25.90 26.01 25.10 24.96 26.65
27.47 25.75 23.54 15.10 11.82 16.61 25.02 26.04 27.56 17.96 21.97 25.53 30.11 31.63 30.10 28.23 29.57 30.85 32.76 30.78 31.53 31.49 30.69 30.22 30.34 30.75 30.84 29.77 28.28 27.22 26.86 26.82 28.30 26.25 26.23 25.37 25.00 23.27 23.71 23.66 21.45 24.01 23.38 23.14
27.37 25.99 25.03 20.92 19.06 16.94 27.59 26.05 24.36 27.14 29.00 29.95 30.38 30.82 30.34 30.77 30.91 31.31 30.37 29.79 30.13 29.93 29.27 29.46 29.20 29.22 29.08 27.79 25.02 25.58 25.00 26.85 23.62 23.63 24.26 22.89 22.48 22.23 24.34 20.37 21.26 19.41 20.09 26.92
21.74 26.23 23.75 26.17 25.71 28.27 27.09 28.57 29.85 31.41 30.86 30.57 30.31 30.61 29.15 28.15 27.01 27.45 27.65 28.10 29.08 29.12 28.30 28.77 25.50 26.25 26.64 23.12 20.88 22.78 25.08 23.52 22.17 23.83 25.02 25.29 24.31 22.48 22.25 19.55 20.76 21.02 19.33 25.94
21.97 25.19 23.07 24.31 24.26 25.93 27.43 28.34 30.16 30.29 30.92 30.82 29.81 28.71 27.94 26.59 26.28 26.15 26.66 27.72 27.18 26.00 24.33 22.54 21.10 21.11 21.66 20.40 20.73 19.69 20.48 20.29 14.57 15.07 18.93 23.01 24.07 24.50 25.83 20.87 21.34 19.60 18.36 19.60
22.85 24.96 21.49 20.77 24.11 25.97 27.21 28.53 30.17 29.64 29.22 28.28 27.68 27.37 26.55 25.94 25.42 25.40 25.46 24.32 24.53 23.34 20.99 18.81 19.82 19.93 20.10 20.40 19.65 14.22 17.17 12.64 12.39 13.51 15.60 17.22 21.90 25.02 26.30 26.52 21.60 21.94 20.95 20.42
23.90 22.74 22.15 20.29 26.82 27.29 27.73 29.52 29.94 28.11 27.99 27.99 27.20 26.03 26.42 25.47 24.86 24.34 22.72 21.24 19.58 18.28 16.98 16.72 16.61 15.96 16.46 15.74 15.58 14.61 7.34 6.67 6.62 10.57 14.30 16.46 17.45 20.08 24.26 25.18 24.87 26.83 30.00 31.48

GFSCGP_sfc_wetblb_081.txt.gz
Wetbulb
37.96 35.23 33.18 35.35 34.64 32.71 33.17 31.21 31.21 32.58 36.82 35.85 34.70 35.03 38.10 39.57 39.22 38.93 39.19 39.45 39.66 40.07 41.65 41.89 42.78 43.47 46.59 53.66 56.51 58.63 60.15 62.14 62.88 62.76 62.25 62.01 61.82 62.47 62.89 63.15 63.33 62.04 60.84 59.53
35.56 32.23 36.46 37.20 35.55 35.07 33.54 32.02 31.50 33.53 36.40 35.57 33.41 35.48 37.52 37.47 37.85 38.15 37.57 38.06 38.55 38.69 39.11 40.58 41.70 42.06 43.07 46.34 51.76 55.03 58.19 60.33 62.15 63.00 62.95 63.08 62.95 62.95 62.99 63.29 63.11 63.08 61.79 60.57
33.36 35.08 37.35 36.49 34.04 34.44 31.57 32.32 31.90 31.64 32.73 32.65 30.63 31.92 32.91 35.71 36.35 37.55 37.16 37.38 38.61 38.80 39.99 41.03 42.22 42.06 42.77 42.28 42.50 48.61 53.79 57.54 60.68 62.44 61.19 58.57 60.13 59.72 61.91 62.20 62.46 62.87 62.72 61.89
34.45 36.11 35.39 33.64 32.92 33.95 31.07 34.70 34.32 33.12 30.69 28.31 31.10 26.70 30.86 32.70 35.27 36.11 37.10 37.75 38.50 39.37 40.71 41.09 41.54 42.07 42.47 43.33 43.82 43.37 46.25 52.66 56.42 60.11 60.44 60.43 60.70 60.01 61.36 62.15 62.57 62.59 63.09 62.60
33.50 34.18 34.26 32.45 34.10 35.32 32.60 35.18 33.57 31.62 30.28 28.88 29.06 27.59 30.59 30.85 32.94 35.53 37.07 38.28 39.12 39.69 40.03 41.00 41.74 42.39 42.36 43.40 44.13 45.87 48.00 49.68 52.67 56.34 59.60 59.37 59.92 60.90 60.31 59.99 61.41 62.21 62.20 62.91
34.12 36.11 35.26 34.85 35.25 35.28 35.62 33.16 31.39 29.77 28.09 23.94 27.88 26.52 27.90 29.88 32.79 35.25 36.90 38.10 39.16 39.83 40.43 41.10 41.93 42.30 42.35 42.90 43.69 44.73 45.35 45.67 51.11 54.46 55.77 57.15 57.94 57.78 56.51 56.26 56.91 59.48 60.95 61.37
31.76 32.52 34.75 36.57 34.41 35.74 32.46 30.41 24.52 23.23 21.32 21.99 25.86 24.93 28.90 31.55 34.19 36.50 36.99 38.00 38.75 39.08 39.80 40.48 40.91 41.33 41.78 41.54 41.71 42.95 43.63 43.35 44.80 46.90 50.40 52.94 54.53 55.35 55.55 55.20 55.03 54.38 54.18 55.27
28.70 26.82 34.45 36.26 34.55 33.01 31.09 30.99 25.31 19.54 18.06 22.07 25.92 24.24 29.27 32.71 34.58 37.06 37.38 38.02 38.40 38.68 39.11 39.47 39.80 40.30 40.74 41.04 41.54 42.21 42.24 42.27 42.66 43.65 44.59 45.74 47.07 49.88 51.37 52.40 53.33 53.35 53.73 54.62
28.10 27.83 34.65 35.38 35.85 36.64 31.82 29.02 31.18 24.26 13.48 19.37 24.44 27.32 32.26 34.61 35.55 36.41 37.41 37.91 37.99 38.31 38.78 39.22 39.88 39.93 40.06 40.34 40.31 40.57 41.26 41.41 41.76 42.22 43.01 43.52 44.25 44.78 45.48 46.32 48.33 49.69 50.39 50.18
33.89 28.32 32.60 33.90 35.78 34.99 32.50 34.12 28.51 24.77 15.11 15.10 21.05 23.37 26.74 32.00 34.07 35.91 36.32 36.49 37.27 38.38 39.11 39.47 39.59 39.83 40.27 40.04 40.25 40.48 40.27 39.66 40.01 40.91 41.54 42.05 42.58 43.41 43.95 44.45 44.69 45.33 46.25 46.68
35.23 33.63 30.05 33.26 32.06 31.02 31.07 29.68 29.37 29.56 26.15 18.72 16.01 23.79 29.90 34.73 34.82 34.76 35.83 36.22 36.76 37.96 38.49 38.95 39.31 39.55 39.73 40.15 40.15 40.30 40.00 39.77 39.38 39.52 39.85 40.14 40.52 41.30 41.96 42.21 42.66 43.15 43.87 44.26
36.15 32.96 28.46 30.14 33.08 33.27 31.60 31.55 30.88 25.73 22.26 22.14 23.10 25.56 35.01 35.67 35.35 36.41 36.31 36.43 37.69 38.28 38.19 38.33 38.61 38.72 38.67 38.96 39.29 39.18 39.23 38.80 38.21 38.29 38.53 38.35 38.31 38.31 38.49 38.86 39.92 40.61 40.79 41.44
36.40 30.92 22.87 27.07 30.60 31.22 29.69 30.41 30.23 29.15 27.49 21.70 21.27 23.98 34.14 34.30 35.37 36.37 36.40 37.42 37.74 37.85 38.08 38.06 37.97 37.78 37.86 38.04 38.22 38.02 38.23 37.49 37.08 36.67 36.70 36.88 36.63 36.53 36.52 36.54 36.73 36.85 37.18 37.63
39.71 31.01 29.33 26.92 28.26 30.82 28.69 29.83 30.22 31.30 27.00 25.32 26.95 27.11 29.98 32.91 34.76 35.82 36.55 37.14 37.03 37.35 37.31 37.14 37.24 37.24 37.48 37.81 37.83 37.54 37.59 37.11 35.80 35.36 35.21 34.94 34.97 34.80 34.88 34.89 34.85 34.73 34.82 35.05
36.57 28.91 30.06 30.75 31.01 30.53 30.48 30.31 29.42 30.28 32.76 28.92 30.88 28.94 34.26 34.67 35.31 36.62 37.04 36.40 35.65 35.79 35.79 36.06 36.18 36.60 36.65 36.83 36.87 36.76 36.69 36.03 34.47 33.62 33.56 33.53 33.74 33.48 33.03 32.78 32.60 32.68 32.95 33.85
36.26 31.36 31.15 29.94 32.95 31.64 30.17 31.36 31.41 32.86 30.23 30.62 28.49 30.00 35.38 37.69 36.22 35.78 35.87 35.06 34.47 34.33 34.63 35.13 35.60 35.97 35.94 35.82 35.54 35.29 34.73 33.81 32.58 31.94 31.86 31.96 31.20 30.83 30.94 30.84 30.79 30.95 31.39 31.70
35.10 33.01 29.50 22.65 30.98 30.54 28.65 30.74 31.37 31.40 31.91 32.70 30.05 33.28 35.00 34.34 35.71 35.50 34.34 34.32 34.19 33.73 33.65 33.27 33.84 34.67 34.90 34.37 34.28 33.26 33.03 32.01 30.81 30.76 30.58 30.28 30.09 29.92 30.03 29.62 29.36 29.58 30.03 30.58
33.31 32.14 30.99 23.86 28.01 24.60 28.98 26.74 32.07 32.34 33.10 33.98 32.89 33.72 36.62 37.17 36.67 36.32 36.32 35.03 32.99 31.85 31.94 32.66 33.17 33.60 34.08 33.57 32.81 31.96 30.95 30.76 30.70 30.88 30.52 29.81 29.50 28.96 28.71 28.19 28.01 28.30 28.83 28.76
36.23 31.04 22.97 23.44 23.01 25.26 25.42 27.14 30.28 31.50 30.90 34.70 32.85 33.27 33.70 33.24 33.40 32.45 35.34 34.62 32.50 32.41 32.74 32.97 33.20 33.32 32.64 32.02 31.22 30.37 30.53 30.10 29.54 29.76 29.61 29.33 28.61 27.36 26.93 25.89 26.72 27.13 27.44 27.89
33.78 33.42 28.74 21.10 22.35 19.38 25.55 27.49 29.88 31.29 23.33 31.08 34.83 33.86 31.41 30.77 26.99 28.97 34.05 33.85 33.25 32.55 31.67 31.39 32.39 32.17 31.50 30.99 29.86 28.74 28.50 27.12 27.71 28.38 28.33 27.76 27.22 25.46 24.90 25.96 25.61 26.58 26.20 26.33
28.02 27.84 25.41 23.34 22.71 20.70 26.89 26.69 29.42 24.24 25.05 26.73 32.46 32.71 30.84 28.88 29.98 31.44 33.08 32.38 32.50 31.74 31.31 30.57 30.39 30.26 30.04 29.25 27.61 26.72 26.59 25.95 27.42 25.76 25.13 24.72 25.11 23.59 23.72 23.95 24.40 23.76 23.90 24.14
27.24 25.25 24.96 19.83 20.96 19.40 27.36 25.47 26.01 28.87 29.63 30.16 30.95 31.10 30.93 30.73 31.32 32.24 31.20 30.27 30.59 30.53 29.88 29.59 29.03 28.82 28.47 27.46 24.34 24.40 24.00 25.81 23.16 21.97 21.75 22.84 24.72 26.16 25.38 21.82 22.54 21.95 20.47 21.31
22.32 27.44 25.54 26.53 26.53 28.59 26.89 27.36 29.34 31.82 31.25 31.08 30.75 31.04 31.43 29.23 28.37 28.38 28.22 28.07 28.75 28.99 27.85 27.27 23.78 23.25 23.66 20.68 19.97 21.32 23.00 22.58 20.64 17.16 16.16 17.46 19.76 22.33 25.61 25.24 24.51 23.98 23.91 24.41
23.88 25.60 25.60 26.09 25.48 25.84 27.23 28.02 29.83 31.13 31.64 31.56 30.77 29.23 29.22 27.90 27.43 26.84 26.95 27.57 27.27 25.31 23.27 20.16 17.40 15.83 16.40 16.71 18.54 17.00 18.86 19.26 12.16 11.32 13.44 15.95 16.99 18.51 20.52 25.67 26.98 25.54 23.48 22.18
24.20 25.81 22.56 20.56 23.48 25.49 27.03 28.78 30.81 30.93 29.93 28.58 28.52 28.29 28.17 28.01 26.66 26.68 26.00 24.91 23.75 22.09 18.92 15.87 14.76 15.29 15.27 15.88 14.53 12.45 15.47 11.53 10.57 10.79 12.53 13.65 15.71 16.76 18.32 19.98 23.18 25.44 26.65 25.09
23.48 23.50 23.71 23.25 26.86 27.99 28.79 29.29 30.09 28.17 27.77 27.77 27.05 26.26 26.66 27.06 25.94 24.16 22.46 20.06 18.39 16.19 15.57 13.83 12.56 11.50 10.81 10.57 10.62 10.14 4.93 3.14 3.71 6.38 9.96 11.55 12.21 14.00 15.83 17.25 19.16 26.09 28.97 29.95

GFSCGP_sfc_wetblb_084.txt.gz
Wetbulb
43.99 42.99 40.59 42.43 43.01 39.39 41.23 39.65 38.71 38.99 41.73 41.83 41.83 42.57 44.48 46.05 45.65 46.87 46.82 46.44 46.54 47.03 47.19 47.09 47.57 49.10 50.87 57.81 62.36 63.86 64.74 65.77 65.13 63.20 63.09 62.98 62.48 63.45 63.90 64.57 64.63 63.97 62.75 61.51
42.30 39.73 43.01 42.48 40.44 39.82 40.33 38.84 37.99 39.76 40.69 41.16 40.31 42.07 44.88 42.48 43.14 43.12 43.77 44.27 45.06 46.25 47.57 48.26 49.08 48.66 47.86 50.97 55.54 60.19 62.51 64.15 65.12 64.34 63.45 63.85 63.30 63.46 63.73 64.40 64.11 63.96 62.83 61.71
39.80 39.88 41.69 40.46 39.10 39.33 38.79 39.04 37.81 38.79 38.73 39.07 38.42 39.97 39.62 41.30 43.12 44.07 44.58 44.91 45.68 45.78 47.03 48.35 48.93 50.05 50.96 49.12 48.56 53.31 57.86 61.10 63.37 64.72 63.49 62.72 61.91 61.90 62.85 63.00 63.18 63.57 63.48 62.57
40.13 39.49 39.88 39.62 39.21 40.79 36.77 39.97 39.79 38.11 39.05 35.55 37.82 35.10 38.34 39.53 41.60 43.46 44.86 45.93 46.34 47.12 47.80 48.37 48.98 49.30 50.05 51.02 51.81 49.26 51.22 56.12 59.86 62.65 62.79 61.29 60.19 59.92 61.66 62.72 63.43 63.67 63.84 63.07
38.18 37.62 37.95 38.31 39.72 40.65 38.16 40.62 39.90 38.77 38.15 37.79 36.84 36.18 38.04 38.93 39.99 41.70 43.40 44.45 45.68 46.50 47.78 47.46 47.65 48.16 48.97 50.49 52.05 54.36 54.83 54.82 56.08 59.38 61.35 61.23 61.17 61.92 62.52 63.09 62.93 63.65 64.23 63.81
39.17 41.30 41.19 40.07 38.87 40.33 39.85 39.28 38.66 38.23 37.59 32.37 36.16 35.66 36.66 37.59 40.51 41.15 42.87 43.97 45.21 45.90 46.70 47.26 47.58 48.50 48.66 49.89 50.54 51.46 51.09 51.72 56.70 58.63 58.97 59.97 60.01 60.06 59.59 60.27 60.87 61.77 62.52 63.04
37.60 38.06 40.46 41.34 38.66 39.71 39.01 39.37 31.63 30.89 30.74 30.55 31.48 31.91 37.51 38.41 41.97 43.93 43.64 44.16 44.96 46.45 46.93 46.98 46.99 47.10 47.49 47.92 48.60 48.74 49.35 48.53 50.49 51.42 52.13 54.69 56.09 56.64 56.70 56.86 56.75 56.67 57.23 57.83
33.95 31.44 38.23 41.00 40.42 38.18 38.26 38.47 33.40 26.47 26.43 29.62 30.14 30.56 36.53 39.07 40.92 44.03 44.65 44.22 44.98 45.59 46.14 46.08 46.35 46.64 46.45 46.55 47.51 47.74 47.49 47.21 48.44 49.18 49.38 50.21 50.77 51.51 52.06 52.27 53.01 54.46 55.38 56.61
33.99 32.50 38.77 39.01 39.84 41.34 37.09 34.41 37.43 30.09 23.17 30.47 33.81 35.63 38.28 39.31 40.42 42.24 42.91 43.97 44.51 45.09 45.48 45.30 45.50 45.96 46.03 45.87 45.75 46.40 46.38 46.03 46.35 46.77 47.45 47.57 48.13 48.51 48.58 49.41 50.24 50.46 51.20 50.48
37.75 31.87 36.05 37.69 40.11 39.48 38.37 39.32 33.67 34.25 26.96 26.45 30.44 31.90 36.60 35.75 38.86 41.75 41.67 43.28 43.76 44.19 44.55 44.78 45.07 45.17 45.38 45.65 45.99 46.23 45.95 45.08 45.33 45.96 45.78 45.54 45.69 46.26 46.63 46.90 46.31 46.75 47.60 48.05
39.41 37.70 33.27 36.67 35.84 36.23 35.18 35.04 34.39 36.25 33.49 29.96 27.78 32.82 39.87 39.75 41.73 41.56 42.94 43.50 43.94 43.92 44.05 44.09 44.09 44.62 45.12 45.58 45.59 45.14 44.78 44.05 43.90 44.28 44.77 44.59 44.24 44.32 44.74 44.39 44.17 43.90 44.73 44.63
39.78 36.52 32.24 34.08 36.94 37.78 36.87 36.73 36.95 33.43 28.12 29.74 30.38 34.66 38.86 43.03 44.01 43.54 42.36 42.27 44.02 44.03 43.64 43.77 43.69 43.93 44.08 43.77 43.73 43.24 42.88 41.97 41.74 42.27 42.96 42.49 42.68 42.65 42.56 42.13 41.90 41.85 41.59 42.19
39.20 35.23 29.45 30.76 34.68 35.33 34.21 35.19 36.54 34.88 33.97 30.15 30.90 34.67 38.49 42.03 41.50 42.49 41.90 42.40 42.31 42.74 42.99 43.07 43.60 43.39 43.17 42.94 42.43 41.99 41.52 40.51 40.15 40.51 40.56 40.60 40.12 39.96 39.82 39.51 39.57 39.63 39.57 39.91
41.60 34.97 34.66 30.95 34.26 36.70 32.58 33.34 34.62 36.48 32.54 33.27 33.16 34.63 36.64 38.45 39.67 40.98 41.88 42.90 42.92 42.59 41.71 42.26 42.21 42.10 42.13 42.00 41.87 41.54 40.70 40.07 39.12 39.48 39.40 39.21 38.96 38.65 38.73 38.69 38.47 38.28 38.42 38.64
39.48 33.69 34.68 34.48 35.20 35.37 36.00 34.47 34.15 34.30 36.76 33.58 36.29 35.01 37.98 39.84 40.83 41.69 42.67 41.84 40.38 39.76 39.98 40.29 40.60 40.96 41.19 40.78 40.46 40.16 39.50 38.83 38.33 38.26 38.17 37.64 37.59 37.48 36.95 36.58 36.18 36.13 36.05 36.51
38.79 33.30 33.92 31.35 34.03 34.31 32.96 35.36 35.39 36.58 37.37 37.12 37.09 35.80 42.12 43.19 43.07 40.53 40.64 39.89 39.64 39.32 39.03 38.90 39.17 39.08 38.86 38.50 38.34 38.17 38.08 37.63 37.23 36.83 35.97 36.03 35.51 34.98 35.26 34.70 34.00 34.14 34.48 34.91
37.09 33.67 32.62 31.01 32.70 32.91 30.76 34.20 34.73 36.40 38.66 38.09 34.28 38.95 39.94 40.60 39.45 40.81 40.85 39.80 39.12 38.21 37.77 37.52 38.31 38.18 38.00 37.71 37.05 37.01 36.87 36.55 35.89 35.64 35.01 33.89 33.63 33.30 33.40 33.02 32.80 33.01 33.25 33.45
35.22 33.61 33.41 28.75 31.89 25.65 34.74 32.67 37.68 36.84 37.45 38.26 37.96 38.45 40.41 40.29 41.83 42.65 42.37 39.93 38.45 37.55 36.50 36.48 37.21 37.18 37.22 36.77 36.25 35.88 35.67 35.42 34.87 34.57 33.98 33.25 32.32 31.69 31.62 31.30 31.27 31.99 32.38 32.01
38.49 35.53 28.76 28.61 29.42 32.88 32.56 30.20 33.77 34.01 36.02 38.69 38.63 38.31 39.06 39.13 39.45 37.43 40.25 40.66 38.92 37.09 36.74 36.98 37.52 36.82 36.22 35.25 34.86 34.32 34.39 33.77 33.32 32.31 31.76 31.02 30.51 29.41 29.27 28.58 29.87 30.63 31.00 31.22
35.39 34.80 34.53 26.26 28.02 26.23 32.33 32.70 35.66 37.90 31.94 38.53 39.17 37.50 36.13 36.89 33.93 37.73 37.88 35.98 35.69 36.13 36.04 35.70 36.11 35.17 34.98 33.74 33.14 31.45 31.40 30.48 30.26 29.90 28.92 28.53 28.49 27.77 27.36 27.98 28.10 29.46 29.80 29.08
29.88 30.51 29.71 28.72 28.37 30.55 33.77 31.83 33.83 30.01 33.80 35.36 39.34 37.93 36.22 37.35 39.06 38.35 37.03 35.82 36.02 35.26 34.44 34.95 34.44 33.37 32.24 30.83 28.88 28.43 28.50 27.83 28.22 26.99 26.13 25.75 26.02 26.22 27.60 28.44 28.34 27.42 27.04 27.11
28.98 27.77 28.44 28.09 27.89 25.91 31.54 30.06 30.95 35.87 31.34 34.04 37.40 37.09 36.17 34.17 35.30 35.95 35.58 34.49 34.15 33.05 32.73 32.94 32.22 30.70 29.25 27.43 26.21 25.67 25.20 26.27 25.14 23.53 22.03 21.60 21.80 23.27 25.17 25.36 26.95 27.82 27.28 26.19
28.81 33.05 30.50 31.73 31.87 31.87 32.86 32.82 34.29 35.17 34.44 34.07 35.73 36.46 35.39 34.52 34.28 33.98 32.89 32.58 32.55 31.91 31.14 29.19 27.12 24.39 24.26 23.79 23.88 21.77 22.77 21.79 21.09 18.01 16.23 17.42 19.33 20.60 22.34 23.11 23.78 26.05 28.08 26.97
28.76 29.66 31.29 32.23 31.42 31.26 31.37 32.61 34.33 35.63 35.61 35.08 36.02 35.41 35.50 34.29 33.47 31.41 31.40 31.32 30.41 28.72 26.38 22.97 21.44 20.59 20.01 20.71 20.45 18.93 18.65 18.27 14.53 13.49 14.50 16.30 17.44 18.78 20.44 22.22 23.64 24.56 25.46 26.27
30.63 29.60 28.26 28.60 27.11 29.96 31.29 33.03 34.26 34.41 34.36 32.93 33.82 33.96 32.82 32.98 31.89 31.29 29.87 28.90 28.08 25.46 21.94 19.90 18.89 18.13 17.42 17.02 16.52 16.14 15.34 12.88 11.10 11.11 12.77 14.81 16.89 17.67 17.94 19.24 21.03 21.96 24.13 25.62
28.06 27.83 29.03 30.92 30.88 32.22 32.48 32.57 34.17 33.20 32.53 32.45 31.49 29.52 29.91 30.87 30.01 29.09 27.78 26.40 23.59 20.77 18.78 17.05 15.63 13.90 13.53 12.55 12.52 12.52 10.68 8.29 6.31 9.20 12.57 13.87 13.18 14.91 15.94 17.42 18.72 22.33 24.10 26.03

GFSCGP_sfc_wetblb_087.txt.gz
Wetbulb
47.09 43.42 40.79 42.72 44.58 44.83 44.04 41.60 40.20 42.76 43.55 43.62 43.35 43.92 45.37 47.09 47.51 48.08 49.07 48.89 49.28 49.04 49.67 49.26 50.18 51.78 53.09 59.03 63.85 64.84 65.27 66.57 65.41 64.06 63.78 63.64 63.29 64.10 64.62 65.10 65.48 64.90 63.64 62.56
42.95 40.19 44.93 46.11 43.52 42.33 42.66 40.90 40.59 41.25 42.66 42.91 43.33 42.74 45.50 45.85 46.27 46.33 46.74 47.55 47.56 48.38 49.22 49.76 50.81 50.96 50.66 51.84 57.10 62.05 64.05 65.30 66.16 64.19 64.12 64.05 63.85 64.06 64.37 64.65 64.65 64.77 64.07 62.92
40.73 42.62 44.63 42.81 41.52 41.02 41.33 40.18 40.29 40.23 40.67 41.93 41.24 41.04 43.11 43.03 45.08 46.20 46.90 47.22 47.89 48.48 49.11 50.34 51.23 52.33 52.34 50.91 52.67 56.02 60.81 63.53 64.98 65.49 63.88 63.59 62.72 62.74 63.20 63.43 63.71 63.99 64.15 63.21
42.26 41.34 41.59 41.92 41.11 42.37 38.23 42.38 42.21 40.23 39.70 36.50 40.72 35.98 41.28 42.08 43.34 45.23 46.61 47.76 48.04 48.61 49.73 50.44 50.72 51.20 52.41 53.14 51.97 51.61 56.26 59.34 61.92 64.12 63.96 61.86 61.06 59.91 61.14 62.38 63.67 63.61 64.07 63.62
39.29 39.19 39.72 40.00 41.32 42.97 40.25 43.29 42.33 41.90 40.68 38.92 38.37 36.57 40.50 41.11 40.94 43.05 45.71 46.58 47.72 48.63 49.08 48.69 49.13 50.02 51.39 53.41 55.27 54.69 54.26 56.03 58.09 60.78 62.10 61.99 60.28 61.17 61.74 61.29 61.64 62.75 63.45 63.69
40.96 42.39 43.00 42.25 41.69 42.73 42.79 41.63 41.17 41.60 40.04 33.00 38.73 37.24 38.93 38.67 41.92 43.57 45.12 46.44 46.89 47.59 47.97 48.37 49.47 50.31 50.49 52.01 52.60 53.84 54.97 57.16 58.51 58.93 60.03 60.07 59.75 58.98 58.17 58.35 58.12 58.91 59.50 60.30
38.99 39.48 41.79 42.80 39.19 41.77 42.31 39.16 32.80 31.64 31.48 31.04 34.63 34.39 39.25 40.72 44.55 45.42 44.49 45.61 46.88 48.30 48.76 48.85 48.90 48.99 49.58 49.81 50.28 50.88 51.13 50.90 52.52 53.21 53.85 55.45 56.90 56.71 56.32 55.98 56.41 56.45 57.27 58.20
34.65 31.72 39.14 42.57 41.79 38.82 39.59 39.77 34.35 27.14 28.43 32.25 31.71 31.62 38.20 42.70 45.73 47.02 46.78 46.70 47.26 47.32 48.06 48.17 48.32 48.35 48.32 48.82 49.42 49.44 49.20 49.07 50.15 50.51 50.49 51.20 51.73 51.77 51.52 51.54 51.81 52.11 52.22 52.79
35.53 34.85 40.64 41.34 41.88 42.87 39.27 35.97 40.41 32.30 27.55 32.00 34.64 37.72 39.92 40.82 43.05 44.53 44.74 45.50 46.28 46.98 47.33 47.20 47.82 48.03 47.75 47.63 47.91 48.30 47.94 47.79 48.09 48.32 48.56 48.29 48.62 48.59 48.47 48.66 49.06 48.79 49.37 48.60
39.78 32.85 37.82 38.72 41.74 41.05 40.17 41.79 33.59 36.13 28.16 28.38 33.42 35.07 37.07 36.60 39.89 42.52 42.92 44.98 45.99 46.65 46.48 46.90 47.09 47.07 47.38 47.54 47.70 47.80 47.50 46.60 47.18 47.42 47.20 46.77 46.78 47.13 47.21 47.01 46.14 46.00 46.49 46.29
41.03 39.17 33.80 37.95 37.06 37.56 36.84 36.31 37.21 38.11 36.45 32.32 30.04 33.92 41.10 40.74 42.44 42.78 44.06 46.03 45.73 45.88 46.20 46.38 46.46 46.87 46.99 47.28 46.83 46.27 45.82 45.29 45.11 45.69 45.59 45.28 45.06 45.26 45.29 44.65 44.21 43.73 44.71 43.99
41.34 38.23 32.03 34.63 38.27 39.23 40.46 38.93 38.41 34.10 30.45 33.24 32.09 35.79 41.68 44.07 44.41 45.75 45.12 45.99 46.39 46.37 46.16 46.12 46.00 46.07 45.82 45.29 45.10 44.11 43.61 42.88 43.09 43.59 43.64 43.09 43.01 43.14 42.58 42.04 41.96 42.35 41.82 42.61
40.41 37.12 30.31 30.91 35.73 37.13 36.20 38.23 39.56 39.63 37.30 32.43 31.86 35.17 40.59 42.74 44.25 45.66 45.06 45.36 45.44 45.32 45.21 45.23 45.07 44.99 44.51 44.03 43.58 42.58 41.89 40.86 41.47 41.73 41.79 41.53 40.90 40.68 40.23 40.22 40.52 40.51 40.36 40.56
42.43 37.68 35.40 31.52 34.75 38.52 34.46 36.80 37.61 38.04 32.93 33.86 34.28 37.07 37.56 41.65 42.92 44.33 44.18 45.10 45.01 44.61 44.37 44.84 44.63 44.19 43.76 43.53 42.72 41.67 40.72 40.69 40.55 40.71 40.58 39.95 39.35 39.06 38.70 38.77 38.63 38.58 38.38 38.55
40.62 34.42 36.75 38.16 37.14 38.39 37.66 36.60 36.42 34.89 36.95 33.97 37.05 36.50 40.63 41.44 43.35 44.32 45.42 44.99 43.98 43.34 43.16 43.07 42.65 42.51 42.34 41.63 41.06 40.72 40.07 39.49 39.91 39.46 38.89 38.19 38.55 38.17 37.49 37.13 36.91 36.69 36.42 36.73
39.59 34.85 37.01 33.38 35.84 35.83 34.03 37.00 36.19 36.03 37.21 37.62 38.38 38.41 43.87 44.58 45.46 44.64 44.25 43.98 43.05 42.59 42.40 42.02 41.99 41.41 40.58 39.75 39.32 39.40 39.14 38.40 38.74 37.75 36.80 36.49 36.22 35.52 35.72 35.25 34.56 34.41 34.66 35.11
37.51 34.52 33.56 31.60 33.97 34.70 31.17 34.20 36.24 36.78 38.84 39.22 35.47 40.12 42.96 42.87 43.13 43.62 43.38 43.44 42.85 42.42 41.57 40.68 40.24 39.50 39.08 38.46 38.70 37.73 37.73 38.04 36.93 36.51 35.56 34.72 34.15 33.40 33.32 32.95 32.68 32.47 33.05 33.59
37.64 33.65 33.14 30.72 32.56 24.63 36.13 38.97 40.62 38.16 39.67 40.88 40.95 41.98 42.81 43.45 44.34 45.08 45.60 43.53 42.79 41.74 40.16 39.92 39.43 38.61 38.15 38.03 37.48 37.37 36.84 36.15 35.44 34.79 34.24 33.07 32.02 31.07 30.92 30.72 30.50 31.29 31.76 31.43
40.24 37.24 31.78 30.60 29.93 34.71 37.32 32.86 35.47 35.34 36.35 41.79 40.81 42.00 42.68 43.73 44.02 43.05 45.54 44.69 42.65 40.66 39.58 39.26 39.14 38.27 37.35 36.56 35.97 34.81 34.68 33.96 33.31 31.99 31.25 30.34 29.87 28.41 28.40 27.54 28.98 29.52 29.58 29.49
37.15 38.48 35.57 31.29 29.74 27.05 36.16 35.45 40.45 40.87 32.41 42.83 41.65 41.31 40.26 40.61 35.84 40.15 43.21 42.31 39.94 38.61 38.06 37.08 37.04 36.85 35.89 34.40 33.44 31.69 31.44 30.82 29.78 28.71 27.75 27.67 27.36 25.84 25.35 26.55 27.13 28.67 29.09 28.23
30.36 32.23 31.84 31.45 30.91 33.56 34.20 33.70 39.45 31.17 34.62 38.65 41.78 42.09 39.22 38.57 41.22 42.12 39.52 36.97 36.93 36.26 35.77 36.05 35.65 34.85 33.54 30.45 29.40 29.04 28.50 27.98 27.23 26.56 25.64 24.78 24.49 22.97 23.87 24.98 25.83 25.98 26.61 27.46
30.55 30.00 30.35 31.80 30.37 28.39 34.83 34.08 34.53 37.65 33.78 37.10 40.11 40.73 39.09 36.93 37.79 37.11 36.79 34.58 34.07 33.75 34.35 34.47 33.21 31.69 29.56 27.62 27.33 26.36 25.88 25.48 24.25 23.09 21.59 20.28 19.53 20.83 22.66 21.71 22.64 23.71 24.55 25.04
30.32 34.35 32.68 33.83 34.75 34.05 35.76 35.11 37.74 37.72 36.41 36.26 38.92 39.72 37.46 36.10 35.84 35.87 34.27 33.64 33.26 33.26 32.70 32.82 30.71 26.91 25.67 24.54 24.52 22.97 23.26 21.57 20.14 16.73 14.95 16.16 17.95 19.01 20.53 20.79 21.05 22.58 24.15 24.61
32.34 32.21 32.27 33.09 33.55 33.63 34.14 34.89 35.37 36.87 36.96 37.62 38.83 37.28 37.12 35.45 35.33 34.31 33.62 32.97 32.09 30.12 27.97 25.66 24.59 23.19 22.26 21.99 21.39 19.94 19.28 18.28 11.96 12.54 14.22 15.98 17.01 18.55 19.79 21.76 21.52 21.73 22.07 22.37
33.07 32.21 32.02 31.74 29.09 31.74 33.53 34.34 36.11 35.78 36.07 36.41 37.47 37.63 37.04 35.57 33.97 33.15 31.30 30.71 29.78 27.80 24.38 23.75 22.81 21.92 21.17 19.77 18.69 17.64 16.47 13.02 11.25 12.16 13.88 16.13 18.22 18.26 17.86 19.29 19.95 20.22 21.56 22.31
31.75 32.55 31.68 33.18 33.83 34.96 35.19 36.06 35.93 35.18 34.73 35.00 32.93 31.84 34.40 33.82 32.25 31.49 30.20 29.63 27.60 24.79 22.55 20.92 19.64 18.93 18.12 15.99 14.94 14.12 10.85 9.30 7.00 10.38 13.90 15.11 14.09 16.08 16.48 17.34 17.93 22.22 23.60 25.00

GFSCGP_sfc_wetblb_090.txt.gz
Wetbulb
44.13 39.58 36.79 39.57 40.77 41.52 41.06 39.31 37.41 38.32 41.19 40.32 39.60 39.37 41.82 43.44 41.74 40.64 42.23 44.36 44.95 45.17 44.31 45.74 46.21 46.27 47.83 51.48 60.20 61.80 62.77 63.55 62.93 63.55 63.28 63.19 63.03 63.60 63.80 64.26 64.05 63.87 63.26 62.41
40.89 36.99 42.30 43.80 42.85 40.86 38.56 38.17 36.19 37.93 40.96 38.52 38.81 39.20 41.91 42.68 42.52 41.97 42.54 42.68 43.38 42.86 44.67 46.43 45.63 46.32 45.50 46.58 49.90 58.30 61.22 63.07 63.14 63.43 63.74 63.37 63.29 63.35 63.74 63.80 63.86 64.25 63.28 62.17
38.03 40.63 44.10 42.79 39.53 38.59 38.00 37.68 35.56 36.88 36.96 36.19 34.91 34.30 38.88 38.99 40.70 42.18 41.64 41.62 43.08 43.46 44.64 45.63 46.98 46.90 46.78 45.37 46.44 51.07 56.42 60.78 63.58 62.86 63.49 62.52 61.93 61.64 61.94 62.38 62.63 63.24 63.69 62.83
39.93 41.61 41.20 39.36 38.75 39.73 35.74 39.33 39.68 37.08 34.20 29.57 35.24 27.23 35.62 37.36 39.00 41.18 42.41 41.98 42.54 43.75 45.91 46.48 46.50 46.68 48.23 48.41 46.23 46.89 51.75 56.86 59.96 62.87 61.45 61.26 60.28 59.33 60.47 61.21 62.52 62.64 63.09 62.84
37.48 37.35 38.25 38.49 39.92 41.03 37.58 40.73 38.97 37.96 34.49 32.42 30.62 28.70 31.61 37.23 37.07 39.48 41.61 43.14 43.83 44.27 44.35 44.71 45.40 47.70 48.39 49.69 50.52 47.58 50.69 53.03 55.35 57.18 59.69 59.81 58.77 59.61 59.18 59.19 58.73 60.32 61.14 62.16
38.33 40.21 40.30 40.03 40.19 40.85 41.72 39.35 38.54 37.27 34.90 25.84 31.89 30.54 29.96 33.04 37.09 39.06 40.95 42.05 43.09 43.16 44.12 45.06 46.38 47.23 46.71 47.43 48.19 50.01 52.75 53.26 54.53 55.81 56.48 55.83 55.06 55.85 55.64 55.87 55.82 56.51 57.50 58.19
36.56 37.06 39.44 41.04 36.86 38.67 38.59 35.23 25.62 24.84 23.87 24.05 29.61 28.96 33.14 36.01 39.92 41.33 40.67 41.00 42.04 43.15 43.11 43.76 44.23 44.58 45.01 44.78 45.10 46.44 46.72 46.79 47.92 48.03 48.48 52.36 52.98 51.05 47.93 47.81 48.35 48.37 49.03 49.40
31.19 29.04 36.42 39.90 38.27 35.04 35.68 35.06 27.93 22.02 22.03 23.80 27.01 25.58 32.83 38.39 42.25 43.18 42.70 42.02 43.03 43.01 43.77 43.49 43.77 43.78 44.11 44.66 44.26 44.25 44.37 44.40 45.13 45.16 45.10 45.42 46.21 46.03 45.69 45.51 45.60 45.62 45.38 45.20
32.22 31.79 38.00 39.22 39.72 39.60 34.91 31.96 36.01 27.22 20.63 23.54 26.47 30.91 34.76 37.50 40.20 41.34 41.04 41.95 41.73 42.54 42.97 42.93 43.39 43.11 42.96 43.11 43.35 43.22 43.15 43.22 43.50 43.53 43.30 43.11 43.42 43.36 42.87 42.84 42.92 42.92 42.95 43.47
37.12 29.35 36.19 36.61 39.03 38.26 36.74 38.47 29.49 30.15 18.55 19.78 25.84 27.20 29.52 32.91 37.83 39.97 40.17 40.68 41.50 42.39 42.42 42.60 42.67 42.79 43.01 43.23 43.11 42.77 42.44 41.88 42.36 42.36 42.01 41.95 41.74 41.89 41.69 41.17 40.11 40.25 40.82 40.81
37.37 35.52 31.66 35.47 33.99 34.08 33.66 32.24 33.12 34.05 30.98 24.07 20.89 26.14 33.85 36.11 39.48 39.47 40.27 42.67 42.46 41.66 41.61 41.84 42.16 42.66 42.56 42.31 41.46 40.63 40.38 40.27 40.33 40.59 40.23 39.72 39.61 39.73 39.55 38.70 38.47 38.59 38.93 39.26
38.35 35.13 28.16 31.17 35.34 36.20 34.74 35.20 35.25 28.99 25.92 26.32 27.06 27.50 38.05 37.84 40.78 41.47 41.26 43.19 42.34 42.46 41.77 41.62 41.61 41.73 41.25 40.41 39.47 38.80 38.57 38.42 38.80 39.30 38.74 38.37 38.30 38.04 37.24 37.05 37.28 37.67 37.14 37.54
38.70 33.61 25.97 28.50 32.97 34.51 32.70 34.56 35.86 34.71 31.23 23.36 21.72 26.21 37.58 35.59 40.48 42.17 41.72 42.25 42.71 42.02 41.51 41.24 40.99 40.29 39.82 38.92 38.06 36.93 37.07 37.21 37.96 38.21 37.72 37.09 36.16 35.60 35.49 35.65 36.03 36.30 35.75 35.56
41.04 36.04 31.74 28.03 30.47 34.95 31.23 33.76 34.62 34.73 26.60 27.04 28.29 29.69 31.99 36.34 39.11 41.34 41.85 42.51 42.14 41.95 42.25 41.19 40.58 39.97 39.43 38.49 37.21 36.48 36.28 36.84 37.04 36.86 36.19 35.12 34.87 34.70 34.78 35.06 34.88 34.66 34.48 34.22
38.61 30.58 33.54 33.43 34.89 34.90 34.08 34.01 34.11 32.72 35.41 30.78 34.14 32.66 35.31 37.34 38.95 41.83 42.40 42.33 41.80 41.63 41.75 41.68 40.39 39.21 38.06 37.08 36.76 36.49 35.86 35.92 36.19 35.37 34.38 33.95 34.52 34.22 33.81 33.08 32.49 32.25 31.35 32.83
38.72 29.93 32.97 29.08 34.87 34.46 29.64 33.13 34.85 35.00 35.43 34.58 34.17 33.08 38.79 41.36 42.27 41.44 41.87 42.35 41.50 41.56 41.80 40.93 39.76 39.08 37.50 36.97 35.52 36.01 34.96 34.60 34.89 33.99 32.47 32.78 31.93 31.12 30.71 30.19 29.92 29.82 29.79 29.66
35.36 32.57 30.44 28.49 31.10 31.42 26.51 31.49 33.93 34.58 36.53 36.36 32.79 37.24 38.03 38.45 41.07 41.58 41.72 42.54 41.90 41.55 41.25 39.81 39.26 37.92 36.61 35.45 35.76 33.89 34.11 34.27 32.77 31.42 31.10 30.63 29.94 29.39 29.02 28.93 28.58 28.21 28.21 28.37
33.96 31.91 31.91 26.87 28.34 20.34 32.87 36.47 37.51 36.09 36.80 38.16 38.12 36.90 38.80 39.74 42.27 43.21 44.27 42.87 42.03 41.82 40.57 39.55 38.09 36.09 35.14 34.22 33.95 34.22 33.34 31.53 30.87 30.11 29.68 28.96 28.33 27.43 27.43 26.86 26.41 26.64 26.82 26.48
37.98 32.96 29.51 25.61 24.21 28.34 31.85 32.16 32.60 32.15 34.14 38.19 38.17 39.57 39.01 39.40 39.25 38.38 42.42 43.93 43.31 42.15 40.39 39.00 37.04 35.42 34.35 33.12 32.93 31.16 30.17 30.03 29.39 28.50 27.71 26.83 26.38 24.17 24.40 21.25 23.77 24.54 25.23 25.19
36.28 36.32 30.34 29.12 18.87 19.19 30.56 33.98 37.90 38.32 30.08 37.85 39.33 37.90 37.60 39.03 35.24 38.62 41.30 43.18 41.29 39.59 38.29 35.60 34.87 34.27 32.95 31.67 30.71 29.53 28.35 27.99 27.44 26.88 26.06 25.26 24.61 19.27 18.75 21.72 21.35 22.92 21.61 24.38
31.47 32.01 30.25 29.42 26.89 29.41 31.98 32.95 37.63 28.41 31.58 33.45 38.84 40.10 38.44 38.91 40.66 39.61 40.72 38.32 37.98 36.21 34.23 34.30 33.97 32.73 31.16 29.21 28.70 27.68 27.25 26.45 25.59 24.53 23.47 21.87 21.34 18.44 18.08 17.89 18.93 17.70 19.05 21.36
31.58 31.08 30.93 32.19 29.42 26.29 31.58 33.39 32.81 35.19 29.61 32.71 36.29 38.25 37.66 35.98 37.55 38.40 37.63 34.11 33.34 33.03 33.47 33.44 31.62 29.15 27.88 27.49 27.85 25.94 24.79 23.64 21.54 19.92 17.94 15.09 11.62 14.66 17.38 9.71 11.61 13.71 14.82 17.23
28.67 32.60 32.09 33.17 31.29 31.55 32.81 31.33 33.40 34.21 33.20 31.56 34.92 35.61 35.95 34.50 33.67 34.49 32.92 32.44 32.47 32.51 31.86 31.29 28.50 25.80 25.09 24.35 24.54 23.05 21.17 19.38 16.12 8.78 6.47 6.79 9.02 12.95 13.25 8.78 11.79 13.81 11.64 15.08
30.76 31.25 31.24 31.10 29.98 29.26 30.26 30.56 31.76 32.88 32.34 33.63 34.69 34.82 34.85 33.23 33.66 32.08 31.20 30.99 30.97 29.85 28.20 26.85 24.90 23.61 20.76 19.88 19.74 17.82 16.50 14.16 5.53 3.58 6.36 9.41 8.95 10.16 9.68 15.20 15.90 9.58 10.15 15.24
31.62 31.32 30.48 29.39 29.09 28.78 30.83 31.59 32.73 33.60 33.35 33.47 33.67 33.37 33.28 32.98 31.39 30.98 29.87 29.33 28.77 27.05 24.53 24.46 23.93 21.22 19.17 17.73 15.46 13.54 12.39 8.23 7.05 5.62 8.87 8.52 10.02 6.71 10.80 13.30 12.35 15.75 15.46 16.27
28.77 29.41 29.15 28.54 32.26 32.70 32.37 33.24 33.54 32.31 31.49 32.83 32.06 31.76 31.53 32.07 31.32 30.40 29.11 28.69 26.89 24.48 22.16 21.07 19.55 18.85 16.18 13.62 11.79 8.95 6.57 5.49 2.31 5.63 8.81 8.08 8.14 8.16 11.17 11.63 13.02 19.21 22.07 23.85

GFSCGP_sfc_wetblb_093.txt.gz
Wetbulb
41.97 36.57 35.61 36.68 37.37 38.41 36.77 36.02 35.99 36.11 39.49 39.05 37.61 37.88 39.59 41.51 40.64 38.88 38.74 40.72 42.27 42.80 42.62 43.77 44.84 45.32 47.31 52.81 59.01 61.38 62.36 62.19 62.03 61.33 62.89 62.97 62.75 63.38 63.59 63.90 63.81 63.68 63.21 62.74
38.81 34.89 39.47 41.74 40.33 38.99 36.49 34.97 32.79 35.59 38.60 37.29 37.04 38.38 39.00 40.61 40.72 41.01 41.54 40.58 41.09 41.09 43.41 44.61 45.20 44.97 44.54 45.22 47.04 56.17 61.94 62.04 61.91 62.21 62.34 63.45 63.31 63.26 63.68 63.66 63.84 63.90 63.19 62.57
36.21 38.90 42.44 41.17 38.68 37.65 35.52 34.48 33.63 34.52 36.01 34.95 34.07 32.68 37.03 39.01 40.26 40.96 41.07 41.38 41.41 41.73 42.94 43.73 45.37 45.45 44.73 43.97 44.59 48.04 56.26 61.87 62.17 62.35 63.02 62.13 61.92 61.56 61.94 62.28 62.65 63.17 63.52 62.73
37.93 41.82 40.59 38.35 38.08 38.30 34.25 38.74 37.54 35.57 33.36 28.67 32.08 25.88 32.35 35.59 37.11 39.18 39.90 39.83 40.34 41.84 43.58 44.76 45.02 45.66 45.73 47.72 44.59 45.43 51.61 59.19 62.55 63.37 62.39 61.65 60.56 59.34 60.84 61.23 61.85 61.93 62.49 62.39
35.46 37.68 37.45 35.76 37.77 39.10 36.53 39.50 37.47 35.63 33.45 29.59 28.74 26.86 29.88 34.46 33.89 37.15 38.77 39.80 40.68 41.73 42.65 43.25 44.71 46.51 46.87 48.51 44.46 46.91 51.47 53.80 57.53 62.30 62.00 60.54 59.38 59.43 58.71 57.78 57.49 57.90 58.48 56.70
37.45 39.53 39.74 39.50 38.98 39.74 40.24 38.30 36.82 34.88 31.98 25.01 29.03 28.35 27.27 31.14 36.60 35.56 38.62 39.80 41.15 41.36 42.07 43.60 45.00 45.85 45.04 45.33 46.79 48.06 49.65 50.14 54.09 55.59 57.35 57.27 55.97 55.39 53.77 52.55 52.02 50.32 51.43 49.51
35.29 36.30 38.12 39.94 37.16 38.38 37.83 32.60 24.70 24.37 22.91 22.98 26.85 25.74 30.48 34.39 37.26 38.89 39.19 39.53 40.31 40.86 41.17 42.03 42.27 42.27 42.65 42.67 43.50 45.06 46.13 44.74 45.94 47.56 48.76 49.22 47.65 46.83 46.27 46.01 45.29 44.63 43.83 43.81
29.29 27.58 35.42 38.77 37.35 34.48 33.25 33.14 24.77 20.67 20.25 23.36 26.19 25.64 32.07 35.55 38.26 40.48 41.22 40.21 40.40 40.22 41.33 41.65 41.88 41.61 41.77 42.01 41.79 42.53 43.20 42.50 43.23 44.06 43.75 44.29 44.22 43.64 42.89 42.73 42.39 41.79 41.25 41.37
30.86 30.67 37.10 37.74 38.69 38.84 33.26 30.42 34.58 26.57 17.23 21.26 24.40 27.70 33.85 36.75 37.68 38.50 38.82 39.76 39.33 40.33 40.83 41.16 41.39 40.87 40.76 40.71 40.92 41.09 41.83 41.77 41.88 41.83 42.64 42.12 41.88 41.16 40.24 39.88 40.24 39.73 39.59 40.71
35.29 29.00 35.25 36.25 38.30 37.26 34.87 37.13 29.43 26.81 17.20 17.22 22.54 23.82 28.07 31.71 35.94 37.07 38.05 38.65 39.32 39.99 40.20 40.38 40.53 40.51 40.55 40.37 40.20 40.32 40.71 40.58 40.32 40.47 40.74 39.91 39.22 38.91 38.35 37.83 37.52 37.57 37.86 38.13
37.07 33.97 31.18 34.79 33.37 33.40 32.58 30.73 31.38 31.98 27.31 21.61 18.51 24.65 32.76 35.30 37.85 37.56 39.07 40.31 40.01 39.97 40.14 40.32 40.42 40.38 39.96 39.43 38.96 38.40 38.74 39.00 38.64 38.93 38.39 37.69 37.14 36.99 36.98 36.68 36.50 36.27 36.32 36.52
37.67 33.40 27.50 30.28 34.61 35.50 33.67 33.99 33.53 27.83 25.26 26.07 25.75 27.26 36.58 35.39 39.25 40.26 39.93 40.94 41.04 40.96 40.33 40.36 39.80 39.17 38.35 37.67 37.62 37.66 37.46 37.80 37.50 37.10 36.73 36.47 36.14 35.74 34.97 34.65 34.92 34.88 34.10 34.76
38.24 31.99 25.09 28.19 32.07 33.60 32.67 33.91 34.69 33.07 28.02 23.66 21.99 25.94 36.09 34.13 37.72 40.31 39.64 40.56 41.01 40.71 40.28 40.27 39.51 38.41 37.56 36.88 36.76 36.06 36.19 36.37 36.56 36.33 35.42 34.59 33.86 33.60 33.38 33.31 33.62 33.57 33.11 32.97
40.89 34.19 30.38 26.75 29.50 33.22 30.06 32.19 33.34 33.21 26.07 25.74 26.01 27.99 32.26 34.23 36.70 37.96 39.50 40.95 40.54 40.58 40.57 39.95 39.31 38.84 37.85 36.98 35.96 35.53 35.33 35.74 35.46 34.71 33.65 32.80 32.66 33.08 32.80 32.43 32.06 31.57 31.53 31.67
37.93 29.64 32.57 32.68 33.91 33.86 33.39 32.86 32.54 31.83 35.16 30.52 33.42 30.43 33.73 35.09 37.32 39.71 40.72 40.57 39.95 39.97 40.07 40.11 39.56 38.68 37.54 35.92 35.36 34.77 34.37 34.76 34.39 33.07 32.43 32.19 32.04 31.76 30.72 29.63 29.43 29.43 29.26 30.37
37.65 27.53 31.28 28.48 33.64 33.08 30.21 32.50 33.67 35.20 34.37 32.61 31.21 31.44 36.72 37.83 38.50 39.07 40.54 40.74 40.37 40.36 40.61 40.82 39.84 38.68 36.72 35.97 34.95 34.99 34.33 34.03 33.48 31.77 30.82 30.86 29.86 28.90 28.35 28.27 28.25 28.24 28.33 28.12
35.68 32.54 29.07 24.06 29.40 29.53 26.34 31.41 32.34 33.79 34.88 35.90 31.76 37.02 35.81 36.34 38.86 40.19 40.69 41.57 41.60 41.51 41.30 40.78 39.39 38.41 37.32 36.07 35.38 33.45 32.96 32.70 30.69 29.39 29.26 28.55 28.26 27.58 27.17 27.05 26.64 26.65 26.37 26.63
33.89 34.29 30.94 30.01 28.38 21.29 31.91 35.52 36.38 35.32 36.23 37.44 36.02 34.94 37.71 38.51 40.95 42.20 43.44 42.59 42.44 42.24 41.83 40.94 39.63 38.28 36.61 34.16 33.69 33.44 32.31 30.50 29.58 29.10 27.76 27.19 26.67 25.73 25.38 24.33 24.21 24.54 25.09 25.01
36.42 32.27 28.05 25.62 21.59 28.39 30.89 32.58 32.21 30.98 34.19 36.28 37.01 38.76 36.76 37.01 37.97 37.97 43.09 44.39 43.75 43.21 43.15 41.42 39.88 37.21 34.14 33.67 33.14 31.18 29.88 29.29 28.53 27.41 26.38 25.97 25.18 22.73 22.19 19.57 21.49 22.24 22.15 21.85
35.56 35.27 29.93 26.59 21.25 19.39 29.96 34.83 36.10 37.58 30.42 37.52 38.99 37.44 35.59 36.84 33.50 38.40 41.50 42.44 42.51 42.56 41.38 38.06 35.40 34.53 33.58 32.53 31.73 29.63 28.62 27.51 26.40 26.03 25.59 24.63 23.54 20.31 17.46 20.43 19.07 20.64 18.27 22.00
31.28 31.06 28.06 21.79 18.46 24.73 31.05 32.37 36.30 27.86 31.16 34.78 38.03 39.51 37.05 37.92 41.59 39.75 39.61 39.47 40.31 39.11 36.50 35.01 34.64 33.45 32.94 31.29 29.70 27.78 26.87 25.89 25.91 24.47 23.04 21.08 19.80 17.44 17.11 16.17 16.43 13.67 12.04 16.72
30.09 29.36 28.84 25.18 18.72 23.13 31.96 33.03 33.00 35.31 31.85 33.06 35.88 36.73 37.37 36.94 36.71 36.86 38.12 36.11 35.21 33.10 33.57 33.89 32.74 31.10 30.06 29.14 28.51 26.80 25.92 24.73 22.73 20.60 18.38 16.10 12.80 15.47 15.93 7.00 7.36 7.54 5.89 6.89
28.46 31.52 30.39 32.42 31.13 31.83 31.15 31.86 32.12 33.14 32.31 30.79 34.44 35.54 36.02 35.16 33.83 32.44 31.93 32.52 32.37 32.45 32.46 32.57 30.64 27.51 26.91 26.52 27.14 25.70 23.69 21.25 18.75 14.97 11.76 10.91 9.86 11.25 10.85 4.87 6.50 7.78 5.48 5.63
29.40 30.05 29.21 30.80 29.74 29.90 30.10 30.83 31.97 32.67 32.04 33.36 35.06 34.13 34.71 33.97 32.34 30.48 30.95 31.04 31.24 30.55 29.59 28.29 27.03 25.84 23.87 23.21 24.09 23.67 20.93 17.80 12.34 10.63 10.22 9.51 7.95 8.02 7.27 12.78 13.38 5.98 4.93 5.22
31.34 31.98 30.38 29.83 31.48 28.88 30.15 30.07 32.74 33.08 33.43 33.53 34.54 33.13 33.99 33.00 30.78 30.80 30.37 30.51 30.48 29.47 27.43 27.49 27.16 24.66 22.52 20.46 19.46 17.71 15.64 13.28 9.46 8.75 10.65 9.33 8.22 4.71 7.41 11.04 8.96 12.09 12.98 12.22
30.00 31.83 31.06 30.53 32.72 33.72 32.94 32.76 33.14 32.35 32.21 32.94 32.74 30.72 30.62 30.92 30.44 29.31 29.10 29.02 28.47 26.71 25.70 25.33 24.42 23.16 20.69 19.09 16.42 13.86 10.17 9.78 9.89 9.69 10.12 8.71 7.43 6.56 8.56 7.57 7.81 16.51 19.82 22.31

GFSCGP_sfc_wetblb_096.txt.gz
Wetbulb
41.58 36.77 35.19 38.24 36.83 37.63 37.27 35.71 34.76 34.25 37.95 37.31 36.82 36.95 38.78 40.06 38.82 37.76 38.05 38.45 41.78 45.90 42.57 43.33 45.81 50.36 56.43 57.57 58.80 61.55 61.86 61.94 61.70 61.02 60.59 62.18 62.62 63.33 63.52 63.96 63.87 63.62 63.23 62.65
37.35 34.28 39.43 40.59 40.23 38.86 36.86 35.70 33.64 34.88 37.19 36.41 35.38 36.90 37.37 38.83 39.30 39.32 38.87 38.09 41.37 40.04 41.09 42.87 43.12 42.63 46.07 48.64 55.82 59.71 61.71 61.49 61.74 62.05 60.80 61.13 62.86 63.11 63.47 63.47 63.61 63.77 63.32 62.65
35.01 37.43 41.29 40.18 37.98 36.86 34.26 33.66 32.43 34.65 34.30 33.93 32.88 33.47 35.76 38.56 38.68 39.41 40.09 39.66 39.87 40.28 41.59 42.70 44.71 43.96 43.79 43.52 44.64 53.29 60.06 61.28 61.97 61.90 62.01 61.96 61.90 61.99 62.17 62.34 62.68 63.26 63.49 62.92
37.78 41.27 39.48 38.34 37.83 37.61 31.99 37.02 36.46 34.85 32.15 28.77 32.69 27.27 30.38 35.15 37.44 38.70 39.44 38.82 39.92 40.47 42.20 43.12 43.83 42.81 45.10 46.29 44.56 45.55 54.77 60.66 61.04 62.66 62.23 61.48 60.39 59.60 60.59 61.24 61.23 59.67 59.42 59.09
36.28 38.05 37.16 36.59 38.23 38.86 35.50 38.59 36.62 34.21 31.55 30.45 28.36 27.24 29.82 31.66 32.80 37.05 38.10 38.54 40.45 40.96 42.58 43.29 44.24 45.81 44.90 46.67 42.37 45.54 52.08 59.90 61.04 62.12 62.46 61.15 59.94 59.43 58.46 57.49 56.94 54.35 50.82 50.76
39.16 40.34 40.41 39.72 38.74 39.16 39.34 37.57 35.19 33.50 31.19 24.99 29.08 28.80 28.00 29.97 35.07 38.68 36.63 38.91 39.34 40.77 41.44 43.03 44.13 45.07 44.56 45.10 46.02 47.62 50.56 52.44 57.93 59.84 61.18 59.86 57.79 56.24 54.39 51.72 49.40 48.11 47.60 46.63
35.08 35.61 37.36 40.99 36.92 37.92 37.90 34.64 25.91 24.87 24.80 23.66 26.44 25.26 31.49 32.87 35.83 37.15 39.60 37.99 38.71 40.37 40.78 41.70 41.84 41.87 42.27 42.89 43.53 45.44 47.78 46.15 50.04 51.97 52.95 52.04 50.02 47.56 47.13 44.83 43.38 41.86 41.24 40.91
29.35 27.27 34.96 38.69 37.94 34.29 33.65 35.00 25.05 19.90 19.21 22.00 26.01 25.00 31.48 34.80 37.04 38.01 39.23 39.59 39.25 39.30 40.80 40.89 40.97 40.95 41.40 41.79 41.75 41.97 42.74 42.37 44.30 45.53 46.04 45.96 44.50 43.53 42.36 41.46 40.74 39.93 39.47 38.87
30.94 30.04 35.95 36.95 38.38 38.51 34.43 31.06 33.49 25.95 16.96 22.43 23.92 27.06 34.19 35.66 35.52 36.75 37.44 38.79 38.55 38.88 40.20 40.26 40.31 40.12 39.91 39.93 40.20 40.63 40.74 40.48 41.51 41.98 42.22 41.25 41.14 40.59 39.58 38.85 38.10 37.35 37.66 38.32
34.45 28.76 34.66 35.81 37.68 37.29 35.70 36.83 29.75 26.62 19.14 16.59 21.98 23.01 27.75 31.58 35.87 36.06 36.72 38.04 38.35 39.31 39.55 39.53 39.46 39.31 39.35 39.46 39.31 39.39 39.78 39.49 39.50 40.16 40.08 39.08 38.05 37.65 36.68 36.26 35.39 35.48 35.68 35.77
35.80 33.56 30.74 34.97 33.40 32.94 32.86 31.23 30.41 30.60 27.27 22.14 17.62 24.02 31.08 35.07 38.09 36.75 37.84 38.90 39.10 39.39 39.68 39.22 38.66 38.84 38.54 38.13 38.23 37.90 38.31 38.21 37.94 37.91 37.33 36.53 35.75 35.62 35.50 34.75 33.78 33.79 34.15 34.18
36.57 32.94 27.36 30.54 34.57 35.52 33.50 33.56 33.38 28.48 24.74 23.98 24.04 25.75 33.94 33.89 36.00 38.50 37.88 39.14 39.36 40.07 39.44 38.89 38.65 37.70 37.09 36.87 36.85 36.63 36.54 36.93 36.58 36.56 35.98 35.43 35.03 34.08 33.29 32.67 32.53 32.74 32.43 32.91
37.29 31.36 25.07 28.11 31.76 33.57 32.49 33.54 33.89 31.35 28.86 24.81 24.47 26.86 34.43 33.10 35.05 38.70 38.67 39.14 39.70 38.92 38.73 38.65 37.32 36.78 35.92 35.37 35.72 35.33 35.51 35.76 35.62 35.30 34.43 33.60 32.92 32.16 31.57 31.44 31.73 31.55 31.18 31.00
40.83 33.23 30.32 26.60 29.99 32.56 29.49 31.77 32.80 33.58 26.20 25.25 25.47 28.77 31.83 33.25 35.04 37.24 39.34 39.63 39.39 39.48 39.41 38.45 37.35 36.45 36.19 36.00 35.69 35.24 34.80 35.20 34.14 33.52 32.79 31.68 31.31 31.08 30.98 30.73 29.84 29.85 29.99 29.35
37.84 29.30 31.54 31.97 33.32 34.31 32.54 32.74 33.37 32.34 34.95 30.53 33.42 29.41 33.39 34.71 35.88 38.32 39.86 39.58 39.04 39.04 39.22 39.11 38.29 37.52 36.19 35.12 34.94 35.21 35.11 34.27 33.71 32.59 31.47 31.02 30.99 30.42 29.32 28.81 28.38 28.07 27.50 27.95
35.87 26.11 30.50 28.64 33.24 32.39 30.09 32.53 33.00 34.19 33.65 31.24 29.52 29.25 35.61 35.34 37.40 37.73 39.19 39.82 39.34 39.60 39.91 39.94 39.55 38.20 36.47 35.74 35.24 35.24 34.50 33.29 32.39 31.04 30.54 30.54 29.49 28.01 27.49 27.06 26.95 26.99 26.57 26.29
35.07 29.88 25.56 20.62 28.86 29.56 26.82 31.09 32.16 33.67 35.79 35.44 31.26 36.92 35.15 34.77 36.91 38.50 38.93 40.43 40.53 40.96 40.87 40.43 40.30 38.85 37.36 36.30 35.84 34.47 33.35 32.04 30.42 29.73 29.06 28.30 27.47 26.63 26.15 25.98 25.84 25.60 25.26 25.42
36.09 33.55 30.51 25.39 26.41 19.85 30.89 34.72 35.41 34.31 34.30 37.08 35.04 34.50 36.07 37.71 38.34 39.94 41.49 41.29 41.85 42.39 41.89 41.57 41.27 40.22 38.30 36.73 35.23 33.73 32.48 30.75 29.87 28.70 27.44 26.77 26.33 25.03 24.20 23.93 23.79 23.84 24.02 23.37
35.94 35.69 30.01 29.04 27.82 30.29 33.25 32.72 31.72 30.64 32.12 35.34 35.34 37.98 35.69 37.20 37.34 37.64 41.77 43.49 43.46 43.65 43.56 43.06 42.76 40.89 37.90 35.10 33.63 32.35 30.36 29.31 28.64 27.21 26.73 26.09 24.92 23.11 22.16 21.23 21.50 22.35 21.54 21.65
34.10 35.17 32.80 23.29 24.66 21.56 28.95 37.57 35.53 37.01 30.16 39.90 38.06 38.04 34.42 36.28 33.36 38.62 39.98 43.10 43.53 44.31 44.04 42.53 40.91 38.92 35.69 33.72 32.62 30.92 29.39 28.32 27.48 26.97 26.36 25.14 23.28 20.75 20.05 21.17 20.70 20.75 19.18 21.64
29.44 27.82 29.07 22.23 19.89 24.82 31.34 31.87 37.05 28.59 31.54 33.35 37.03 38.24 34.63 35.99 40.58 41.02 39.15 39.69 41.39 40.54 39.14 38.43 37.81 34.74 34.77 32.60 31.51 29.84 28.62 27.73 27.60 25.73 23.71 21.80 20.86 19.98 19.91 19.02 19.03 16.05 13.29 15.68
28.93 27.49 24.68 21.99 20.55 22.83 31.64 32.17 32.76 34.96 31.99 33.56 35.34 36.20 36.30 37.80 35.29 35.18 36.19 36.40 37.00 35.84 34.85 35.22 34.47 34.53 33.12 32.25 31.37 29.40 27.76 26.64 24.03 22.14 19.75 18.35 17.88 21.08 18.49 15.59 12.96 10.72 9.98 8.74
29.05 31.86 28.48 30.57 28.84 32.10 30.75 30.91 31.17 32.89 32.15 30.83 33.80 35.19 35.65 34.85 34.61 34.16 34.00 33.46 33.58 34.26 34.42 34.45 34.55 31.44 30.95 30.95 31.51 28.05 25.20 23.06 20.73 18.75 17.08 15.76 16.82 17.46 16.23 12.95 10.60 10.75 5.95 6.34
28.33 30.00 29.63 31.93 28.96 29.21 30.31 30.41 30.16 30.98 30.66 31.96 33.02 33.94 33.03 33.03 32.43 31.24 30.94 30.69 30.76 30.70 30.79 30.57 29.32 28.84 27.71 27.29 28.06 28.34 23.33 21.20 18.83 17.18 16.20 15.45 15.66 14.62 12.28 15.43 14.14 7.22 4.92 4.24
30.43 30.83 26.97 27.65 29.83 28.79 29.58 30.02 31.17 31.46 32.03 31.47 32.65 31.82 33.55 31.65 30.33 29.48 29.86 28.40 29.11 28.38 26.01 27.97 29.26 28.48 26.98 25.53 22.61 22.38 20.11 18.85 17.30 16.96 15.50 15.48 13.44 12.98 10.96 11.97 9.57 12.27 11.54 11.16
32.13 31.73 31.32 27.57 33.92 33.16 32.99 33.09 31.71 31.88 31.80 30.97 31.17 31.66 31.33 31.13 31.60 29.37 27.63 27.78 27.15 26.13 24.97 26.18 25.79 26.73 22.99 22.22 19.03 17.55 17.37 18.17 16.61 15.07 14.85 13.22 11.94 10.23 10.15 9.38 8.41 16.10 18.98 21.23

GFSCGP_sfc_wetblb_099.txt.gz
Wetbulb
45.83 39.21 35.41 38.44 39.89 37.57 41.10 36.05 35.27 35.83 38.23 36.88 35.69 36.29 38.04 37.73 36.01 38.70 38.98 40.65 43.29 47.15 51.55 48.05 53.27 55.06 55.95 58.87 61.29 62.39 62.26 62.01 61.16 59.37 59.43 61.76 61.81 62.97 63.13 63.35 63.23 63.21 63.00 62.59
39.32 36.60 40.88 41.50 39.91 38.80 36.68 35.52 34.77 35.79 37.43 36.68 34.21 35.84 35.44 37.46 37.87 38.33 38.42 37.64 39.56 41.39 42.23 42.96 43.39 47.82 54.35 57.03 59.88 61.47 62.22 61.92 61.58 61.84 60.20 59.90 60.48 63.00 63.49 63.41 63.26 63.39 63.24 62.82
36.98 37.94 41.11 39.54 38.25 37.12 34.91 36.43 33.66 34.61 34.72 33.62 32.71 32.79 34.19 37.67 37.37 38.35 38.94 37.85 38.99 41.97 41.99 41.58 43.23 43.13 43.76 49.11 55.12 59.36 61.08 61.38 61.87 61.47 60.91 61.49 61.90 62.04 61.94 62.24 62.46 62.64 62.87 62.32
38.47 40.79 39.32 37.39 37.40 38.10 33.70 36.35 36.27 34.70 33.20 28.74 32.34 25.79 30.52 34.93 36.74 37.43 38.84 37.56 38.95 39.31 40.78 41.88 43.33 44.91 44.06 44.02 44.46 46.81 58.07 60.05 61.23 61.28 62.04 61.26 60.13 59.25 60.60 61.17 58.18 53.87 54.62 55.08
36.52 37.47 35.72 35.66 37.16 38.85 36.06 37.67 36.44 34.97 32.23 29.56 27.03 26.07 29.40 30.83 33.40 35.00 38.10 38.65 38.47 38.87 40.71 41.90 43.78 44.82 45.88 47.52 44.33 43.45 50.73 59.27 60.32 61.81 62.42 61.52 59.69 59.56 58.33 57.27 51.54 50.21 49.60 50.03
38.64 41.13 39.33 37.77 38.13 39.49 38.97 36.92 35.28 33.81 31.32 24.93 29.87 28.59 27.97 28.99 33.69 37.52 36.94 38.38 38.84 39.47 40.76 42.98 44.16 45.19 45.08 44.59 43.79 45.03 49.60 58.43 59.51 61.16 62.03 60.92 58.57 57.19 54.51 52.07 48.92 46.90 45.81 45.25
35.70 36.24 37.60 39.86 37.87 38.74 37.70 34.54 26.24 25.43 23.35 24.96 25.83 25.50 34.09 31.99 34.85 36.40 39.49 39.90 38.50 39.34 40.76 42.07 42.68 42.80 43.75 43.83 44.24 46.43 49.09 54.59 59.15 59.20 58.61 58.67 57.21 55.35 51.55 48.23 45.55 43.59 41.81 39.63
29.34 28.74 34.27 39.01 38.36 34.44 33.37 35.15 26.55 20.87 21.69 22.35 26.32 24.07 30.66 34.79 34.54 36.57 37.85 38.91 38.19 39.43 40.93 41.71 41.96 42.45 43.30 43.21 43.25 44.63 45.90 48.42 51.63 53.21 51.33 51.33 49.65 47.33 43.52 43.42 41.09 39.15 38.71 37.77
27.66 28.96 35.79 37.19 38.46 39.95 34.23 31.33 34.01 26.80 18.49 23.11 25.06 27.38 33.20 33.71 35.89 37.11 37.37 37.39 38.95 40.14 40.80 41.09 40.71 40.86 41.41 41.01 41.29 41.89 42.01 42.47 44.86 46.51 46.65 45.35 43.84 41.51 39.54 38.35 37.94 37.60 36.71 36.64
32.74 27.79 34.29 35.41 39.10 37.63 35.58 37.59 30.00 28.23 19.82 17.25 21.66 22.28 27.16 30.63 35.50 36.64 36.20 36.94 38.43 39.93 40.03 40.03 40.00 39.77 39.65 39.83 39.31 39.63 40.06 40.29 40.22 42.24 43.65 42.38 40.38 38.77 37.07 36.46 35.36 34.81 34.59 34.31
33.06 32.44 30.57 34.90 33.31 33.65 33.64 30.71 30.99 33.08 28.04 23.23 18.21 24.39 31.38 34.75 37.33 37.50 38.68 38.38 38.42 39.19 39.76 39.69 39.11 38.88 38.89 38.66 38.49 37.76 37.79 37.64 37.76 38.70 39.19 38.77 37.15 35.35 34.73 34.20 33.42 33.61 33.28 32.94
34.74 30.99 26.07 30.61 33.30 35.48 37.71 33.52 33.39 29.42 24.78 24.28 24.50 25.35 32.97 33.00 34.06 37.44 36.74 37.65 38.29 39.17 39.47 38.63 38.50 38.01 37.33 37.19 36.93 36.54 36.15 35.93 35.42 35.50 35.75 34.99 34.46 33.65 32.79 32.01 31.83 32.52 31.99 32.00
36.54 30.92 23.91 27.24 31.48 33.20 31.99 33.93 33.84 31.44 29.08 27.30 24.14 28.81 33.83 34.43 34.99 36.40 37.03 37.91 38.62 38.45 38.10 37.40 36.56 36.33 35.78 35.38 35.55 35.00 34.73 34.38 34.21 34.43 33.83 32.80 32.15 31.61 30.89 30.50 30.95 31.42 31.18 30.55
40.02 32.65 29.59 26.74 29.42 32.19 29.37 30.73 31.79 33.77 26.11 27.31 27.25 29.10 33.03 34.69 35.44 35.88 37.37 38.62 38.90 38.42 38.53 37.73 36.68 35.36 35.37 35.79 35.30 34.24 33.48 34.00 33.16 33.21 32.30 31.04 30.58 30.71 30.47 29.98 30.16 30.06 29.39 28.58
37.25 28.60 29.88 30.47 31.64 33.93 33.25 34.53 32.67 31.55 33.85 29.75 33.33 29.91 34.52 35.98 36.04 36.47 38.06 38.29 37.70 37.62 38.05 38.08 36.98 36.28 36.17 34.90 34.07 34.22 34.04 33.11 32.64 31.69 31.04 30.41 30.34 29.81 29.34 29.09 28.71 28.41 27.83 27.43
34.19 23.78 29.41 26.46 31.84 31.96 29.50 32.52 33.92 34.31 35.20 33.76 30.28 29.39 35.25 35.09 36.98 37.12 38.29 38.52 38.06 38.54 39.06 39.02 38.42 37.67 36.44 35.85 35.12 34.96 33.87 32.79 32.24 31.07 30.51 30.14 29.30 28.75 28.15 27.80 27.49 27.43 26.38 25.68
34.14 27.35 22.95 18.00 27.83 28.94 27.08 30.94 31.93 33.59 35.39 35.67 30.26 35.66 34.36 34.36 35.97 37.19 37.36 39.15 39.36 39.93 39.96 39.48 39.13 38.51 38.03 37.06 36.75 34.87 33.92 32.22 31.03 30.46 29.95 29.04 28.32 27.71 27.32 26.72 25.79 25.55 24.77 24.96
33.76 32.09 27.60 20.34 21.70 19.57 30.45 34.32 35.78 34.47 35.81 37.12 36.60 33.70 34.87 37.16 38.00 38.64 39.67 39.95 40.48 41.26 41.24 41.11 40.90 40.28 39.64 38.19 36.49 35.80 33.38 31.73 30.71 29.79 29.08 28.08 27.70 26.33 24.76 24.12 23.87 23.80 23.33 23.40
35.16 34.71 31.54 27.60 13.81 26.13 31.56 33.40 31.04 30.23 32.14 35.25 34.69 37.71 34.80 35.29 36.00 36.95 39.73 41.84 42.40 42.70 43.25 43.09 43.04 42.11 40.03 37.28 36.23 33.60 31.59 31.03 29.98 29.05 28.45 27.29 25.92 24.21 22.83 21.55 21.87 22.09 22.00 22.09
33.55 36.76 33.40 29.27 25.63 19.14 28.03 35.12 35.76 37.34 30.30 37.51 35.91 35.88 34.58 35.92 32.59 37.85 39.56 41.07 42.27 43.29 43.89 43.08 42.52 41.66 38.73 36.43 34.63 32.54 31.16 29.88 28.75 28.48 27.66 26.42 24.75 22.29 21.02 22.18 21.52 21.34 20.52 22.12
25.03 26.79 30.12 29.67 25.85 23.92 30.83 31.66 37.28 29.55 31.84 32.74 36.02 37.34 34.97 35.82 40.67 38.97 37.76 39.03 40.87 40.90 40.15 40.41 41.30 39.97 38.31 35.37 33.05 31.73 30.33 29.05 29.82 27.22 25.37 23.47 22.21 21.54 21.76 21.23 20.15 18.68 19.03 19.80
27.29 24.92 26.75 24.46 27.15 24.41 30.95 30.87 33.62 34.87 32.35 34.48 35.61 35.30 35.12 35.48 34.84 36.13 36.28 35.42 36.48 36.94 36.82 39.37 39.20 38.16 35.96 32.80 33.11 31.63 29.80 30.53 26.50 25.15 23.23 21.17 20.59 21.34 19.76 17.61 17.54 18.06 18.00 17.30
26.81 29.99 27.33 31.18 30.33 31.67 30.52 31.08 32.10 33.43 32.70 30.74 34.55 34.29 34.26 33.62 33.62 35.21 34.88 34.71 33.84 33.58 34.63 35.61 37.01 32.96 32.01 32.11 33.43 31.58 30.86 26.09 24.98 23.42 20.53 18.22 18.58 19.99 19.45 18.14 17.24 16.41 15.58 16.11
28.43 29.97 28.11 29.58 28.76 29.44 30.68 30.02 29.87 30.86 30.77 31.43 32.85 33.06 33.35 33.02 33.72 33.06 32.50 32.22 31.74 28.62 28.51 27.40 30.09 30.11 29.44 31.05 32.20 32.90 26.16 25.93 23.70 20.64 18.07 17.60 18.83 18.66 18.17 18.94 17.79 17.03 14.74 13.84
29.49 30.61 27.34 27.03 29.05 28.88 29.20 30.27 30.36 30.86 31.72 31.49 32.18 32.11 32.39 32.10 31.71 31.03 30.71 27.66 28.55 26.90 25.05 25.73 27.77 28.02 27.31 26.74 26.45 25.18 24.13 23.96 21.89 19.71 18.46 18.31 18.70 17.73 17.15 17.46 17.35 16.18 15.23 15.33
32.58 31.64 28.67 26.74 31.81 31.09 32.46 31.98 31.59 30.84 31.39 31.25 31.12 30.46 30.91 30.99 31.80 29.47 27.03 26.88 25.81 24.63 23.19 24.28 24.04 25.09 23.77 22.75 22.38 22.57 23.22 23.75 20.92 18.86 18.05 17.74 17.15 16.56 16.09 15.54 13.74 20.02 20.76 22.89

GFSCGP_sfc_wetblb_102.txt.gz
Wetbulb
45.28 39.03 37.16 40.51 44.42 41.89 43.93 37.47 35.19 35.83 38.62 37.95 36.90 37.69 39.98 37.89 36.00 43.52 46.53 47.65 49.58 51.92 53.75 54.63 55.42 56.17 57.25 59.29 59.83 60.81 60.86 60.90 60.68 58.72 60.16 60.98 61.44 62.22 62.50 62.99 63.06 63.08 62.89 62.31
39.86 36.64 41.86 43.87 42.76 43.21 37.78 39.81 37.80 36.09 37.71 36.76 36.18 37.31 36.59 36.25 37.43 39.02 43.74 42.91 46.53 45.50 45.89 48.34 49.22 52.99 54.15 57.50 59.58 60.76 61.37 61.35 61.30 61.63 59.70 60.00 61.08 62.56 63.06 63.12 62.90 62.97 62.74 62.48
39.80 40.78 43.09 40.70 39.77 36.90 37.80 35.15 34.65 35.47 35.00 33.92 33.47 34.90 34.25 36.16 35.69 37.16 37.76 38.81 40.03 44.23 45.39 44.14 43.84 45.93 51.52 54.47 57.18 59.88 61.30 61.76 61.81 61.38 59.71 61.17 61.66 61.65 61.43 62.04 62.42 60.43 61.32 61.41
38.93 43.09 41.45 39.08 37.60 38.72 33.87 37.98 37.04 34.54 34.48 30.77 32.43 27.09 32.44 33.83 36.04 36.06 37.74 36.31 37.26 37.98 41.12 43.09 42.69 43.05 43.71 49.68 52.80 57.56 60.19 61.34 61.55 60.77 60.66 60.93 60.38 59.31 60.05 60.39 56.09 53.53 54.52 54.93
37.42 36.70 37.44 36.22 37.95 40.81 37.64 38.13 36.51 35.49 32.87 30.67 29.10 26.83 32.37 29.86 32.68 34.23 36.45 37.42 38.89 39.00 40.31 42.67 42.52 43.71 43.79 44.38 44.99 47.13 56.24 58.91 60.24 60.88 61.31 60.87 60.30 59.72 58.20 54.02 51.38 49.87 49.00 49.66
38.19 39.60 38.88 37.94 38.82 41.22 39.02 36.86 35.18 33.79 30.57 25.03 31.29 27.87 28.05 31.68 32.65 35.57 37.97 38.28 39.85 38.21 38.35 40.72 42.31 44.22 45.61 45.96 44.60 42.74 46.72 57.71 58.71 59.98 61.02 61.22 59.97 57.70 55.11 51.51 48.88 46.77 45.72 45.14
36.88 37.26 37.58 37.42 36.36 37.54 38.76 34.08 26.44 25.72 22.42 24.74 26.34 25.37 34.06 33.23 34.44 36.87 40.19 40.70 40.30 37.46 37.82 40.04 42.34 43.26 44.21 44.92 44.85 43.85 46.22 51.16 58.95 59.29 60.27 61.19 59.00 57.27 54.95 50.61 46.99 44.00 42.33 41.40
31.92 29.97 36.49 38.08 37.30 32.35 35.09 34.81 25.59 19.82 20.43 25.08 25.24 24.95 31.15 35.68 35.78 35.86 36.61 37.10 37.05 37.45 38.60 40.18 41.97 42.66 43.60 44.50 43.91 44.71 46.28 48.45 55.96 59.37 59.63 58.38 57.70 55.42 52.10 48.30 45.35 42.79 40.98 39.25
30.97 31.88 36.15 35.93 38.77 39.15 33.95 33.54 33.77 25.77 18.19 21.05 24.43 27.64 32.81 33.93 35.05 35.93 36.82 35.60 36.44 37.34 39.11 40.57 41.17 42.09 43.17 43.51 43.19 43.78 45.14 48.05 50.18 53.21 52.41 51.06 49.03 47.60 44.63 42.21 40.88 39.64 37.09 36.12
31.90 26.60 32.49 36.03 39.22 37.73 35.90 37.80 29.70 29.24 17.71 17.41 21.62 22.43 28.98 30.30 35.57 36.75 37.02 37.39 37.62 37.13 38.71 40.14 40.60 40.61 41.39 41.41 41.14 41.31 42.42 45.45 45.91 46.96 47.69 46.36 44.32 42.85 40.78 39.34 36.52 36.45 34.48 33.56
32.41 30.55 28.54 33.87 32.48 32.57 32.77 32.17 32.12 32.31 28.03 21.95 19.22 25.58 30.57 34.90 36.74 38.03 38.40 39.30 38.48 37.55 39.22 40.16 39.70 39.25 39.69 39.52 39.12 39.29 39.44 41.10 42.36 41.89 41.63 41.42 40.02 39.15 38.02 36.02 34.62 33.59 32.50 31.70
33.96 30.19 25.23 28.38 32.37 36.83 36.86 34.96 35.29 29.30 25.37 22.95 24.53 27.79 32.21 33.53 34.11 35.40 35.76 37.97 38.14 38.85 39.30 39.56 38.70 37.87 37.95 38.20 37.83 38.14 37.47 37.65 39.70 40.18 40.05 38.49 37.41 36.78 35.71 33.36 32.24 31.79 31.06 30.94
35.21 29.38 22.02 26.17 30.10 31.15 32.07 32.39 33.44 34.88 29.95 27.20 25.32 28.78 33.47 33.34 35.03 36.36 36.20 37.12 37.76 38.42 38.58 38.45 38.00 37.98 37.93 37.05 36.36 36.10 35.70 35.93 36.69 37.75 37.12 35.64 34.97 34.13 32.61 30.97 30.77 30.61 30.26 29.64
40.30 32.06 28.29 24.56 26.99 30.18 27.39 32.47 33.29 32.86 28.31 29.11 29.71 31.58 33.75 35.52 36.62 36.23 36.85 37.85 37.75 38.13 38.27 38.11 37.76 36.87 35.57 35.69 35.48 34.92 33.84 34.16 35.06 35.50 35.17 33.68 32.66 32.09 30.57 30.15 29.81 29.69 29.23 28.19
36.53 30.20 28.98 28.95 29.37 32.88 31.26 32.00 33.41 32.13 33.51 29.39 32.70 30.72 32.84 35.49 37.09 36.82 37.49 37.43 37.63 37.51 37.73 37.58 36.89 35.51 35.09 35.15 34.48 33.90 33.68 33.10 32.70 32.66 32.28 30.73 29.88 29.74 29.45 28.96 28.70 28.61 27.86 27.61
32.99 24.18 28.75 25.32 30.51 29.34 28.35 31.98 33.51 34.81 34.99 34.12 34.76 34.57 39.09 35.90 35.65 36.94 37.93 37.74 37.55 38.16 38.79 38.82 37.99 36.95 36.46 36.30 35.08 34.71 33.27 32.45 32.03 30.89 29.86 29.47 29.27 28.98 28.89 28.45 28.16 27.79 27.13 26.54
32.25 27.47 23.57 20.88 26.05 27.77 22.68 29.97 30.97 32.35 34.64 35.06 31.35 37.11 35.69 35.76 35.39 36.95 37.04 38.23 38.74 39.44 39.88 39.48 38.65 37.99 38.02 37.33 36.46 34.76 33.73 32.22 30.75 30.24 29.57 29.22 28.96 28.51 28.33 27.64 26.73 26.18 25.63 25.74
33.85 28.28 25.78 20.84 22.54 19.82 29.51 31.99 33.93 33.44 35.30 36.91 37.31 35.36 36.16 38.34 36.97 38.02 39.10 39.05 39.38 40.21 39.83 40.28 40.39 39.93 39.58 38.60 36.89 36.33 34.07 32.15 30.96 30.32 29.55 28.61 28.36 27.32 26.19 25.53 25.05 24.71 24.17 24.17
34.24 33.04 27.69 22.61 16.07 26.20 32.18 31.33 30.64 29.79 32.24 35.78 35.18 37.24 35.90 34.01 34.07 36.58 38.87 40.52 41.16 41.16 42.12 42.44 42.56 41.71 40.30 38.25 37.35 34.95 32.43 31.79 30.76 29.89 29.33 28.22 27.80 26.30 24.85 24.28 23.30 22.86 22.91 22.63
33.54 34.40 31.98 22.79 25.08 17.95 27.64 35.14 35.21 35.41 29.00 36.56 35.48 35.02 35.69 34.90 31.48 37.30 39.34 39.24 40.68 41.73 42.03 41.98 41.63 41.54 40.17 38.24 36.68 33.85 32.10 31.01 30.05 29.90 29.43 28.54 27.53 25.79 24.28 23.85 22.70 21.95 21.71 22.24
25.14 28.37 29.35 28.96 26.50 24.49 31.40 31.77 34.56 27.67 29.62 30.30 34.32 36.31 33.36 35.41 37.79 36.35 37.47 37.30 37.15 38.22 38.79 39.50 40.16 40.43 40.01 37.60 34.88 33.19 32.62 31.31 32.17 30.61 28.23 25.93 25.08 24.24 23.52 22.33 20.28 20.14 20.78 20.81
27.45 27.21 24.92 23.67 26.97 24.59 30.78 31.31 32.39 34.60 31.97 33.07 34.76 33.66 33.51 34.32 34.51 33.71 34.41 36.28 36.40 35.42 35.24 38.03 39.19 39.46 38.69 35.62 34.00 33.53 32.25 32.94 30.40 27.84 26.38 24.64 22.88 23.02 22.45 21.00 19.29 19.29 19.35 18.77
26.49 29.42 27.05 31.96 30.54 33.06 30.46 31.03 31.05 32.40 32.01 30.36 32.62 33.39 34.42 32.58 32.09 33.08 33.29 32.54 32.94 33.21 34.07 34.70 33.95 33.59 32.99 32.74 33.95 33.71 33.04 29.79 27.54 27.05 25.17 22.72 21.71 21.72 20.95 19.84 18.79 18.40 18.29 19.01
26.56 29.05 27.52 29.02 28.37 29.72 30.37 29.78 30.02 30.33 30.15 31.26 31.84 32.53 33.38 33.25 32.64 31.92 31.96 31.92 31.63 28.81 28.42 27.15 29.19 28.55 27.17 29.36 31.33 32.02 27.99 27.88 27.74 26.24 23.16 21.23 20.97 19.88 19.89 20.67 19.89 19.13 18.43 19.23
27.29 30.29 25.17 25.46 28.43 28.87 29.57 30.16 30.58 30.87 31.31 30.73 31.67 31.40 30.94 30.91 31.22 31.28 30.44 28.79 28.38 26.65 25.13 25.33 26.29 26.02 25.75 25.94 25.85 26.55 27.61 28.02 27.42 24.48 21.44 20.88 20.76 19.93 19.35 19.92 19.67 19.96 20.35 21.63
31.40 28.34 28.35 24.73 30.20 30.40 31.48 31.58 31.17 31.11 30.85 30.75 30.95 30.00 30.18 30.29 30.67 29.66 26.92 26.00 25.46 25.16 23.51 23.98 23.06 23.41 22.12 23.13 22.88 24.10 26.30 27.94 24.83 21.60 20.47 20.29 19.96 19.60 19.33 18.68 17.47 22.93 22.65 23.90

GFSCGP_sfc_wetblb_105.txt.gz
Wetbulb
44.14 41.96 41.35 42.96 45.17 44.42 43.21 40.66 39.79 37.06 39.43 37.51 36.74 37.81 42.20 39.90 43.10 46.83 48.89 50.63 51.44 52.62 56.03 55.84 56.84 58.68 60.06 60.79 61.11 61.50 61.29 61.48 61.22 60.90 60.67 61.28 61.29 62.24 62.82 63.22 62.98 62.78 62.43 61.85
39.67 38.35 43.63 45.59 45.83 41.47 43.11 40.67 38.47 39.00 37.88 37.65 36.47 36.91 40.69 38.41 38.67 41.67 46.87 48.66 50.99 51.40 51.26 54.46 55.31 56.14 57.84 60.04 60.77 61.23 61.60 61.74 61.51 62.05 61.69 62.89 62.52 62.86 63.15 63.29 63.39 63.45 63.08 62.78
38.06 40.11 43.21 43.87 42.35 42.38 39.15 41.21 39.79 39.55 35.63 36.80 34.98 35.59 37.12 37.89 37.47 37.97 40.14 46.05 48.16 51.15 51.99 50.61 51.09 54.05 56.42 57.29 59.42 60.77 61.65 62.09 62.26 62.34 61.35 61.53 62.03 62.05 62.03 62.25 62.50 61.17 62.59 62.49
41.92 43.56 40.51 40.22 39.88 42.61 37.57 40.78 37.42 35.75 35.26 33.60 34.64 28.15 34.96 36.81 37.36 36.48 38.69 37.81 42.56 45.72 46.75 50.08 49.72 48.38 51.85 55.82 57.66 60.07 61.28 61.95 62.27 62.44 61.90 61.97 61.50 60.36 60.77 61.05 57.74 55.90 57.06 57.74
38.66 38.41 38.65 37.28 38.75 40.90 38.63 41.04 38.09 35.86 33.28 29.14 28.90 29.59 33.59 33.83 33.98 36.73 37.83 38.57 39.72 41.07 43.21 45.79 47.68 49.00 48.36 49.64 53.79 57.06 59.49 61.34 62.09 62.09 62.49 61.94 61.75 62.21 58.83 55.76 53.18 51.43 51.16 51.83
38.28 40.31 41.24 39.31 39.47 42.64 39.60 38.39 36.91 35.74 32.98 27.41 30.06 30.80 29.06 36.80 35.90 37.15 38.71 40.09 41.11 40.77 39.72 40.13 42.50 44.35 45.93 46.20 46.84 49.31 56.16 59.46 61.09 61.41 62.13 61.67 61.30 58.59 55.33 53.33 51.38 49.17 47.88 47.04
37.11 36.94 39.23 37.59 34.87 38.94 39.16 35.62 28.38 26.84 25.11 24.31 26.40 28.17 35.29 35.83 36.33 39.18 40.89 41.35 41.73 41.32 39.07 39.20 41.07 42.66 45.16 46.38 46.19 44.76 46.75 56.03 59.68 60.58 61.33 61.49 60.85 58.76 56.51 53.81 50.59 46.26 44.46 43.44
32.92 31.01 36.74 38.04 35.97 33.79 36.27 35.84 28.86 22.27 22.10 23.16 25.12 26.13 31.62 36.64 39.90 37.37 37.89 38.88 38.52 38.87 38.50 39.23 41.29 42.99 44.58 45.73 46.22 45.24 44.70 47.24 57.48 59.43 60.37 61.26 60.16 59.12 56.53 53.04 49.15 46.59 44.24 41.82
33.55 33.48 37.12 37.54 39.39 38.44 33.30 31.61 34.22 27.89 16.39 20.35 24.79 28.40 34.40 34.52 35.72 35.87 37.62 37.44 38.30 38.87 38.82 40.31 40.44 42.26 44.24 45.06 45.51 45.34 45.19 46.50 50.84 58.15 59.39 59.94 58.84 56.50 52.65 49.11 47.02 43.41 41.20 39.03
33.57 27.62 34.14 36.90 38.99 38.04 34.91 38.78 30.70 30.67 21.12 16.63 22.64 23.64 29.39 31.45 35.85 37.43 37.00 38.18 40.29 38.91 38.06 39.07 40.48 41.89 43.03 43.84 44.25 44.16 44.84 46.21 48.32 54.00 54.93 54.61 53.88 51.81 47.92 44.80 41.69 39.67 38.25 37.05
33.34 30.52 27.68 33.06 33.45 32.76 33.84 32.82 34.17 33.12 27.43 21.49 17.56 25.29 30.66 34.95 36.58 36.75 38.18 38.03 38.85 39.25 38.75 39.44 40.55 40.99 42.18 42.23 41.82 42.19 43.03 44.36 46.24 47.86 47.51 45.93 44.46 44.73 43.66 42.30 39.47 37.70 36.54 35.68
33.57 29.87 25.23 29.69 31.47 36.91 35.22 33.42 34.30 30.25 26.09 25.90 24.18 25.29 34.09 33.71 34.55 35.53 36.69 36.71 38.59 39.26 39.46 39.79 40.27 40.42 40.12 40.57 39.90 40.31 41.03 42.25 44.33 43.54 44.33 43.48 41.61 40.61 39.26 37.85 36.36 35.56 34.37 34.07
34.11 28.55 21.09 27.79 30.61 31.10 32.89 33.07 35.45 33.90 31.51 28.29 26.46 30.37 33.72 32.83 33.85 36.23 37.22 38.08 38.65 38.83 39.22 39.17 39.07 39.46 39.60 39.69 39.19 39.08 39.02 39.70 40.84 41.08 40.80 39.67 38.61 38.39 37.24 35.62 34.30 33.91 32.90 32.42
39.37 30.88 27.99 24.96 27.54 31.04 29.22 32.24 34.39 34.56 29.91 28.71 29.82 33.50 33.09 35.71 36.54 35.71 37.28 38.50 38.94 38.74 38.91 38.76 38.61 38.83 38.37 38.08 37.88 37.66 37.05 37.02 38.08 38.94 38.51 37.47 36.55 36.34 35.15 33.75 32.97 32.55 31.92 31.06
35.51 26.07 27.50 28.13 29.29 31.12 31.20 31.72 31.47 32.04 33.72 30.08 33.25 32.92 36.61 38.72 39.52 40.85 37.39 38.33 38.08 38.13 38.54 38.60 38.55 37.73 37.05 37.42 37.72 37.02 36.43 35.64 36.37 36.86 36.42 35.34 33.54 33.49 32.70 31.93 31.82 30.93 30.37 30.04
32.73 24.05 27.95 24.47 28.95 29.90 28.53 32.42 33.69 33.39 33.97 33.73 33.66 31.86 36.22 35.87 36.30 36.02 38.60 37.57 38.38 38.75 39.06 39.29 39.00 37.90 37.31 37.53 37.25 36.09 34.79 33.84 35.17 34.97 34.17 32.43 32.06 31.43 31.53 30.80 30.28 29.63 29.01 28.90
31.90 27.45 22.87 16.11 25.40 26.46 21.42 29.31 31.51 33.38 35.38 34.50 30.13 35.82 36.52 35.37 36.69 39.28 40.22 37.39 38.97 39.76 39.59 39.23 39.52 39.25 39.38 38.68 37.87 35.92 34.69 33.42 32.77 33.05 31.66 31.31 30.98 30.48 30.23 29.64 28.58 27.91 27.53 27.70
32.88 26.32 22.72 17.09 20.27 17.05 29.95 30.97 34.41 33.60 35.26 37.34 37.63 37.84 36.15 38.72 38.63 36.89 38.02 38.26 38.48 39.36 39.38 40.03 40.61 40.60 40.62 39.63 37.56 36.97 34.67 32.98 31.88 31.25 30.62 30.25 30.24 29.54 28.30 27.72 27.30 26.60 26.64 26.43
32.23 29.82 21.76 20.24 12.88 24.86 29.99 29.68 29.53 29.20 31.33 35.48 34.21 37.36 37.14 34.97 33.15 36.60 37.16 38.76 40.62 39.91 41.37 41.81 41.86 41.40 40.24 38.79 37.91 35.70 33.32 32.75 31.72 30.73 30.15 29.43 29.24 28.19 27.06 26.49 25.78 25.56 25.65 25.38
31.99 33.60 27.60 12.21 15.87 17.21 26.56 32.76 33.96 34.69 29.26 35.96 35.33 35.06 34.54 33.23 30.86 37.54 37.00 38.08 38.93 39.19 40.28 40.50 40.42 40.16 39.35 38.36 37.18 34.39 33.06 31.88 31.02 30.96 30.53 29.77 29.14 28.35 27.27 26.74 25.22 25.05 25.67 24.99
20.69 22.93 27.37 15.82 20.77 22.15 30.33 31.29 34.09 25.37 28.75 30.03 33.78 34.77 32.83 32.79 35.79 35.12 36.56 36.74 35.79 36.12 37.00 38.24 39.12 39.77 39.68 37.75 35.42 34.35 33.39 32.01 33.29 31.70 30.07 28.63 28.02 27.78 27.41 25.61 24.30 23.74 23.93 23.70
25.55 23.51 19.39 16.09 13.93 22.58 31.25 30.62 32.42 33.85 32.08 32.52 33.61 33.28 32.40 33.14 33.09 33.09 33.84 34.02 34.46 33.96 34.34 36.15 37.20 37.69 37.53 35.17 34.65 34.05 32.97 33.30 31.17 29.98 28.85 27.93 27.63 26.41 25.41 24.28 22.80 23.00 22.94 21.88
25.59 28.48 26.20 29.71 27.95 32.72 30.56 30.57 30.54 32.04 32.00 30.91 31.47 32.00 32.81 33.12 32.30 32.81 32.96 32.41 32.48 32.05 31.82 31.49 31.67 33.40 33.75 32.66 34.29 33.50 32.43 30.73 29.17 28.87 28.25 27.29 25.90 25.21 24.82 23.62 21.92 21.64 21.92 21.53
26.26 29.88 28.70 29.52 28.20 29.17 29.93 29.55 29.74 30.00 31.01 31.39 31.90 31.61 32.13 31.87 31.34 30.78 31.33 30.82 30.71 28.90 27.80 26.97 28.08 27.71 27.13 27.39 29.13 29.86 29.90 29.31 29.68 29.43 27.41 25.40 24.92 23.43 23.39 23.56 22.58 22.40 21.46 21.66
28.36 29.86 25.09 24.71 28.15 28.85 29.04 29.80 31.11 31.29 31.07 30.89 31.13 30.79 30.28 30.73 30.33 30.55 29.39 27.96 27.58 26.26 25.65 25.36 26.27 25.58 25.49 25.03 25.27 26.25 28.02 29.24 29.32 28.68 25.18 24.38 24.71 23.03 22.10 22.44 22.26 22.44 23.60 24.56
30.36 28.23 28.06 26.07 30.52 31.03 30.51 30.47 31.26 30.65 29.75 30.07 30.28 29.15 29.02 29.52 29.64 28.59 26.18 25.37 24.90 24.98 23.47 24.58 23.96 23.52 22.21 22.59 22.44 23.79 26.98 29.14 28.18 24.58 23.06 23.84 22.65 22.16 21.58 21.12 20.90 25.42 24.48 26.57

GFSCGP_sfc_wetblb_108.txt.gz
Wetbulb
47.36 44.61 42.66 45.06 46.74 48.32 45.17 45.04 44.67 44.79 42.83 42.73 44.45 44.78 46.76 48.54 46.15 49.56 52.32 54.74 56.32 57.49 60.24 62.17 62.96 64.09 64.54 65.07 64.27 62.68 61.65 62.55 62.85 63.14 62.89 63.05 63.10 63.98 64.54 64.68 64.13 63.22 62.86 62.60
42.78 41.80 47.73 49.59 49.08 45.83 45.93 43.95 45.15 47.43 44.90 43.11 44.48 43.01 46.11 47.40 45.91 47.17 50.07 52.97 55.03 56.88 58.15 59.82 61.07 62.89 63.39 64.16 64.53 64.22 63.12 62.91 63.47 64.11 64.28 64.42 64.08 64.72 64.76 64.86 64.19 64.01 63.99 63.54
42.48 44.89 47.37 47.23 45.17 43.72 42.45 42.56 44.42 44.32 40.88 41.53 42.70 44.11 46.99 48.94 45.53 46.12 46.70 50.74 54.28 56.06 56.74 58.11 59.48 60.91 62.41 63.16 63.89 64.10 64.38 64.22 64.20 64.58 64.80 64.68 64.59 64.03 63.60 63.20 63.97 63.86 64.66 64.05
43.61 45.66 45.76 44.72 44.87 45.57 39.08 43.55 43.91 43.06 40.40 38.40 43.71 36.70 46.48 49.26 49.14 44.68 45.68 46.49 49.49 54.18 56.94 58.13 58.51 59.48 60.97 61.99 64.08 64.28 64.76 64.73 64.64 64.80 64.07 63.54 62.83 62.16 63.08 63.83 64.02 62.27 62.58 63.33
40.78 40.91 42.40 43.66 43.33 46.36 40.78 42.91 41.23 38.07 39.14 33.96 38.21 33.15 43.12 43.99 43.43 45.65 46.00 46.90 47.28 49.76 54.43 56.66 56.83 58.26 60.23 61.59 62.46 63.21 64.20 64.43 64.74 64.84 64.66 64.50 63.61 64.23 64.62 61.96 59.34 57.81 56.84 58.25
41.18 43.13 44.86 44.22 43.75 46.05 43.64 38.83 37.98 36.53 35.88 31.10 37.16 34.45 40.45 44.13 44.34 47.40 47.69 47.07 47.87 48.11 48.40 52.54 56.28 57.70 57.45 58.36 60.29 61.72 62.40 63.25 64.40 64.51 64.44 64.23 63.91 63.92 62.44 59.94 58.66 55.51 53.71 52.57
38.41 39.13 40.87 43.58 39.70 41.55 40.37 38.60 29.97 28.66 29.19 33.02 34.78 34.88 40.34 46.48 45.46 47.59 48.29 48.59 48.42 48.82 48.03 47.62 48.42 51.00 54.02 54.40 54.73 58.36 60.30 60.82 62.90 63.58 63.84 64.18 64.33 64.22 62.35 60.60 59.83 55.56 52.52 48.46
33.42 31.31 37.48 40.91 42.44 37.20 37.84 38.64 31.99 27.64 27.73 33.37 30.16 31.69 39.53 43.99 43.66 46.96 45.19 46.84 47.18 47.98 48.03 47.48 46.72 48.36 50.00 51.72 53.84 54.23 54.70 58.06 61.03 62.11 62.42 63.30 64.12 63.95 63.10 61.91 59.05 55.67 52.18 48.34
34.92 33.89 40.28 38.74 41.12 41.75 36.74 34.60 39.86 31.79 25.72 28.48 34.48 37.12 41.55 42.87 43.22 42.95 43.88 44.51 45.15 46.58 46.16 45.75 46.61 46.91 48.21 49.27 51.47 52.90 51.91 53.61 57.87 60.49 61.22 61.14 61.76 61.94 61.28 60.16 57.30 54.09 49.09 43.98
40.40 31.64 38.02 39.20 41.57 40.39 40.81 41.54 32.87 33.49 27.57 26.71 34.45 33.26 36.64 40.33 41.44 44.08 43.91 45.17 46.91 46.92 45.48 45.48 45.13 45.77 46.88 49.01 50.69 51.89 51.50 51.69 53.44 58.26 59.69 59.74 60.71 60.83 59.24 57.17 53.49 48.76 45.71 41.51
40.99 36.42 31.98 36.11 35.36 36.21 37.12 36.26 36.73 36.72 33.53 29.56 28.73 35.41 42.01 42.25 43.36 42.42 43.15 43.90 44.29 45.57 46.58 47.22 46.74 46.64 46.77 47.88 49.54 50.42 49.75 50.57 51.28 52.48 57.81 58.45 56.37 55.53 52.44 50.48 47.84 45.61 43.89 40.48
38.82 35.49 31.51 33.44 37.44 39.14 40.70 38.04 37.51 33.52 29.77 32.80 29.59 33.77 41.02 41.51 41.04 40.84 42.69 43.28 44.80 45.38 45.84 46.11 45.87 45.91 45.94 46.51 48.08 48.06 48.46 48.70 50.27 51.30 53.66 54.54 52.04 47.40 46.99 44.93 42.89 41.50 39.90 40.01
38.21 34.20 28.65 29.24 33.77 36.65 36.26 37.92 39.45 38.94 35.41 32.53 31.18 35.80 46.18 41.93 41.08 41.87 42.64 43.78 45.17 45.29 45.76 45.67 45.27 45.00 45.01 46.14 45.47 46.22 47.27 47.94 48.21 48.89 50.22 48.90 47.51 46.52 45.99 41.55 39.18 39.48 36.90 37.34
41.21 34.83 34.34 30.74 33.25 34.78 32.22 36.02 37.83 37.06 32.22 34.23 34.55 38.63 41.93 40.80 42.02 43.62 43.87 44.09 44.87 45.87 45.54 45.54 45.03 44.75 44.89 44.88 45.58 45.11 45.11 45.87 45.90 46.53 46.70 46.74 45.13 44.64 41.45 41.32 36.64 36.19 35.60 35.54
40.31 32.63 34.22 35.22 35.86 36.84 35.91 35.22 36.23 35.41 37.02 33.63 37.27 36.80 41.25 44.14 44.89 45.85 47.23 45.75 43.33 43.93 44.84 45.09 44.50 44.81 44.09 43.68 43.58 44.47 44.84 44.11 44.14 44.31 43.83 43.06 41.71 40.64 38.28 35.06 36.01 34.08 35.24 34.03
37.43 33.38 34.37 29.66 33.36 35.06 33.26 36.28 36.85 36.86 37.58 37.93 38.39 37.38 44.22 45.25 45.83 45.32 45.97 45.73 43.19 43.60 44.55 45.83 44.80 44.15 42.88 42.90 43.21 43.17 43.25 41.99 41.97 42.23 41.25 39.57 36.20 35.11 35.43 34.08 32.28 32.82 31.83 32.79
35.64 32.47 32.53 29.73 30.55 32.07 29.15 33.66 36.11 37.28 39.37 38.90 34.67 39.71 42.76 42.20 42.64 43.66 44.54 44.95 44.94 45.87 45.61 44.68 45.35 45.00 44.11 43.71 43.27 42.25 42.13 40.64 39.96 40.00 37.76 35.87 35.42 34.26 33.03 31.93 30.80 30.30 30.24 30.94
35.40 32.98 33.89 27.19 27.65 24.08 34.70 39.80 39.91 37.79 39.06 40.89 40.71 41.64 42.09 43.12 44.38 45.10 46.25 45.16 44.86 44.94 44.41 45.04 45.33 45.67 45.45 44.80 43.16 42.79 40.79 38.16 37.53 36.84 35.14 34.45 34.07 33.65 31.37 29.82 29.60 29.38 29.36 30.13
39.75 35.88 28.32 28.86 28.45 32.54 34.21 33.95 35.27 34.95 35.50 40.77 39.98 41.57 42.94 43.56 41.12 42.25 45.29 44.68 44.66 45.02 44.45 45.43 46.23 45.77 45.77 44.20 43.12 40.71 37.46 37.02 35.94 35.01 34.37 33.37 33.41 32.30 30.68 29.90 29.04 28.79 28.60 29.49
36.03 39.32 35.17 25.48 27.72 24.48 34.50 37.75 38.79 39.04 31.29 40.90 40.74 40.53 40.84 39.69 34.95 40.14 41.56 41.84 41.91 42.32 42.43 43.10 45.05 44.58 44.02 43.41 42.17 37.78 36.78 35.87 35.46 35.35 34.07 33.38 33.18 32.48 31.10 30.60 29.37 29.23 30.48 29.74
30.58 32.63 30.08 29.65 29.93 32.72 35.64 36.12 39.60 30.79 34.09 35.54 38.59 39.35 38.10 37.18 41.05 40.20 40.13 40.35 39.74 39.25 39.32 41.54 43.17 43.46 43.58 41.83 38.99 37.30 36.87 35.36 36.96 35.01 33.31 31.82 31.57 31.94 32.03 31.05 30.05 29.46 29.15 28.06
30.58 29.85 29.68 30.90 28.60 25.82 37.09 35.83 35.79 38.93 37.66 38.96 38.41 38.05 37.80 38.51 37.99 38.00 37.41 36.97 37.00 36.73 37.04 37.45 39.53 41.21 42.27 39.02 37.31 36.48 35.93 36.55 34.71 33.24 31.96 31.34 31.25 30.83 30.66 30.06 29.10 28.63 28.11 27.32
30.58 35.19 32.79 33.66 33.88 37.49 37.64 39.28 37.30 37.96 38.27 37.12 38.94 37.73 38.60 38.01 36.67 36.32 35.89 35.45 35.00 34.02 33.91 33.77 34.47 35.52 35.90 35.65 36.34 35.46 35.88 34.15 32.67 32.04 31.38 31.26 31.14 30.77 30.32 29.28 27.46 27.13 27.76 27.11
32.31 34.31 35.20 34.88 35.11 35.34 36.88 35.24 36.38 36.55 36.70 36.63 37.04 36.74 37.23 35.66 35.69 34.97 34.16 33.28 32.91 31.28 30.30 30.79 32.78 32.81 32.84 32.28 32.58 34.49 33.72 33.01 32.45 32.31 31.38 30.75 29.87 29.30 29.28 29.22 28.40 28.13 26.66 26.49
34.60 33.99 31.66 31.79 32.03 33.86 34.13 35.59 36.07 35.03 35.83 35.19 34.95 34.60 34.44 35.22 33.86 33.73 31.46 30.71 30.19 29.55 29.04 29.46 29.80 30.35 29.87 30.34 31.59 31.94 31.87 31.98 32.51 32.42 30.33 29.73 30.07 28.52 28.07 28.20 27.90 27.70 28.27 28.56
32.75 33.74 34.63 34.93 36.40 37.68 36.02 35.55 35.54 34.59 33.96 34.25 33.62 32.28 30.92 32.91 31.91 30.60 28.75 27.92 27.76 27.69 27.56 28.28 27.56 27.53 27.25 28.08 28.23 28.62 29.83 31.54 31.50 29.73 27.99 28.80 28.76 26.97 26.94 26.43 25.29 28.31 28.67 29.08

GFSCGP_sfc_wetblb_111.txt.gz
Wetbulb
49.53 45.27 43.40 46.70 47.88 49.30 47.57 43.74 45.67 48.50 49.25 45.48 46.85 48.18 51.01 52.90 50.25 49.68 51.19 53.52 55.80 57.22 60.37 61.83 63.09 64.52 64.77 65.26 64.42 61.71 61.07 61.68 62.57 62.78 62.31 62.45 62.26 63.55 65.03 66.04 65.57 64.52 63.72 63.17
45.12 42.91 48.28 49.84 49.28 48.09 46.83 45.67 45.44 48.84 44.71 44.02 47.10 46.74 48.91 50.61 51.84 50.39 50.53 51.51 53.75 56.41 58.05 60.35 61.99 63.67 64.11 64.57 64.78 63.55 61.56 61.77 62.40 62.93 63.27 63.81 64.11 64.55 65.05 66.07 65.44 64.71 64.01 63.57
43.03 45.35 49.78 48.30 47.10 45.23 45.63 44.85 45.98 45.91 45.81 46.69 46.28 45.25 48.20 51.64 51.08 51.07 50.33 50.91 52.57 54.45 56.43 58.37 60.20 62.26 64.08 64.32 64.94 64.77 63.57 62.27 62.61 63.06 63.93 64.72 64.70 64.75 64.51 64.78 64.60 64.28 64.51 64.63
43.90 48.29 47.43 47.29 45.99 46.87 41.73 46.03 46.64 44.52 42.77 39.95 45.72 38.25 47.24 51.02 51.59 51.30 50.66 50.19 50.61 52.93 56.04 57.84 59.25 60.58 62.54 63.80 65.53 65.76 65.62 64.57 63.64 63.91 63.97 63.52 63.07 62.00 63.68 64.28 64.55 64.48 64.98 64.59
42.83 43.38 44.74 44.04 45.34 48.15 42.54 47.03 44.97 40.74 40.29 38.88 42.20 38.50 43.94 48.54 48.33 50.70 52.80 51.67 51.08 52.32 55.03 56.80 58.59 59.78 61.63 63.60 64.28 65.43 65.61 65.22 65.20 64.89 64.77 64.24 62.93 64.04 64.73 64.36 63.88 64.03 64.00 64.13
42.50 45.16 47.32 46.96 48.28 48.34 45.22 40.42 39.61 40.07 39.07 34.09 40.51 40.09 40.54 44.98 47.54 49.29 51.39 52.93 53.53 51.83 53.00 55.90 58.68 60.22 60.80 62.22 63.22 64.33 64.26 64.49 65.46 65.43 65.24 64.52 63.89 63.80 63.82 63.56 62.79 61.59 60.21 58.67
40.01 41.57 42.77 46.14 40.85 43.26 41.95 41.21 32.56 31.69 31.94 31.81 38.46 38.80 41.52 47.52 50.02 50.05 48.80 51.65 52.90 52.93 52.10 53.25 55.80 58.25 59.32 60.37 61.83 62.42 63.30 63.24 64.81 65.26 64.30 64.49 64.60 64.80 64.11 63.68 62.06 60.46 58.55 55.96
34.24 31.27 38.63 45.34 42.02 37.94 39.19 40.14 34.12 29.13 29.96 34.49 34.05 34.73 41.13 47.96 47.98 45.42 50.08 48.98 49.50 51.04 52.81 52.64 52.85 55.87 57.90 59.08 60.22 61.19 61.19 61.93 63.15 64.18 64.49 64.75 64.63 64.71 64.46 63.62 62.35 61.18 58.87 57.74
35.22 34.57 40.97 42.13 44.27 43.39 38.16 36.26 42.30 34.71 29.25 31.91 37.12 40.17 44.53 46.64 46.51 47.45 47.05 47.93 48.57 48.11 49.54 50.81 51.81 52.06 52.35 54.69 57.27 58.15 58.87 60.28 61.71 62.80 63.62 64.04 64.51 64.43 63.78 63.16 62.95 62.19 59.33 54.74
41.27 32.64 38.40 38.65 44.15 42.23 42.61 43.52 34.78 36.11 30.04 28.07 35.59 38.04 39.50 42.44 44.89 47.25 46.95 47.07 48.55 49.36 49.21 48.63 48.69 49.46 50.87 51.36 52.77 54.50 56.58 57.04 58.59 60.95 62.35 62.56 62.83 62.85 63.21 62.26 61.18 59.68 55.44 48.89
43.94 38.31 34.09 37.75 37.90 37.44 38.36 37.14 39.47 40.07 37.35 31.31 30.61 36.72 44.18 45.34 45.48 45.25 44.55 44.60 45.85 46.90 47.90 48.45 49.30 49.78 49.62 50.16 50.93 51.95 53.06 54.15 55.24 57.09 60.05 61.00 60.39 60.69 61.41 59.65 57.51 55.12 49.93 46.60
42.77 38.05 30.52 33.77 38.25 41.80 42.53 39.51 39.75 35.11 31.53 35.41 34.68 35.44 43.63 44.17 44.30 44.25 44.33 45.29 46.72 47.68 48.34 48.61 48.97 49.03 48.94 48.96 49.52 50.02 51.73 52.42 53.13 54.27 56.27 59.21 58.62 56.00 56.59 53.72 50.34 47.82 46.09 45.01
41.16 36.40 28.96 29.24 35.16 39.08 37.50 41.07 41.67 41.10 37.35 34.57 32.71 36.61 47.79 45.07 43.09 44.22 44.87 45.58 46.71 47.26 48.36 48.86 49.33 49.11 48.80 48.76 48.95 49.13 50.03 50.72 51.85 52.21 52.70 55.16 55.36 50.62 50.57 47.97 45.50 43.25 41.97 41.14
42.44 38.17 35.30 30.83 34.46 37.31 33.86 37.70 39.70 39.37 34.25 35.18 35.97 39.57 43.93 44.26 44.31 44.93 45.56 47.01 47.79 48.09 48.27 48.75 48.24 49.20 49.13 48.51 48.40 48.44 48.65 49.77 50.02 50.21 50.47 51.24 51.33 50.81 49.88 46.95 43.32 41.16 41.07 38.22
42.19 34.50 38.10 38.58 39.43 38.78 37.38 36.68 38.25 36.77 38.63 35.38 38.53 39.27 42.75 45.63 46.74 47.91 49.00 48.90 48.26 48.27 48.64 47.80 47.93 49.13 49.24 48.01 47.31 47.76 48.32 48.20 48.18 47.84 48.28 48.87 48.56 48.08 46.22 43.40 40.72 39.22 39.08 38.43
41.26 35.30 36.25 31.03 37.69 38.27 35.76 38.57 38.83 38.44 39.47 39.35 40.17 39.54 45.84 46.85 47.69 46.28 46.95 47.34 47.10 47.51 47.49 47.51 47.67 48.21 47.42 47.35 46.70 46.69 46.89 46.91 46.84 46.29 46.36 46.94 43.98 40.60 38.90 36.72 35.60 35.60 34.56 34.38
37.58 33.87 34.14 28.99 34.41 33.66 30.26 35.16 38.30 39.16 40.70 40.56 36.72 41.70 44.50 43.90 44.84 45.54 46.20 46.78 46.65 47.38 47.84 47.87 47.54 47.43 47.75 47.35 46.76 45.97 46.25 46.27 44.02 43.20 41.24 38.89 37.94 36.62 36.71 35.39 33.91 32.72 32.61 31.73
36.93 34.69 33.62 26.65 31.39 24.10 36.35 40.04 41.92 39.93 41.18 42.64 42.64 43.90 44.94 45.49 46.71 47.28 48.13 46.91 46.41 46.91 46.62 46.93 47.21 47.57 48.48 48.09 47.12 46.65 45.69 43.40 40.76 40.14 38.01 36.29 35.84 34.66 32.74 31.84 31.61 31.40 30.81 31.03
41.57 38.10 30.60 28.01 28.95 34.36 34.21 36.58 38.63 37.77 37.77 43.36 42.46 44.01 45.14 45.97 45.98 45.12 47.58 47.81 46.44 45.50 44.26 44.84 46.22 46.91 47.43 47.26 46.56 44.64 41.22 39.75 38.82 38.27 36.85 35.55 35.33 33.99 32.14 31.14 29.96 29.93 30.00 30.20
40.11 41.04 35.45 31.21 28.32 25.53 36.21 39.42 43.60 42.83 31.44 43.36 43.72 43.26 43.80 44.50 38.48 41.81 42.68 42.73 42.55 42.92 42.34 42.05 43.94 45.54 45.50 45.85 44.80 39.92 38.66 37.98 37.70 37.58 36.59 35.49 34.57 33.48 32.42 32.31 31.19 30.98 30.75 30.52
31.86 33.59 31.66 32.05 31.90 35.39 38.00 39.42 42.50 30.92 35.75 39.79 43.60 44.25 43.53 41.18 43.45 41.76 42.11 41.31 40.84 40.02 39.77 40.48 42.57 43.57 43.54 42.33 39.03 37.67 37.65 36.71 37.76 36.32 34.91 33.41 33.15 32.88 33.35 33.02 31.18 31.04 30.38 29.37
31.75 31.19 31.01 33.04 30.47 26.81 39.48 38.15 35.86 41.31 40.20 39.79 41.28 40.89 41.89 42.77 40.20 40.28 39.41 38.47 38.18 37.52 37.39 38.06 40.34 40.50 40.37 38.26 37.44 36.97 36.66 37.10 35.13 33.88 32.46 32.05 32.09 32.18 32.49 32.30 31.24 30.54 30.12 29.14
32.28 36.56 34.08 34.70 34.87 39.89 40.29 41.09 42.56 43.15 41.44 41.32 41.93 41.11 41.49 39.87 39.41 39.60 37.97 37.32 36.16 34.92 34.55 34.43 35.00 35.41 34.29 34.02 35.06 34.99 35.09 33.96 32.32 31.76 31.37 31.97 31.97 31.91 31.98 31.52 30.11 29.06 29.34 28.67
35.00 38.06 37.65 35.82 37.49 38.58 39.14 37.90 39.20 40.13 40.46 40.71 41.29 40.67 40.87 38.49 38.34 36.95 36.07 34.97 34.50 32.34 31.26 31.68 32.27 31.57 30.57 31.73 32.21 32.36 32.98 32.40 31.79 31.89 31.39 31.34 30.81 30.80 30.97 31.01 30.36 30.24 29.11 28.69
36.80 36.20 34.88 34.31 33.88 36.42 38.49 38.81 38.50 38.01 38.74 37.81 38.01 37.81 38.26 37.77 36.85 35.82 32.51 31.63 31.25 30.52 30.34 30.22 29.69 29.48 28.79 30.08 29.97 30.11 30.58 30.95 31.73 31.90 30.38 31.04 31.29 30.65 29.68 29.32 29.56 28.80 30.03 30.30
36.29 36.60 35.09 35.20 37.80 39.78 39.76 38.60 38.14 36.68 36.54 35.76 33.94 32.81 33.34 35.32 33.30 32.07 29.96 29.43 29.24 28.58 28.52 27.92 27.01 26.79 26.89 27.30 26.57 26.06 27.17 28.89 30.03 30.53 29.73 30.38 29.98 29.07 28.86 28.41 27.97 30.38 31.17 30.90

GFSCGP_sfc_wetblb_114.txt.gz
Wetbulb
48.90 44.03 41.00 43.91 46.43 48.23 46.24 43.88 43.25 46.43 47.26 44.25 43.52 44.72 47.58 49.51 45.82 45.47 46.26 47.57 50.83 55.56 57.08 58.82 59.92 61.19 61.21 59.97 58.35 58.43 59.76 61.03 62.48 60.89 59.64 58.87 58.82 59.09 59.89 61.32 62.12 62.20 60.90 60.70
44.81 41.48 45.79 48.04 48.21 46.21 46.15 43.98 43.15 45.48 44.12 41.75 42.70 43.47 46.71 48.77 49.46 49.09 46.54 47.08 48.21 51.77 54.70 58.12 58.84 59.94 61.08 61.33 61.19 58.34 58.43 59.60 60.68 61.28 61.02 59.37 59.17 59.61 60.29 62.34 62.17 61.94 61.22 60.90
40.85 43.17 47.92 47.28 45.48 44.16 44.99 43.66 42.67 43.36 43.45 44.34 41.33 40.33 44.17 48.40 48.79 48.44 48.57 47.70 48.64 49.43 52.46 55.16 58.10 59.34 60.73 61.26 61.80 61.26 58.58 59.10 59.51 60.42 60.58 60.19 60.64 60.78 60.82 61.22 61.62 62.04 61.67 61.28
43.16 46.24 45.41 44.76 43.58 44.79 41.12 45.80 44.87 43.91 41.98 38.20 40.77 32.67 41.22 45.59 47.92 48.76 47.85 45.46 45.91 47.37 50.97 54.03 57.35 58.31 60.28 61.25 62.31 62.63 61.22 59.12 59.79 60.28 60.09 60.07 60.15 59.66 61.11 61.61 62.15 62.08 61.96 61.38
41.01 42.50 43.96 42.62 44.03 46.90 42.74 46.32 43.96 41.56 39.80 38.62 39.45 34.94 38.18 43.95 43.44 46.43 49.51 48.05 47.44 47.08 48.88 52.13 54.83 57.95 60.08 61.42 62.10 62.78 62.74 60.98 59.68 60.21 60.28 60.71 60.80 61.63 61.67 61.68 61.30 61.75 61.41 61.33
42.47 44.83 45.95 45.74 47.70 47.04 44.36 41.47 40.14 38.60 39.15 32.96 37.70 36.86 36.37 40.66 43.67 45.49 48.14 49.52 49.55 48.76 47.56 50.59 53.19 55.75 58.16 60.15 61.42 62.03 62.36 62.48 61.97 60.25 60.15 60.96 61.16 60.84 61.02 61.06 60.81 61.01 60.14 59.65
40.38 41.77 42.50 45.25 43.01 43.08 42.67 40.08 31.52 31.67 31.33 30.73 35.92 35.44 38.79 44.03 45.83 45.65 45.52 45.58 46.96 49.71 48.00 47.75 50.86 53.17 55.86 57.59 59.91 61.22 61.67 61.92 62.85 62.26 61.40 61.31 61.83 61.33 61.05 61.23 61.29 59.63 58.11 56.79
34.76 32.02 39.23 45.39 43.17 39.36 41.00 39.79 30.73 25.12 26.58 28.66 29.81 30.06 37.67 46.58 46.05 43.72 44.14 45.72 44.14 43.35 46.89 47.26 48.49 51.44 54.16 56.08 57.66 59.18 60.17 61.18 62.09 62.55 62.43 62.53 62.34 62.46 62.22 62.16 61.99 60.64 59.01 57.58
34.25 33.87 40.72 44.26 43.76 43.05 38.62 36.95 39.70 30.95 23.45 26.56 30.64 34.82 40.98 43.51 43.02 41.91 42.17 42.87 43.55 42.82 43.95 42.51 46.15 48.02 51.81 54.05 55.27 56.88 57.72 59.13 60.20 61.55 62.33 62.34 62.43 62.34 62.28 62.33 61.90 61.59 59.43 56.08
38.92 31.75 38.21 37.87 43.74 42.02 40.99 42.21 34.51 34.08 22.88 22.45 29.27 31.35 34.38 37.66 41.21 43.10 42.64 42.74 42.49 43.02 42.72 42.90 43.75 44.32 45.26 46.75 50.54 53.98 55.64 56.81 57.95 58.54 60.81 61.67 62.19 62.42 62.53 61.92 61.08 60.91 59.14 53.23
41.36 36.20 33.99 37.96 38.08 36.31 37.87 37.26 38.51 37.77 34.23 26.71 24.50 29.40 36.41 40.80 42.28 42.01 39.91 41.15 41.35 42.59 42.77 43.05 43.52 44.00 44.08 44.39 44.57 46.09 49.21 51.50 53.11 55.42 57.88 58.16 59.19 59.77 59.10 60.87 59.89 58.85 52.38 49.84
40.29 35.93 29.95 33.38 38.05 42.28 41.32 39.20 38.90 33.59 30.10 31.79 30.01 29.71 39.33 39.28 39.60 40.90 40.60 42.05 42.40 43.27 42.96 43.47 43.92 44.10 43.90 43.90 44.10 44.42 45.38 46.87 48.52 50.04 52.00 54.28 56.07 55.41 56.59 57.50 55.35 51.16 49.09 47.48
39.78 33.90 28.32 29.61 33.24 35.78 37.68 39.65 40.91 37.76 33.58 29.01 26.68 30.12 41.06 38.99 39.49 40.28 40.36 41.16 42.29 41.99 42.45 43.45 43.27 43.18 43.34 43.16 43.35 44.01 44.67 45.55 47.43 48.26 48.54 50.40 52.90 54.43 54.80 52.31 49.56 47.76 46.24 45.43
42.42 35.91 32.17 28.55 32.76 35.11 33.70 37.12 39.18 37.54 29.74 30.52 32.88 34.61 35.11 37.56 38.97 39.27 40.24 41.52 41.96 42.81 44.40 43.59 42.71 42.79 43.33 43.43 43.33 43.30 44.07 45.26 46.30 46.88 46.87 46.84 48.05 49.55 49.93 47.85 45.59 44.16 43.13 41.45
40.37 30.70 34.74 35.32 37.47 36.98 36.15 36.92 38.16 36.83 37.78 33.61 36.06 36.34 39.55 40.56 40.36 42.33 42.94 44.08 42.71 43.37 43.89 43.19 42.60 42.26 43.16 43.21 42.96 43.34 43.72 44.49 45.28 45.14 45.10 45.22 44.89 45.76 45.05 42.63 42.70 40.58 39.81 40.27
39.29 30.84 32.95 26.70 35.13 36.60 33.78 37.00 37.92 38.39 38.58 37.86 36.23 36.08 42.17 41.60 41.75 42.22 42.40 43.21 42.34 42.50 43.10 42.73 42.87 42.34 43.04 43.02 42.64 43.07 42.87 43.26 43.56 43.16 42.85 43.98 42.57 39.95 37.33 35.90 35.39 36.17 35.32 36.15
37.09 32.76 31.25 23.33 29.11 30.58 25.11 33.82 36.39 37.44 39.52 39.04 34.27 39.07 40.18 39.67 41.50 41.44 42.06 42.40 42.31 42.84 42.64 42.84 42.07 42.13 42.49 42.81 43.37 41.74 42.13 42.41 41.33 39.23 37.95 37.54 36.15 35.34 34.84 33.63 34.07 33.76 33.04 32.41
35.71 32.49 31.74 25.93 28.87 20.37 31.27 39.82 39.83 37.98 39.21 40.56 40.69 40.14 41.66 41.56 42.68 42.80 42.35 40.58 42.01 42.63 41.56 40.64 40.86 41.26 41.94 43.13 43.09 42.52 41.94 39.86 37.09 35.93 35.61 34.34 33.79 32.98 32.20 31.63 31.96 32.07 31.67 31.66
39.18 34.65 28.32 26.12 25.74 29.28 31.94 33.36 36.85 35.16 35.64 41.31 40.31 41.62 41.39 42.15 39.78 40.08 41.94 40.37 39.79 39.58 40.03 40.23 40.80 41.57 41.92 41.87 41.99 39.77 36.70 35.79 35.20 34.96 34.43 33.71 33.44 30.74 31.03 31.82 31.38 31.14 30.60 30.28
38.49 38.21 32.21 29.78 20.44 20.51 30.80 36.12 40.68 39.28 27.91 40.81 41.62 41.35 41.51 41.18 36.18 36.82 38.48 39.43 39.06 38.80 38.56 38.03 38.92 41.12 40.78 40.34 38.99 35.81 35.08 34.42 33.98 34.26 34.19 33.27 32.66 31.31 29.97 30.00 30.70 30.30 30.82 30.82
31.23 32.21 28.64 26.98 20.90 26.77 33.91 35.16 40.52 25.86 28.48 36.66 41.41 41.82 39.72 38.15 39.69 37.78 38.47 37.26 37.37 36.53 36.13 36.68 38.85 38.84 38.10 36.45 34.88 34.32 34.02 33.81 34.24 33.31 31.90 29.95 29.38 28.42 28.81 28.35 27.30 28.17 30.04 29.69
30.14 28.87 28.74 24.45 18.66 21.60 35.23 35.79 33.00 35.51 33.83 34.99 37.78 39.10 39.51 37.45 36.75 36.29 36.14 35.09 34.74 33.63 33.44 34.40 35.57 33.95 33.78 32.27 33.41 32.90 32.16 32.71 30.28 28.95 28.24 27.00 25.45 28.10 28.30 27.35 26.25 29.32 30.25 30.12
27.60 32.83 30.45 31.80 28.35 34.88 38.05 36.28 38.01 37.71 36.10 36.38 36.73 36.80 37.47 35.77 35.16 34.91 34.11 33.47 31.98 31.40 30.73 30.78 29.93 29.24 29.31 28.64 29.87 29.78 29.24 29.34 27.26 25.91 23.89 23.89 25.14 26.71 27.51 26.64 24.39 28.17 30.13 29.24
30.86 35.24 29.73 30.16 31.54 32.89 34.94 34.25 36.27 37.21 36.81 38.05 37.45 37.01 36.68 35.09 34.53 33.28 32.65 31.84 29.37 28.00 27.08 25.89 26.10 25.30 25.45 25.69 26.74 25.31 26.35 25.79 24.96 23.40 23.45 23.96 23.70 24.14 24.56 26.36 25.86 25.17 25.52 25.79
30.97 33.30 29.29 28.12 29.01 32.10 32.41 33.97 34.96 35.06 35.86 35.19 35.01 35.74 35.11 34.42 32.78 31.58 29.24 27.94 27.72 26.92 25.86 24.70 24.42 24.03 23.44 23.33 22.76 22.68 24.61 24.76 26.28 24.30 22.82 22.97 23.50 22.12 22.39 23.66 23.05 24.14 24.15 25.70
32.87 31.68 31.39 28.05 33.26 34.84 36.19 34.52 35.01 33.28 32.77 31.40 32.09 31.05 31.57 31.74 30.35 28.95 26.88 26.53 25.67 24.29 23.26 22.72 21.24 20.86 19.43 18.16 18.07 18.98 20.86 22.26 22.11 24.16 23.05 22.21 22.07 20.95 21.68 21.24 21.44 29.33 30.94 31.57

GFSCGP_sfc_wetblb_117.txt.gz
Wetbulb
47.78 43.85 40.95 42.05 44.21 44.45 43.44 41.65 40.98 42.76 46.23 43.68 43.43 41.94 44.06 46.78 44.64 43.37 44.56 45.12 51.14 55.32 58.41 59.53 60.33 60.69 59.64 60.76 60.17 60.80 60.69 61.12 61.01 60.47 58.40 57.77 57.50 57.58 57.66 58.78 60.38 60.55 60.34 59.68
44.69 40.54 44.33 45.54 45.90 44.60 44.65 41.75 42.14 45.10 44.43 44.23 41.07 41.43 44.50 46.42 47.33 44.82 45.21 45.25 45.45 52.48 53.49 57.74 58.32 59.57 59.25 59.71 59.89 60.16 60.62 60.66 60.97 61.67 61.05 58.68 57.74 58.24 59.22 59.70 60.77 60.89 60.35 59.85
40.67 42.60 45.95 44.97 43.69 43.18 42.44 42.58 43.16 43.75 41.54 43.05 39.03 38.19 41.52 46.08 46.53 47.70 47.30 46.27 46.81 47.20 53.51 55.14 57.06 58.58 59.56 58.10 57.73 57.66 60.15 60.43 61.00 61.27 60.58 58.36 58.25 58.26 58.30 59.36 60.67 60.85 60.75 60.16
42.36 44.35 44.31 43.01 42.26 43.67 39.47 45.60 44.44 41.58 40.54 36.30 39.67 31.31 38.37 43.38 45.05 46.81 46.41 44.65 45.43 46.35 50.21 54.91 56.71 57.64 58.83 59.46 59.64 57.65 57.78 59.22 60.18 60.97 60.00 59.73 58.74 57.93 59.34 59.80 61.33 61.06 60.69 60.16
40.88 41.25 41.44 41.08 42.28 45.12 40.58 45.40 42.50 41.67 38.07 35.45 36.51 33.68 36.61 40.99 41.20 44.57 48.37 46.07 45.57 45.94 47.43 50.41 56.00 57.62 58.76 60.11 60.25 60.50 57.56 57.46 58.86 59.26 59.98 59.35 58.60 59.10 59.79 60.66 60.47 61.08 61.01 60.37
42.21 44.63 44.16 43.84 45.04 45.01 43.72 41.75 40.84 40.10 38.78 33.48 36.64 36.36 34.85 39.04 43.14 44.17 46.06 49.48 48.71 46.13 45.13 48.09 53.61 57.17 57.76 59.50 60.28 59.88 59.94 57.42 57.88 58.13 58.84 58.65 58.34 58.63 59.23 59.67 60.00 60.52 60.77 60.49
41.05 41.49 43.04 46.17 41.07 43.59 43.15 40.92 32.55 31.32 31.56 29.27 35.74 34.71 39.22 41.46 43.95 44.48 45.50 45.55 47.70 46.46 45.34 46.63 48.00 51.38 54.78 56.98 59.18 59.90 60.35 60.07 58.12 57.52 58.23 58.51 58.86 59.61 59.81 59.89 60.31 60.08 59.94 58.02
34.05 32.30 40.36 43.90 43.64 39.26 41.08 39.58 29.13 23.13 26.12 26.44 29.68 30.28 35.76 45.20 47.80 45.88 46.79 46.85 44.11 43.67 45.72 45.08 46.31 49.94 53.59 56.21 58.17 58.97 59.27 60.30 60.45 59.35 57.76 58.64 59.30 60.72 60.73 60.66 60.76 60.40 60.31 60.07
34.39 33.82 40.48 42.76 42.96 43.63 39.17 37.66 37.75 28.98 20.34 24.26 28.85 32.67 39.35 41.64 43.13 41.76 41.57 41.01 42.41 42.52 41.83 44.69 44.64 46.88 51.03 53.42 55.78 58.25 59.28 60.22 60.29 61.13 60.96 59.34 59.26 59.84 60.77 60.79 60.96 60.74 60.18 59.24
37.86 32.43 39.00 38.60 43.32 41.69 41.44 42.53 34.96 30.60 21.45 21.28 26.84 28.16 32.06 36.52 40.01 41.54 41.80 42.01 40.34 40.47 40.89 41.49 41.78 42.84 44.75 49.97 52.95 54.96 57.42 59.02 59.55 60.46 61.31 61.13 60.87 60.80 61.08 60.96 60.48 60.52 60.00 57.91
40.25 36.44 34.12 38.73 38.99 38.63 38.65 37.79 36.70 36.35 30.99 25.24 22.83 27.85 36.95 38.73 42.44 40.91 39.27 40.56 40.29 40.39 40.71 41.29 41.84 42.12 42.12 42.11 42.52 45.91 51.25 53.84 55.22 56.55 59.16 59.75 60.17 60.66 60.95 60.88 60.59 60.79 59.54 56.65
40.00 36.42 31.52 36.00 37.18 40.67 41.34 39.37 39.73 33.36 29.97 30.53 28.59 29.06 37.71 38.54 39.55 38.27 38.82 40.21 40.29 41.12 41.57 42.12 42.33 42.14 42.11 42.40 42.36 42.29 42.59 43.97 47.69 50.62 52.86 54.29 55.64 55.22 58.17 60.16 60.82 58.51 56.82 54.39
38.93 33.96 29.09 29.99 35.44 37.79 38.57 39.53 41.02 36.41 32.98 30.54 26.38 28.93 37.76 35.40 37.06 37.98 38.51 39.93 41.21 42.04 41.92 41.70 41.05 41.34 41.47 41.63 41.82 42.09 42.68 43.23 44.45 46.09 46.92 48.07 49.47 51.55 52.72 54.76 53.18 51.53 50.25 49.28
41.53 35.37 33.56 29.95 33.47 36.55 35.83 38.62 40.20 35.12 29.05 29.42 33.28 31.53 32.29 35.71 37.10 37.18 38.32 39.23 39.47 40.93 42.12 41.73 41.44 41.04 41.48 41.84 41.69 41.60 42.10 43.04 44.05 45.31 45.36 45.15 45.90 48.81 50.13 50.51 50.23 48.33 47.41 46.33
39.34 31.20 33.80 33.91 35.85 37.69 36.65 37.01 38.64 36.49 36.59 33.23 36.37 34.81 35.59 36.85 36.81 37.78 39.32 39.83 40.97 42.27 42.47 42.00 41.64 41.16 40.72 41.42 41.53 41.66 41.74 42.74 43.37 43.82 43.97 44.03 43.20 45.29 44.97 44.05 43.40 43.24 42.52 43.05
39.04 32.79 32.55 27.07 34.55 36.46 34.64 37.66 38.77 39.26 39.13 38.23 35.39 35.85 40.33 39.59 40.16 39.06 40.10 41.23 41.20 41.63 42.47 41.91 41.43 40.13 40.59 40.83 41.15 41.38 41.42 41.73 42.26 42.46 42.16 42.51 41.82 39.96 39.12 38.12 37.61 39.13 38.63 38.68
37.60 31.79 29.27 21.69 30.16 31.44 26.46 35.09 37.31 38.68 40.58 39.95 34.89 39.30 40.04 39.33 39.65 40.26 41.11 41.12 41.56 41.37 41.80 40.89 39.18 39.48 39.61 39.83 41.40 40.63 40.82 40.90 40.40 38.47 37.16 37.22 36.84 37.01 36.18 35.10 34.30 34.27 35.28 35.16
36.47 33.10 30.84 27.37 31.81 24.55 32.20 39.61 40.95 39.36 40.59 41.78 40.92 38.67 39.50 40.39 40.98 41.23 41.65 40.96 41.22 41.64 40.81 39.45 39.50 39.52 40.31 40.49 40.96 40.95 39.89 38.38 36.36 35.65 35.40 34.89 34.56 33.81 33.06 32.37 32.35 32.41 33.65 33.53
40.35 33.08 28.47 26.92 27.22 27.19 31.17 32.71 36.73 36.43 36.83 42.20 41.34 41.07 39.28 40.03 39.90 38.88 40.20 40.31 39.94 38.90 38.54 38.54 38.58 39.80 39.55 39.34 38.84 36.77 34.69 34.31 34.50 34.18 33.97 33.63 33.22 29.74 30.97 27.99 28.98 32.52 31.60 31.06
38.25 37.88 31.46 26.15 24.60 20.99 30.03 35.09 41.29 40.26 31.60 41.94 42.00 41.74 40.79 39.45 36.11 38.35 37.61 37.82 37.01 37.12 36.71 36.84 38.27 38.19 37.19 36.55 35.86 33.88 33.15 32.92 32.86 33.24 33.53 33.06 31.76 28.53 27.54 28.47 30.12 30.58 31.13 31.12
32.06 32.31 30.76 28.81 20.54 24.48 31.65 33.81 42.07 29.16 31.83 38.68 41.89 42.50 41.53 39.33 41.38 38.21 36.81 35.85 35.56 34.88 35.28 36.07 35.55 34.34 34.02 33.65 33.10 32.09 31.49 31.01 31.55 31.21 30.19 28.09 27.75 26.50 26.75 25.75 25.13 25.20 28.95 29.87
31.01 29.74 28.83 22.36 14.46 22.98 33.76 36.69 34.80 36.70 34.19 34.86 37.76 41.64 39.91 37.67 35.69 35.84 34.73 33.57 32.94 32.34 32.75 33.24 31.55 30.29 30.13 30.04 31.36 30.02 29.58 29.69 27.28 27.19 26.68 25.21 22.52 26.35 25.28 21.95 21.64 23.56 30.45 30.46
28.32 33.11 30.81 33.06 30.49 33.94 33.68 37.24 39.26 36.12 35.36 35.54 36.52 36.56 37.35 35.21 33.58 33.94 32.37 31.20 30.24 30.15 29.96 29.62 28.34 27.37 26.69 26.34 27.78 27.77 26.85 26.90 25.77 25.28 23.44 21.41 22.74 23.97 22.98 20.06 19.58 21.24 22.54 24.57
30.32 34.34 30.30 30.95 31.88 31.43 34.41 33.33 36.03 36.06 34.02 35.31 35.14 35.60 37.51 33.87 33.97 32.22 30.38 29.01 28.01 27.42 26.57 25.44 25.20 23.33 22.45 22.47 23.45 22.66 24.26 25.22 23.79 22.97 22.54 21.44 20.72 20.67 20.84 23.23 22.34 19.93 19.98 20.17
31.26 32.52 28.12 27.87 29.91 31.28 31.60 33.71 35.69 35.26 35.63 35.38 34.42 34.28 33.54 34.12 32.09 31.04 28.82 27.40 26.81 25.67 24.37 23.70 23.08 21.66 19.75 19.54 18.71 17.69 20.62 19.79 23.24 22.30 21.68 21.22 20.54 18.49 19.74 21.19 20.15 21.80 20.55 22.11
31.50 32.66 31.89 29.40 33.15 33.79 36.36 35.22 34.08 34.01 34.18 33.36 32.52 31.25 30.66 32.76 30.25 29.15 27.37 26.61 25.30 23.46 22.24 21.28 19.70 18.49 15.40 13.93 13.39 13.10 14.08 16.09 19.26 22.09 21.27 20.58 19.51 18.31 19.00 18.29 19.26 28.17 30.01 31.53

GFSCGP_sfc_wetblb_120.txt.gz
Wetbulb
49.09 44.15 41.76 44.31 44.89 42.42 41.11 38.62 38.92 40.48 44.68 41.71 40.37 41.74 43.09 45.95 43.66 42.69 42.57 43.01 50.49 54.46 57.42 58.43 58.94 59.91 58.93 59.36 59.74 60.19 60.42 61.40 61.00 59.63 56.80 56.25 56.47 55.54 56.24 57.61 59.07 58.96 59.19 58.94
44.45 41.14 44.03 44.85 44.44 43.10 41.10 39.79 38.44 42.24 42.68 43.45 41.48 40.96 43.65 45.15 45.63 45.64 45.75 44.10 43.98 52.22 54.81 57.58 58.09 59.02 59.21 59.24 59.33 59.74 60.04 60.71 60.80 61.35 59.54 57.44 56.58 56.41 57.71 58.04 58.96 59.72 59.22 59.24
40.72 41.70 45.05 44.62 43.13 41.71 41.18 39.68 39.61 40.72 38.69 42.63 40.21 38.74 39.94 44.25 45.34 46.74 47.20 47.87 45.48 47.48 52.62 55.91 57.17 58.01 59.54 59.02 58.94 59.65 60.19 60.24 60.79 61.25 60.03 57.39 56.70 56.18 56.06 56.54 57.92 59.20 59.77 59.65
42.21 45.76 43.51 42.44 41.49 42.85 38.17 43.11 42.97 41.24 37.52 36.23 41.66 35.92 37.17 41.69 45.37 46.24 47.63 46.96 46.98 45.53 49.84 54.56 56.55 56.94 58.70 58.88 59.87 59.74 60.30 60.45 60.45 60.69 60.50 59.59 58.45 57.33 57.99 58.24 58.47 58.97 59.45 59.64
40.57 41.30 41.51 40.35 41.52 44.26 38.92 44.64 42.35 39.66 37.57 37.61 35.58 34.95 36.02 39.56 40.00 43.51 45.73 47.34 47.00 48.06 46.74 52.09 54.68 57.48 58.97 59.94 58.84 58.67 58.93 60.05 60.19 60.01 60.15 59.82 59.21 59.33 57.76 57.36 56.88 58.57 59.17 59.45
43.15 43.87 44.24 42.92 44.73 45.69 43.38 40.81 39.39 37.89 38.62 33.84 36.21 35.98 36.16 38.07 41.10 43.11 44.98 46.88 49.12 47.65 44.90 48.25 54.10 56.68 57.96 59.35 58.94 57.89 55.61 57.88 59.27 59.55 59.73 58.73 58.47 58.40 56.36 56.78 57.61 58.53 59.81 59.46
41.90 40.94 42.52 44.81 40.70 42.64 42.14 39.89 30.37 31.26 31.46 29.16 34.52 33.75 39.25 40.32 42.96 43.84 45.08 45.53 46.50 47.27 46.27 44.56 47.42 52.64 55.43 55.85 57.77 58.47 57.62 55.22 56.72 57.73 58.64 59.03 58.61 58.47 57.46 57.86 58.56 58.37 58.63 59.07
35.44 32.32 40.29 43.45 41.69 39.28 40.66 39.69 29.28 23.06 25.06 27.58 32.12 30.54 35.74 43.44 47.57 45.23 45.08 45.34 45.08 44.47 44.79 44.45 44.51 48.10 53.87 55.89 57.32 58.47 58.73 58.45 55.65 56.46 56.89 58.50 58.63 58.46 58.39 58.83 59.01 59.30 59.34 59.80
35.87 35.51 42.62 41.82 41.92 43.14 39.55 37.69 37.55 28.96 18.91 24.28 28.57 32.08 37.82 41.14 40.64 42.83 43.79 43.45 43.04 42.48 41.60 42.70 44.08 44.23 49.49 52.89 56.18 57.95 58.39 59.21 58.82 56.38 56.68 56.63 57.48 57.72 58.05 58.56 59.52 59.65 60.01 59.90
39.96 33.37 39.53 40.68 42.57 41.36 41.88 42.94 33.68 30.04 20.57 19.87 26.31 27.22 32.04 35.97 40.61 41.22 40.15 40.08 40.02 40.77 39.78 40.66 40.99 42.10 44.90 49.88 52.41 54.36 56.77 58.52 59.39 59.45 58.94 57.06 56.66 57.48 58.20 59.05 58.87 59.50 60.00 58.27
41.08 37.01 34.93 39.00 39.78 38.77 38.25 38.67 36.35 36.06 30.10 24.65 21.08 26.83 35.53 39.18 43.02 41.16 40.58 40.82 40.76 39.83 39.88 40.66 40.64 40.40 40.36 41.19 45.44 50.17 52.18 53.52 54.87 55.90 58.47 58.83 58.67 57.65 57.58 57.95 59.06 59.40 59.28 57.29
42.22 38.04 32.67 36.47 37.52 40.61 41.25 40.14 39.91 33.97 28.86 28.75 27.38 27.56 37.02 38.47 38.36 40.78 39.02 39.62 39.43 39.93 40.08 40.64 40.63 40.74 40.81 41.18 41.30 41.15 41.54 44.52 49.53 52.02 53.70 54.23 54.57 54.58 56.34 58.32 59.33 59.07 59.37 57.12
41.05 35.58 31.56 32.44 35.84 38.11 39.24 39.85 41.41 38.01 32.47 31.18 25.47 29.44 36.48 34.85 36.25 37.81 38.25 38.49 39.05 39.52 40.08 40.65 40.65 41.11 40.96 40.96 41.05 41.11 41.33 41.63 42.08 43.31 45.71 47.85 49.56 50.93 53.13 55.36 56.32 55.86 55.80 54.69
42.42 36.60 35.24 31.72 34.62 37.78 36.09 38.39 40.21 38.68 33.60 32.76 32.85 32.07 32.96 34.30 34.92 36.45 37.77 38.59 39.02 40.13 40.92 39.92 39.96 40.19 40.34 40.44 40.56 40.56 40.80 41.35 42.21 43.03 43.50 43.61 44.04 45.52 47.59 48.98 49.49 49.60 49.30 49.95
41.73 32.18 36.42 35.06 36.28 38.38 37.65 37.91 38.64 37.27 37.73 33.01 36.37 34.48 37.34 35.74 35.81 37.68 39.13 38.50 38.15 39.37 40.21 41.31 40.71 40.27 40.26 40.46 40.77 40.55 40.50 41.16 41.60 42.12 42.30 42.56 41.90 43.42 44.43 43.79 43.96 42.24 42.15 43.47
42.65 32.02 35.26 30.40 35.72 37.79 35.54 38.43 39.15 39.10 39.04 37.96 37.66 36.20 42.47 40.63 36.27 35.58 37.61 37.58 38.13 40.20 40.96 40.84 40.03 39.87 40.30 39.72 40.01 40.04 40.33 40.27 40.72 40.98 40.91 41.08 40.34 39.53 39.46 38.92 38.36 38.28 37.77 37.65
39.41 35.94 31.91 30.08 31.46 34.37 31.08 36.14 37.92 38.86 40.96 39.91 35.57 40.16 38.82 36.48 37.83 38.54 37.70 38.50 40.10 40.54 40.25 39.91 39.57 38.85 38.89 39.29 40.03 39.87 39.66 39.20 39.05 37.48 36.54 36.64 36.81 36.98 36.08 35.12 35.23 34.94 35.04 36.09
39.00 35.74 34.79 29.61 31.91 25.44 33.92 40.86 41.58 39.79 40.95 42.59 42.22 41.83 41.99 40.31 40.78 40.33 40.00 40.20 39.78 40.08 39.59 38.70 38.29 38.58 39.14 39.25 39.07 38.54 37.68 36.48 35.09 34.56 34.49 34.31 34.55 33.69 33.31 32.96 32.85 32.46 32.80 35.07
41.19 35.97 30.33 27.64 29.20 28.06 31.15 32.48 38.11 36.98 37.40 42.76 42.11 40.92 40.61 40.04 38.33 38.72 39.71 40.54 40.60 39.67 38.41 38.05 38.39 38.75 37.56 37.03 36.54 34.78 33.33 33.23 33.42 33.26 33.45 33.54 33.18 29.47 30.79 27.71 28.19 33.37 32.46 31.61
40.94 39.83 32.97 26.21 27.58 24.98 33.38 34.14 41.92 41.36 32.77 42.83 43.59 43.45 37.63 38.44 36.29 39.06 38.52 37.74 37.23 37.05 36.58 36.65 36.48 36.27 35.48 34.49 34.32 32.61 31.79 31.62 31.39 31.70 31.90 31.96 30.55 26.77 25.93 26.97 26.85 30.69 31.27 31.07
33.77 32.98 30.28 31.18 28.71 27.68 32.83 34.57 42.71 31.76 33.83 42.40 43.65 44.12 42.23 39.50 42.99 39.24 36.96 35.31 35.23 34.85 35.09 34.11 33.55 32.46 32.28 32.46 31.96 30.95 30.31 29.84 30.05 29.85 28.79 27.52 27.25 25.32 25.13 23.88 23.71 27.64 30.60 30.39
30.78 30.07 28.93 29.14 26.60 26.85 33.51 38.74 35.14 39.59 36.86 34.86 42.43 44.29 43.08 44.27 36.02 36.81 35.65 33.99 34.03 33.63 32.50 31.45 30.39 28.92 28.73 30.61 31.02 29.62 28.95 28.43 26.26 26.54 25.75 24.20 21.47 25.68 23.73 21.06 19.88 19.99 24.74 30.19
27.53 35.78 31.42 32.46 33.10 33.47 39.26 38.90 42.05 36.26 36.74 34.41 37.32 41.58 44.87 43.39 34.45 34.33 32.75 32.03 31.99 31.53 30.62 30.22 28.40 26.95 26.02 25.35 27.94 28.60 26.91 25.12 24.36 23.55 20.25 18.88 20.68 21.99 20.48 19.23 17.74 19.02 17.20 19.02
32.42 34.38 32.02 32.31 33.01 32.39 35.38 34.28 36.47 34.59 35.25 34.78 34.69 36.73 40.42 37.38 34.59 31.79 31.15 30.22 29.98 28.46 27.43 25.81 24.83 23.11 21.49 20.57 22.88 22.71 25.44 24.39 22.37 22.08 20.69 19.59 20.96 20.05 18.49 22.30 21.81 18.61 16.36 16.53
31.74 33.58 29.40 28.82 30.27 31.50 32.31 34.79 36.07 35.32 33.94 33.40 32.68 33.08 35.91 35.23 33.07 31.60 29.74 28.55 28.14 26.46 24.70 23.83 23.29 21.61 18.93 18.68 17.52 16.81 19.94 20.07 22.88 21.43 20.63 19.77 19.09 16.71 18.10 19.75 19.36 21.43 19.95 21.70
28.21 27.15 32.80 30.43 32.49 34.47 35.74 36.78 35.41 34.61 33.78 32.51 31.62 30.87 31.06 34.55 31.48 30.47 28.34 27.55 26.20 23.73 22.26 20.80 18.89 17.80 14.60 13.81 13.25 11.98 12.78 17.55 19.99 20.53 19.72 17.67 17.95 16.05 17.25 16.80 18.45 28.82 29.91 31.51